<?xml version='1.0' encoding='UTF-8'?><gpx version="1.1" creator="JPX - https://github.com/jenetics/jpx" xmlns="http://www.topografix.com/GPX/1/1"><trk><trkseg><trkpt lat="45.21388039207874" lon="9.359713708717686"><ele>69.0</ele><time>2026-05-03T06:17:27.854Z</time></trkpt><trkpt lat="45.21394705388403" lon="9.359744518241454"><ele>69.0</ele><time>2026-05-03T06:17:40.854Z</time></trkpt><trkpt lat="45.21399733424122" lon="9.35980581173669"><ele>71.0</ele><time>2026-05-03T06:19:41.997Z</time></trkpt></trkseg><trkseg><trkpt lat="45.21387405781194" lon="9.359741438926488"><ele>69.33333333333333</ele><time>2026-05-03T06:41:27.27Z</time></trkpt><trkpt lat="45.21381217424303" lon="9.35967384579359"><ele>69.66666666666666</ele><time>2026-05-03T06:41:30.272Z</time></trkpt><trkpt lat="45.21388851975482" lon="9.359673946282323"><ele>70.0</ele><time>2026-05-03T06:41:57.882Z</time></trkpt><trkpt lat="45.210844089848514" lon="9.355610158903485"><ele>70.0</ele><time>2026-05-03T06:43:24.882Z</time></trkpt><trkpt lat="45.210752255065046" lon="9.355519456085851"><ele>70.0</ele><time>2026-05-03T06:43:26.882Z</time></trkpt><trkpt lat="45.21072143285731" lon="9.355436937438423"><ele>70.0</ele><time>2026-05-03T06:43:27.882Z</time></trkpt><trkpt lat="45.21069070834462" lon="9.355341606538241"><ele>70.0</ele><time>2026-05-03T06:43:28.882Z</time></trkpt><trkpt lat="45.21066466404881" lon="9.35522813919648"><ele>70.0</ele><time>2026-05-03T06:43:29.882Z</time></trkpt><trkpt lat="45.21064355486052" lon="9.355116093621879"><ele>70.0</ele><time>2026-05-03T06:43:30.882Z</time></trkpt><trkpt lat="45.21062015006389" lon="9.354990113308604"><ele>70.0</ele><time>2026-05-03T06:43:31.882Z</time></trkpt><trkpt lat="45.21060378061691" lon="9.354867648181337"><ele>70.0</ele><time>2026-05-03T06:43:32.882Z</time></trkpt><trkpt lat="45.21059304988669" lon="9.354742397187396"><ele>70.0</ele><time>2026-05-03T06:43:33.882Z</time></trkpt><trkpt lat="45.210577122972474" lon="9.354617134564272"><ele>70.0</ele><time>2026-05-03T06:43:34.882Z</time></trkpt><trkpt lat="45.210560533033174" lon="9.354485780607135"><ele>70.0</ele><time>2026-05-03T06:43:35.882Z</time></trkpt><trkpt lat="45.21054373919272" lon="9.354352245230885"><ele>70.0</ele><time>2026-05-03T06:43:36.882Z</time></trkpt><trkpt lat="45.21052461463473" lon="9.354213127050855"><ele>70.0</ele><time>2026-05-03T06:43:37.884Z</time></trkpt><trkpt lat="45.21050109045581" lon="9.354071688580355"><ele>70.0</ele><time>2026-05-03T06:43:38.883Z</time></trkpt><trkpt lat="45.21049293923502" lon="9.353930549815164"><ele>70.0</ele><time>2026-05-03T06:43:39.883Z</time></trkpt><trkpt lat="45.21046876648276" lon="9.353777369373557"><ele>70.0</ele><time>2026-05-03T06:43:40.883Z</time></trkpt><trkpt lat="45.21045246767412" lon="9.353621769305443"><ele>69.75</ele><time>2026-05-03T06:43:41.884Z</time></trkpt><trkpt lat="45.210428140856266" lon="9.353460789759463"><ele>69.5</ele><time>2026-05-03T06:43:42.884Z</time></trkpt><trkpt lat="45.21040721533936" lon="9.353293389314237"><ele>69.25</ele><time>2026-05-03T06:43:43.884Z</time></trkpt><trkpt lat="45.21039688122564" lon="9.353120539705575"><ele>69.0</ele><time>2026-05-03T06:43:44.884Z</time></trkpt><trkpt lat="45.21037537578544" lon="9.35294918627088"><ele>69.5</ele><time>2026-05-03T06:43:45.884Z</time></trkpt><trkpt lat="45.2103491772143" lon="9.352769483543176"><ele>70.0</ele><time>2026-05-03T06:43:46.883Z</time></trkpt><trkpt lat="45.21033411238665" lon="9.352584287492263"><ele>70.5</ele><time>2026-05-03T06:43:47.883Z</time></trkpt><trkpt lat="45.2103106122563" lon="9.35239230045416"><ele>71.0</ele><time>2026-05-03T06:43:48.883Z</time></trkpt><trkpt lat="45.21029226510622" lon="9.352202511491372"><ele>71.33333333333334</ele><time>2026-05-03T06:43:49.884Z</time></trkpt><trkpt lat="45.2102617412055" lon="9.351989250976313"><ele>71.66666666666667</ele><time>2026-05-03T06:43:50.884Z</time></trkpt><trkpt lat="45.21023564233357" lon="9.35176752831845"><ele>72.0</ele><time>2026-05-03T06:43:51.884Z</time></trkpt><trkpt lat="45.21020386743084" lon="9.35155556822148"><ele>72.33333333333333</ele><time>2026-05-03T06:43:52.884Z</time></trkpt><trkpt lat="45.21017619283921" lon="9.351343901472887"><ele>72.66666666666666</ele><time>2026-05-03T06:43:53.884Z</time></trkpt><trkpt lat="45.210152199281865" lon="9.351131485803345"><ele>73.0</ele><time>2026-05-03T06:43:54.884Z</time></trkpt><trkpt lat="45.21013430508136" lon="9.350914291901912"><ele>73.0</ele><time>2026-05-03T06:43:55.883Z</time></trkpt><trkpt lat="45.210082521913144" lon="9.350713027070782"><ele>73.0</ele><time>2026-05-03T06:43:56.883Z</time></trkpt><trkpt lat="45.210045608726496" lon="9.350513634172847"><ele>73.0</ele><time>2026-05-03T06:43:57.883Z</time></trkpt><trkpt lat="45.20999686117292" lon="9.350324140627054"><ele>73.0</ele><time>2026-05-03T06:43:58.883Z</time></trkpt><trkpt lat="45.20991649739962" lon="9.349942666794004"><ele>72.33333333333333</ele><time>2026-05-03T06:44:00.883Z</time></trkpt><trkpt lat="45.20986486474424" lon="9.349747525560591"><ele>71.66666666666667</ele><time>2026-05-03T06:44:01.883Z</time></trkpt><trkpt lat="45.20980625190418" lon="9.349550124298188"><ele>71.0</ele><time>2026-05-03T06:44:02.883Z</time></trkpt><trkpt lat="45.20974353080753" lon="9.349352211207664"><ele>71.0</ele><time>2026-05-03T06:44:03.883Z</time></trkpt><trkpt lat="45.20965584359077" lon="9.349156393672907"><ele>71.0</ele><time>2026-05-03T06:44:04.883Z</time></trkpt><trkpt lat="45.20957089967217" lon="9.348976155372558"><ele>71.0</ele><time>2026-05-03T06:44:05.883Z</time></trkpt><trkpt lat="45.20948480344686" lon="9.348807268580433"><ele>70.66666666666667</ele><time>2026-05-03T06:44:06.883Z</time></trkpt><trkpt lat="45.209379921711594" lon="9.34865295561416"><ele>70.33333333333333</ele><time>2026-05-03T06:44:07.883Z</time></trkpt><trkpt lat="45.20926355165137" lon="9.348486229460395"><ele>70.0</ele><time>2026-05-03T06:44:08.883Z</time></trkpt><trkpt lat="45.209148741856936" lon="9.348321951643571"><ele>70.0</ele><time>2026-05-03T06:44:09.883Z</time></trkpt><trkpt lat="45.20903850833442" lon="9.348153779579427"><ele>70.0</ele><time>2026-05-03T06:44:10.883Z</time></trkpt><trkpt lat="45.208938501869824" lon="9.347987974230076"><ele>70.0</ele><time>2026-05-03T06:44:11.883Z</time></trkpt><trkpt lat="45.208832542764604" lon="9.347821658056677"><ele>69.66666666666666</ele><time>2026-05-03T06:44:12.883Z</time></trkpt><trkpt lat="45.20872523287483" lon="9.34765565524645"><ele>69.33333333333333</ele><time>2026-05-03T06:44:13.883Z</time></trkpt><trkpt lat="45.20861580907183" lon="9.347489308650337"><ele>69.0</ele><time>2026-05-03T06:44:14.883Z</time></trkpt><trkpt lat="45.2085106918103" lon="9.347321149095299"><ele>68.66666666666667</ele><time>2026-05-03T06:44:15.883Z</time></trkpt><trkpt lat="45.20840176827051" lon="9.34715063504498"><ele>68.33333333333334</ele><time>2026-05-03T06:44:16.883Z</time></trkpt><trkpt lat="45.20829118250122" lon="9.346982969121324"><ele>68.0</ele><time>2026-05-03T06:44:17.883Z</time></trkpt><trkpt lat="45.20817996539008" lon="9.346813352478714"><ele>68.0</ele><time>2026-05-03T06:44:18.883Z</time></trkpt><trkpt lat="45.2080709709443" lon="9.346640665939391"><ele>68.0</ele><time>2026-05-03T06:44:19.883Z</time></trkpt><trkpt lat="45.20796181858024" lon="9.346470628145637"><ele>68.0</ele><time>2026-05-03T06:44:20.883Z</time></trkpt><trkpt lat="45.20785292236549" lon="9.34629250955611"><ele>68.33333333333334</ele><time>2026-05-03T06:44:21.883Z</time></trkpt><trkpt lat="45.20773369470009" lon="9.346127960279409"><ele>68.66666666666667</ele><time>2026-05-03T06:44:22.883Z</time></trkpt><trkpt lat="45.2076177012185" lon="9.345964697237577"><ele>69.0</ele><time>2026-05-03T06:44:23.883Z</time></trkpt><trkpt lat="45.20357733390083" lon="9.333863329437454"><ele>69.0</ele><time>2026-05-03T06:45:24.883Z</time></trkpt><trkpt lat="45.20350408435476" lon="9.333592962929231"><ele>69.0</ele><time>2026-05-03T06:45:25.883Z</time></trkpt><trkpt lat="45.20341003578678" lon="9.333516334389389"><ele>69.0</ele><time>2026-05-03T06:45:26.883Z</time></trkpt><trkpt lat="45.20335732937525" lon="9.333296036838501"><ele>69.0</ele><time>2026-05-03T06:45:27.883Z</time></trkpt><trkpt lat="45.20330425418468" lon="9.333075641461601"><ele>69.0</ele><time>2026-05-03T06:45:28.883Z</time></trkpt><trkpt lat="45.203251364701664" lon="9.332857243073468"><ele>69.0</ele><time>2026-05-03T06:45:29.883Z</time></trkpt><trkpt lat="45.203197287767374" lon="9.332645214968888"><ele>69.66666666666667</ele><time>2026-05-03T06:45:30.883Z</time></trkpt><trkpt lat="45.20314142955857" lon="9.332427112615008"><ele>70.33333333333334</ele><time>2026-05-03T06:45:31.883Z</time></trkpt><trkpt lat="45.20310140386345" lon="9.332201465300118"><ele>71.0</ele><time>2026-05-03T06:45:32.883Z</time></trkpt><trkpt lat="45.203052208814796" lon="9.332001063620456"><ele>71.0</ele><time>2026-05-03T06:45:33.883Z</time></trkpt><trkpt lat="45.20300688424536" lon="9.331814516649514"><ele>71.0</ele><time>2026-05-03T06:45:34.883Z</time></trkpt><trkpt lat="45.20296504674888" lon="9.33163950546119"><ele>71.0</ele><time>2026-05-03T06:45:35.883Z</time></trkpt><trkpt lat="45.20290734132338" lon="9.331478403075371"><ele>71.0</ele><time>2026-05-03T06:45:36.883Z</time></trkpt><trkpt lat="45.20286868475339" lon="9.331322303142159"><ele>71.0</ele><time>2026-05-03T06:45:37.883Z</time></trkpt><trkpt lat="45.20284139080591" lon="9.331174361328927"><ele>71.0</ele><time>2026-05-03T06:45:38.883Z</time></trkpt><trkpt lat="45.20286019461417" lon="9.331035461936581"><ele>71.0</ele><time>2026-05-03T06:45:39.883Z</time></trkpt><trkpt lat="45.202896432356496" lon="9.330895223825522"><ele>71.0</ele><time>2026-05-03T06:45:40.883Z</time></trkpt><trkpt lat="45.20290386246922" lon="9.330758454294736"><ele>71.0</ele><time>2026-05-03T06:45:41.883Z</time></trkpt><trkpt lat="45.20286937876218" lon="9.330614084044317"><ele>71.0</ele><time>2026-05-03T06:45:42.883Z</time></trkpt><trkpt lat="45.20279221561575" lon="9.33049877539509"><ele>71.0</ele><time>2026-05-03T06:45:43.883Z</time></trkpt><trkpt lat="45.20271400778448" lon="9.33038067203111"><ele>71.0</ele><time>2026-05-03T06:45:44.884Z</time></trkpt><trkpt lat="45.20262771369819" lon="9.330248590230475"><ele>71.0</ele><time>2026-05-03T06:45:45.884Z</time></trkpt><trkpt lat="45.2025604226338" lon="9.330076834399323"><ele>71.0</ele><time>2026-05-03T06:45:46.884Z</time></trkpt><trkpt lat="45.20251403837507" lon="9.329866847835312"><ele>71.0</ele><time>2026-05-03T06:45:47.884Z</time></trkpt><trkpt lat="45.20246210804115" lon="9.329644049371439"><ele>71.0</ele><time>2026-05-03T06:45:48.884Z</time></trkpt><trkpt lat="45.202425997653386" lon="9.32943244013507"><ele>70.66666666666667</ele><time>2026-05-03T06:45:49.884Z</time></trkpt><trkpt lat="45.202377183041236" lon="9.329231175669037"><ele>70.33333333333333</ele><time>2026-05-03T06:45:50.883Z</time></trkpt><trkpt lat="45.202326685137606" lon="9.329022971020892"><ele>70.0</ele><time>2026-05-03T06:45:51.883Z</time></trkpt><trkpt lat="45.20227660730672" lon="9.328817591513378"><ele>70.0</ele><time>2026-05-03T06:45:52.883Z</time></trkpt><trkpt lat="45.20222616389351" lon="9.328614805933286"><ele>70.0</ele><time>2026-05-03T06:45:53.883Z</time></trkpt><trkpt lat="45.202176132427816" lon="9.328413676400604"><ele>70.0</ele><time>2026-05-03T06:45:54.883Z</time></trkpt><trkpt lat="45.20212665667266" lon="9.328214780848493"><ele>70.33333333333333</ele><time>2026-05-03T06:45:55.883Z</time></trkpt><trkpt lat="45.20207691447962" lon="9.328011177678881"><ele>70.66666666666667</ele><time>2026-05-03T06:45:56.884Z</time></trkpt><trkpt lat="45.20202707913751" lon="9.327806880058903"><ele>71.0</ele><time>2026-05-03T06:45:57.884Z</time></trkpt><trkpt lat="45.20197811088172" lon="9.327602855221116"><ele>71.0</ele><time>2026-05-03T06:45:58.884Z</time></trkpt><trkpt lat="45.20192784101981" lon="9.327392068424073"><ele>71.0</ele><time>2026-05-03T06:45:59.884Z</time></trkpt><trkpt lat="45.201875838977244" lon="9.327182089190172"><ele>71.0</ele><time>2026-05-03T06:46:00.884Z</time></trkpt><trkpt lat="45.201823590259586" lon="9.3269720373398"><ele>71.0</ele><time>2026-05-03T06:46:01.884Z</time></trkpt><trkpt lat="45.20177118265164" lon="9.326763177997272"><ele>71.0</ele><time>2026-05-03T06:46:02.884Z</time></trkpt><trkpt lat="45.20171761360837" lon="9.326549689960318"><ele>71.0</ele><time>2026-05-03T06:46:03.884Z</time></trkpt><trkpt lat="45.20166345935594" lon="9.326333869700001"><ele>71.0</ele><time>2026-05-03T06:46:04.884Z</time></trkpt><trkpt lat="45.20160845379947" lon="9.326117856193632"><ele>71.0</ele><time>2026-05-03T06:46:05.884Z</time></trkpt><trkpt lat="45.201551769307684" lon="9.32590197589988"><ele>71.0</ele><time>2026-05-03T06:46:06.884Z</time></trkpt><trkpt lat="45.201474544203805" lon="9.325696095302204"><ele>71.33333333333334</ele><time>2026-05-03T06:46:07.884Z</time></trkpt><trkpt lat="45.20140575972179" lon="9.325484393221723"><ele>71.66666666666667</ele><time>2026-05-03T06:46:08.884Z</time></trkpt><trkpt lat="45.20135045603576" lon="9.32526612513492"><ele>72.0</ele><time>2026-05-03T06:46:09.884Z</time></trkpt><trkpt lat="45.20127846357503" lon="9.325062631208246"><ele>72.0</ele><time>2026-05-03T06:46:10.884Z</time></trkpt><trkpt lat="45.20120751012991" lon="9.32487359431675"><ele>72.0</ele><time>2026-05-03T06:46:11.884Z</time></trkpt><trkpt lat="45.20112516615475" lon="9.324665873209307"><ele>72.0</ele><time>2026-05-03T06:46:12.884Z</time></trkpt><trkpt lat="45.201034583860505" lon="9.32444385938009"><ele>71.66666666666667</ele><time>2026-05-03T06:46:13.884Z</time></trkpt><trkpt lat="45.20094801824919" lon="9.324242230414624"><ele>71.33333333333334</ele><time>2026-05-03T06:46:14.884Z</time></trkpt><trkpt lat="45.200856360224066" lon="9.32404178734875"><ele>71.0</ele><time>2026-05-03T06:46:15.884Z</time></trkpt><trkpt lat="45.20077139846503" lon="9.323866068693526"><ele>71.0</ele><time>2026-05-03T06:46:16.884Z</time></trkpt><trkpt lat="45.20068522869469" lon="9.323695026614947"><ele>71.0</ele><time>2026-05-03T06:46:17.884Z</time></trkpt><trkpt lat="45.200592676360756" lon="9.323520270111235"><ele>71.0</ele><time>2026-05-03T06:46:18.884Z</time></trkpt><trkpt lat="45.20050227032568" lon="9.323350870952869"><ele>71.0</ele><time>2026-05-03T06:46:19.884Z</time></trkpt><trkpt lat="45.20040681955384" lon="9.323175497814619"><ele>71.0</ele><time>2026-05-03T06:46:20.884Z</time></trkpt><trkpt lat="45.20031055323552" lon="9.322999575731039"><ele>71.0</ele><time>2026-05-03T06:46:21.884Z</time></trkpt><trkpt lat="45.20021729329879" lon="9.3228296417483"><ele>71.0</ele><time>2026-05-03T06:46:22.884Z</time></trkpt><trkpt lat="45.20012494649264" lon="9.322657392167159"><ele>71.0</ele><time>2026-05-03T06:46:23.884Z</time></trkpt><trkpt lat="45.19557957648808" lon="9.31521283862222"><ele>69.66666666666667</ele><time>2026-05-03T06:47:24.883Z</time></trkpt><trkpt lat="45.195452276201046" lon="9.31531219421616"><ele>68.33333333333333</ele><time>2026-05-03T06:47:25.883Z</time></trkpt><trkpt lat="45.19530490754002" lon="9.315408185058512"><ele>67.0</ele><time>2026-05-03T06:47:26.883Z</time></trkpt><trkpt lat="45.19517062166901" lon="9.31551756268625"><ele>67.33333333333333</ele><time>2026-05-03T06:47:27.883Z</time></trkpt><trkpt lat="45.195052903983544" lon="9.315640855985242"><ele>67.66666666666667</ele><time>2026-05-03T06:47:28.883Z</time></trkpt><trkpt lat="45.19494350527471" lon="9.315794299889866"><ele>68.0</ele><time>2026-05-03T06:47:29.883Z</time></trkpt><trkpt lat="45.194833559261" lon="9.315946601369399"><ele>68.0</ele><time>2026-05-03T06:47:30.883Z</time></trkpt><trkpt lat="45.19470177445752" lon="9.316059983444543"><ele>68.0</ele><time>2026-05-03T06:47:31.883Z</time></trkpt><trkpt lat="45.19456092230623" lon="9.316154359644598"><ele>68.0</ele><time>2026-05-03T06:47:32.883Z</time></trkpt><trkpt lat="45.19440942354732" lon="9.31619925966133"><ele>68.0</ele><time>2026-05-03T06:47:33.883Z</time></trkpt><trkpt lat="45.19424031008392" lon="9.316235467790753"><ele>68.0</ele><time>2026-05-03T06:47:34.883Z</time></trkpt><trkpt lat="45.19407115894922" lon="9.316285415009832"><ele>68.0</ele><time>2026-05-03T06:47:35.883Z</time></trkpt><trkpt lat="45.193904386735674" lon="9.316303603119993"><ele>68.0</ele><time>2026-05-03T06:47:36.883Z</time></trkpt><trkpt lat="45.19372709960939" lon="9.316340581689008"><ele>68.0</ele><time>2026-05-03T06:47:37.883Z</time></trkpt><trkpt lat="45.19355227574573" lon="9.316377785993241"><ele>68.0</ele><time>2026-05-03T06:47:38.883Z</time></trkpt><trkpt lat="45.19336378641052" lon="9.316432618677101"><ele>68.0</ele><time>2026-05-03T06:47:39.883Z</time></trkpt><trkpt lat="45.193180957582776" lon="9.316503572466463"><ele>68.0</ele><time>2026-05-03T06:47:40.883Z</time></trkpt><trkpt lat="45.192991334413165" lon="9.31657702286568"><ele>68.0</ele><time>2026-05-03T06:47:41.883Z</time></trkpt><trkpt lat="45.19280123967427" lon="9.316653076250578"><ele>68.33333333333334</ele><time>2026-05-03T06:47:42.883Z</time></trkpt><trkpt lat="45.19261542748244" lon="9.316716643733203"><ele>68.66666666666667</ele><time>2026-05-03T06:47:43.883Z</time></trkpt><trkpt lat="45.19242894240549" lon="9.316786958080618"><ele>69.0</ele><time>2026-05-03T06:47:44.883Z</time></trkpt><trkpt lat="45.19225096270336" lon="9.316852355691873"><ele>69.33333333333333</ele><time>2026-05-03T06:47:45.883Z</time></trkpt><trkpt lat="45.192073539295315" lon="9.316925687351278"><ele>69.66666666666666</ele><time>2026-05-03T06:47:46.883Z</time></trkpt><trkpt lat="45.191901273336676" lon="9.317007293952365"><ele>70.0</ele><time>2026-05-03T06:47:47.883Z</time></trkpt><trkpt lat="45.19173552466221" lon="9.317099319130998"><ele>70.0</ele><time>2026-05-03T06:47:48.883Z</time></trkpt><trkpt lat="45.19158570150125" lon="9.317224568589147"><ele>70.0</ele><time>2026-05-03T06:47:49.885Z</time></trkpt><trkpt lat="45.19143804612951" lon="9.317372810228393"><ele>70.0</ele><time>2026-05-03T06:47:50.883Z</time></trkpt><trkpt lat="45.19130875408205" lon="9.317534736278567"><ele>69.0</ele><time>2026-05-03T06:47:51.883Z</time></trkpt><trkpt lat="45.19118297345076" lon="9.317703760594098"><ele>68.0</ele><time>2026-05-03T06:47:52.884Z</time></trkpt><trkpt lat="45.19105414709879" lon="9.317873630717024"><ele>67.0</ele><time>2026-05-03T06:47:53.884Z</time></trkpt><trkpt lat="45.1909119904206" lon="9.31802859583122"><ele>66.33333333333333</ele><time>2026-05-03T06:47:54.884Z</time></trkpt><trkpt lat="45.190755852207005" lon="9.318166156824573"><ele>65.66666666666667</ele><time>2026-05-03T06:47:55.885Z</time></trkpt><trkpt lat="45.19059884081424" lon="9.318304315412975"><ele>65.0</ele><time>2026-05-03T06:47:56.884Z</time></trkpt><trkpt lat="45.190435576624154" lon="9.318430484827775"><ele>65.0</ele><time>2026-05-03T06:47:57.884Z</time></trkpt><trkpt lat="45.19025985754449" lon="9.318504512609255"><ele>65.0</ele><time>2026-05-03T06:47:58.883Z</time></trkpt><trkpt lat="45.19008469595027" lon="9.318563544194326"><ele>65.0</ele><time>2026-05-03T06:47:59.884Z</time></trkpt><trkpt lat="45.18990563118763" lon="9.318595636300588"><ele>65.0</ele><time>2026-05-03T06:48:00.884Z</time></trkpt><trkpt lat="45.189726855446686" lon="9.318607494846658"><ele>65.0</ele><time>2026-05-03T06:48:01.883Z</time></trkpt><trkpt lat="45.189546795847455" lon="9.318596674926331"><ele>65.0</ele><time>2026-05-03T06:48:02.884Z</time></trkpt><trkpt lat="45.189367917189124" lon="9.318563289089164"><ele>65.0</ele><time>2026-05-03T06:48:03.884Z</time></trkpt><trkpt lat="45.18918505730464" lon="9.318536987945826"><ele>65.0</ele><time>2026-05-03T06:48:04.884Z</time></trkpt><trkpt lat="45.189013553441576" lon="9.318438233830156"><ele>65.0</ele><time>2026-05-03T06:48:05.884Z</time></trkpt><trkpt lat="45.18883722107456" lon="9.318345748147223"><ele>66.66666666666667</ele><time>2026-05-03T06:48:06.884Z</time></trkpt><trkpt lat="45.18865817947056" lon="9.318275462219795"><ele>68.33333333333333</ele><time>2026-05-03T06:48:07.884Z</time></trkpt><trkpt lat="45.188487684544995" lon="9.318174630885473"><ele>70.0</ele><time>2026-05-03T06:48:08.884Z</time></trkpt><trkpt lat="45.18831628330591" lon="9.318090862813818"><ele>69.33333333333333</ele><time>2026-05-03T06:48:09.884Z</time></trkpt><trkpt lat="45.18814398644669" lon="9.318005082403094"><ele>68.66666666666667</ele><time>2026-05-03T06:48:10.884Z</time></trkpt><trkpt lat="45.18797036030573" lon="9.317921680831898"><ele>68.0</ele><time>2026-05-03T06:48:11.884Z</time></trkpt><trkpt lat="45.18780290421134" lon="9.317811873781931"><ele>68.0</ele><time>2026-05-03T06:48:12.884Z</time></trkpt><trkpt lat="45.18762253355741" lon="9.31774124195512"><ele>68.0</ele><time>2026-05-03T06:48:13.884Z</time></trkpt><trkpt lat="45.18744401837267" lon="9.31764792958307"><ele>68.0</ele><time>2026-05-03T06:48:14.884Z</time></trkpt><trkpt lat="45.18727201407286" lon="9.317534787417346"><ele>68.0</ele><time>2026-05-03T06:48:15.884Z</time></trkpt><trkpt lat="45.1870931311554" lon="9.317441423504532"><ele>68.0</ele><time>2026-05-03T06:48:16.884Z</time></trkpt><trkpt lat="45.18691917412035" lon="9.317348261549483"><ele>68.0</ele><time>2026-05-03T06:48:17.884Z</time></trkpt><trkpt lat="45.186747676594855" lon="9.31725178067529"><ele>68.0</ele><time>2026-05-03T06:48:18.884Z</time></trkpt><trkpt lat="45.18657817673292" lon="9.317151002029531"><ele>68.0</ele><time>2026-05-03T06:48:19.884Z</time></trkpt><trkpt lat="45.18640767756399" lon="9.317055195449468"><ele>68.0</ele><time>2026-05-03T06:48:20.884Z</time></trkpt><trkpt lat="45.18623832460492" lon="9.3169622823177"><ele>68.66666666666667</ele><time>2026-05-03T06:48:21.884Z</time></trkpt><trkpt lat="45.18606730931146" lon="9.31686946277033"><ele>69.33333333333333</ele><time>2026-05-03T06:48:22.884Z</time></trkpt><trkpt lat="45.18589545895252" lon="9.316780800518746"><ele>70.0</ele><time>2026-05-03T06:48:23.884Z</time></trkpt><trkpt lat="45.177575138551475" lon="9.314539405466155"><ele>70.8</ele><time>2026-05-03T06:49:24.883Z</time></trkpt><trkpt lat="45.177502049039376" lon="9.314487271573613"><ele>71.6</ele><time>2026-05-03T06:49:25.883Z</time></trkpt><trkpt lat="45.177408665725075" lon="9.314437057395144"><ele>72.4</ele><time>2026-05-03T06:49:26.883Z</time></trkpt><trkpt lat="45.17730988204696" lon="9.314367230039963"><ele>73.2</ele><time>2026-05-03T06:49:27.883Z</time></trkpt><trkpt lat="45.177208208012274" lon="9.314303626769837"><ele>74.0</ele><time>2026-05-03T06:49:28.883Z</time></trkpt><trkpt lat="45.177115863048925" lon="9.314244637623236"><ele>74.0</ele><time>2026-05-03T06:49:29.883Z</time></trkpt><trkpt lat="45.1770211400592" lon="9.314186816217836"><ele>74.0</ele><time>2026-05-03T06:49:30.883Z</time></trkpt><trkpt lat="45.17693577291767" lon="9.314142050815102"><ele>74.0</ele><time>2026-05-03T06:49:31.883Z</time></trkpt><trkpt lat="45.176848787791535" lon="9.314113193886623"><ele>74.0</ele><time>2026-05-03T06:49:32.883Z</time></trkpt><trkpt lat="45.176766320312645" lon="9.31414204230526"><ele>74.0</ele><time>2026-05-03T06:49:33.883Z</time></trkpt><trkpt lat="45.17670336978899" lon="9.314219622877298"><ele>74.0</ele><time>2026-05-03T06:49:34.883Z</time></trkpt><trkpt lat="45.176663338748746" lon="9.314333546234783"><ele>74.0</ele><time>2026-05-03T06:49:35.883Z</time></trkpt><trkpt lat="45.17663565068058" lon="9.314467376588693"><ele>74.0</ele><time>2026-05-03T06:49:36.883Z</time></trkpt><trkpt lat="45.176591467374756" lon="9.31461128703345"><ele>74.0</ele><time>2026-05-03T06:49:37.883Z</time></trkpt><trkpt lat="45.17656040851018" lon="9.314759362639943"><ele>74.0</ele><time>2026-05-03T06:49:38.883Z</time></trkpt><trkpt lat="45.17652783264277" lon="9.314922241973335"><ele>74.0</ele><time>2026-05-03T06:49:39.883Z</time></trkpt><trkpt lat="45.17649372815161" lon="9.31509568273245"><ele>74.0</ele><time>2026-05-03T06:49:40.883Z</time></trkpt><trkpt lat="45.176458125142204" lon="9.31528056401072"><ele>74.0</ele><time>2026-05-03T06:49:41.883Z</time></trkpt><trkpt lat="45.17642167532777" lon="9.315475433484965"><ele>74.0</ele><time>2026-05-03T06:49:42.883Z</time></trkpt><trkpt lat="45.17639922883114" lon="9.315677079569111"><ele>74.0</ele><time>2026-05-03T06:49:43.883Z</time></trkpt><trkpt lat="45.176345143248795" lon="9.315863512478643"><ele>74.0</ele><time>2026-05-03T06:49:44.883Z</time></trkpt><trkpt lat="45.1763085130305" lon="9.316046502979486"><ele>74.0</ele><time>2026-05-03T06:49:45.883Z</time></trkpt><trkpt lat="45.176269262229205" lon="9.316215596642587"><ele>74.0</ele><time>2026-05-03T06:49:46.883Z</time></trkpt><trkpt lat="45.17623924838679" lon="9.316372459380746"><ele>74.0</ele><time>2026-05-03T06:49:47.883Z</time></trkpt><trkpt lat="45.176225418256585" lon="9.316513111858477"><ele>74.0</ele><time>2026-05-03T06:49:48.883Z</time></trkpt><trkpt lat="45.17620076230647" lon="9.316637454733012"><ele>74.0</ele><time>2026-05-03T06:49:49.883Z</time></trkpt><trkpt lat="45.17617175384743" lon="9.316752604835212"><ele>74.0</ele><time>2026-05-03T06:49:50.883Z</time></trkpt><trkpt lat="45.17612084088635" lon="9.316819469097965"><ele>74.0</ele><time>2026-05-03T06:49:51.883Z</time></trkpt><trkpt lat="45.17598821495131" lon="9.316840818154715"><ele>74.0</ele><time>2026-05-03T06:49:53.883Z</time></trkpt><trkpt lat="45.17587858727876" lon="9.31683077128283"><ele>74.0</ele><time>2026-05-03T06:49:54.883Z</time></trkpt><trkpt lat="45.17578292790752" lon="9.31681433240426"><ele>74.0</ele><time>2026-05-03T06:49:55.884Z</time></trkpt><trkpt lat="45.17567453198276" lon="9.316795877962504"><ele>74.0</ele><time>2026-05-03T06:49:56.884Z</time></trkpt><trkpt lat="45.175556458983436" lon="9.316802436823826"><ele>74.0</ele><time>2026-05-03T06:49:57.884Z</time></trkpt><trkpt lat="45.17543543959608" lon="9.316793429924253"><ele>73.75</ele><time>2026-05-03T06:49:58.884Z</time></trkpt><trkpt lat="45.175309426095886" lon="9.316771346539785"><ele>73.5</ele><time>2026-05-03T06:49:59.884Z</time></trkpt><trkpt lat="45.17517644879033" lon="9.316758315897632"><ele>73.25</ele><time>2026-05-03T06:50:00.884Z</time></trkpt><trkpt lat="45.17503004045393" lon="9.316737489754662"><ele>73.0</ele><time>2026-05-03T06:50:01.885Z</time></trkpt><trkpt lat="45.17488022767285" lon="9.316714502238813"><ele>72.66666666666666</ele><time>2026-05-03T06:50:02.884Z</time></trkpt><trkpt lat="45.17472074951323" lon="9.316691403069992"><ele>72.33333333333333</ele><time>2026-05-03T06:50:03.884Z</time></trkpt><trkpt lat="45.17456701209535" lon="9.31666729991484"><ele>72.0</ele><time>2026-05-03T06:50:04.884Z</time></trkpt><trkpt lat="45.174418777121076" lon="9.316646602513948"><ele>72.0</ele><time>2026-05-03T06:50:05.885Z</time></trkpt><trkpt lat="45.17426953654457" lon="9.316618686517938"><ele>72.0</ele><time>2026-05-03T06:50:06.885Z</time></trkpt><trkpt lat="45.174123436564464" lon="9.316608309210539"><ele>72.0</ele><time>2026-05-03T06:50:07.885Z</time></trkpt><trkpt lat="45.17396407370867" lon="9.316580637224625"><ele>72.0</ele><time>2026-05-03T06:50:08.884Z</time></trkpt><trkpt lat="45.17380345691977" lon="9.316556888530032"><ele>72.0</ele><time>2026-05-03T06:50:09.884Z</time></trkpt><trkpt lat="45.1736458076709" lon="9.316537677995944"><ele>72.0</ele><time>2026-05-03T06:50:10.884Z</time></trkpt><trkpt lat="45.173487261130376" lon="9.31651571533386"><ele>72.0</ele><time>2026-05-03T06:50:11.884Z</time></trkpt><trkpt lat="45.173333351572815" lon="9.316493444561688"><ele>72.0</ele><time>2026-05-03T06:50:12.884Z</time></trkpt><trkpt lat="45.17317968562355" lon="9.316466078805895"><ele>72.0</ele><time>2026-05-03T06:50:13.884Z</time></trkpt><trkpt lat="45.173026610705215" lon="9.316439667842472"><ele>72.0</ele><time>2026-05-03T06:50:14.884Z</time></trkpt><trkpt lat="45.17287007301169" lon="9.31641198591594"><ele>72.0</ele><time>2026-05-03T06:50:15.884Z</time></trkpt><trkpt lat="45.17271343381497" lon="9.316381333196777"><ele>72.0</ele><time>2026-05-03T06:50:16.884Z</time></trkpt><trkpt lat="45.17255301941543" lon="9.316358053347745"><ele>72.0</ele><time>2026-05-03T06:50:17.884Z</time></trkpt><trkpt lat="45.17239143422258" lon="9.316338740447039"><ele>72.0</ele><time>2026-05-03T06:50:18.884Z</time></trkpt><trkpt lat="45.17222981620656" lon="9.316317408026425"><ele>72.0</ele><time>2026-05-03T06:50:19.884Z</time></trkpt><trkpt lat="45.17206796956453" lon="9.31628860744293"><ele>72.0</ele><time>2026-05-03T06:50:20.884Z</time></trkpt><trkpt lat="45.171903247801644" lon="9.316260158239851"><ele>72.0</ele><time>2026-05-03T06:50:21.884Z</time></trkpt><trkpt lat="45.17173993509952" lon="9.3162322437713"><ele>72.0</ele><time>2026-05-03T06:50:22.884Z</time></trkpt><trkpt lat="45.171576373711424" lon="9.316204987082514"><ele>75.0</ele><time>2026-05-03T06:50:23.884Z</time></trkpt><trkpt lat="45.16308009443876" lon="9.314602456434073"><ele>75.0</ele><time>2026-05-03T06:51:24.884Z</time></trkpt><trkpt lat="45.16297656607351" lon="9.314584544861626"><ele>75.0</ele><time>2026-05-03T06:51:25.884Z</time></trkpt><trkpt lat="45.162873294315816" lon="9.314570153226343"><ele>75.0</ele><time>2026-05-03T06:51:26.884Z</time></trkpt><trkpt lat="45.162767315619234" lon="9.314564970682582"><ele>75.0</ele><time>2026-05-03T06:51:27.884Z</time></trkpt><trkpt lat="45.16266233524835" lon="9.314562882306902"><ele>75.0</ele><time>2026-05-03T06:51:28.884Z</time></trkpt><trkpt lat="45.16255979033806" lon="9.314540556171801"><ele>75.0</ele><time>2026-05-03T06:51:29.884Z</time></trkpt><trkpt lat="45.16245192975545" lon="9.314532000068407"><ele>75.0</ele><time>2026-05-03T06:51:30.884Z</time></trkpt><trkpt lat="45.16234564043749" lon="9.314529929428414"><ele>75.0</ele><time>2026-05-03T06:51:31.884Z</time></trkpt><trkpt lat="45.16225231623674" lon="9.314495990805257"><ele>75.0</ele><time>2026-05-03T06:51:32.884Z</time></trkpt><trkpt lat="45.16215262410791" lon="9.314485520890804"><ele>75.0</ele><time>2026-05-03T06:51:33.884Z</time></trkpt><trkpt lat="45.162049311400516" lon="9.314474049592837"><ele>75.2</ele><time>2026-05-03T06:51:34.884Z</time></trkpt><trkpt lat="45.16195087548638" lon="9.314449368530354"><ele>75.4</ele><time>2026-05-03T06:51:35.884Z</time></trkpt><trkpt lat="45.16185270402669" lon="9.314436906886115"><ele>75.6</ele><time>2026-05-03T06:51:36.884Z</time></trkpt><trkpt lat="45.16175559731901" lon="9.314420631326854"><ele>75.8</ele><time>2026-05-03T06:51:37.884Z</time></trkpt><trkpt lat="45.161670785263844" lon="9.314367616784713"><ele>76.0</ele><time>2026-05-03T06:51:38.884Z</time></trkpt><trkpt lat="45.1615809325629" lon="9.314348893894985"><ele>76.0</ele><time>2026-05-03T06:51:39.884Z</time></trkpt><trkpt lat="45.16148768284399" lon="9.314331609924833"><ele>76.0</ele><time>2026-05-03T06:51:40.884Z</time></trkpt><trkpt lat="45.1614011413215" lon="9.314304001185675"><ele>76.0</ele><time>2026-05-03T06:51:41.884Z</time></trkpt><trkpt lat="45.161316174104776" lon="9.314274884607947"><ele>76.0</ele><time>2026-05-03T06:51:42.884Z</time></trkpt><trkpt lat="45.161232183088046" lon="9.314269183442523"><ele>76.0</ele><time>2026-05-03T06:51:43.884Z</time></trkpt><trkpt lat="45.16115305602273" lon="9.314258458511938"><ele>76.0</ele><time>2026-05-03T06:51:44.884Z</time></trkpt><trkpt lat="45.1610838008927" lon="9.314252836793038"><ele>76.0</ele><time>2026-05-03T06:51:45.884Z</time></trkpt><trkpt lat="45.16100760512292" lon="9.314244646628744"><ele>76.0</ele><time>2026-05-03T06:51:46.884Z</time></trkpt><trkpt lat="45.16093507231633" lon="9.314238571770398"><ele>76.0</ele><time>2026-05-03T06:51:47.884Z</time></trkpt><trkpt lat="45.16086189028521" lon="9.314232788365295"><ele>76.0</ele><time>2026-05-03T06:51:48.884Z</time></trkpt><trkpt lat="45.16079014995301" lon="9.31422855951462"><ele>76.0</ele><time>2026-05-03T06:51:49.884Z</time></trkpt><trkpt lat="45.16072358194519" lon="9.314222608200616"><ele>76.0</ele><time>2026-05-03T06:51:50.884Z</time></trkpt><trkpt lat="45.160650581459024" lon="9.314208504232866"><ele>76.0</ele><time>2026-05-03T06:51:51.883Z</time></trkpt><trkpt lat="45.1605826666747" lon="9.314190065824775"><ele>75.83333333333333</ele><time>2026-05-03T06:51:52.883Z</time></trkpt><trkpt lat="45.16051610577805" lon="9.31416563060778"><ele>75.66666666666666</ele><time>2026-05-03T06:51:53.883Z</time></trkpt><trkpt lat="45.16044166123171" lon="9.314149253958265"><ele>75.5</ele><time>2026-05-03T06:51:54.883Z</time></trkpt><trkpt lat="45.16036934899195" lon="9.314123706898101"><ele>75.33333333333333</ele><time>2026-05-03T06:51:55.883Z</time></trkpt><trkpt lat="45.16029925770345" lon="9.314115791433819"><ele>75.16666666666667</ele><time>2026-05-03T06:51:56.883Z</time></trkpt><trkpt lat="45.16019512068512" lon="9.314107007435798"><ele>75.0</ele><time>2026-05-03T06:51:58.883Z</time></trkpt><trkpt lat="45.16013008829897" lon="9.31413712180333"><ele>75.0</ele><time>2026-05-03T06:52:00.883Z</time></trkpt><trkpt lat="45.16005039847116" lon="9.314089546643938"><ele>75.0</ele><time>2026-05-03T06:52:06.885Z</time></trkpt><trkpt lat="45.16000194162821" lon="9.314262598375292"><ele>75.0</ele><time>2026-05-03T06:52:07.885Z</time></trkpt><trkpt lat="45.15993439269772" lon="9.314244348811183"><ele>75.0</ele><time>2026-05-03T06:52:09.885Z</time></trkpt><trkpt lat="45.15985364025077" lon="9.314222469529707"><ele>75.0</ele><time>2026-05-03T06:52:12.885Z</time></trkpt><trkpt lat="45.159800089751776" lon="9.314175227889892"><ele>75.0</ele><time>2026-05-03T06:52:17.885Z</time></trkpt><trkpt lat="45.16002961178406" lon="9.314632970812672"><ele>75.0</ele><time>2026-05-03T07:11:34.931Z</time></trkpt><trkpt lat="45.16002548724166" lon="9.314729331182614"><ele>75.0</ele><time>2026-05-03T07:11:36.931Z</time></trkpt><trkpt lat="45.160077206401866" lon="9.314812528166609"><ele>75.0</ele><time>2026-05-03T07:11:38.931Z</time></trkpt><trkpt lat="45.160166213984496" lon="9.314809119466101"><ele>75.0</ele><time>2026-05-03T07:11:40.931Z</time></trkpt><trkpt lat="45.16021558941804" lon="9.314943842976742"><ele>75.0</ele><time>2026-05-03T07:11:42.931Z</time></trkpt><trkpt lat="45.160238303197396" lon="9.315031843261558"><ele>75.0</ele><time>2026-05-03T07:11:43.931Z</time></trkpt><trkpt lat="45.16024907626352" lon="9.315146947264088"><ele>75.0</ele><time>2026-05-03T07:11:44.931Z</time></trkpt><trkpt lat="45.160231482348465" lon="9.315286506150064"><ele>75.0</ele><time>2026-05-03T07:11:45.931Z</time></trkpt><trkpt lat="45.16022045242961" lon="9.315428322860251"><ele>75.0</ele><time>2026-05-03T07:11:46.931Z</time></trkpt><trkpt lat="45.16020648378474" lon="9.315571788913957"><ele>75.0</ele><time>2026-05-03T07:11:47.931Z</time></trkpt><trkpt lat="45.16018310299656" lon="9.315724718617666"><ele>75.0</ele><time>2026-05-03T07:11:48.931Z</time></trkpt><trkpt lat="45.16016132759994" lon="9.315851756040798"><ele>75.0</ele><time>2026-05-03T07:11:49.931Z</time></trkpt><trkpt lat="45.16014902149734" lon="9.315996040045116"><ele>75.0</ele><time>2026-05-03T07:11:50.931Z</time></trkpt><trkpt lat="45.160125193214505" lon="9.316132048994666"><ele>75.0</ele><time>2026-05-03T07:11:51.931Z</time></trkpt><trkpt lat="45.160115101602926" lon="9.316284280232066"><ele>75.0</ele><time>2026-05-03T07:11:52.931Z</time></trkpt><trkpt lat="45.16009646968085" lon="9.316433760818208"><ele>75.0</ele><time>2026-05-03T07:11:53.931Z</time></trkpt><trkpt lat="45.16008285464784" lon="9.316582991235983"><ele>74.6</ele><time>2026-05-03T07:11:54.931Z</time></trkpt><trkpt lat="45.16006746554974" lon="9.316740972029129"><ele>74.2</ele><time>2026-05-03T07:11:55.931Z</time></trkpt><trkpt lat="45.160049779832974" lon="9.316894698418515"><ele>73.8</ele><time>2026-05-03T07:11:56.931Z</time></trkpt><trkpt lat="45.16003740127383" lon="9.317055114279846"><ele>73.4</ele><time>2026-05-03T07:11:57.931Z</time></trkpt><trkpt lat="45.16001592766396" lon="9.317212540193848"><ele>73.0</ele><time>2026-05-03T07:11:58.931Z</time></trkpt><trkpt lat="45.159991366180144" lon="9.317371982124858"><ele>73.0</ele><time>2026-05-03T07:11:59.931Z</time></trkpt><trkpt lat="45.15996996574767" lon="9.317546523150371"><ele>73.0</ele><time>2026-05-03T07:12:00.931Z</time></trkpt><trkpt lat="45.1599488982556" lon="9.31773724872509"><ele>73.0</ele><time>2026-05-03T07:12:01.931Z</time></trkpt><trkpt lat="45.159923478612306" lon="9.317944463845835"><ele>73.0</ele><time>2026-05-03T07:12:02.931Z</time></trkpt><trkpt lat="45.15989532905706" lon="9.318149560384011"><ele>73.25</ele><time>2026-05-03T07:12:03.931Z</time></trkpt><trkpt lat="45.15987284205089" lon="9.318349905462284"><ele>73.5</ele><time>2026-05-03T07:12:04.931Z</time></trkpt><trkpt lat="45.15984909322053" lon="9.318543931322234"><ele>73.75</ele><time>2026-05-03T07:12:05.931Z</time></trkpt><trkpt lat="45.15981292772816" lon="9.318721977821381"><ele>74.0</ele><time>2026-05-03T07:12:06.931Z</time></trkpt><trkpt lat="45.15980429240777" lon="9.31888425466506"><ele>73.75</ele><time>2026-05-03T07:12:07.931Z</time></trkpt><trkpt lat="45.15978534903715" lon="9.319048346933563"><ele>73.5</ele><time>2026-05-03T07:12:08.931Z</time></trkpt><trkpt lat="45.159765658492034" lon="9.319202045314778"><ele>73.25</ele><time>2026-05-03T07:12:09.931Z</time></trkpt><trkpt lat="45.15973657172311" lon="9.31936025324858"><ele>73.0</ele><time>2026-05-03T07:12:10.931Z</time></trkpt><trkpt lat="45.15971762960731" lon="9.319523331663168"><ele>73.0</ele><time>2026-05-03T07:12:11.931Z</time></trkpt><trkpt lat="45.15969799485779" lon="9.319689845081777"><ele>73.0</ele><time>2026-05-03T07:12:12.931Z</time></trkpt><trkpt lat="45.15967663348796" lon="9.319859633592541"><ele>73.0</ele><time>2026-05-03T07:12:13.931Z</time></trkpt><trkpt lat="45.15965467493687" lon="9.320025378041526"><ele>73.0</ele><time>2026-05-03T07:12:14.931Z</time></trkpt><trkpt lat="45.15963540254295" lon="9.320186805884934"><ele>73.2</ele><time>2026-05-03T07:12:15.931Z</time></trkpt><trkpt lat="45.15961567036955" lon="9.320345025069264"><ele>73.4</ele><time>2026-05-03T07:12:16.931Z</time></trkpt><trkpt lat="45.159595011360224" lon="9.32049890996307"><ele>73.60000000000001</ele><time>2026-05-03T07:12:17.931Z</time></trkpt><trkpt lat="45.15957469671395" lon="9.3206411843723"><ele>73.8</ele><time>2026-05-03T07:12:18.931Z</time></trkpt><trkpt lat="45.15956059207088" lon="9.32075115153844"><ele>74.0</ele><time>2026-05-03T07:12:19.931Z</time></trkpt><trkpt lat="45.15954719582953" lon="9.320840753743704"><ele>74.5</ele><time>2026-05-03T07:12:20.931Z</time></trkpt><trkpt lat="45.15950725070969" lon="9.320930099384164"><ele>75.0</ele><time>2026-05-03T07:12:22.931Z</time></trkpt><trkpt lat="45.158327771768064" lon="9.332898991532975"><ele>72.0</ele><time>2026-05-03T07:13:27.932Z</time></trkpt><trkpt lat="45.15829487435662" lon="9.333260445831495"><ele>69.0</ele><time>2026-05-03T07:13:28.932Z</time></trkpt><trkpt lat="45.15826583590935" lon="9.333600806349564"><ele>69.5</ele><time>2026-05-03T07:13:29.932Z</time></trkpt><trkpt lat="45.1582345990315" lon="9.333919971900912"><ele>70.0</ele><time>2026-05-03T07:13:30.932Z</time></trkpt><trkpt lat="45.15820153616995" lon="9.334232254491535"><ele>70.5</ele><time>2026-05-03T07:13:31.932Z</time></trkpt><trkpt lat="45.15817225087068" lon="9.334550335571546"><ele>71.0</ele><time>2026-05-03T07:13:32.932Z</time></trkpt><trkpt lat="45.15814500417561" lon="9.334868940291823"><ele>71.0</ele><time>2026-05-03T07:13:33.932Z</time></trkpt><trkpt lat="45.15812054585744" lon="9.335183572718567"><ele>71.0</ele><time>2026-05-03T07:13:34.932Z</time></trkpt><trkpt lat="45.15808907843848" lon="9.335499244397546"><ele>71.0</ele><time>2026-05-03T07:13:35.932Z</time></trkpt><trkpt lat="45.158061340414676" lon="9.335818622023025"><ele>71.0</ele><time>2026-05-03T07:13:36.932Z</time></trkpt><trkpt lat="45.158033442777686" lon="9.336139985718255"><ele>71.0</ele><time>2026-05-03T07:13:37.932Z</time></trkpt><trkpt lat="45.15800724920139" lon="9.336458604127559"><ele>70.5</ele><time>2026-05-03T07:13:38.932Z</time></trkpt><trkpt lat="45.15797744186101" lon="9.336781472371282"><ele>70.0</ele><time>2026-05-03T07:13:39.932Z</time></trkpt><trkpt lat="45.15794629380599" lon="9.337097599492523"><ele>71.0</ele><time>2026-05-03T07:13:40.932Z</time></trkpt><trkpt lat="45.15791879044651" lon="9.337420401179529"><ele>72.0</ele><time>2026-05-03T07:13:41.932Z</time></trkpt><trkpt lat="45.15788967452903" lon="9.337745125853656"><ele>70.0</ele><time>2026-05-03T07:13:42.932Z</time></trkpt><trkpt lat="45.157858870459926" lon="9.338073975723214"><ele>68.0</ele><time>2026-05-03T07:13:43.932Z</time></trkpt><trkpt lat="45.157829553351405" lon="9.33840574199885"><ele>68.0</ele><time>2026-05-03T07:13:44.932Z</time></trkpt><trkpt lat="45.157800772326375" lon="9.338739336442147"><ele>68.0</ele><time>2026-05-03T07:13:45.932Z</time></trkpt><trkpt lat="45.15776980325665" lon="9.339077911314787"><ele>68.5</ele><time>2026-05-03T07:13:46.932Z</time></trkpt><trkpt lat="45.15773862567057" lon="9.339415701486502"><ele>69.0</ele><time>2026-05-03T07:13:47.932Z</time></trkpt><trkpt lat="45.15770745986055" lon="9.339753655291359"><ele>69.5</ele><time>2026-05-03T07:13:48.932Z</time></trkpt><trkpt lat="45.157682936049504" lon="9.340095613191547"><ele>70.0</ele><time>2026-05-03T07:13:49.932Z</time></trkpt><trkpt lat="45.1576527802288" lon="9.340434420309503"><ele>70.5</ele><time>2026-05-03T07:13:50.932Z</time></trkpt><trkpt lat="45.15762538835604" lon="9.340778495736563"><ele>71.0</ele><time>2026-05-03T07:13:51.932Z</time></trkpt><trkpt lat="45.15759528477571" lon="9.341121063940065"><ele>71.0</ele><time>2026-05-03T07:13:52.932Z</time></trkpt><trkpt lat="45.15756119782791" lon="9.341459268178705"><ele>71.0</ele><time>2026-05-03T07:13:53.932Z</time></trkpt><trkpt lat="45.15752904386863" lon="9.341804268400667"><ele>71.0</ele><time>2026-05-03T07:13:54.932Z</time></trkpt><trkpt lat="45.15749659573355" lon="9.342147735590983"><ele>71.0</ele><time>2026-05-03T07:13:55.932Z</time></trkpt><trkpt lat="45.15746819559396" lon="9.342496859204182"><ele>71.0</ele><time>2026-05-03T07:13:56.932Z</time></trkpt><trkpt lat="45.157434275544894" lon="9.342843301473266"><ele>71.0</ele><time>2026-05-03T07:13:57.932Z</time></trkpt><trkpt lat="45.157400826624645" lon="9.343191695863517"><ele>70.5</ele><time>2026-05-03T07:13:58.932Z</time></trkpt><trkpt lat="45.157360537272815" lon="9.343550366085042"><ele>70.0</ele><time>2026-05-03T07:13:59.932Z</time></trkpt><trkpt lat="45.157315914360076" lon="9.343901367369988"><ele>70.0</ele><time>2026-05-03T07:14:00.932Z</time></trkpt><trkpt lat="45.15728883018045" lon="9.344225685452573"><ele>70.0</ele><time>2026-05-03T07:14:01.932Z</time></trkpt><trkpt lat="45.15726095156081" lon="9.34453394876096"><ele>70.0</ele><time>2026-05-03T07:14:02.932Z</time></trkpt><trkpt lat="45.15723388363134" lon="9.344823863920045"><ele>70.0</ele><time>2026-05-03T07:14:03.932Z</time></trkpt><trkpt lat="45.15720570416841" lon="9.345093734174245"><ele>70.0</ele><time>2026-05-03T07:14:04.932Z</time></trkpt><trkpt lat="45.157172753140266" lon="9.345349899692208"><ele>70.0</ele><time>2026-05-03T07:14:05.932Z</time></trkpt><trkpt lat="45.15715636993109" lon="9.345593381424452"><ele>70.0</ele><time>2026-05-03T07:14:06.932Z</time></trkpt><trkpt lat="45.157128219644434" lon="9.345831743367068"><ele>70.0</ele><time>2026-05-03T07:14:07.932Z</time></trkpt><trkpt lat="45.157101946790725" lon="9.346045209517431"><ele>70.0</ele><time>2026-05-03T07:14:08.932Z</time></trkpt><trkpt lat="45.15707181432447" lon="9.346247512260208"><ele>70.25</ele><time>2026-05-03T07:14:09.932Z</time></trkpt><trkpt lat="45.15704192735344" lon="9.346431492361978"><ele>70.5</ele><time>2026-05-03T07:14:10.932Z</time></trkpt><trkpt lat="45.15699942960829" lon="9.346608688425482"><ele>70.75</ele><time>2026-05-03T07:14:11.932Z</time></trkpt><trkpt lat="45.15692985615172" lon="9.346771347560027"><ele>71.0</ele><time>2026-05-03T07:14:12.932Z</time></trkpt><trkpt lat="45.156836721346686" lon="9.346919354103852"><ele>71.0</ele><time>2026-05-03T07:14:13.932Z</time></trkpt><trkpt lat="45.15672235407461" lon="9.347050713428247"><ele>71.0</ele><time>2026-05-03T07:14:14.932Z</time></trkpt><trkpt lat="45.15659028046381" lon="9.347171323101303"><ele>71.0</ele><time>2026-05-03T07:14:15.932Z</time></trkpt><trkpt lat="45.156448198350326" lon="9.347314393765732"><ele>71.0</ele><time>2026-05-03T07:14:16.932Z</time></trkpt><trkpt lat="45.15630001635458" lon="9.347480447532071"><ele>71.0</ele><time>2026-05-03T07:14:17.932Z</time></trkpt><trkpt lat="45.15614176814731" lon="9.347652901364585"><ele>71.0</ele><time>2026-05-03T07:14:18.932Z</time></trkpt><trkpt lat="45.15598087359245" lon="9.347832292424426"><ele>71.0</ele><time>2026-05-03T07:14:19.932Z</time></trkpt><trkpt lat="45.15581221074929" lon="9.348022545753684"><ele>71.0</ele><time>2026-05-03T07:14:20.932Z</time></trkpt><trkpt lat="45.15564699984265" lon="9.348211217901259"><ele>71.0</ele><time>2026-05-03T07:14:21.932Z</time></trkpt><trkpt lat="45.155480205799805" lon="9.348392735395839"><ele>70.0</ele><time>2026-05-03T07:14:22.932Z</time></trkpt><trkpt lat="45.15531468979885" lon="9.34857699965044"><ele>69.0</ele><time>2026-05-03T07:14:23.932Z</time></trkpt><trkpt lat="45.14186855493466" lon="9.351619166708172"><ele>67.5</ele><time>2026-05-03T07:15:24.934Z</time></trkpt><trkpt lat="45.141637470412405" lon="9.351497298982792"><ele>66.0</ele><time>2026-05-03T07:15:25.934Z</time></trkpt><trkpt lat="45.14140574898254" lon="9.351380888728567"><ele>66.5</ele><time>2026-05-03T07:15:26.934Z</time></trkpt><trkpt lat="45.1411750760195" lon="9.351255883531357"><ele>67.0</ele><time>2026-05-03T07:15:27.934Z</time></trkpt><trkpt lat="45.14094473579919" lon="9.351141916269384"><ele>67.0</ele><time>2026-05-03T07:15:28.934Z</time></trkpt><trkpt lat="45.14071376502135" lon="9.351026023010796"><ele>67.0</ele><time>2026-05-03T07:15:29.934Z</time></trkpt><trkpt lat="45.14048772819033" lon="9.350909795332992"><ele>67.0</ele><time>2026-05-03T07:15:30.934Z</time></trkpt><trkpt lat="45.14026592286716" lon="9.350783976555967"><ele>67.0</ele><time>2026-05-03T07:15:31.934Z</time></trkpt><trkpt lat="45.14004428178361" lon="9.350650362437886"><ele>68.0</ele><time>2026-05-03T07:15:32.934Z</time></trkpt><trkpt lat="45.13981599238773" lon="9.350517398928153"><ele>69.0</ele><time>2026-05-03T07:15:33.934Z</time></trkpt><trkpt lat="45.139590888429865" lon="9.350390782396072"><ele>69.0</ele><time>2026-05-03T07:15:34.934Z</time></trkpt><trkpt lat="45.1393636472681" lon="9.350260922267424"><ele>69.0</ele><time>2026-05-03T07:15:35.934Z</time></trkpt><trkpt lat="45.13913849594463" lon="9.35012887379306"><ele>68.5</ele><time>2026-05-03T07:15:36.934Z</time></trkpt><trkpt lat="45.138910254111416" lon="9.349999334415385"><ele>68.0</ele><time>2026-05-03T07:15:37.934Z</time></trkpt><trkpt lat="45.138695743183256" lon="9.349849461558033"><ele>68.0</ele><time>2026-05-03T07:15:38.934Z</time></trkpt><trkpt lat="45.13847369808251" lon="9.34971904637398"><ele>68.0</ele><time>2026-05-03T07:15:39.934Z</time></trkpt><trkpt lat="45.138258492263276" lon="9.349592648150638"><ele>68.0</ele><time>2026-05-03T07:15:40.934Z</time></trkpt><trkpt lat="45.13804642795082" lon="9.349468643643563"><ele>68.0</ele><time>2026-05-03T07:15:41.934Z</time></trkpt><trkpt lat="45.13783105103141" lon="9.34934386417989"><ele>68.0</ele><time>2026-05-03T07:15:42.934Z</time></trkpt><trkpt lat="45.13761664420334" lon="9.34921926703847"><ele>68.0</ele><time>2026-05-03T07:15:43.934Z</time></trkpt><trkpt lat="45.13740021598044" lon="9.349112372888321"><ele>68.33333333333334</ele><time>2026-05-03T07:15:44.934Z</time></trkpt><trkpt lat="45.13719971359851" lon="9.348972776588536"><ele>68.66666666666667</ele><time>2026-05-03T07:15:45.934Z</time></trkpt><trkpt lat="45.136987977855895" lon="9.348887780965564"><ele>69.0</ele><time>2026-05-03T07:15:46.934Z</time></trkpt><trkpt lat="45.13678481772871" lon="9.34877844262057"><ele>69.33333333333333</ele><time>2026-05-03T07:15:47.934Z</time></trkpt><trkpt lat="45.136580614385686" lon="9.348690056009891"><ele>69.66666666666666</ele><time>2026-05-03T07:15:48.934Z</time></trkpt><trkpt lat="45.136358545335064" lon="9.348724590271665"><ele>70.0</ele><time>2026-05-03T07:15:49.934Z</time></trkpt><trkpt lat="45.13614676296673" lon="9.348761557441529"><ele>70.0</ele><time>2026-05-03T07:15:50.934Z</time></trkpt><trkpt lat="45.13594221067089" lon="9.348827007889389"><ele>70.0</ele><time>2026-05-03T07:15:51.934Z</time></trkpt><trkpt lat="45.135741354462006" lon="9.348933132435812"><ele>70.0</ele><time>2026-05-03T07:15:52.934Z</time></trkpt><trkpt lat="45.13554170418406" lon="9.34905770111131"><ele>69.66666666666666</ele><time>2026-05-03T07:15:53.934Z</time></trkpt><trkpt lat="45.13534267759833" lon="9.349185368485164"><ele>69.33333333333333</ele><time>2026-05-03T07:15:54.934Z</time></trkpt><trkpt lat="45.135133960070625" lon="9.349315945193325"><ele>69.0</ele><time>2026-05-03T07:15:55.934Z</time></trkpt><trkpt lat="45.13492631878766" lon="9.349446259376087"><ele>68.5</ele><time>2026-05-03T07:15:56.934Z</time></trkpt><trkpt lat="45.13471410501273" lon="9.349572091763726"><ele>68.0</ele><time>2026-05-03T07:15:57.934Z</time></trkpt><trkpt lat="45.134493516062825" lon="9.34970166828257"><ele>68.5</ele><time>2026-05-03T07:15:58.934Z</time></trkpt><trkpt lat="45.134271414204385" lon="9.349842285883073"><ele>69.0</ele><time>2026-05-03T07:15:59.934Z</time></trkpt><trkpt lat="45.134047928467275" lon="9.349981389936469"><ele>66.5</ele><time>2026-05-03T07:16:00.934Z</time></trkpt><trkpt lat="45.13381903144809" lon="9.350115971276303"><ele>64.0</ele><time>2026-05-03T07:16:01.934Z</time></trkpt><trkpt lat="45.13358793888993" lon="9.350257030959074"><ele>64.0</ele><time>2026-05-03T07:16:02.934Z</time></trkpt><trkpt lat="45.13335637862785" lon="9.350402618717974"><ele>64.0</ele><time>2026-05-03T07:16:03.934Z</time></trkpt><trkpt lat="45.13311969646662" lon="9.350552388373917"><ele>62.0</ele><time>2026-05-03T07:16:04.934Z</time></trkpt><trkpt lat="45.13287832728294" lon="9.350684433519204"><ele>60.0</ele><time>2026-05-03T07:16:05.934Z</time></trkpt><trkpt lat="45.132640141464954" lon="9.35083265122022"><ele>60.0</ele><time>2026-05-03T07:16:06.934Z</time></trkpt><trkpt lat="45.132401746468744" lon="9.350988769249643"><ele>60.0</ele><time>2026-05-03T07:16:07.934Z</time></trkpt><trkpt lat="45.13215948099843" lon="9.351140334165022"><ele>61.0</ele><time>2026-05-03T07:16:08.934Z</time></trkpt><trkpt lat="45.13192336339556" lon="9.351290690430739"><ele>62.0</ele><time>2026-05-03T07:16:09.934Z</time></trkpt><trkpt lat="45.131691277153486" lon="9.351427302861548"><ele>61.0</ele><time>2026-05-03T07:16:10.934Z</time></trkpt><trkpt lat="45.13145642281054" lon="9.351562760349614"><ele>60.0</ele><time>2026-05-03T07:16:11.934Z</time></trkpt><trkpt lat="45.131220764349685" lon="9.351697085011907"><ele>60.0</ele><time>2026-05-03T07:16:12.934Z</time></trkpt><trkpt lat="45.13098738461628" lon="9.351834030025591"><ele>60.0</ele><time>2026-05-03T07:16:13.934Z</time></trkpt><trkpt lat="45.1307540516354" lon="9.35197021679866"><ele>60.0</ele><time>2026-05-03T07:16:14.934Z</time></trkpt><trkpt lat="45.13052673445554" lon="9.352110392546793"><ele>60.0</ele><time>2026-05-03T07:16:15.934Z</time></trkpt><trkpt lat="45.13029785370711" lon="9.352249057520819"><ele>59.5</ele><time>2026-05-03T07:16:16.934Z</time></trkpt><trkpt lat="45.130067466855934" lon="9.352381811473304"><ele>59.0</ele><time>2026-05-03T07:16:17.934Z</time></trkpt><trkpt lat="45.129839073446455" lon="9.352516048240425"><ele>60.0</ele><time>2026-05-03T07:16:18.934Z</time></trkpt><trkpt lat="45.12961278753835" lon="9.352644115524656"><ele>61.0</ele><time>2026-05-03T07:16:19.934Z</time></trkpt><trkpt lat="45.12938726220897" lon="9.352770648955406"><ele>61.0</ele><time>2026-05-03T07:16:20.934Z</time></trkpt><trkpt lat="45.12916066344283" lon="9.352897262462584"><ele>61.0</ele><time>2026-05-03T07:16:21.934Z</time></trkpt><trkpt lat="45.12893260328774" lon="9.35301788572024"><ele>59.5</ele><time>2026-05-03T07:16:22.934Z</time></trkpt><trkpt lat="45.12870247564441" lon="9.353137149973913"><ele>58.0</ele><time>2026-05-03T07:16:23.934Z</time></trkpt><trkpt lat="45.11638101935005" lon="9.352086723516159"><ele>58.0</ele><time>2026-05-03T07:17:24.935Z</time></trkpt><trkpt lat="45.116338970685945" lon="9.351974898136357"><ele>58.0</ele><time>2026-05-03T07:17:27.936Z</time></trkpt><trkpt lat="45.11629598489696" lon="9.351899682598864"><ele>58.0</ele><time>2026-05-03T07:17:32.936Z</time></trkpt><trkpt lat="45.11028213346122" lon="9.349943656104605"><ele>57.33333333333333</ele><time>2026-05-03T07:21:24.937Z</time></trkpt><trkpt lat="45.110137014296576" lon="9.349876218286653"><ele>56.66666666666667</ele><time>2026-05-03T07:21:25.939Z</time></trkpt><trkpt lat="45.109994795585216" lon="9.349807160240738"><ele>56.0</ele><time>2026-05-03T07:21:26.938Z</time></trkpt><trkpt lat="45.10985234715413" lon="9.349739723255693"><ele>56.25</ele><time>2026-05-03T07:21:27.938Z</time></trkpt><trkpt lat="45.10971130371126" lon="9.349671984042374"><ele>56.5</ele><time>2026-05-03T07:21:28.938Z</time></trkpt><trkpt lat="45.10957566936934" lon="9.349605100494598"><ele>56.75</ele><time>2026-05-03T07:21:29.939Z</time></trkpt><trkpt lat="45.10945225077791" lon="9.349550994506485"><ele>57.0</ele><time>2026-05-03T07:21:30.939Z</time></trkpt><trkpt lat="45.109324166194014" lon="9.349487617482653"><ele>57.0</ele><time>2026-05-03T07:21:31.939Z</time></trkpt><trkpt lat="45.10919514373448" lon="9.349425292819141"><ele>57.0</ele><time>2026-05-03T07:21:32.939Z</time></trkpt><trkpt lat="45.10906670984125" lon="9.349362536788721"><ele>57.0</ele><time>2026-05-03T07:21:33.939Z</time></trkpt><trkpt lat="45.1089349843891" lon="9.349301430854622"><ele>57.0</ele><time>2026-05-03T07:21:34.939Z</time></trkpt><trkpt lat="45.10880324291814" lon="9.34923960657906"><ele>57.25</ele><time>2026-05-03T07:21:35.939Z</time></trkpt><trkpt lat="45.10867500701205" lon="9.349177145477553"><ele>57.5</ele><time>2026-05-03T07:21:36.939Z</time></trkpt><trkpt lat="45.108553718105725" lon="9.34911793949475"><ele>57.75</ele><time>2026-05-03T07:21:37.939Z</time></trkpt><trkpt lat="45.10843660580944" lon="9.349063659683955"><ele>58.0</ele><time>2026-05-03T07:21:38.939Z</time></trkpt><trkpt lat="45.10833884264205" lon="9.34901976621339"><ele>57.75</ele><time>2026-05-03T07:21:39.939Z</time></trkpt><trkpt lat="45.10822338779007" lon="9.34896338501725"><ele>57.5</ele><time>2026-05-03T07:21:40.939Z</time></trkpt><trkpt lat="45.10810002840434" lon="9.348903911295823"><ele>57.25</ele><time>2026-05-03T07:21:41.939Z</time></trkpt><trkpt lat="45.10797624311121" lon="9.348850976554008"><ele>57.0</ele><time>2026-05-03T07:21:42.939Z</time></trkpt><trkpt lat="45.107852720932584" lon="9.348796984064697"><ele>57.0</ele><time>2026-05-03T07:21:43.939Z</time></trkpt><trkpt lat="45.107733976497315" lon="9.348730474239717"><ele>57.0</ele><time>2026-05-03T07:21:44.939Z</time></trkpt><trkpt lat="45.10761387942032" lon="9.348674195643"><ele>57.0</ele><time>2026-05-03T07:21:45.939Z</time></trkpt><trkpt lat="45.107498211231224" lon="9.348622724591355"><ele>57.0</ele><time>2026-05-03T07:21:46.939Z</time></trkpt><trkpt lat="45.10738252592818" lon="9.348573021594774"><ele>56.25</ele><time>2026-05-03T07:21:47.939Z</time></trkpt><trkpt lat="45.107260189612084" lon="9.348520269926876"><ele>55.5</ele><time>2026-05-03T07:21:48.939Z</time></trkpt><trkpt lat="45.10713705269476" lon="9.348441793864714"><ele>54.75</ele><time>2026-05-03T07:21:49.939Z</time></trkpt><trkpt lat="45.107010185456794" lon="9.348381896084197"><ele>54.0</ele><time>2026-05-03T07:21:50.939Z</time></trkpt><trkpt lat="45.10687679715074" lon="9.348315613926994"><ele>54.0</ele><time>2026-05-03T07:21:51.939Z</time></trkpt><trkpt lat="45.10673839737892" lon="9.348260019415541"><ele>54.0</ele><time>2026-05-03T07:21:52.939Z</time></trkpt><trkpt lat="45.106592705428326" lon="9.348194682817683"><ele>54.0</ele><time>2026-05-03T07:21:53.939Z</time></trkpt><trkpt lat="45.106440578623776" lon="9.348126468376764"><ele>54.0</ele><time>2026-05-03T07:21:54.939Z</time></trkpt><trkpt lat="45.10628935271238" lon="9.348052324672098"><ele>54.0</ele><time>2026-05-03T07:21:55.939Z</time></trkpt><trkpt lat="45.10612876601265" lon="9.347976254614936"><ele>54.0</ele><time>2026-05-03T07:21:56.939Z</time></trkpt><trkpt lat="45.105965845475396" lon="9.347895602304034"><ele>55.0</ele><time>2026-05-03T07:21:57.939Z</time></trkpt><trkpt lat="45.10580092086118" lon="9.34781981231947"><ele>56.0</ele><time>2026-05-03T07:21:58.939Z</time></trkpt><trkpt lat="45.10565557059313" lon="9.347747609006401"><ele>57.0</ele><time>2026-05-03T07:21:59.939Z</time></trkpt><trkpt lat="45.1055170226203" lon="9.347686348349985"><ele>57.0</ele><time>2026-05-03T07:22:00.939Z</time></trkpt><trkpt lat="45.10537746741116" lon="9.347628465002849"><ele>57.0</ele><time>2026-05-03T07:22:01.939Z</time></trkpt><trkpt lat="45.105233979012155" lon="9.347536639779712"><ele>57.0</ele><time>2026-05-03T07:22:02.939Z</time></trkpt><trkpt lat="45.10507664411219" lon="9.347482099508998"><ele>57.0</ele><time>2026-05-03T07:22:03.939Z</time></trkpt><trkpt lat="45.10492334667307" lon="9.3474032796716"><ele>57.0</ele><time>2026-05-03T07:22:04.939Z</time></trkpt><trkpt lat="45.104767501358864" lon="9.347327605616796"><ele>57.0</ele><time>2026-05-03T07:22:05.939Z</time></trkpt><trkpt lat="45.10461066404967" lon="9.347255044943774"><ele>55.0</ele><time>2026-05-03T07:22:06.939Z</time></trkpt><trkpt lat="45.10444942937022" lon="9.347177554841641"><ele>53.0</ele><time>2026-05-03T07:22:07.939Z</time></trkpt><trkpt lat="45.10428312475679" lon="9.347104330260045"><ele>51.0</ele><time>2026-05-03T07:22:08.939Z</time></trkpt><trkpt lat="45.10412001828895" lon="9.347027547413987"><ele>49.666666666666664</ele><time>2026-05-03T07:22:09.939Z</time></trkpt><trkpt lat="45.10395695765419" lon="9.34695461896887"><ele>48.33333333333333</ele><time>2026-05-03T07:22:10.939Z</time></trkpt><trkpt lat="45.10379901027257" lon="9.34685786978138"><ele>47.0</ele><time>2026-05-03T07:22:11.939Z</time></trkpt><trkpt lat="45.10364558499155" lon="9.34678456046285"><ele>47.0</ele><time>2026-05-03T07:22:12.939Z</time></trkpt><trkpt lat="45.10349625843942" lon="9.346713209795993"><ele>47.0</ele><time>2026-05-03T07:22:13.939Z</time></trkpt><trkpt lat="45.10334588914812" lon="9.34664136068355"><ele>47.0</ele><time>2026-05-03T07:22:14.939Z</time></trkpt><trkpt lat="45.10318940630278" lon="9.346566590622981"><ele>47.0</ele><time>2026-05-03T07:22:15.939Z</time></trkpt><trkpt lat="45.103034296419104" lon="9.346493307410407"><ele>47.0</ele><time>2026-05-03T07:22:16.939Z</time></trkpt><trkpt lat="45.102880861640024" lon="9.34642084966005"><ele>47.0</ele><time>2026-05-03T07:22:17.939Z</time></trkpt><trkpt lat="45.1027228547656" lon="9.346346230715746"><ele>47.0</ele><time>2026-05-03T07:22:18.939Z</time></trkpt><trkpt lat="45.1025593120467" lon="9.346268997474777"><ele>47.0</ele><time>2026-05-03T07:22:19.939Z</time></trkpt><trkpt lat="45.102394750780036" lon="9.34619117673215"><ele>47.0</ele><time>2026-05-03T07:22:20.939Z</time></trkpt><trkpt lat="45.102228991013035" lon="9.346112186471132"><ele>47.0</ele><time>2026-05-03T07:22:21.939Z</time></trkpt><trkpt lat="45.102061879282886" lon="9.346032551933025"><ele>47.0</ele><time>2026-05-03T07:22:22.939Z</time></trkpt><trkpt lat="45.10189297060539" lon="9.345952061040112"><ele>47.0</ele><time>2026-05-03T07:22:23.939Z</time></trkpt><trkpt lat="45.09792342771948" lon="9.338955873820794"><ele>51.0</ele><time>2026-05-03T07:23:24.939Z</time></trkpt><trkpt lat="45.09798736193553" lon="9.338754040215198"><ele>55.0</ele><time>2026-05-03T07:23:25.939Z</time></trkpt><trkpt lat="45.09804764735021" lon="9.338559289828321"><ele>59.0</ele><time>2026-05-03T07:23:26.939Z</time></trkpt><trkpt lat="45.098111141910074" lon="9.338364905351213"><ele>59.0</ele><time>2026-05-03T07:23:27.939Z</time></trkpt><trkpt lat="45.09816667615163" lon="9.338184587890721"><ele>59.0</ele><time>2026-05-03T07:23:28.939Z</time></trkpt><trkpt lat="45.09821537982252" lon="9.338013549486963"><ele>59.0</ele><time>2026-05-03T07:23:29.939Z</time></trkpt><trkpt lat="45.098270404669854" lon="9.337856407817323"><ele>59.0</ele><time>2026-05-03T07:23:30.939Z</time></trkpt><trkpt lat="45.09831438270055" lon="9.337705951511497"><ele>58.75</ele><time>2026-05-03T07:23:31.94Z</time></trkpt><trkpt lat="45.09835732582791" lon="9.33756222699991"><ele>58.5</ele><time>2026-05-03T07:23:32.94Z</time></trkpt><trkpt lat="45.09840094015505" lon="9.337417032949615"><ele>58.25</ele><time>2026-05-03T07:23:33.94Z</time></trkpt><trkpt lat="45.098443415227166" lon="9.33726418046841"><ele>58.0</ele><time>2026-05-03T07:23:34.94Z</time></trkpt><trkpt lat="45.09849066288688" lon="9.337103196027313"><ele>58.0</ele><time>2026-05-03T07:23:35.94Z</time></trkpt><trkpt lat="45.09854719036903" lon="9.336941764190039"><ele>58.0</ele><time>2026-05-03T07:23:36.94Z</time></trkpt><trkpt lat="45.098602447281046" lon="9.33676822702298"><ele>58.0</ele><time>2026-05-03T07:23:37.94Z</time></trkpt><trkpt lat="45.098655792623845" lon="9.336594743158072"><ele>58.0</ele><time>2026-05-03T07:23:38.94Z</time></trkpt><trkpt lat="45.0987152090618" lon="9.336431561114736"><ele>58.0</ele><time>2026-05-03T07:23:39.94Z</time></trkpt><trkpt lat="45.09877413260327" lon="9.336264793260497"><ele>58.0</ele><time>2026-05-03T07:23:40.94Z</time></trkpt><trkpt lat="45.09882799120671" lon="9.336088912690087"><ele>58.0</ele><time>2026-05-03T07:23:41.94Z</time></trkpt><trkpt lat="45.09887637789305" lon="9.335926549204746"><ele>58.0</ele><time>2026-05-03T07:23:42.94Z</time></trkpt><trkpt lat="45.098928050470306" lon="9.335770055738914"><ele>58.0</ele><time>2026-05-03T07:23:43.94Z</time></trkpt><trkpt lat="45.098983998262966" lon="9.335608524226478"><ele>58.0</ele><time>2026-05-03T07:23:44.94Z</time></trkpt><trkpt lat="45.09904138132795" lon="9.335435335481247"><ele>58.0</ele><time>2026-05-03T07:23:45.94Z</time></trkpt><trkpt lat="45.0990995979307" lon="9.335266541385234"><ele>58.0</ele><time>2026-05-03T07:23:46.94Z</time></trkpt><trkpt lat="45.0991528114919" lon="9.33511091174371"><ele>58.599999999999994</ele><time>2026-05-03T07:23:47.94Z</time></trkpt><trkpt lat="45.0992295908528" lon="9.334986349653237"><ele>59.199999999999996</ele><time>2026-05-03T07:23:48.94Z</time></trkpt><trkpt lat="45.09926882161042" lon="9.33484501525026"><ele>59.8</ele><time>2026-05-03T07:23:49.94Z</time></trkpt><trkpt lat="45.09931198990395" lon="9.334721555547548"><ele>60.4</ele><time>2026-05-03T07:23:50.94Z</time></trkpt><trkpt lat="45.099351450255405" lon="9.334606545155687"><ele>61.0</ele><time>2026-05-03T07:23:51.94Z</time></trkpt><trkpt lat="45.09938265352335" lon="9.334490582384161"><ele>60.99999999999999</ele><time>2026-05-03T07:23:52.94Z</time></trkpt><trkpt lat="45.09940069869757" lon="9.33437376659707"><ele>61.0</ele><time>2026-05-03T07:23:53.94Z</time></trkpt><trkpt lat="45.099400330409864" lon="9.33426000857851"><ele>61.0</ele><time>2026-05-03T07:23:54.94Z</time></trkpt><trkpt lat="45.09937968660936" lon="9.334147705666025"><ele>61.0</ele><time>2026-05-03T07:23:55.94Z</time></trkpt><trkpt lat="45.09932823506907" lon="9.334046053280744"><ele>60.99999999999999</ele><time>2026-05-03T07:23:56.94Z</time></trkpt><trkpt lat="45.09925540781755" lon="9.333969270666254"><ele>61.0</ele><time>2026-05-03T07:23:57.94Z</time></trkpt><trkpt lat="45.09915861461445" lon="9.333918676349578"><ele>60.0</ele><time>2026-05-03T07:23:58.94Z</time></trkpt><trkpt lat="45.09905378221119" lon="9.333863706255901"><ele>59.0</ele><time>2026-05-03T07:23:59.94Z</time></trkpt><trkpt lat="45.09893362587365" lon="9.333808147491652"><ele>58.0</ele><time>2026-05-03T07:24:00.94Z</time></trkpt><trkpt lat="45.098797992156925" lon="9.333733555888587"><ele>57.0</ele><time>2026-05-03T07:24:01.94Z</time></trkpt><trkpt lat="45.09865016311948" lon="9.333657581228888"><ele>57.0</ele><time>2026-05-03T07:24:02.94Z</time></trkpt><trkpt lat="45.09848929826477" lon="9.333580364675264"><ele>57.0</ele><time>2026-05-03T07:24:03.94Z</time></trkpt><trkpt lat="45.09831088572125" lon="9.333497247218935"><ele>57.0</ele><time>2026-05-03T07:24:04.94Z</time></trkpt><trkpt lat="45.09812994178477" lon="9.333413167239572"><ele>57.66666666666667</ele><time>2026-05-03T07:24:05.94Z</time></trkpt><trkpt lat="45.09795430650336" lon="9.333332433127186"><ele>58.333333333333336</ele><time>2026-05-03T07:24:06.94Z</time></trkpt><trkpt lat="45.09776589967483" lon="9.333246797316264"><ele>59.0</ele><time>2026-05-03T07:24:07.94Z</time></trkpt><trkpt lat="45.0975650335116" lon="9.333160412523037"><ele>59.333333333333336</ele><time>2026-05-03T07:24:08.94Z</time></trkpt><trkpt lat="45.09736551080523" lon="9.333067192445075"><ele>59.66666666666667</ele><time>2026-05-03T07:24:09.94Z</time></trkpt><trkpt lat="45.09716719630422" lon="9.332977352673465"><ele>60.0</ele><time>2026-05-03T07:24:10.94Z</time></trkpt><trkpt lat="45.09696545068574" lon="9.332888711766808"><ele>60.0</ele><time>2026-05-03T07:24:11.94Z</time></trkpt><trkpt lat="45.09676582223308" lon="9.332798551244856"><ele>60.0</ele><time>2026-05-03T07:24:12.94Z</time></trkpt><trkpt lat="45.096558631266646" lon="9.332707106315826"><ele>60.0</ele><time>2026-05-03T07:24:13.94Z</time></trkpt><trkpt lat="45.09634934468974" lon="9.332618842440976"><ele>60.33333333333333</ele><time>2026-05-03T07:24:14.94Z</time></trkpt><trkpt lat="45.096143242635996" lon="9.332528563158352"><ele>60.666666666666664</ele><time>2026-05-03T07:24:15.94Z</time></trkpt><trkpt lat="45.09594618125525" lon="9.332403705880495"><ele>61.0</ele><time>2026-05-03T07:24:16.94Z</time></trkpt><trkpt lat="45.09574100901787" lon="9.332312368063025"><ele>60.666666666666664</ele><time>2026-05-03T07:24:17.94Z</time></trkpt><trkpt lat="45.0955348728502" lon="9.332220267247346"><ele>60.33333333333333</ele><time>2026-05-03T07:24:18.94Z</time></trkpt><trkpt lat="45.09532798983609" lon="9.33212562969547"><ele>60.0</ele><time>2026-05-03T07:24:19.94Z</time></trkpt><trkpt lat="45.09512444315167" lon="9.33203163138862"><ele>60.33333333333333</ele><time>2026-05-03T07:24:20.94Z</time></trkpt><trkpt lat="45.09491514422268" lon="9.331956575764652"><ele>60.666666666666664</ele><time>2026-05-03T07:24:21.94Z</time></trkpt><trkpt lat="45.09470870536681" lon="9.33186166002074"><ele>61.0</ele><time>2026-05-03T07:24:22.94Z</time></trkpt><trkpt lat="45.09449646337927" lon="9.331768712422175"><ele>69.0</ele><time>2026-05-03T07:24:23.94Z</time></trkpt><trkpt lat="45.083104586494535" lon="9.321524045322356"><ele>69.0</ele><time>2026-05-03T07:25:24.94Z</time></trkpt><trkpt lat="45.08294510514219" lon="9.321504248182157"><ele>69.0</ele><time>2026-05-03T07:25:25.94Z</time></trkpt><trkpt lat="45.08277478370579" lon="9.32151053013277"><ele>69.0</ele><time>2026-05-03T07:25:26.94Z</time></trkpt><trkpt lat="45.08259722948823" lon="9.32153655085704"><ele>68.33333333333333</ele><time>2026-05-03T07:25:27.94Z</time></trkpt><trkpt lat="45.08241201956398" lon="9.321569182920278"><ele>67.66666666666666</ele><time>2026-05-03T07:25:28.94Z</time></trkpt><trkpt lat="45.082218385351695" lon="9.321599332940272"><ele>67.0</ele><time>2026-05-03T07:25:29.94Z</time></trkpt><trkpt lat="45.082017817440786" lon="9.321640080721556"><ele>67.0</ele><time>2026-05-03T07:25:30.94Z</time></trkpt><trkpt lat="45.08181236989376" lon="9.32167402883502"><ele>67.0</ele><time>2026-05-03T07:25:31.94Z</time></trkpt><trkpt lat="45.081604350090025" lon="9.321709093775663"><ele>67.0</ele><time>2026-05-03T07:25:32.94Z</time></trkpt><trkpt lat="45.08140076386291" lon="9.32173736543619"><ele>67.66666666666666</ele><time>2026-05-03T07:25:33.94Z</time></trkpt><trkpt lat="45.08119684178198" lon="9.321764438209506"><ele>68.33333333333333</ele><time>2026-05-03T07:25:34.94Z</time></trkpt><trkpt lat="45.08099733120175" lon="9.321792338806414"><ele>69.0</ele><time>2026-05-03T07:25:35.94Z</time></trkpt><trkpt lat="45.08080596504231" lon="9.321819343191772"><ele>69.0</ele><time>2026-05-03T07:25:36.94Z</time></trkpt><trkpt lat="45.080619101634724" lon="9.321842122065032"><ele>69.0</ele><time>2026-05-03T07:25:37.942Z</time></trkpt><trkpt lat="45.080443229219966" lon="9.321863260689994"><ele>69.0</ele><time>2026-05-03T07:25:38.942Z</time></trkpt><trkpt lat="45.080280025380205" lon="9.321893396876433"><ele>69.0</ele><time>2026-05-03T07:25:39.942Z</time></trkpt><trkpt lat="45.08011714015725" lon="9.321919437165102"><ele>69.0</ele><time>2026-05-03T07:25:40.942Z</time></trkpt><trkpt lat="45.079953828766826" lon="9.321934884577539"><ele>69.0</ele><time>2026-05-03T07:25:41.942Z</time></trkpt><trkpt lat="45.07980195441601" lon="9.321942704917781"><ele>69.75</ele><time>2026-05-03T07:25:42.942Z</time></trkpt><trkpt lat="45.079662201568716" lon="9.321943089916855"><ele>70.5</ele><time>2026-05-03T07:25:43.942Z</time></trkpt><trkpt lat="45.0795412072524" lon="9.321935385439042"><ele>71.25</ele><time>2026-05-03T07:25:44.942Z</time></trkpt><trkpt lat="45.07943726401692" lon="9.321926323683725"><ele>72.0</ele><time>2026-05-03T07:25:45.942Z</time></trkpt><trkpt lat="45.079338956237805" lon="9.321909946792392"><ele>72.0</ele><time>2026-05-03T07:25:46.942Z</time></trkpt><trkpt lat="45.079248813951274" lon="9.321883787036048"><ele>72.0</ele><time>2026-05-03T07:25:47.941Z</time></trkpt><trkpt lat="45.079162221980674" lon="9.321854687846006"><ele>72.0</ele><time>2026-05-03T07:25:48.941Z</time></trkpt><trkpt lat="45.0790925866162" lon="9.321792578494124"><ele>72.0</ele><time>2026-05-03T07:25:49.942Z</time></trkpt><trkpt lat="45.07903956860594" lon="9.32170948235724"><ele>72.0</ele><time>2026-05-03T07:25:50.941Z</time></trkpt><trkpt lat="45.07899263577461" lon="9.321633427187944"><ele>72.0</ele><time>2026-05-03T07:25:51.941Z</time></trkpt><trkpt lat="45.07887345092801" lon="9.3215916322179"><ele>72.2</ele><time>2026-05-03T07:25:53.941Z</time></trkpt><trkpt lat="45.07880250780252" lon="9.321633362899192"><ele>72.4</ele><time>2026-05-03T07:25:54.941Z</time></trkpt><trkpt lat="45.0787319030435" lon="9.321704562998764"><ele>72.6</ele><time>2026-05-03T07:25:55.941Z</time></trkpt><trkpt lat="45.078651340710486" lon="9.321784034792405"><ele>72.8</ele><time>2026-05-03T07:25:56.941Z</time></trkpt><trkpt lat="45.07853691165477" lon="9.32183498832826"><ele>73.0</ele><time>2026-05-03T07:25:57.941Z</time></trkpt><trkpt lat="45.07840032103515" lon="9.321847373296292"><ele>73.0</ele><time>2026-05-03T07:25:58.941Z</time></trkpt><trkpt lat="45.078269963811415" lon="9.321854373339182"><ele>73.0</ele><time>2026-05-03T07:25:59.942Z</time></trkpt><trkpt lat="45.0781405033389" lon="9.321865595850744"><ele>73.0</ele><time>2026-05-03T07:26:00.942Z</time></trkpt><trkpt lat="45.078037543864525" lon="9.321889704868559"><ele>73.0</ele><time>2026-05-03T07:26:01.942Z</time></trkpt><trkpt lat="45.077921878017186" lon="9.32191108413122"><ele>73.5</ele><time>2026-05-03T07:26:02.942Z</time></trkpt><trkpt lat="45.07780311292274" lon="9.32193289004911"><ele>74.0</ele><time>2026-05-03T07:26:03.942Z</time></trkpt><trkpt lat="45.07767623396628" lon="9.321953192260322"><ele>74.5</ele><time>2026-05-03T07:26:04.942Z</time></trkpt><trkpt lat="45.07754635269405" lon="9.321973696228731"><ele>75.0</ele><time>2026-05-03T07:26:05.942Z</time></trkpt><trkpt lat="45.07742140603173" lon="9.32199474010114"><ele>78.0</ele><time>2026-05-03T07:26:06.942Z</time></trkpt><trkpt lat="45.077295917699395" lon="9.322007252858949"><ele>81.0</ele><time>2026-05-03T07:26:07.942Z</time></trkpt><trkpt lat="45.07717628132513" lon="9.32202442544785"><ele>84.0</ele><time>2026-05-03T07:26:08.942Z</time></trkpt><trkpt lat="45.07706092544258" lon="9.322037267303013"><ele>87.0</ele><time>2026-05-03T07:26:09.942Z</time></trkpt><trkpt lat="45.076943355366424" lon="9.322042088073212"><ele>87.0</ele><time>2026-05-03T07:26:10.942Z</time></trkpt><trkpt lat="45.076823738321934" lon="9.322041985411198"><ele>87.0</ele><time>2026-05-03T07:26:11.942Z</time></trkpt><trkpt lat="45.076704101625154" lon="9.322047903001874"><ele>87.0</ele><time>2026-05-03T07:26:12.942Z</time></trkpt><trkpt lat="45.07658241563438" lon="9.322047012290653"><ele>87.0</ele><time>2026-05-03T07:26:13.942Z</time></trkpt><trkpt lat="45.0764668245157" lon="9.322042993559704"><ele>88.75</ele><time>2026-05-03T07:26:14.942Z</time></trkpt><trkpt lat="45.07634141856842" lon="9.322024476546813"><ele>90.5</ele><time>2026-05-03T07:26:15.942Z</time></trkpt><trkpt lat="45.076213737064364" lon="9.322006210112317"><ele>92.25</ele><time>2026-05-03T07:26:16.942Z</time></trkpt><trkpt lat="45.076084044330436" lon="9.32197550136194"><ele>94.0</ele><time>2026-05-03T07:26:17.942Z</time></trkpt><trkpt lat="45.075964406484744" lon="9.321942797065159"><ele>94.0</ele><time>2026-05-03T07:26:18.942Z</time></trkpt><trkpt lat="45.07584172988129" lon="9.32191356221438"><ele>94.0</ele><time>2026-05-03T07:26:19.942Z</time></trkpt><trkpt lat="45.075715507752285" lon="9.321872793959058"><ele>94.0</ele><time>2026-05-03T07:26:20.942Z</time></trkpt><trkpt lat="45.07558937953752" lon="9.321827892541169"><ele>94.0</ele><time>2026-05-03T07:26:21.942Z</time></trkpt><trkpt lat="45.07545243522985" lon="9.321767554999669"><ele>94.5</ele><time>2026-05-03T07:26:22.942Z</time></trkpt><trkpt lat="45.075311199775186" lon="9.32167189429069"><ele>95.0</ele><time>2026-05-03T07:26:23.942Z</time></trkpt><trkpt lat="45.074286555420635" lon="9.311925448341357"><ele>91.33333333333334</ele><time>2026-05-03T07:27:24.942Z</time></trkpt><trkpt lat="45.0743820646035" lon="9.311728199290139"><ele>87.66666666666667</ele><time>2026-05-03T07:27:25.942Z</time></trkpt><trkpt lat="45.074463873878365" lon="9.311519445995684"><ele>84.0</ele><time>2026-05-03T07:27:26.942Z</time></trkpt><trkpt lat="45.07453456316541" lon="9.311318974200779"><ele>82.66666666666667</ele><time>2026-05-03T07:27:27.942Z</time></trkpt><trkpt lat="45.07460779867089" lon="9.31112465379046"><ele>81.33333333333334</ele><time>2026-05-03T07:27:28.942Z</time></trkpt><trkpt lat="45.074688622303185" lon="9.310930947798154"><ele>80.0</ele><time>2026-05-03T07:27:29.942Z</time></trkpt><trkpt lat="45.07475270825189" lon="9.310720761575107"><ele>78.75</ele><time>2026-05-03T07:27:30.942Z</time></trkpt><trkpt lat="45.074802377653754" lon="9.31053494155269"><ele>77.5</ele><time>2026-05-03T07:27:31.942Z</time></trkpt><trkpt lat="45.07484397164435" lon="9.310325295364441"><ele>76.25</ele><time>2026-05-03T07:27:32.942Z</time></trkpt><trkpt lat="45.07488889645931" lon="9.310121444928836"><ele>75.0</ele><time>2026-05-03T07:27:33.942Z</time></trkpt><trkpt lat="45.07493545047832" lon="9.309906843876723"><ele>75.66666666666667</ele><time>2026-05-03T07:27:34.942Z</time></trkpt><trkpt lat="45.074985517200005" lon="9.309708752090033"><ele>76.33333333333334</ele><time>2026-05-03T07:27:35.942Z</time></trkpt><trkpt lat="45.07503976085333" lon="9.309508410716969"><ele>77.0</ele><time>2026-05-03T07:27:36.942Z</time></trkpt><trkpt lat="45.075094058799" lon="9.30930745879152"><ele>77.0</ele><time>2026-05-03T07:27:37.942Z</time></trkpt><trkpt lat="45.07514238756212" lon="9.309102661167723"><ele>77.0</ele><time>2026-05-03T07:27:38.942Z</time></trkpt><trkpt lat="45.07519292021885" lon="9.308905130659994"><ele>77.0</ele><time>2026-05-03T07:27:39.942Z</time></trkpt><trkpt lat="45.07523715026097" lon="9.308708462678576"><ele>77.0</ele><time>2026-05-03T07:27:40.942Z</time></trkpt><trkpt lat="45.07527941025989" lon="9.308523357675455"><ele>77.0</ele><time>2026-05-03T07:27:41.942Z</time></trkpt><trkpt lat="45.0753223230409" lon="9.308351738289037"><ele>77.0</ele><time>2026-05-03T07:27:42.942Z</time></trkpt><trkpt lat="45.07539051306635" lon="9.308209198703896"><ele>77.0</ele><time>2026-05-03T07:27:43.943Z</time></trkpt><trkpt lat="45.07542761283773" lon="9.308061776965605"><ele>77.0</ele><time>2026-05-03T07:27:44.943Z</time></trkpt><trkpt lat="45.07546011430942" lon="9.307931332970925"><ele>77.0</ele><time>2026-05-03T07:27:45.943Z</time></trkpt><trkpt lat="45.07547369299723" lon="9.307799427010734"><ele>77.0</ele><time>2026-05-03T07:27:46.943Z</time></trkpt><trkpt lat="45.07550987199973" lon="9.307687081133441"><ele>77.0</ele><time>2026-05-03T07:27:47.943Z</time></trkpt><trkpt lat="45.07553826601706" lon="9.30759668529925"><ele>77.0</ele><time>2026-05-03T07:27:48.943Z</time></trkpt><trkpt lat="45.075576065846526" lon="9.307517231042645"><ele>77.0</ele><time>2026-05-03T07:27:49.943Z</time></trkpt><trkpt lat="45.07562255177146" lon="9.307449159187613"><ele>77.0</ele><time>2026-05-03T07:27:50.943Z</time></trkpt><trkpt lat="45.07565458420051" lon="9.30735977651026"><ele>77.0</ele><time>2026-05-03T07:27:51.943Z</time></trkpt><trkpt lat="45.07569916539201" lon="9.307287142264396"><ele>77.0</ele><time>2026-05-03T07:27:52.944Z</time></trkpt><trkpt lat="45.07566538848261" lon="9.307175806914037"><ele>77.0</ele><time>2026-05-03T07:27:53.943Z</time></trkpt><trkpt lat="45.07563786503864" lon="9.307087237351624"><ele>77.0</ele><time>2026-05-03T07:27:54.943Z</time></trkpt><trkpt lat="45.075601678901734" lon="9.306935416511772"><ele>77.0</ele><time>2026-05-03T07:27:56.943Z</time></trkpt><trkpt lat="45.07559837716206" lon="9.306843372661056"><ele>77.0</ele><time>2026-05-03T07:27:57.943Z</time></trkpt><trkpt lat="45.07561736369978" lon="9.306756313073283"><ele>77.8</ele><time>2026-05-03T07:27:58.943Z</time></trkpt><trkpt lat="45.075630209730946" lon="9.306592337121396"><ele>78.6</ele><time>2026-05-03T07:28:00.943Z</time></trkpt><trkpt lat="45.075639212126724" lon="9.306414242648996"><ele>79.39999999999999</ele><time>2026-05-03T07:28:02.943Z</time></trkpt><trkpt lat="45.075648155178435" lon="9.30631954214904"><ele>80.2</ele><time>2026-05-03T07:28:03.943Z</time></trkpt><trkpt lat="45.07565561373782" lon="9.306142813906295"><ele>81.0</ele><time>2026-05-03T07:28:05.943Z</time></trkpt><trkpt lat="45.07566059755176" lon="9.306049742797335"><ele>81.16666666666667</ele><time>2026-05-03T07:28:06.943Z</time></trkpt><trkpt lat="45.07568520597967" lon="9.305950721722324"><ele>81.33333333333333</ele><time>2026-05-03T07:28:07.943Z</time></trkpt><trkpt lat="45.075677382393316" lon="9.305859804402958"><ele>81.5</ele><time>2026-05-03T07:28:08.943Z</time></trkpt><trkpt lat="45.07568159996534" lon="9.305767878009974"><ele>81.66666666666666</ele><time>2026-05-03T07:28:09.943Z</time></trkpt><trkpt lat="45.075693955399245" lon="9.305671757196565"><ele>81.83333333333333</ele><time>2026-05-03T07:28:10.943Z</time></trkpt><trkpt lat="45.07571118304141" lon="9.305512076167599"><ele>82.0</ele><time>2026-05-03T07:28:12.943Z</time></trkpt><trkpt lat="45.07570950863048" lon="9.30533055518403"><ele>82.0</ele><time>2026-05-03T07:28:14.943Z</time></trkpt><trkpt lat="45.07572080807554" lon="9.30521680967694"><ele>82.0</ele><time>2026-05-03T07:28:15.943Z</time></trkpt><trkpt lat="45.075729737244274" lon="9.305107326500861"><ele>82.0</ele><time>2026-05-03T07:28:16.943Z</time></trkpt><trkpt lat="45.075741823597646" lon="9.305007444145474"><ele>82.0</ele><time>2026-05-03T07:28:17.943Z</time></trkpt><trkpt lat="45.07574283852016" lon="9.30490148455918"><ele>82.0</ele><time>2026-05-03T07:28:18.943Z</time></trkpt><trkpt lat="45.07575180839346" lon="9.304797858096212"><ele>82.0</ele><time>2026-05-03T07:28:19.943Z</time></trkpt><trkpt lat="45.075758739979534" lon="9.304690044689536"><ele>82.33333333333333</ele><time>2026-05-03T07:28:20.943Z</time></trkpt><trkpt lat="45.075768266505605" lon="9.304596819303942"><ele>82.66666666666667</ele><time>2026-05-03T07:28:21.943Z</time></trkpt><trkpt lat="45.0757839371395" lon="9.304444665412236"><ele>83.0</ele><time>2026-05-03T07:28:23.943Z</time></trkpt><trkpt lat="45.0759988413553" lon="9.30177489794195"><ele>85.2</ele><time>2026-05-03T07:29:24.943Z</time></trkpt><trkpt lat="45.07601488035561" lon="9.301611814355953"><ele>87.4</ele><time>2026-05-03T07:29:26.943Z</time></trkpt><trkpt lat="45.07602192776111" lon="9.301520543859379"><ele>89.60000000000001</ele><time>2026-05-03T07:29:27.943Z</time></trkpt><trkpt lat="45.07603210690959" lon="9.301359683919872"><ele>91.80000000000001</ele><time>2026-05-03T07:29:29.943Z</time></trkpt><trkpt lat="45.07604205914342" lon="9.30120458355659"><ele>94.0</ele><time>2026-05-03T07:29:31.943Z</time></trkpt><trkpt lat="45.076049242738144" lon="9.301100001841128"><ele>94.4</ele><time>2026-05-03T07:29:32.943Z</time></trkpt><trkpt lat="45.076060421466" lon="9.300937257390334"><ele>94.80000000000001</ele><time>2026-05-03T07:29:34.943Z</time></trkpt><trkpt lat="45.076066958202496" lon="9.300842093068812"><ele>95.19999999999999</ele><time>2026-05-03T07:29:35.943Z</time></trkpt><trkpt lat="45.07607741240966" lon="9.300685643893031"><ele>95.6</ele><time>2026-05-03T07:29:37.943Z</time></trkpt><trkpt lat="45.0760870071226" lon="9.300525575880876"><ele>96.0</ele><time>2026-05-03T07:29:39.943Z</time></trkpt><trkpt lat="45.0760937798211" lon="9.300412593235214"><ele>96.5</ele><time>2026-05-03T07:29:41.943Z</time></trkpt><trkpt lat="45.07609362443429" lon="9.300275246116138"><ele>97.0</ele><time>2026-05-03T07:29:44.943Z</time></trkpt><trkpt lat="45.07610575459176" lon="9.30012547357987"><ele>97.5</ele><time>2026-05-03T07:29:46.943Z</time></trkpt><trkpt lat="45.075972372964706" lon="9.299904403228378"><ele>98.0</ele><time>2026-05-03T07:29:48.943Z</time></trkpt><trkpt lat="45.07600484565711" lon="9.29978826409437"><ele>98.5</ele><time>2026-05-03T07:29:49.945Z</time></trkpt><trkpt lat="45.07600799219317" lon="9.299605241124201"><ele>99.0</ele><time>2026-05-03T07:29:50.945Z</time></trkpt><trkpt lat="45.07616752970966" lon="9.29945044735976"><ele>99.5</ele><time>2026-05-03T07:29:51.945Z</time></trkpt><trkpt lat="45.07617658303682" lon="9.299325107287292"><ele>100.0</ele><time>2026-05-03T07:29:52.945Z</time></trkpt><trkpt lat="45.076186743173" lon="9.299184444858074"><ele>100.00000000000001</ele><time>2026-05-03T07:29:53.944Z</time></trkpt><trkpt lat="45.07618222047785" lon="9.299083937363617"><ele>100.0</ele><time>2026-05-03T07:29:54.944Z</time></trkpt><trkpt lat="45.07620580428266" lon="9.298992545347442"><ele>100.0</ele><time>2026-05-03T07:29:55.945Z</time></trkpt><trkpt lat="45.07621792162234" lon="9.298903304795218"><ele>100.0</ele><time>2026-05-03T07:29:56.945Z</time></trkpt><trkpt lat="45.07621069261388" lon="9.298791660349528"><ele>100.0</ele><time>2026-05-03T07:29:58.945Z</time></trkpt><trkpt lat="45.07621272221121" lon="9.298691742594137"><ele>100.00000000000001</ele><time>2026-05-03T07:30:00.945Z</time></trkpt><trkpt lat="45.076211228456394" lon="9.298580892674586"><ele>100.0</ele><time>2026-05-03T07:30:02.944Z</time></trkpt><trkpt lat="45.07622344919174" lon="9.298475525201813"><ele>100.83333333333334</ele><time>2026-05-03T07:30:04.944Z</time></trkpt><trkpt lat="45.076242446527" lon="9.298353293343043"><ele>101.66666666666667</ele><time>2026-05-03T07:30:06.944Z</time></trkpt><trkpt lat="45.0762533064639" lon="9.298238939086833"><ele>102.5</ele><time>2026-05-03T07:30:08.944Z</time></trkpt><trkpt lat="45.07626646172392" lon="9.29812793035727"><ele>103.33333333333334</ele><time>2026-05-03T07:30:10.944Z</time></trkpt><trkpt lat="45.07628715504083" lon="9.298022028836098"><ele>104.16666666666667</ele><time>2026-05-03T07:30:12.944Z</time></trkpt><trkpt lat="45.0763076339511" lon="9.297917583276034"><ele>105.0</ele><time>2026-05-03T07:30:15.944Z</time></trkpt><trkpt lat="45.076323867722834" lon="9.297821950572786"><ele>107.0</ele><time>2026-05-03T07:30:19.944Z</time></trkpt><trkpt lat="45.076155582658735" lon="9.297358905791992"><ele>109.0</ele><time>2026-05-03T07:34:35.907Z</time></trkpt><trkpt lat="45.07609699794468" lon="9.29745148805799"><ele>109.0</ele><time>2026-05-03T07:34:53.907Z</time></trkpt><trkpt lat="45.07605796867739" lon="9.297641541005152"><ele>109.0</ele><time>2026-05-03T07:35:02.907Z</time></trkpt><trkpt lat="45.07612282107526" lon="9.297639639134594"><ele>109.0</ele><time>2026-05-03T07:35:13.907Z</time></trkpt><trkpt lat="45.076255698889355" lon="9.297308718060734"><ele>109.0</ele><time>2026-05-03T08:16:34.912Z</time></trkpt><trkpt lat="45.07626788287153" lon="9.297399650313142"><ele>109.0</ele><time>2026-05-03T08:16:47.911Z</time></trkpt><trkpt lat="45.07630496580575" lon="9.297474849954732"><ele>109.0</ele><time>2026-05-03T08:16:54.911Z</time></trkpt><trkpt lat="45.07632973596038" lon="9.297561810571176"><ele>109.0</ele><time>2026-05-03T08:17:07.911Z</time></trkpt><trkpt lat="45.07632798297963" lon="9.297652668977326"><ele>109.0</ele><time>2026-05-03T08:17:20.911Z</time></trkpt><trkpt lat="45.076093547429785" lon="9.29808810740397"><ele>109.0</ele><time>2026-05-03T08:21:24.915Z</time></trkpt><trkpt lat="45.076100765249265" lon="9.297992469793439"><ele>109.0</ele><time>2026-05-03T08:21:32.915Z</time></trkpt><trkpt lat="45.07613670057822" lon="9.2979137899856"><ele>109.0</ele><time>2026-05-03T08:21:41.915Z</time></trkpt><trkpt lat="45.076122912035395" lon="9.298007304523638"><ele>109.0</ele><time>2026-05-03T08:21:53.915Z</time></trkpt><trkpt lat="45.076123991046074" lon="9.29810590342514"><ele>109.0</ele><time>2026-05-03T08:22:03.915Z</time></trkpt><trkpt lat="45.07639872921823" lon="9.297827414472465"><ele>109.0</ele><time>2026-05-03T08:26:24.915Z</time></trkpt><trkpt lat="45.07637556919178" lon="9.297743194723925"><ele>109.0</ele><time>2026-05-03T08:27:03.916Z</time></trkpt><trkpt lat="45.07611010504939" lon="9.298174646444757"><ele>108.33333333333334</ele><time>2026-05-03T08:36:25Z</time></trkpt><trkpt lat="45.07607637385437" lon="9.29828322616461"><ele>107.66666666666667</ele><time>2026-05-03T08:36:27Z</time></trkpt><trkpt lat="45.07603854706651" lon="9.298372957003775"><ele>107.0</ele><time>2026-05-03T08:36:29Z</time></trkpt><trkpt lat="45.075978643987995" lon="9.298465998520264"><ele>106.33333333333334</ele><time>2026-05-03T08:36:31Z</time></trkpt><trkpt lat="45.07593468860007" lon="9.298563774901789"><ele>105.66666666666667</ele><time>2026-05-03T08:36:33Z</time></trkpt><trkpt lat="45.07588422708322" lon="9.29864685687468"><ele>105.0</ele><time>2026-05-03T08:36:35Z</time></trkpt><trkpt lat="45.07584347906715" lon="9.298783621484235"><ele>105.0</ele><time>2026-05-03T08:36:37Z</time></trkpt><trkpt lat="45.07579543865448" lon="9.298908827225425"><ele>105.0</ele><time>2026-05-03T08:36:39Z</time></trkpt><trkpt lat="45.07575339370727" lon="9.299005959192948"><ele>105.0</ele><time>2026-05-03T08:36:41Z</time></trkpt><trkpt lat="45.07572309008108" lon="9.299084907931384"><ele>105.0</ele><time>2026-05-03T08:36:43Z</time></trkpt><trkpt lat="45.075685102262774" lon="9.299211839144133"><ele>105.0</ele><time>2026-05-03T08:36:46Z</time></trkpt><trkpt lat="45.07565697357383" lon="9.299304457643412"><ele>105.0</ele><time>2026-05-03T08:36:48Z</time></trkpt><trkpt lat="45.075635162029094" lon="9.299434277665185"><ele>104.0</ele><time>2026-05-03T08:36:51Z</time></trkpt><trkpt lat="45.075632762749905" lon="9.299564120254923"><ele>103.0</ele><time>2026-05-03T08:36:53Z</time></trkpt><trkpt lat="45.07562090021067" lon="9.29969130946403"><ele>102.0</ele><time>2026-05-03T08:36:55Z</time></trkpt><trkpt lat="45.075600169041614" lon="9.29981033057774"><ele>101.0</ele><time>2026-05-03T08:36:57Z</time></trkpt><trkpt lat="45.075592822689735" lon="9.299903383865255"><ele>100.0</ele><time>2026-05-03T08:36:59Z</time></trkpt><trkpt lat="45.075593972862706" lon="9.300002729807664"><ele>99.0</ele><time>2026-05-03T08:37:01.001Z</time></trkpt><trkpt lat="45.07559445953465" lon="9.300102380495415"><ele>97.33333333333333</ele><time>2026-05-03T08:37:03.001Z</time></trkpt><trkpt lat="45.07559815148908" lon="9.300214802861172"><ele>95.66666666666666</ele><time>2026-05-03T08:37:06.001Z</time></trkpt><trkpt lat="45.07557467688876" lon="9.300304347485293"><ele>94.0</ele><time>2026-05-03T08:37:12.001Z</time></trkpt><trkpt lat="45.074847458572286" lon="9.302668794161754"><ele>92.75</ele><time>2026-05-03T08:38:25Z</time></trkpt><trkpt lat="45.074740857954886" lon="9.302719797053633"><ele>91.5</ele><time>2026-05-03T08:38:27Z</time></trkpt><trkpt lat="45.07462900881414" lon="9.302777368484357"><ele>90.25</ele><time>2026-05-03T08:38:29Z</time></trkpt><trkpt lat="45.074507247087105" lon="9.30281115381901"><ele>89.0</ele><time>2026-05-03T08:38:31Z</time></trkpt><trkpt lat="45.07440244101412" lon="9.302844686023057"><ele>89.0</ele><time>2026-05-03T08:38:33Z</time></trkpt><trkpt lat="45.07423743536884" lon="9.302892930502264"><ele>89.0</ele><time>2026-05-03T08:38:36Z</time></trkpt><trkpt lat="45.07413913418999" lon="9.302949507896328"><ele>89.0</ele><time>2026-05-03T08:38:38Z</time></trkpt><trkpt lat="45.07403565126382" lon="9.303001947562949"><ele>89.0</ele><time>2026-05-03T08:38:40Z</time></trkpt><trkpt lat="45.07391071953079" lon="9.303053615452377"><ele>88.66666666666667</ele><time>2026-05-03T08:38:42Z</time></trkpt><trkpt lat="45.07384429654287" lon="9.303091240034242"><ele>88.33333333333334</ele><time>2026-05-03T08:38:43Z</time></trkpt><trkpt lat="45.07374239935871" lon="9.303135903307535"><ele>88.0</ele><time>2026-05-03T08:38:45Z</time></trkpt><trkpt lat="45.07362614681421" lon="9.303155764704906"><ele>87.66666666666667</ele><time>2026-05-03T08:38:47Z</time></trkpt><trkpt lat="45.073559050141704" lon="9.303180607622188"><ele>87.33333333333333</ele><time>2026-05-03T08:38:48Z</time></trkpt><trkpt lat="45.07348870718196" lon="9.303205843997318"><ele>87.0</ele><time>2026-05-03T08:38:49Z</time></trkpt><trkpt lat="45.07341212342512" lon="9.303232375421656"><ele>87.0</ele><time>2026-05-03T08:38:50Z</time></trkpt><trkpt lat="45.07333679847744" lon="9.303258470610078"><ele>87.0</ele><time>2026-05-03T08:38:51Z</time></trkpt><trkpt lat="45.073265937169644" lon="9.303283005382246"><ele>87.0</ele><time>2026-05-03T08:38:52Z</time></trkpt><trkpt lat="45.07315305428388" lon="9.303322674785518"><ele>87.0</ele><time>2026-05-03T08:38:54Z</time></trkpt><trkpt lat="45.07305008915579" lon="9.303358858865906"><ele>87.0</ele><time>2026-05-03T08:38:56Z</time></trkpt><trkpt lat="45.07292819267141" lon="9.30340289428247"><ele>87.16666666666667</ele><time>2026-05-03T08:38:58Z</time></trkpt><trkpt lat="45.07285328509272" lon="9.30343061960643"><ele>87.33333333333333</ele><time>2026-05-03T08:38:59Z</time></trkpt><trkpt lat="45.07276760205995" lon="9.303462333131241"><ele>87.5</ele><time>2026-05-03T08:39:00Z</time></trkpt><trkpt lat="45.07267289920702" lon="9.30349738520171"><ele>87.66666666666666</ele><time>2026-05-03T08:39:01Z</time></trkpt><trkpt lat="45.07258654058235" lon="9.303529099016318"><ele>87.83333333333333</ele><time>2026-05-03T08:39:02Z</time></trkpt><trkpt lat="45.07250629759694" lon="9.303556926869245"><ele>88.0</ele><time>2026-05-03T08:39:03Z</time></trkpt><trkpt lat="45.07243085305861" lon="9.303583090539506"><ele>88.5</ele><time>2026-05-03T08:39:04Z</time></trkpt><trkpt lat="45.07236190508774" lon="9.303607001269347"><ele>89.0</ele><time>2026-05-03T08:39:05Z</time></trkpt><trkpt lat="45.072296085597074" lon="9.303630876337369"><ele>89.5</ele><time>2026-05-03T08:39:06.001Z</time></trkpt><trkpt lat="45.07221979009877" lon="9.303662143652291"><ele>90.0</ele><time>2026-05-03T08:39:07.001Z</time></trkpt><trkpt lat="45.07214675137" lon="9.303698727370238"><ele>90.5</ele><time>2026-05-03T08:39:08.001Z</time></trkpt><trkpt lat="45.07206714457348" lon="9.30372200855819"><ele>91.0</ele><time>2026-05-03T08:39:09.001Z</time></trkpt><trkpt lat="45.071985315792475" lon="9.303745546993907"><ele>91.0</ele><time>2026-05-03T08:39:10.001Z</time></trkpt><trkpt lat="45.07189900652255" lon="9.303768542589514"><ele>91.0</ele><time>2026-05-03T08:39:11.001Z</time></trkpt><trkpt lat="45.07180176680094" lon="9.303794859694765"><ele>91.0</ele><time>2026-05-03T08:39:12.001Z</time></trkpt><trkpt lat="45.07169526210078" lon="9.30380706472142"><ele>91.0</ele><time>2026-05-03T08:39:13.001Z</time></trkpt><trkpt lat="45.07158796726929" lon="9.30384394789597"><ele>91.0</ele><time>2026-05-03T08:39:14.001Z</time></trkpt><trkpt lat="45.0714783854097" lon="9.303881617229262"><ele>90.19999999999999</ele><time>2026-05-03T08:39:15.001Z</time></trkpt><trkpt lat="45.07137414085695" lon="9.303917451825487"><ele>89.39999999999999</ele><time>2026-05-03T08:39:16.001Z</time></trkpt><trkpt lat="45.071273349344494" lon="9.303952099489193"><ele>88.6</ele><time>2026-05-03T08:39:17.001Z</time></trkpt><trkpt lat="45.07118367220667" lon="9.303982926361895"><ele>87.8</ele><time>2026-05-03T08:39:18.001Z</time></trkpt><trkpt lat="45.07110194116879" lon="9.304011793824706"><ele>87.0</ele><time>2026-05-03T08:39:19.001Z</time></trkpt><trkpt lat="45.07102453557725" lon="9.304039326567617"><ele>87.0</ele><time>2026-05-03T08:39:20.001Z</time></trkpt><trkpt lat="45.07094286294189" lon="9.304068377110212"><ele>87.0</ele><time>2026-05-03T08:39:21.001Z</time></trkpt><trkpt lat="45.07086150161804" lon="9.304097316810322"><ele>87.0</ele><time>2026-05-03T08:39:22.001Z</time></trkpt><trkpt lat="45.07078824866562" lon="9.304123372475356"><ele>87.0</ele><time>2026-05-03T08:39:23Z</time></trkpt><trkpt lat="45.070712273115475" lon="9.304150396542044"><ele>87.0</ele><time>2026-05-03T08:39:24Z</time></trkpt><trkpt lat="45.06442219288317" lon="9.304276988036536"><ele>87.5</ele><time>2026-05-03T08:40:25Z</time></trkpt><trkpt lat="45.06429443837933" lon="9.304239155355273"><ele>88.0</ele><time>2026-05-03T08:40:26Z</time></trkpt><trkpt lat="45.06416235652915" lon="9.304206514706904"><ele>88.5</ele><time>2026-05-03T08:40:27Z</time></trkpt><trkpt lat="45.064031320843746" lon="9.304176947496712"><ele>89.0</ele><time>2026-05-03T08:40:28Z</time></trkpt><trkpt lat="45.06390100780293" lon="9.304144861773768"><ele>89.0</ele><time>2026-05-03T08:40:29Z</time></trkpt><trkpt lat="45.06376949238083" lon="9.304110773345375"><ele>89.0</ele><time>2026-05-03T08:40:30Z</time></trkpt><trkpt lat="45.06363579519386" lon="9.304083487698387"><ele>89.0</ele><time>2026-05-03T08:40:31Z</time></trkpt><trkpt lat="45.063500540764096" lon="9.304054670926927"><ele>89.0</ele><time>2026-05-03T08:40:32Z</time></trkpt><trkpt lat="45.06336658322193" lon="9.304022883147354"><ele>88.75</ele><time>2026-05-03T08:40:33Z</time></trkpt><trkpt lat="45.063231162410936" lon="9.303989494162545"><ele>88.5</ele><time>2026-05-03T08:40:34Z</time></trkpt><trkpt lat="45.06310180113166" lon="9.303958542159924"><ele>88.25</ele><time>2026-05-03T08:40:35Z</time></trkpt><trkpt lat="45.06298290492418" lon="9.303927030124157"><ele>88.0</ele><time>2026-05-03T08:40:36Z</time></trkpt><trkpt lat="45.062866066746174" lon="9.30388790851416"><ele>88.5</ele><time>2026-05-03T08:40:37Z</time></trkpt><trkpt lat="45.06276441973726" lon="9.303841146404105"><ele>89.0</ele><time>2026-05-03T08:40:38Z</time></trkpt><trkpt lat="45.06267843098313" lon="9.303773233026215"><ele>89.5</ele><time>2026-05-03T08:40:39Z</time></trkpt><trkpt lat="45.06262524976504" lon="9.303687799505616"><ele>90.0</ele><time>2026-05-03T08:40:40Z</time></trkpt><trkpt lat="45.06256769813909" lon="9.303648419197033"><ele>90.5</ele><time>2026-05-03T08:40:41Z</time></trkpt><trkpt lat="45.06254692353659" lon="9.303539053391631"><ele>91.0</ele><time>2026-05-03T08:40:42Z</time></trkpt><trkpt lat="45.06247350547384" lon="9.303511193424194"><ele>91.0</ele><time>2026-05-03T08:40:43Z</time></trkpt><trkpt lat="45.0623842522652" lon="9.30351307102015"><ele>91.0</ele><time>2026-05-03T08:40:44Z</time></trkpt><trkpt lat="45.06228270626389" lon="9.303551316799945"><ele>91.0</ele><time>2026-05-03T08:40:45Z</time></trkpt><trkpt lat="45.06217180411351" lon="9.303599613345032"><ele>91.0</ele><time>2026-05-03T08:40:46Z</time></trkpt><trkpt lat="45.062046850823954" lon="9.303614829519573"><ele>91.0</ele><time>2026-05-03T08:40:47Z</time></trkpt><trkpt lat="45.06190750989679" lon="9.30360082259705"><ele>91.0</ele><time>2026-05-03T08:40:48Z</time></trkpt><trkpt lat="45.061755992105056" lon="9.303564905422663"><ele>91.0</ele><time>2026-05-03T08:40:49Z</time></trkpt><trkpt lat="45.061603260525374" lon="9.303504097579074"><ele>91.0</ele><time>2026-05-03T08:40:50Z</time></trkpt><trkpt lat="45.061462763327825" lon="9.303433150355556"><ele>91.5</ele><time>2026-05-03T08:40:51Z</time></trkpt><trkpt lat="45.06132851432874" lon="9.303368992575875"><ele>92.0</ele><time>2026-05-03T08:40:52Z</time></trkpt><trkpt lat="45.061191763990536" lon="9.303311220808967"><ele>92.5</ele><time>2026-05-03T08:40:53Z</time></trkpt><trkpt lat="45.06105504441062" lon="9.303251396704768"><ele>93.0</ele><time>2026-05-03T08:40:54Z</time></trkpt><trkpt lat="45.0609170855457" lon="9.303192369917818"><ele>93.0</ele><time>2026-05-03T08:40:55Z</time></trkpt><trkpt lat="45.06078105451958" lon="9.303132459809166"><ele>93.0</ele><time>2026-05-03T08:40:56Z</time></trkpt><trkpt lat="45.06064686570255" lon="9.303068731243227"><ele>93.0</ele><time>2026-05-03T08:40:57Z</time></trkpt><trkpt lat="45.06051289485221" lon="9.302997507000187"><ele>93.0</ele><time>2026-05-03T08:40:58Z</time></trkpt><trkpt lat="45.06037818636847" lon="9.302918008546323"><ele>93.0</ele><time>2026-05-03T08:40:59Z</time></trkpt><trkpt lat="45.06024155705264" lon="9.30283771393786"><ele>93.0</ele><time>2026-05-03T08:41:00Z</time></trkpt><trkpt lat="45.06010747262251" lon="9.302756659289923"><ele>93.0</ele><time>2026-05-03T08:41:01Z</time></trkpt><trkpt lat="45.05996774916736" lon="9.302671594317378"><ele>93.0</ele><time>2026-05-03T08:41:02Z</time></trkpt><trkpt lat="45.0598273533616" lon="9.302589458945334"><ele>92.0</ele><time>2026-05-03T08:41:03Z</time></trkpt><trkpt lat="45.059687748565615" lon="9.302508821796092"><ele>91.0</ele><time>2026-05-03T08:41:04Z</time></trkpt><trkpt lat="45.059547853729335" lon="9.30243393143847"><ele>90.0</ele><time>2026-05-03T08:41:05Z</time></trkpt><trkpt lat="45.059402982109674" lon="9.3023724581121"><ele>90.0</ele><time>2026-05-03T08:41:06Z</time></trkpt><trkpt lat="45.05925386170686" lon="9.30233069557315"><ele>90.0</ele><time>2026-05-03T08:41:07Z</time></trkpt><trkpt lat="45.05910321507279" lon="9.302315070092487"><ele>90.0</ele><time>2026-05-03T08:41:08Z</time></trkpt><trkpt lat="45.058951538141244" lon="9.302317419386535"><ele>90.66666666666667</ele><time>2026-05-03T08:41:09Z</time></trkpt><trkpt lat="45.05879912754195" lon="9.302326450937827"><ele>91.33333333333334</ele><time>2026-05-03T08:41:10Z</time></trkpt><trkpt lat="45.058641074127" lon="9.30233857049809"><ele>92.0</ele><time>2026-05-03T08:41:11Z</time></trkpt><trkpt lat="45.05848489347067" lon="9.302338804815541"><ele>92.0</ele><time>2026-05-03T08:41:12.001Z</time></trkpt><trkpt lat="45.05833028466601" lon="9.302326300642232"><ele>92.0</ele><time>2026-05-03T08:41:13.001Z</time></trkpt><trkpt lat="45.05818467037479" lon="9.30229981287896"><ele>92.0</ele><time>2026-05-03T08:41:14.001Z</time></trkpt><trkpt lat="45.05804136774541" lon="9.302263348996632"><ele>92.0</ele><time>2026-05-03T08:41:15.001Z</time></trkpt><trkpt lat="45.05789769689869" lon="9.302231252970154"><ele>93.0</ele><time>2026-05-03T08:41:16.001Z</time></trkpt><trkpt lat="45.05775614884646" lon="9.302196539125609"><ele>94.0</ele><time>2026-05-03T08:41:17.001Z</time></trkpt><trkpt lat="45.05761482200557" lon="9.302160787829463"><ele>95.0</ele><time>2026-05-03T08:41:18.001Z</time></trkpt><trkpt lat="45.057473203832394" lon="9.302122156710968"><ele>96.0</ele><time>2026-05-03T08:41:19.001Z</time></trkpt><trkpt lat="45.05733486290097" lon="9.302083334937176"><ele>96.0</ele><time>2026-05-03T08:41:20.001Z</time></trkpt><trkpt lat="45.057196042300994" lon="9.302044894004212"><ele>96.0</ele><time>2026-05-03T08:41:21.001Z</time></trkpt><trkpt lat="45.05705439814166" lon="9.302005854212842"><ele>96.0</ele><time>2026-05-03T08:41:22.001Z</time></trkpt><trkpt lat="45.05690957258057" lon="9.301967311565878"><ele>96.0</ele><time>2026-05-03T08:41:23.001Z</time></trkpt><trkpt lat="45.056762961794824" lon="9.301920020980841"><ele>102.0</ele><time>2026-05-03T08:41:24.001Z</time></trkpt><trkpt lat="45.04880932021215" lon="9.29993228124617"><ele>102.0</ele><time>2026-05-03T08:42:25Z</time></trkpt><trkpt lat="45.04867828828525" lon="9.299908804966302"><ele>102.0</ele><time>2026-05-03T08:42:26Z</time></trkpt><trkpt lat="45.048544676880226" lon="9.29987724173441"><ele>102.0</ele><time>2026-05-03T08:42:27Z</time></trkpt><trkpt lat="45.04841028749631" lon="9.299835362259655"><ele>102.0</ele><time>2026-05-03T08:42:28Z</time></trkpt><trkpt lat="45.04827800722945" lon="9.299783310325385"><ele>103.5</ele><time>2026-05-03T08:42:29Z</time></trkpt><trkpt lat="45.04815339725695" lon="9.299721404815012"><ele>105.0</ele><time>2026-05-03T08:42:30Z</time></trkpt><trkpt lat="45.04803093984209" lon="9.299660082557821"><ele>106.5</ele><time>2026-05-03T08:42:31Z</time></trkpt><trkpt lat="45.04791565143487" lon="9.299595898906329"><ele>108.0</ele><time>2026-05-03T08:42:32Z</time></trkpt><trkpt lat="45.04780105647146" lon="9.299527464805614"><ele>108.0</ele><time>2026-05-03T08:42:33Z</time></trkpt><trkpt lat="45.04769252425946" lon="9.299454256329676"><ele>108.0</ele><time>2026-05-03T08:42:34Z</time></trkpt><trkpt lat="45.04758533423698" lon="9.299377651624875"><ele>108.0</ele><time>2026-05-03T08:42:35Z</time></trkpt><trkpt lat="45.04749171703992" lon="9.299293976743764"><ele>108.0</ele><time>2026-05-03T08:42:36Z</time></trkpt><trkpt lat="45.04740255499016" lon="9.299214816712567"><ele>107.60000000000001</ele><time>2026-05-03T08:42:37Z</time></trkpt><trkpt lat="45.04732676100005" lon="9.2991231611048"><ele>107.20000000000002</ele><time>2026-05-03T08:42:38Z</time></trkpt><trkpt lat="45.047253719338606" lon="9.299038802750427"><ele>106.8</ele><time>2026-05-03T08:42:39Z</time></trkpt><trkpt lat="45.04717043849433" lon="9.29894978570974"><ele>106.4</ele><time>2026-05-03T08:42:40Z</time></trkpt><trkpt lat="45.04708156101788" lon="9.298856009704066"><ele>106.0</ele><time>2026-05-03T08:42:41Z</time></trkpt><trkpt lat="45.046989512597925" lon="9.298760354934576"><ele>106.0</ele><time>2026-05-03T08:42:42Z</time></trkpt><trkpt lat="45.04689325161793" lon="9.298666586291938"><ele>106.0</ele><time>2026-05-03T08:42:43Z</time></trkpt><trkpt lat="45.04678936862142" lon="9.298586576760748"><ele>106.0</ele><time>2026-05-03T08:42:44Z</time></trkpt><trkpt lat="45.04668439136611" lon="9.298520127041302"><ele>106.0</ele><time>2026-05-03T08:42:45Z</time></trkpt><trkpt lat="45.04658846641904" lon="9.298473461142548"><ele>105.8</ele><time>2026-05-03T08:42:46Z</time></trkpt><trkpt lat="45.04649540109508" lon="9.298428602039094"><ele>105.6</ele><time>2026-05-03T08:42:47Z</time></trkpt><trkpt lat="45.04640439791961" lon="9.298402404145014"><ele>105.4</ele><time>2026-05-03T08:42:48Z</time></trkpt><trkpt lat="45.04632397754381" lon="9.298376345705078"><ele>105.2</ele><time>2026-05-03T08:42:49Z</time></trkpt><trkpt lat="45.046255445233875" lon="9.298360294568461"><ele>105.0</ele><time>2026-05-03T08:42:50Z</time></trkpt><trkpt lat="45.046144611282024" lon="9.298349651362315"><ele>105.0</ele><time>2026-05-03T08:42:52Z</time></trkpt><trkpt lat="45.04605655368775" lon="9.298361283502281"><ele>105.0</ele><time>2026-05-03T08:42:54Z</time></trkpt><trkpt lat="45.0459585571977" lon="9.29835457544066"><ele>105.0</ele><time>2026-05-03T08:42:56Z</time></trkpt><trkpt lat="45.04586082056577" lon="9.298325281941532"><ele>105.0</ele><time>2026-05-03T08:42:58Z</time></trkpt><trkpt lat="45.045752628671494" lon="9.29827836579056"><ele>105.0</ele><time>2026-05-03T08:43:00Z</time></trkpt><trkpt lat="45.045691839295806" lon="9.298169927084633"><ele>105.6</ele><time>2026-05-03T08:43:02Z</time></trkpt><trkpt lat="45.04556566912363" lon="9.298106063897222"><ele>106.2</ele><time>2026-05-03T08:43:04Z</time></trkpt><trkpt lat="45.045460519850124" lon="9.298195256751617"><ele>106.80000000000001</ele><time>2026-05-03T08:43:06Z</time></trkpt><trkpt lat="45.04540675922508" lon="9.298259469737866"><ele>107.4</ele><time>2026-05-03T08:43:07Z</time></trkpt><trkpt lat="45.04534814644238" lon="9.298325415293212"><ele>108.0</ele><time>2026-05-03T08:43:08Z</time></trkpt><trkpt lat="45.0452787897004" lon="9.2983798038406"><ele>108.0</ele><time>2026-05-03T08:43:09Z</time></trkpt><trkpt lat="45.04520766528986" lon="9.298425112933533"><ele>108.00000000000001</ele><time>2026-05-03T08:43:10Z</time></trkpt><trkpt lat="45.04512699662135" lon="9.298450454082385"><ele>108.00000000000001</ele><time>2026-05-03T08:43:11Z</time></trkpt><trkpt lat="45.0450347329056" lon="9.298460535442276"><ele>108.0</ele><time>2026-05-03T08:43:12Z</time></trkpt><trkpt lat="45.044926315025826" lon="9.29847827534469"><ele>108.0</ele><time>2026-05-03T08:43:13Z</time></trkpt><trkpt lat="45.04480401767396" lon="9.298488222324204"><ele>108.5</ele><time>2026-05-03T08:43:14Z</time></trkpt><trkpt lat="45.04468331041627" lon="9.298507831360052"><ele>109.0</ele><time>2026-05-03T08:43:15Z</time></trkpt><trkpt lat="45.0445575441505" lon="9.29852074602874"><ele>109.5</ele><time>2026-05-03T08:43:16Z</time></trkpt><trkpt lat="45.04442547921609" lon="9.29854866209678"><ele>110.0</ele><time>2026-05-03T08:43:17Z</time></trkpt><trkpt lat="45.04429027153469" lon="9.29857742773478"><ele>110.0</ele><time>2026-05-03T08:43:18.001Z</time></trkpt><trkpt lat="45.04414094117615" lon="9.298582589685479"><ele>110.0</ele><time>2026-05-03T08:43:19.001Z</time></trkpt><trkpt lat="45.04397612721581" lon="9.298603772250496"><ele>110.0</ele><time>2026-05-03T08:43:20.001Z</time></trkpt><trkpt lat="45.04382844787036" lon="9.298622445580948"><ele>109.25</ele><time>2026-05-03T08:43:21.001Z</time></trkpt><trkpt lat="45.04369600976987" lon="9.298639172628071"><ele>108.5</ele><time>2026-05-03T08:43:22.001Z</time></trkpt><trkpt lat="45.043567594595075" lon="9.298660362409985"><ele>107.75</ele><time>2026-05-03T08:43:23.001Z</time></trkpt><trkpt lat="45.04343636625091" lon="9.298681292077381"><ele>107.0</ele><time>2026-05-03T08:43:24.001Z</time></trkpt><trkpt lat="45.03663579019218" lon="9.299450153236386"><ele>109.16666666666666</ele><time>2026-05-03T08:44:25Z</time></trkpt><trkpt lat="45.03655131585993" lon="9.299477309840404"><ele>111.33333333333333</ele><time>2026-05-03T08:44:28Z</time></trkpt><trkpt lat="45.0364792013069" lon="9.299465574826593"><ele>113.5</ele><time>2026-05-03T08:44:30Z</time></trkpt><trkpt lat="45.03639644100137" lon="9.299470074645205"><ele>115.66666666666666</ele><time>2026-05-03T08:44:32Z</time></trkpt><trkpt lat="45.03631548607221" lon="9.299474476289268"><ele>117.83333333333333</ele><time>2026-05-03T08:44:34Z</time></trkpt><trkpt lat="45.03621488699835" lon="9.299479946021611"><ele>120.0</ele><time>2026-05-03T08:44:36Z</time></trkpt><trkpt lat="45.036133511389174" lon="9.29950781806814"><ele>120.0</ele><time>2026-05-03T08:44:38Z</time></trkpt><trkpt lat="45.03605389753449" lon="9.299488699280959"><ele>120.0</ele><time>2026-05-03T08:44:40Z</time></trkpt><trkpt lat="45.03598090378979" lon="9.299492668063342"><ele>120.0</ele><time>2026-05-03T08:44:42Z</time></trkpt><trkpt lat="45.03591093499138" lon="9.299496472381835"><ele>120.0</ele><time>2026-05-03T08:44:44Z</time></trkpt><trkpt lat="45.03581290669438" lon="9.299524497841945"><ele>120.0</ele><time>2026-05-03T08:44:46Z</time></trkpt><trkpt lat="45.03567628572016" lon="9.299520502693824"><ele>120.14285714285714</ele><time>2026-05-03T08:44:48Z</time></trkpt><trkpt lat="45.03559929650219" lon="9.29950085726183"><ele>120.28571428571428</ele><time>2026-05-03T08:44:49Z</time></trkpt><trkpt lat="45.03552760854888" lon="9.299502187256758"><ele>120.42857142857142</ele><time>2026-05-03T08:44:50Z</time></trkpt><trkpt lat="45.03546192529874" lon="9.299505392304916"><ele>120.57142857142857</ele><time>2026-05-03T08:44:51Z</time></trkpt><trkpt lat="45.035395158348045" lon="9.299507836824766"><ele>120.7142857142857</ele><time>2026-05-03T08:44:52Z</time></trkpt><trkpt lat="45.03532288525349" lon="9.299515448742657"><ele>120.85714285714285</ele><time>2026-05-03T08:44:53Z</time></trkpt><trkpt lat="45.035245620587965" lon="9.299524569902132"><ele>121.0</ele><time>2026-05-03T08:44:54Z</time></trkpt><trkpt lat="45.03517106457616" lon="9.299528323359542"><ele>121.0</ele><time>2026-05-03T08:44:55Z</time></trkpt><trkpt lat="45.035104498558745" lon="9.299533775424754"><ele>120.99999999999999</ele><time>2026-05-03T08:44:56Z</time></trkpt><trkpt lat="45.03502990488713" lon="9.29952741961788"><ele>121.0</ele><time>2026-05-03T08:44:57Z</time></trkpt><trkpt lat="45.03495313210962" lon="9.299558961498157"><ele>121.0</ele><time>2026-05-03T08:44:58Z</time></trkpt><trkpt lat="45.034882240948875" lon="9.299530450617002"><ele>120.99999999999999</ele><time>2026-05-03T08:44:59Z</time></trkpt><trkpt lat="45.03480381407731" lon="9.299525337635918"><ele>121.0</ele><time>2026-05-03T08:45:00Z</time></trkpt><trkpt lat="45.03473023745901" lon="9.299527081357484"><ele>121.0</ele><time>2026-05-03T08:45:01Z</time></trkpt><trkpt lat="45.0346618603821" lon="9.299513257057967"><ele>120.66666666666667</ele><time>2026-05-03T08:45:02Z</time></trkpt><trkpt lat="45.03459460334327" lon="9.29948224933605"><ele>120.33333333333334</ele><time>2026-05-03T08:45:03Z</time></trkpt><trkpt lat="45.03452140407237" lon="9.29946066634822"><ele>120.0</ele><time>2026-05-03T08:45:04Z</time></trkpt><trkpt lat="45.03444594496498" lon="9.299472699006525"><ele>119.66666666666666</ele><time>2026-05-03T08:45:05Z</time></trkpt><trkpt lat="45.03437613393818" lon="9.299507962183055"><ele>119.33333333333333</ele><time>2026-05-03T08:45:06Z</time></trkpt><trkpt lat="45.03430109662791" lon="9.299541374589397"><ele>119.0</ele><time>2026-05-03T08:45:07Z</time></trkpt><trkpt lat="45.034218037006376" lon="9.299557133048092"><ele>119.4</ele><time>2026-05-03T08:45:08Z</time></trkpt><trkpt lat="45.03412539986602" lon="9.299566197760223"><ele>119.80000000000001</ele><time>2026-05-03T08:45:09Z</time></trkpt><trkpt lat="45.03402756063025" lon="9.299578250319739"><ele>120.19999999999999</ele><time>2026-05-03T08:45:10Z</time></trkpt><trkpt lat="45.03391577502221" lon="9.299596514249497"><ele>120.6</ele><time>2026-05-03T08:45:11Z</time></trkpt><trkpt lat="45.03381061229932" lon="9.29959844878431"><ele>121.0</ele><time>2026-05-03T08:45:12Z</time></trkpt><trkpt lat="45.03370036036" lon="9.299625332141792"><ele>121.0</ele><time>2026-05-03T08:45:13Z</time></trkpt><trkpt lat="45.03358166130125" lon="9.299608430982065"><ele>121.0</ele><time>2026-05-03T08:45:14Z</time></trkpt><trkpt lat="45.03346396191436" lon="9.299614157350327"><ele>121.0</ele><time>2026-05-03T08:45:15Z</time></trkpt><trkpt lat="45.03334460346373" lon="9.299620889583519"><ele>121.0</ele><time>2026-05-03T08:45:16Z</time></trkpt><trkpt lat="45.03321883255155" lon="9.299627983493492"><ele>121.25</ele><time>2026-05-03T08:45:17Z</time></trkpt><trkpt lat="45.033088816372846" lon="9.299655005570798"><ele>121.5</ele><time>2026-05-03T08:45:17.999Z</time></trkpt><trkpt lat="45.03295693157358" lon="9.299657412874259"><ele>121.75</ele><time>2026-05-03T08:45:18.999Z</time></trkpt><trkpt lat="45.03282146207969" lon="9.299665574585884"><ele>122.0</ele><time>2026-05-03T08:45:19.999Z</time></trkpt><trkpt lat="45.03267861838808" lon="9.299654094807547"><ele>122.0</ele><time>2026-05-03T08:45:20.999Z</time></trkpt><trkpt lat="45.03253861547713" lon="9.299650330541153"><ele>122.0</ele><time>2026-05-03T08:45:21.999Z</time></trkpt><trkpt lat="45.03239488113536" lon="9.299652256274271"><ele>122.0</ele><time>2026-05-03T08:45:22.999Z</time></trkpt><trkpt lat="45.0322374014282" lon="9.299633857245626"><ele>122.0</ele><time>2026-05-03T08:45:24Z</time></trkpt><trkpt lat="45.02371254665911" lon="9.298858438444183"><ele>125.66666666666666</ele><time>2026-05-03T08:46:25Z</time></trkpt><trkpt lat="45.023562479452764" lon="9.298857845460715"><ele>129.33333333333334</ele><time>2026-05-03T08:46:26Z</time></trkpt><trkpt lat="45.02341155440818" lon="9.298908371847066"><ele>133.0</ele><time>2026-05-03T08:46:27Z</time></trkpt><trkpt lat="45.02327037121053" lon="9.298990647565713"><ele>133.0</ele><time>2026-05-03T08:46:28Z</time></trkpt><trkpt lat="45.02314988823318" lon="9.29909499417517"><ele>133.0</ele><time>2026-05-03T08:46:29Z</time></trkpt><trkpt lat="45.02303487768604" lon="9.299174897443969"><ele>133.0</ele><time>2026-05-03T08:46:30Z</time></trkpt><trkpt lat="45.022920260257536" lon="9.299233414511582"><ele>133.0</ele><time>2026-05-03T08:46:31Z</time></trkpt><trkpt lat="45.02281724506805" lon="9.299309511249902"><ele>133.0</ele><time>2026-05-03T08:46:32Z</time></trkpt><trkpt lat="45.02271051100391" lon="9.29938858782757"><ele>133.0</ele><time>2026-05-03T08:46:33Z</time></trkpt><trkpt lat="45.02260655427954" lon="9.299489253368218"><ele>133.0</ele><time>2026-05-03T08:46:34Z</time></trkpt><trkpt lat="45.022497820642656" lon="9.299566513771524"><ele>133.0</ele><time>2026-05-03T08:46:35Z</time></trkpt><trkpt lat="45.02239656618007" lon="9.299643343198525"><ele>132.5</ele><time>2026-05-03T08:46:36Z</time></trkpt><trkpt lat="45.022290543772066" lon="9.299719578083051"><ele>132.0</ele><time>2026-05-03T08:46:37Z</time></trkpt><trkpt lat="45.02217273545988" lon="9.299783446705268"><ele>131.5</ele><time>2026-05-03T08:46:38Z</time></trkpt><trkpt lat="45.02205441448404" lon="9.299856286477432"><ele>131.0</ele><time>2026-05-03T08:46:39Z</time></trkpt><trkpt lat="45.021931974713084" lon="9.299929798825037"><ele>131.0</ele><time>2026-05-03T08:46:40Z</time></trkpt><trkpt lat="45.02180166635576" lon="9.300002229950124"><ele>131.0</ele><time>2026-05-03T08:46:41Z</time></trkpt><trkpt lat="45.021667753842785" lon="9.300061692964626"><ele>131.0</ele><time>2026-05-03T08:46:42Z</time></trkpt><trkpt lat="45.02153073750216" lon="9.300094942108242"><ele>131.0</ele><time>2026-05-03T08:46:43Z</time></trkpt><trkpt lat="45.021393281732855" lon="9.300118966181282"><ele>131.5</ele><time>2026-05-03T08:46:44Z</time></trkpt><trkpt lat="45.02126320270585" lon="9.300122465907442"><ele>132.0</ele><time>2026-05-03T08:46:45Z</time></trkpt><trkpt lat="45.021141827419704" lon="9.300102812514606"><ele>132.5</ele><time>2026-05-03T08:46:46Z</time></trkpt><trkpt lat="45.02102397718136" lon="9.300065074338153"><ele>133.0</ele><time>2026-05-03T08:46:47Z</time></trkpt><trkpt lat="45.02090785151233" lon="9.300006390653387"><ele>133.0</ele><time>2026-05-03T08:46:48Z</time></trkpt><trkpt lat="45.02079015720934" lon="9.299928711560451"><ele>133.0</ele><time>2026-05-03T08:46:49Z</time></trkpt><trkpt lat="45.02066730047765" lon="9.299841229495293"><ele>133.0</ele><time>2026-05-03T08:46:50Z</time></trkpt><trkpt lat="45.020542462411996" lon="9.299738304434214"><ele>133.0</ele><time>2026-05-03T08:46:51Z</time></trkpt><trkpt lat="45.02041712246103" lon="9.299626822694266"><ele>133.0</ele><time>2026-05-03T08:46:52Z</time></trkpt><trkpt lat="45.020293212337826" lon="9.299522693551864"><ele>133.0</ele><time>2026-05-03T08:46:53Z</time></trkpt><trkpt lat="45.02017918142047" lon="9.299430787633256"><ele>133.0</ele><time>2026-05-03T08:46:54Z</time></trkpt><trkpt lat="45.02006768122595" lon="9.299357132944943"><ele>133.0</ele><time>2026-05-03T08:46:55Z</time></trkpt><trkpt lat="45.019949064297776" lon="9.29930756065898"><ele>133.25</ele><time>2026-05-03T08:46:56Z</time></trkpt><trkpt lat="45.01982147604644" lon="9.299273913918068"><ele>133.5</ele><time>2026-05-03T08:46:57Z</time></trkpt><trkpt lat="45.019691923920185" lon="9.299252312259236"><ele>133.75</ele><time>2026-05-03T08:46:58Z</time></trkpt><trkpt lat="45.0195660972524" lon="9.299238803094838"><ele>134.0</ele><time>2026-05-03T08:46:59Z</time></trkpt><trkpt lat="45.0194385558542" lon="9.299236863071052"><ele>134.0</ele><time>2026-05-03T08:47:00Z</time></trkpt><trkpt lat="45.01931778050827" lon="9.299235161646397"><ele>134.0</ele><time>2026-05-03T08:47:01Z</time></trkpt><trkpt lat="45.01919970266391" lon="9.299229847012011"><ele>134.0</ele><time>2026-05-03T08:47:02Z</time></trkpt><trkpt lat="45.01907841372244" lon="9.299228738163837"><ele>134.0</ele><time>2026-05-03T08:47:03Z</time></trkpt><trkpt lat="45.018956323115084" lon="9.299227761976306"><ele>134.5</ele><time>2026-05-03T08:47:04Z</time></trkpt><trkpt lat="45.018829767133546" lon="9.299223254461765"><ele>135.0</ele><time>2026-05-03T08:47:05Z</time></trkpt><trkpt lat="45.01869988927831" lon="9.29921890173776"><ele>135.5</ele><time>2026-05-03T08:47:06Z</time></trkpt><trkpt lat="45.01856837142215" lon="9.299218686721604"><ele>136.0</ele><time>2026-05-03T08:47:07Z</time></trkpt><trkpt lat="45.01843843157457" lon="9.299221167892453"><ele>136.0</ele><time>2026-05-03T08:47:08Z</time></trkpt><trkpt lat="45.018305894871766" lon="9.299219198347188"><ele>136.0</ele><time>2026-05-03T08:47:09Z</time></trkpt><trkpt lat="45.018168927152885" lon="9.299212604567638"><ele>136.0</ele><time>2026-05-03T08:47:10Z</time></trkpt><trkpt lat="45.018024568255456" lon="9.299209570517938"><ele>136.0</ele><time>2026-05-03T08:47:11Z</time></trkpt><trkpt lat="45.01787619137481" lon="9.299213959221992"><ele>136.0</ele><time>2026-05-03T08:47:12Z</time></trkpt><trkpt lat="45.01772497690477" lon="9.299216505441763"><ele>136.0</ele><time>2026-05-03T08:47:13Z</time></trkpt><trkpt lat="45.017571163407176" lon="9.299213062039131"><ele>136.0</ele><time>2026-05-03T08:47:14Z</time></trkpt><trkpt lat="45.01741833881093" lon="9.299217270280439"><ele>136.66666666666669</ele><time>2026-05-03T08:47:15Z</time></trkpt><trkpt lat="45.01726308144481" lon="9.29921676714759"><ele>137.33333333333334</ele><time>2026-05-03T08:47:16Z</time></trkpt><trkpt lat="45.01710931524087" lon="9.299215726560806"><ele>138.0</ele><time>2026-05-03T08:47:17Z</time></trkpt><trkpt lat="45.016954260736675" lon="9.29921899523784"><ele>138.0</ele><time>2026-05-03T08:47:18Z</time></trkpt><trkpt lat="45.0167991827577" lon="9.299225055151016"><ele>138.0</ele><time>2026-05-03T08:47:19Z</time></trkpt><trkpt lat="45.01664237177821" lon="9.299232695554634"><ele>138.0</ele><time>2026-05-03T08:47:20Z</time></trkpt><trkpt lat="45.016484954544616" lon="9.299234902030364"><ele>138.0</ele><time>2026-05-03T08:47:21Z</time></trkpt><trkpt lat="45.0163278786478" lon="9.299232596599659"><ele>138.0</ele><time>2026-05-03T08:47:22Z</time></trkpt><trkpt lat="45.01618008292053" lon="9.299230356424244"><ele>138.0</ele><time>2026-05-03T08:47:23Z</time></trkpt><trkpt lat="45.01605413153181" lon="9.299226491379681"><ele>138.0</ele><time>2026-05-03T08:47:24Z</time></trkpt><trkpt lat="45.008514209476346" lon="9.298653411072376"><ele>142.25</ele><time>2026-05-03T08:48:25Z</time></trkpt><trkpt lat="45.00839596442405" lon="9.298648706243846"><ele>146.5</ele><time>2026-05-03T08:48:26Z</time></trkpt><trkpt lat="45.00827421263343" lon="9.298647701178927"><ele>150.75</ele><time>2026-05-03T08:48:27Z</time></trkpt><trkpt lat="45.0081622191357" lon="9.298635714172814"><ele>155.0</ele><time>2026-05-03T08:48:28Z</time></trkpt><trkpt lat="45.008051305708804" lon="9.298625725437182"><ele>155.5</ele><time>2026-05-03T08:48:29Z</time></trkpt><trkpt lat="45.007935261971625" lon="9.298582825897396"><ele>156.0</ele><time>2026-05-03T08:48:30Z</time></trkpt><trkpt lat="45.0078166119676" lon="9.29856441320087"><ele>156.5</ele><time>2026-05-03T08:48:31Z</time></trkpt><trkpt lat="45.00769801088111" lon="9.298537808545756"><ele>157.0</ele><time>2026-05-03T08:48:32Z</time></trkpt><trkpt lat="45.007574215811594" lon="9.298513489845954"><ele>156.0</ele><time>2026-05-03T08:48:33Z</time></trkpt><trkpt lat="45.0074458156895" lon="9.298477810750066"><ele>155.0</ele><time>2026-05-03T08:48:34Z</time></trkpt><trkpt lat="45.00731414415396" lon="9.29843060267457"><ele>154.0</ele><time>2026-05-03T08:48:35Z</time></trkpt><trkpt lat="45.00718376128484" lon="9.298374433212967"><ele>153.0</ele><time>2026-05-03T08:48:36Z</time></trkpt><trkpt lat="45.007055138143976" lon="9.29830330387466"><ele>153.0</ele><time>2026-05-03T08:48:37Z</time></trkpt><trkpt lat="45.00693347210008" lon="9.29821359818853"><ele>153.0</ele><time>2026-05-03T08:48:38Z</time></trkpt><trkpt lat="45.0068212217582" lon="9.298113476896303"><ele>153.0</ele><time>2026-05-03T08:48:39Z</time></trkpt><trkpt lat="45.00673318021405" lon="9.298028477944333"><ele>153.0</ele><time>2026-05-03T08:48:40Z</time></trkpt><trkpt lat="45.00666262825883" lon="9.297966048717637"><ele>153.33333333333334</ele><time>2026-05-03T08:48:41Z</time></trkpt><trkpt lat="45.00661113351745" lon="9.297911344421113"><ele>153.66666666666666</ele><time>2026-05-03T08:48:42Z</time></trkpt><trkpt lat="45.006554282163556" lon="9.29785072511753"><ele>154.0</ele><time>2026-05-03T08:48:45Z</time></trkpt><trkpt lat="45.00647646981645" lon="9.297781931385838"><ele>154.33333333333331</ele><time>2026-05-03T08:48:49Z</time></trkpt><trkpt lat="45.0063867807311" lon="9.297687615597699"><ele>154.66666666666666</ele><time>2026-05-03T08:48:54Z</time></trkpt><trkpt lat="45.00632786700783" lon="9.29763102309092"><ele>155.0</ele><time>2026-05-03T08:48:55Z</time></trkpt><trkpt lat="45.00626175998803" lon="9.297568617317747"><ele>155.0</ele><time>2026-05-03T08:48:56Z</time></trkpt><trkpt lat="45.006185522488785" lon="9.297505675063778"><ele>155.0</ele><time>2026-05-03T08:48:57Z</time></trkpt><trkpt lat="45.006103929003906" lon="9.297440677299218"><ele>155.0</ele><time>2026-05-03T08:48:58Z</time></trkpt><trkpt lat="45.00602294635615" lon="9.297365061314874"><ele>155.0</ele><time>2026-05-03T08:48:59Z</time></trkpt><trkpt lat="45.005937906425785" lon="9.29727977329113"><ele>155.0</ele><time>2026-05-03T08:49:00Z</time></trkpt><trkpt lat="45.00584856244455" lon="9.297191179009797"><ele>155.25</ele><time>2026-05-03T08:49:01Z</time></trkpt><trkpt lat="45.005761260888264" lon="9.297103982937823"><ele>155.5</ele><time>2026-05-03T08:49:02Z</time></trkpt><trkpt lat="45.00567289531426" lon="9.297009744931557"><ele>155.75</ele><time>2026-05-03T08:49:03Z</time></trkpt><trkpt lat="45.00558196085413" lon="9.296903752541759"><ele>156.0</ele><time>2026-05-03T08:49:04Z</time></trkpt><trkpt lat="45.005495398995365" lon="9.296781087459303"><ele>156.0</ele><time>2026-05-03T08:49:05Z</time></trkpt><trkpt lat="45.00541447611196" lon="9.296647829176411"><ele>156.0</ele><time>2026-05-03T08:49:06Z</time></trkpt><trkpt lat="45.005341112801986" lon="9.296505411321005"><ele>156.0</ele><time>2026-05-03T08:49:07Z</time></trkpt><trkpt lat="45.0052735733257" lon="9.296356402894153"><ele>156.0</ele><time>2026-05-03T08:49:08Z</time></trkpt><trkpt lat="45.005209385903655" lon="9.296197619476809"><ele>156.25</ele><time>2026-05-03T08:49:09Z</time></trkpt><trkpt lat="45.005141128829244" lon="9.296036911076834"><ele>156.5</ele><time>2026-05-03T08:49:10Z</time></trkpt><trkpt lat="45.005072436513046" lon="9.295866539589467"><ele>156.75</ele><time>2026-05-03T08:49:10.999Z</time></trkpt><trkpt lat="45.00499682182681" lon="9.295659310348528"><ele>157.0</ele><time>2026-05-03T08:49:11.999Z</time></trkpt><trkpt lat="45.00490497702511" lon="9.29542230382536"><ele>157.0</ele><time>2026-05-03T08:49:12.999Z</time></trkpt><trkpt lat="45.00481391799603" lon="9.29520290118024"><ele>157.0</ele><time>2026-05-03T08:49:13.999Z</time></trkpt><trkpt lat="45.00471524855954" lon="9.295023260567032"><ele>157.0</ele><time>2026-05-03T08:49:14.999Z</time></trkpt><trkpt lat="45.00460029924006" lon="9.294879782511444"><ele>157.0</ele><time>2026-05-03T08:49:15.999Z</time></trkpt><trkpt lat="45.004490229729655" lon="9.294760188366038"><ele>157.0</ele><time>2026-05-03T08:49:16.999Z</time></trkpt><trkpt lat="45.00438752372693" lon="9.294643340664123"><ele>157.0</ele><time>2026-05-03T08:49:17.999Z</time></trkpt><trkpt lat="45.004296591711785" lon="9.294532464813523"><ele>157.0</ele><time>2026-05-03T08:49:18.999Z</time></trkpt><trkpt lat="45.00421090441591" lon="9.2944286780338"><ele>157.0</ele><time>2026-05-03T08:49:19.999Z</time></trkpt><trkpt lat="45.0041259496048" lon="9.294330662173202"><ele>157.0</ele><time>2026-05-03T08:49:20.999Z</time></trkpt><trkpt lat="45.004041196586336" lon="9.294229380942513"><ele>157.0</ele><time>2026-05-03T08:49:21.999Z</time></trkpt><trkpt lat="45.00395108618997" lon="9.294150262864067"><ele>157.0</ele><time>2026-05-03T08:49:22.999Z</time></trkpt><trkpt lat="45.00386488120423" lon="9.294095566026295"><ele>157.0</ele><time>2026-05-03T08:49:23.999Z</time></trkpt><trkpt lat="44.99794693747647" lon="9.293941114165582"><ele>159.5</ele><time>2026-05-03T08:50:25Z</time></trkpt><trkpt lat="44.99785863172116" lon="9.294063710228755"><ele>162.0</ele><time>2026-05-03T08:50:26Z</time></trkpt><trkpt lat="44.997763120063944" lon="9.29417892477335"><ele>164.5</ele><time>2026-05-03T08:50:27Z</time></trkpt><trkpt lat="44.997670349988276" lon="9.294277749407184"><ele>167.0</ele><time>2026-05-03T08:50:28Z</time></trkpt><trkpt lat="44.99758295946089" lon="9.294386325030601"><ele>167.25</ele><time>2026-05-03T08:50:29Z</time></trkpt><trkpt lat="44.997495002865485" lon="9.294500536257845"><ele>167.5</ele><time>2026-05-03T08:50:30Z</time></trkpt><trkpt lat="44.99740392172314" lon="9.294620759900083"><ele>167.75</ele><time>2026-05-03T08:50:31Z</time></trkpt><trkpt lat="44.99730154740803" lon="9.29472899493175"><ele>168.0</ele><time>2026-05-03T08:50:32Z</time></trkpt><trkpt lat="44.99720978658352" lon="9.29484742207694"><ele>168.0</ele><time>2026-05-03T08:50:33Z</time></trkpt><trkpt lat="44.997118214318355" lon="9.294958863891416"><ele>168.0</ele><time>2026-05-03T08:50:34Z</time></trkpt><trkpt lat="44.99702894571241" lon="9.295069698784763"><ele>168.0</ele><time>2026-05-03T08:50:35Z</time></trkpt><trkpt lat="44.99693695970528" lon="9.295183639024993"><ele>168.0</ele><time>2026-05-03T08:50:36Z</time></trkpt><trkpt lat="44.99684117828795" lon="9.295295156418346"><ele>168.0</ele><time>2026-05-03T08:50:37Z</time></trkpt><trkpt lat="44.99674283838116" lon="9.295415393010035"><ele>168.0</ele><time>2026-05-03T08:50:38Z</time></trkpt><trkpt lat="44.99664826543486" lon="9.295541409917115"><ele>168.0</ele><time>2026-05-03T08:50:39Z</time></trkpt><trkpt lat="44.99654736418531" lon="9.295650210851612"><ele>168.0</ele><time>2026-05-03T08:50:40Z</time></trkpt><trkpt lat="44.99645494176726" lon="9.295759413830249"><ele>168.25</ele><time>2026-05-03T08:50:41Z</time></trkpt><trkpt lat="44.996369018323044" lon="9.295869943538912"><ele>168.5</ele><time>2026-05-03T08:50:42Z</time></trkpt><trkpt lat="44.996278494419144" lon="9.295980992552005"><ele>168.75</ele><time>2026-05-03T08:50:43Z</time></trkpt><trkpt lat="44.99618651070398" lon="9.296090629427216"><ele>169.0</ele><time>2026-05-03T08:50:44Z</time></trkpt><trkpt lat="44.99609684638439" lon="9.296193244879774"><ele>169.0</ele><time>2026-05-03T08:50:45Z</time></trkpt><trkpt lat="44.99600748225412" lon="9.296298814525068"><ele>169.0</ele><time>2026-05-03T08:50:46Z</time></trkpt><trkpt lat="44.9959160812215" lon="9.296409880311268"><ele>169.0</ele><time>2026-05-03T08:50:47Z</time></trkpt><trkpt lat="44.995826455647695" lon="9.296514142678431"><ele>169.0</ele><time>2026-05-03T08:50:48Z</time></trkpt><trkpt lat="44.99573910330062" lon="9.29660947040491"><ele>169.6</ele><time>2026-05-03T08:50:49Z</time></trkpt><trkpt lat="44.99566068293835" lon="9.296707749394798"><ele>170.2</ele><time>2026-05-03T08:50:50Z</time></trkpt><trkpt lat="44.99558614082408" lon="9.296805464007452"><ele>170.79999999999998</ele><time>2026-05-03T08:50:51Z</time></trkpt><trkpt lat="44.99551507504183" lon="9.296898640216774"><ele>171.39999999999998</ele><time>2026-05-03T08:50:52Z</time></trkpt><trkpt lat="44.99544248173916" lon="9.29699051435984"><ele>172.0</ele><time>2026-05-03T08:50:53Z</time></trkpt><trkpt lat="44.99536553637101" lon="9.297088174550844"><ele>172.0</ele><time>2026-05-03T08:50:54Z</time></trkpt><trkpt lat="44.99528568794696" lon="9.297184859210818"><ele>172.0</ele><time>2026-05-03T08:50:55Z</time></trkpt><trkpt lat="44.995197182378156" lon="9.29728496075303"><ele>172.0</ele><time>2026-05-03T08:50:56Z</time></trkpt><trkpt lat="44.995106127274894" lon="9.297393596729629"><ele>172.0</ele><time>2026-05-03T08:50:57Z</time></trkpt><trkpt lat="44.9950100517942" lon="9.297510565220689"><ele>172.25</ele><time>2026-05-03T08:50:58Z</time></trkpt><trkpt lat="44.99491173922922" lon="9.297632305772746"><ele>172.5</ele><time>2026-05-03T08:50:59Z</time></trkpt><trkpt lat="44.99481499427465" lon="9.297751605180421"><ele>172.75</ele><time>2026-05-03T08:51:00Z</time></trkpt><trkpt lat="44.994716641531255" lon="9.297877587635163"><ele>173.0</ele><time>2026-05-03T08:51:01Z</time></trkpt><trkpt lat="44.99460673848521" lon="9.297982089776328"><ele>173.0</ele><time>2026-05-03T08:51:02Z</time></trkpt><trkpt lat="44.99451612451947" lon="9.298120302716473"><ele>173.0</ele><time>2026-05-03T08:51:03Z</time></trkpt><trkpt lat="44.994411067587016" lon="9.298246749751913"><ele>173.0</ele><time>2026-05-03T08:51:04Z</time></trkpt><trkpt lat="44.99430377509501" lon="9.298382209467402"><ele>173.0</ele><time>2026-05-03T08:51:05Z</time></trkpt><trkpt lat="44.99419588138236" lon="9.298505447401023"><ele>174.0</ele><time>2026-05-03T08:51:06Z</time></trkpt><trkpt lat="44.99408333470431" lon="9.29860887257062"><ele>175.0</ele><time>2026-05-03T08:51:07Z</time></trkpt><trkpt lat="44.993981146799484" lon="9.298732332584512"><ele>176.0</ele><time>2026-05-03T08:51:08Z</time></trkpt><trkpt lat="44.99388340159151" lon="9.29885046744296"><ele>177.0</ele><time>2026-05-03T08:51:09Z</time></trkpt><trkpt lat="44.993786587822285" lon="9.298967476570677"><ele>177.0</ele><time>2026-05-03T08:51:09.999Z</time></trkpt><trkpt lat="44.99369290295184" lon="9.299080704048881"><ele>177.0</ele><time>2026-05-03T08:51:10.999Z</time></trkpt><trkpt lat="44.99360136484275" lon="9.299191724335834"><ele>177.0</ele><time>2026-05-03T08:51:11.999Z</time></trkpt><trkpt lat="44.99351714517452" lon="9.299294318056571"><ele>177.0</ele><time>2026-05-03T08:51:12.999Z</time></trkpt><trkpt lat="44.993434952205604" lon="9.299391363498266"><ele>177.0</ele><time>2026-05-03T08:51:13.999Z</time></trkpt><trkpt lat="44.99335588568551" lon="9.299486984597106"><ele>177.0</ele><time>2026-05-03T08:51:14.999Z</time></trkpt><trkpt lat="44.993275352542746" lon="9.29958370773165"><ele>177.0</ele><time>2026-05-03T08:51:15.999Z</time></trkpt><trkpt lat="44.99319377516193" lon="9.29968165785887"><ele>177.0</ele><time>2026-05-03T08:51:16.999Z</time></trkpt><trkpt lat="44.993109060424885" lon="9.299777114950395"><ele>177.0</ele><time>2026-05-03T08:51:17.999Z</time></trkpt><trkpt lat="44.99301499101567" lon="9.299867749078878"><ele>177.25</ele><time>2026-05-03T08:51:18.999Z</time></trkpt><trkpt lat="44.99292529685211" lon="9.299974683064077"><ele>177.5</ele><time>2026-05-03T08:51:19.999Z</time></trkpt><trkpt lat="44.992819224346235" lon="9.300052801176681"><ele>177.75</ele><time>2026-05-03T08:51:20.999Z</time></trkpt><trkpt lat="44.992701754902555" lon="9.300095960110887"><ele>178.0</ele><time>2026-05-03T08:51:21.999Z</time></trkpt><trkpt lat="44.99260114282749" lon="9.300171654972287"><ele>180.0</ele><time>2026-05-03T08:51:22.999Z</time></trkpt><trkpt lat="44.99249829252045" lon="9.300218184181364"><ele>182.0</ele><time>2026-05-03T08:51:23.999Z</time></trkpt><trkpt lat="44.98824582408974" lon="9.301406913646186"><ele>184.0</ele><time>2026-05-03T08:52:25Z</time></trkpt><trkpt lat="44.98815154491153" lon="9.301336189010003"><ele>186.0</ele><time>2026-05-03T08:52:27Z</time></trkpt><trkpt lat="44.988061594261666" lon="9.30124504119839"><ele>188.0</ele><time>2026-05-03T08:52:29Z</time></trkpt><trkpt lat="44.98795852557136" lon="9.30115748922572"><ele>190.0</ele><time>2026-05-03T08:52:31Z</time></trkpt><trkpt lat="44.98789915355385" lon="9.3011200991962"><ele>192.0</ele><time>2026-05-03T08:52:32Z</time></trkpt><trkpt lat="44.98783601240309" lon="9.301083997000267"><ele>192.0</ele><time>2026-05-03T08:52:33Z</time></trkpt><trkpt lat="44.987725302761284" lon="9.301012412209614"><ele>192.0</ele><time>2026-05-03T08:52:35Z</time></trkpt><trkpt lat="44.98761125459381" lon="9.300945102645997"><ele>192.0</ele><time>2026-05-03T08:52:37Z</time></trkpt><trkpt lat="44.98754609680239" lon="9.300906248749687"><ele>192.0</ele><time>2026-05-03T08:52:38Z</time></trkpt><trkpt lat="44.98748186676204" lon="9.30086061894617"><ele>192.0</ele><time>2026-05-03T08:52:39Z</time></trkpt><trkpt lat="44.98742290441691" lon="9.300815526243001"><ele>192.5</ele><time>2026-05-03T08:52:40Z</time></trkpt><trkpt lat="44.98736335571813" lon="9.300774793555785"><ele>193.0</ele><time>2026-05-03T08:52:41Z</time></trkpt><trkpt lat="44.98730790554329" lon="9.300732047860304"><ele>193.5</ele><time>2026-05-03T08:52:42Z</time></trkpt><trkpt lat="44.98719499790532" lon="9.300649741506723"><ele>194.0</ele><time>2026-05-03T08:52:44Z</time></trkpt><trkpt lat="44.98713802676221" lon="9.300608780310357"><ele>194.5</ele><time>2026-05-03T08:52:45Z</time></trkpt><trkpt lat="44.987058281292065" lon="9.30051242680679"><ele>195.0</ele><time>2026-05-03T08:52:47Z</time></trkpt><trkpt lat="44.98698505947179" lon="9.300473808275653"><ele>195.33333333333334</ele><time>2026-05-03T08:52:49Z</time></trkpt><trkpt lat="44.98689021072294" lon="9.30047044650857"><ele>195.66666666666669</ele><time>2026-05-03T08:52:52Z</time></trkpt><trkpt lat="44.98682566962781" lon="9.300454227252592"><ele>196.0</ele><time>2026-05-03T08:52:54Z</time></trkpt><trkpt lat="44.986727915356504" lon="9.300453979996973"><ele>196.33333333333334</ele><time>2026-05-03T08:52:56Z</time></trkpt><trkpt lat="44.98662953118571" lon="9.300458032739577"><ele>196.66666666666669</ele><time>2026-05-03T08:52:58Z</time></trkpt><trkpt lat="44.98654209505499" lon="9.30046761356567"><ele>197.0</ele><time>2026-05-03T08:53:00Z</time></trkpt><trkpt lat="44.98645651896862" lon="9.300480887436334"><ele>197.0</ele><time>2026-05-03T08:53:02Z</time></trkpt><trkpt lat="44.98638679602883" lon="9.300481665571061"><ele>197.0</ele><time>2026-05-03T08:53:04Z</time></trkpt><trkpt lat="44.98630200811294" lon="9.300503343086717"><ele>197.0</ele><time>2026-05-03T08:53:06Z</time></trkpt><trkpt lat="44.986206989542964" lon="9.300530427253058"><ele>197.0</ele><time>2026-05-03T08:53:07.999Z</time></trkpt><trkpt lat="44.98609775652503" lon="9.300573249780866"><ele>197.0</ele><time>2026-05-03T08:53:09.999Z</time></trkpt><trkpt lat="44.985974703029285" lon="9.300613219646637"><ele>196.71428571428572</ele><time>2026-05-03T08:53:11.999Z</time></trkpt><trkpt lat="44.98591045092425" lon="9.30062845121025"><ele>196.42857142857144</ele><time>2026-05-03T08:53:12.999Z</time></trkpt><trkpt lat="44.98584281702925" lon="9.300643623072189"><ele>196.14285714285714</ele><time>2026-05-03T08:53:13.999Z</time></trkpt><trkpt lat="44.98577490663599" lon="9.30066991578046"><ele>195.85714285714286</ele><time>2026-05-03T08:53:14.999Z</time></trkpt><trkpt lat="44.98570676241023" lon="9.300700194054594"><ele>195.57142857142856</ele><time>2026-05-03T08:53:15.999Z</time></trkpt><trkpt lat="44.98563529410088" lon="9.300720120112114"><ele>195.28571428571428</ele><time>2026-05-03T08:53:16.999Z</time></trkpt><trkpt lat="44.98556272300404" lon="9.300731416509402"><ele>195.0</ele><time>2026-05-03T08:53:17.999Z</time></trkpt><trkpt lat="44.98549271443969" lon="9.300754288869271"><ele>195.0</ele><time>2026-05-03T08:53:18.999Z</time></trkpt><trkpt lat="44.98541676452374" lon="9.300750527890724"><ele>195.0</ele><time>2026-05-03T08:53:19.999Z</time></trkpt><trkpt lat="44.98533922652646" lon="9.300760099995932"><ele>195.0</ele><time>2026-05-03T08:53:20.999Z</time></trkpt><trkpt lat="44.98525451929416" lon="9.30078299865172"><ele>195.0</ele><time>2026-05-03T08:53:21.999Z</time></trkpt><trkpt lat="44.98516035400597" lon="9.300751088660713"><ele>195.0</ele><time>2026-05-03T08:53:22.999Z</time></trkpt><trkpt lat="44.98507823980186" lon="9.300724995283655"><ele>195.0</ele><time>2026-05-03T08:53:23.999Z</time></trkpt><trkpt lat="44.97855616547737" lon="9.29857774553994"><ele>199.5</ele><time>2026-05-03T08:54:25Z</time></trkpt><trkpt lat="44.978413228796676" lon="9.298618920264383"><ele>204.0</ele><time>2026-05-03T08:54:26Z</time></trkpt><trkpt lat="44.978270165371974" lon="9.29866107719344"><ele>208.5</ele><time>2026-05-03T08:54:27Z</time></trkpt><trkpt lat="44.97812671604785" lon="9.298705739004852"><ele>213.0</ele><time>2026-05-03T08:54:28Z</time></trkpt><trkpt lat="44.977984229608104" lon="9.298749013413529"><ele>214.25</ele><time>2026-05-03T08:54:29Z</time></trkpt><trkpt lat="44.97784366923011" lon="9.298787274434059"><ele>215.5</ele><time>2026-05-03T08:54:30Z</time></trkpt><trkpt lat="44.97770604448079" lon="9.298815257301435"><ele>216.75</ele><time>2026-05-03T08:54:31Z</time></trkpt><trkpt lat="44.977570931675686" lon="9.298832849692026"><ele>218.0</ele><time>2026-05-03T08:54:32Z</time></trkpt><trkpt lat="44.97743550047949" lon="9.298845482403108"><ele>219.75</ele><time>2026-05-03T08:54:33Z</time></trkpt><trkpt lat="44.97729882923418" lon="9.298861579887554"><ele>221.5</ele><time>2026-05-03T08:54:34Z</time></trkpt><trkpt lat="44.97716483074068" lon="9.298872809451364"><ele>223.25</ele><time>2026-05-03T08:54:35Z</time></trkpt><trkpt lat="44.97703425146326" lon="9.298882212111005"><ele>225.0</ele><time>2026-05-03T08:54:36Z</time></trkpt><trkpt lat="44.97690402342888" lon="9.298888364862485"><ele>225.0</ele><time>2026-05-03T08:54:37Z</time></trkpt><trkpt lat="44.97676924432019" lon="9.298890094126124"><ele>225.0</ele><time>2026-05-03T08:54:38Z</time></trkpt><trkpt lat="44.97663960830813" lon="9.298896837415302"><ele>225.0</ele><time>2026-05-03T08:54:39Z</time></trkpt><trkpt lat="44.97650921086944" lon="9.298905858035292"><ele>225.0</ele><time>2026-05-03T08:54:40Z</time></trkpt><trkpt lat="44.97637920361216" lon="9.298917062759166"><ele>224.75</ele><time>2026-05-03T08:54:41Z</time></trkpt><trkpt lat="44.97625404923593" lon="9.298926725639001"><ele>224.5</ele><time>2026-05-03T08:54:42Z</time></trkpt><trkpt lat="44.97613091554078" lon="9.298926200117577"><ele>224.25</ele><time>2026-05-03T08:54:43Z</time></trkpt><trkpt lat="44.97600822917127" lon="9.298919409403933"><ele>224.0</ele><time>2026-05-03T08:54:44Z</time></trkpt><trkpt lat="44.97588637349945" lon="9.298900639533697"><ele>224.75</ele><time>2026-05-03T08:54:45Z</time></trkpt><trkpt lat="44.97576242585039" lon="9.298868070676896"><ele>225.5</ele><time>2026-05-03T08:54:46Z</time></trkpt><trkpt lat="44.97562548957099" lon="9.298820690469967"><ele>226.25</ele><time>2026-05-03T08:54:47Z</time></trkpt><trkpt lat="44.97548869519253" lon="9.298764601102192"><ele>227.0</ele><time>2026-05-03T08:54:48Z</time></trkpt><trkpt lat="44.97534895048089" lon="9.298701148452386"><ele>227.0</ele><time>2026-05-03T08:54:49Z</time></trkpt><trkpt lat="44.97520304652509" lon="9.298644215532242"><ele>227.0</ele><time>2026-05-03T08:54:50Z</time></trkpt><trkpt lat="44.975054645639766" lon="9.298589174483054"><ele>227.0</ele><time>2026-05-03T08:54:51Z</time></trkpt><trkpt lat="44.97490383955558" lon="9.298548093059495"><ele>227.25</ele><time>2026-05-03T08:54:52Z</time></trkpt><trkpt lat="44.974756418771804" lon="9.298524405288692"><ele>227.5</ele><time>2026-05-03T08:54:53Z</time></trkpt><trkpt lat="44.97461017654774" lon="9.298502865723531"><ele>227.75</ele><time>2026-05-03T08:54:54Z</time></trkpt><trkpt lat="44.97446525653281" lon="9.298481719077255"><ele>228.0</ele><time>2026-05-03T08:54:55Z</time></trkpt><trkpt lat="44.9743228899517" lon="9.29846799288894"><ele>227.0</ele><time>2026-05-03T08:54:56Z</time></trkpt><trkpt lat="44.974184427543705" lon="9.298455783407395"><ele>226.0</ele><time>2026-05-03T08:54:57Z</time></trkpt><trkpt lat="44.97404696751792" lon="9.298437604194115"><ele>225.0</ele><time>2026-05-03T08:54:58Z</time></trkpt><trkpt lat="44.97390919681712" lon="9.298416352255412"><ele>224.0</ele><time>2026-05-03T08:54:59Z</time></trkpt><trkpt lat="44.97377175018968" lon="9.298400676973907"><ele>224.0</ele><time>2026-05-03T08:55:00Z</time></trkpt><trkpt lat="44.973634762833036" lon="9.298380817708656"><ele>224.0</ele><time>2026-05-03T08:55:01Z</time></trkpt><trkpt lat="44.973501242093974" lon="9.298357101665623"><ele>224.0</ele><time>2026-05-03T08:55:02Z</time></trkpt><trkpt lat="44.97337387171633" lon="9.298319516348224"><ele>224.0</ele><time>2026-05-03T08:55:03Z</time></trkpt><trkpt lat="44.973249150888044" lon="9.298266207773977"><ele>224.0</ele><time>2026-05-03T08:55:04Z</time></trkpt><trkpt lat="44.973128100108305" lon="9.298200287724262"><ele>224.0</ele><time>2026-05-03T08:55:05Z</time></trkpt><trkpt lat="44.973015930107785" lon="9.298125172044008"><ele>224.0</ele><time>2026-05-03T08:55:06Z</time></trkpt><trkpt lat="44.97291213011257" lon="9.298041083245089"><ele>224.0</ele><time>2026-05-03T08:55:07Z</time></trkpt><trkpt lat="44.9728216632967" lon="9.297961756327899"><ele>225.0</ele><time>2026-05-03T08:55:08Z</time></trkpt><trkpt lat="44.97274750519906" lon="9.29788519253772"><ele>225.99999999999997</ele><time>2026-05-03T08:55:09Z</time></trkpt><trkpt lat="44.972689047171244" lon="9.297820561365288"><ele>226.99999999999997</ele><time>2026-05-03T08:55:10Z</time></trkpt><trkpt lat="44.9726068709207" lon="9.297726336249713"><ele>228.0</ele><time>2026-05-03T08:55:12Z</time></trkpt><trkpt lat="44.97252721238661" lon="9.29762841994427"><ele>229.0</ele><time>2026-05-03T08:55:14Z</time></trkpt><trkpt lat="44.972443230062524" lon="9.297535842746507"><ele>228.99999999999997</ele><time>2026-05-03T08:55:16Z</time></trkpt><trkpt lat="44.97234564258279" lon="9.297438198939211"><ele>229.0</ele><time>2026-05-03T08:55:17.999Z</time></trkpt><trkpt lat="44.97229340636705" lon="9.297381658286174"><ele>229.0</ele><time>2026-05-03T08:55:18.999Z</time></trkpt><trkpt lat="44.97224050454168" lon="9.297323103852712"><ele>229.0</ele><time>2026-05-03T08:55:19.999Z</time></trkpt><trkpt lat="44.972186077171024" lon="9.29725620611934"><ele>228.99999999999997</ele><time>2026-05-03T08:55:20.999Z</time></trkpt><trkpt lat="44.972131246947846" lon="9.297190984915055"><ele>229.0</ele><time>2026-05-03T08:55:21.999Z</time></trkpt><trkpt lat="44.97207371622585" lon="9.297122628980645"><ele>235.0</ele><time>2026-05-03T08:55:22.999Z</time></trkpt><trkpt lat="44.97201141961755" lon="9.297051800676972"><ele>241.0</ele><time>2026-05-03T08:55:23.999Z</time></trkpt><trkpt lat="44.96945978185119" lon="9.29415464926156"><ele>240.75</ele><time>2026-05-03T08:56:25Z</time></trkpt><trkpt lat="44.96936408730266" lon="9.294080984869773"><ele>240.5</ele><time>2026-05-03T08:56:27Z</time></trkpt><trkpt lat="44.96925580180643" lon="9.294022296409443"><ele>240.25</ele><time>2026-05-03T08:56:29Z</time></trkpt><trkpt lat="44.969159447091215" lon="9.293951302155127"><ele>240.0</ele><time>2026-05-03T08:56:31Z</time></trkpt><trkpt lat="44.96905236598538" lon="9.2938778603075"><ele>241.16666666666666</ele><time>2026-05-03T08:56:33Z</time></trkpt><trkpt lat="44.96899591908753" lon="9.293830510924199"><ele>242.33333333333331</ele><time>2026-05-03T08:56:34Z</time></trkpt><trkpt lat="44.96893762794774" lon="9.29377926961798"><ele>243.5</ele><time>2026-05-03T08:56:35Z</time></trkpt><trkpt lat="44.968876843134154" lon="9.29372680431615"><ele>244.66666666666666</ele><time>2026-05-03T08:56:36Z</time></trkpt><trkpt lat="44.96881446342987" lon="9.293673197588003"><ele>245.83333333333331</ele><time>2026-05-03T08:56:37Z</time></trkpt><trkpt lat="44.968753751544156" lon="9.293626191993225"><ele>247.0</ele><time>2026-05-03T08:56:38Z</time></trkpt><trkpt lat="44.9686529944032" lon="9.29354822487089"><ele>246.99999999999997</ele><time>2026-05-03T08:56:40Z</time></trkpt><trkpt lat="44.968577007113076" lon="9.293481442868424"><ele>247.0</ele><time>2026-05-03T08:56:42Z</time></trkpt><trkpt lat="44.96850168812578" lon="9.293416331102964"><ele>247.0</ele><time>2026-05-03T08:56:44Z</time></trkpt><trkpt lat="44.9684032844084" lon="9.293342348796383"><ele>247.0</ele><time>2026-05-03T08:56:46Z</time></trkpt><trkpt lat="44.96834179475845" lon="9.293295299963363"><ele>246.99999999999997</ele><time>2026-05-03T08:56:47Z</time></trkpt><trkpt lat="44.96828547324825" lon="9.293243408055131"><ele>247.0</ele><time>2026-05-03T08:56:48Z</time></trkpt><trkpt lat="44.968225583560574" lon="9.293192900354907"><ele>246.66666666666666</ele><time>2026-05-03T08:56:49Z</time></trkpt><trkpt lat="44.96816333221498" lon="9.293138739457895"><ele>246.33333333333331</ele><time>2026-05-03T08:56:50Z</time></trkpt><trkpt lat="44.968095486044085" lon="9.293079507462753"><ele>246.0</ele><time>2026-05-03T08:56:51Z</time></trkpt><trkpt lat="44.96802095194427" lon="9.293024845345933"><ele>245.66666666666669</ele><time>2026-05-03T08:56:52Z</time></trkpt><trkpt lat="44.967942469947886" lon="9.292974042929536"><ele>245.33333333333334</ele><time>2026-05-03T08:56:53Z</time></trkpt><trkpt lat="44.96787014140042" lon="9.292927642664905"><ele>245.0</ele><time>2026-05-03T08:56:54Z</time></trkpt><trkpt lat="44.96779744746285" lon="9.292883770734331"><ele>245.0</ele><time>2026-05-03T08:56:55Z</time></trkpt><trkpt lat="44.96772309187625" lon="9.292839307474956"><ele>245.0</ele><time>2026-05-03T08:56:56Z</time></trkpt><trkpt lat="44.96765231784961" lon="9.29279530958698"><ele>245.0</ele><time>2026-05-03T08:56:57Z</time></trkpt><trkpt lat="44.967587276983295" lon="9.292752576350093"><ele>245.0</ele><time>2026-05-03T08:56:58Z</time></trkpt><trkpt lat="44.96752408061519" lon="9.292710551853311"><ele>245.0</ele><time>2026-05-03T08:56:59Z</time></trkpt><trkpt lat="44.96746173626582" lon="9.292665209227554"><ele>245.0</ele><time>2026-05-03T08:57:00Z</time></trkpt><trkpt lat="44.96739908480097" lon="9.292614966150687"><ele>245.0</ele><time>2026-05-03T08:57:01Z</time></trkpt><trkpt lat="44.96733598423866" lon="9.292561148530789"><ele>244.66666666666669</ele><time>2026-05-03T08:57:02Z</time></trkpt><trkpt lat="44.967270663825786" lon="9.292506477156904"><ele>244.33333333333334</ele><time>2026-05-03T08:57:03Z</time></trkpt><trkpt lat="44.96719698129445" lon="9.292458658995484"><ele>244.0</ele><time>2026-05-03T08:57:04Z</time></trkpt><trkpt lat="44.967115990825455" lon="9.292400871883617"><ele>243.66666666666669</ele><time>2026-05-03T08:57:05Z</time></trkpt><trkpt lat="44.96701918297001" lon="9.292377880044093"><ele>243.33333333333334</ele><time>2026-05-03T08:57:06Z</time></trkpt><trkpt lat="44.96693082698528" lon="9.292360711955926"><ele>243.0</ele><time>2026-05-03T08:57:07Z</time></trkpt><trkpt lat="44.966846587405165" lon="9.292346379473509"><ele>243.0</ele><time>2026-05-03T08:57:08Z</time></trkpt><trkpt lat="44.96675683152618" lon="9.292330024712294"><ele>243.0</ele><time>2026-05-03T08:57:09Z</time></trkpt><trkpt lat="44.966666896132885" lon="9.292311308225498"><ele>243.0</ele><time>2026-05-03T08:57:10Z</time></trkpt><trkpt lat="44.966575710729664" lon="9.29229004135629"><ele>243.0</ele><time>2026-05-03T08:57:11Z</time></trkpt><trkpt lat="44.966481892566314" lon="9.292266442598141"><ele>243.0</ele><time>2026-05-03T08:57:12Z</time></trkpt><trkpt lat="44.96638650875311" lon="9.292245039491096"><ele>243.5</ele><time>2026-05-03T08:57:13Z</time></trkpt><trkpt lat="44.9662929988408" lon="9.292224703778615"><ele>244.0</ele><time>2026-05-03T08:57:13.999Z</time></trkpt><trkpt lat="44.96620475861023" lon="9.29220764102857"><ele>244.5</ele><time>2026-05-03T08:57:14.999Z</time></trkpt><trkpt lat="44.966119969851746" lon="9.292190074259082"><ele>245.0</ele><time>2026-05-03T08:57:15.999Z</time></trkpt><trkpt lat="44.96604214378635" lon="9.292168599676572"><ele>245.5</ele><time>2026-05-03T08:57:16.999Z</time></trkpt><trkpt lat="44.96597499327273" lon="9.292151341192358"><ele>246.0</ele><time>2026-05-03T08:57:17.999Z</time></trkpt><trkpt lat="44.96587090358122" lon="9.292097941231953"><ele>246.0</ele><time>2026-05-03T08:57:19.999Z</time></trkpt><trkpt lat="44.96579574608804" lon="9.29200356885155"><ele>246.0</ele><time>2026-05-03T08:57:21.999Z</time></trkpt><trkpt lat="44.965726013721756" lon="9.291884676934568"><ele>246.0</ele><time>2026-05-03T08:57:23.999Z</time></trkpt><trkpt lat="44.96404071102953" lon="9.292494396046335"><ele>248.16666666666666</ele><time>2026-05-03T08:58:25Z</time></trkpt><trkpt lat="44.964022900269185" lon="9.292373392447027"><ele>250.33333333333331</ele><time>2026-05-03T08:58:27Z</time></trkpt><trkpt lat="44.96400195241362" lon="9.292222146954037"><ele>252.5</ele><time>2026-05-03T08:58:29Z</time></trkpt><trkpt lat="44.96397507370222" lon="9.29209768663165"><ele>254.66666666666666</ele><time>2026-05-03T08:58:31Z</time></trkpt><trkpt lat="44.96392218162491" lon="9.292018904447293"><ele>256.8333333333333</ele><time>2026-05-03T08:58:33Z</time></trkpt><trkpt lat="44.9638500804914" lon="9.291984004458643"><ele>259.0</ele><time>2026-05-03T08:58:35Z</time></trkpt><trkpt lat="44.96375208323092" lon="9.292026142165218"><ele>259.0</ele><time>2026-05-03T08:58:37Z</time></trkpt><trkpt lat="44.96371913700566" lon="9.292102495130468"><ele>259.0</ele><time>2026-05-03T08:58:38Z</time></trkpt><trkpt lat="44.96368372479601" lon="9.292226782002183"><ele>259.0</ele><time>2026-05-03T08:58:40Z</time></trkpt><trkpt lat="44.96365249966666" lon="9.292349449153441"><ele>259.0</ele><time>2026-05-03T08:58:42Z</time></trkpt><trkpt lat="44.963612131869375" lon="9.292495538274878"><ele>259.0</ele><time>2026-05-03T08:58:44Z</time></trkpt><trkpt lat="44.963574030021306" lon="9.292624439233036"><ele>259.66666666666663</ele><time>2026-05-03T08:58:46Z</time></trkpt><trkpt lat="44.96349775996636" lon="9.292678957250084"><ele>260.3333333333333</ele><time>2026-05-03T08:58:48Z</time></trkpt><trkpt lat="44.963428631229846" lon="9.292669686247304"><ele>261.0</ele><time>2026-05-03T08:58:50Z</time></trkpt><trkpt lat="44.96335371541373" lon="9.292613436218176"><ele>261.6666666666667</ele><time>2026-05-03T08:58:52Z</time></trkpt><trkpt lat="44.96329815031602" lon="9.292512595707686"><ele>262.33333333333337</ele><time>2026-05-03T08:58:54Z</time></trkpt><trkpt lat="44.963258444196946" lon="9.292407421773998"><ele>263.0</ele><time>2026-05-03T08:58:57Z</time></trkpt><trkpt lat="44.96322299120421" lon="9.292316602034315"><ele>263.5</ele><time>2026-05-03T08:58:59Z</time></trkpt><trkpt lat="44.96318672467476" lon="9.292232984025132"><ele>264.0</ele><time>2026-05-03T08:59:01Z</time></trkpt><trkpt lat="44.96314682850716" lon="9.29215135940997"><ele>264.5</ele><time>2026-05-03T08:59:03Z</time></trkpt><trkpt lat="44.963101853681486" lon="9.292053926529315"><ele>265.0</ele><time>2026-05-03T08:59:05Z</time></trkpt><trkpt lat="44.96303154763587" lon="9.291967939674212"><ele>265.5</ele><time>2026-05-03T08:59:07Z</time></trkpt><trkpt lat="44.96292874129681" lon="9.291908724581509"><ele>266.0</ele><time>2026-05-03T08:59:09Z</time></trkpt><trkpt lat="44.96281684246438" lon="9.291994607453153"><ele>266.0</ele><time>2026-05-03T08:59:10.999Z</time></trkpt><trkpt lat="44.96277842190296" lon="9.292087445453959"><ele>266.0</ele><time>2026-05-03T08:59:11.999Z</time></trkpt><trkpt lat="44.96275934934186" lon="9.292176929980915"><ele>266.0</ele><time>2026-05-03T08:59:12.999Z</time></trkpt><trkpt lat="44.96274457527197" lon="9.292269245145583"><ele>266.0</ele><time>2026-05-03T08:59:13.999Z</time></trkpt><trkpt lat="44.962727251476" lon="9.292421605464979"><ele>266.0</ele><time>2026-05-03T08:59:15.999Z</time></trkpt><trkpt lat="44.962718535268486" lon="9.292556199289823"><ele>266.0</ele><time>2026-05-03T08:59:17.999Z</time></trkpt><trkpt lat="44.96270832518985" lon="9.29269493231077"><ele>268.0</ele><time>2026-05-03T08:59:19.999Z</time></trkpt><trkpt lat="44.96269566386818" lon="9.292846997776989"><ele>270.0</ele><time>2026-05-03T08:59:21.999Z</time></trkpt><trkpt lat="44.96267920235973" lon="9.292999908660772"><ele>272.0</ele><time>2026-05-03T08:59:23.999Z</time></trkpt><trkpt lat="44.95903622143967" lon="9.293673210619907"><ele>279.4</ele><time>2026-05-03T09:00:25Z</time></trkpt><trkpt lat="44.95897006407895" lon="9.293768403680902"><ele>286.79999999999995</ele><time>2026-05-03T09:00:26Z</time></trkpt><trkpt lat="44.95890240010081" lon="9.293862558576173"><ele>294.2</ele><time>2026-05-03T09:00:27Z</time></trkpt><trkpt lat="44.95882202558252" lon="9.293926587657579"><ele>301.59999999999997</ele><time>2026-05-03T09:00:28Z</time></trkpt><trkpt lat="44.95873871846838" lon="9.29397151107819"><ele>309.0</ele><time>2026-05-03T09:00:29Z</time></trkpt><trkpt lat="44.958663521047164" lon="9.294017624080734"><ele>310.2</ele><time>2026-05-03T09:00:30Z</time></trkpt><trkpt lat="44.95858680633241" lon="9.29407240113391"><ele>311.4</ele><time>2026-05-03T09:00:31Z</time></trkpt><trkpt lat="44.95853330105743" lon="9.294169903633614"><ele>312.6</ele><time>2026-05-03T09:00:32Z</time></trkpt><trkpt lat="44.95848196137241" lon="9.294268324272434"><ele>313.8</ele><time>2026-05-03T09:00:33Z</time></trkpt><trkpt lat="44.95842495606506" lon="9.29437085937376"><ele>315.0</ele><time>2026-05-03T09:00:34Z</time></trkpt><trkpt lat="44.958360841988984" lon="9.294480492916502"><ele>315.6</ele><time>2026-05-03T09:00:35Z</time></trkpt><trkpt lat="44.95828938029134" lon="9.294582734772469"><ele>316.2</ele><time>2026-05-03T09:00:36Z</time></trkpt><trkpt lat="44.958208440998355" lon="9.294669634849093"><ele>316.8</ele><time>2026-05-03T09:00:37Z</time></trkpt><trkpt lat="44.95812544039841" lon="9.294754831664937"><ele>317.4</ele><time>2026-05-03T09:00:38Z</time></trkpt><trkpt lat="44.95804705064514" lon="9.29483675854349"><ele>318.0</ele><time>2026-05-03T09:00:39Z</time></trkpt><trkpt lat="44.9579690778231" lon="9.294921246774082"><ele>319.2</ele><time>2026-05-03T09:00:40Z</time></trkpt><trkpt lat="44.95789052491662" lon="9.295006362586156"><ele>320.4</ele><time>2026-05-03T09:00:41Z</time></trkpt><trkpt lat="44.95781487895111" lon="9.295093140739743"><ele>321.59999999999997</ele><time>2026-05-03T09:00:42Z</time></trkpt><trkpt lat="44.9577396483654" lon="9.295182482121866"><ele>322.8</ele><time>2026-05-03T09:00:43Z</time></trkpt><trkpt lat="44.95765935606125" lon="9.29525936471239"><ele>324.0</ele><time>2026-05-03T09:00:44Z</time></trkpt><trkpt lat="44.957572380742775" lon="9.295317810024033"><ele>324.4</ele><time>2026-05-03T09:00:45Z</time></trkpt><trkpt lat="44.95747829827957" lon="9.295365138882383"><ele>324.79999999999995</ele><time>2026-05-03T09:00:46Z</time></trkpt><trkpt lat="44.95738006175834" lon="9.295403415782271"><ele>325.20000000000005</ele><time>2026-05-03T09:00:47Z</time></trkpt><trkpt lat="44.95728280465924" lon="9.29545778519897"><ele>325.6</ele><time>2026-05-03T09:00:48Z</time></trkpt><trkpt lat="44.957192513620576" lon="9.295529005348019"><ele>326.0</ele><time>2026-05-03T09:00:49Z</time></trkpt><trkpt lat="44.957128945708064" lon="9.29564686076126"><ele>326.6</ele><time>2026-05-03T09:00:50Z</time></trkpt><trkpt lat="44.95704142888088" lon="9.29571580667594"><ele>327.20000000000005</ele><time>2026-05-03T09:00:51Z</time></trkpt><trkpt lat="44.95695534639372" lon="9.295786223385065"><ele>327.79999999999995</ele><time>2026-05-03T09:00:52Z</time></trkpt><trkpt lat="44.956867164656316" lon="9.29585739432607"><ele>328.4</ele><time>2026-05-03T09:00:53Z</time></trkpt><trkpt lat="44.95678339465325" lon="9.295933449496838"><ele>329.0</ele><time>2026-05-03T09:00:54Z</time></trkpt><trkpt lat="44.956705514799815" lon="9.296008736155272"><ele>329.0</ele><time>2026-05-03T09:00:55Z</time></trkpt><trkpt lat="44.95663748064052" lon="9.296080755416211"><ele>329.0</ele><time>2026-05-03T09:00:56Z</time></trkpt><trkpt lat="44.95658780225392" lon="9.296168803308717"><ele>329.0</ele><time>2026-05-03T09:00:57Z</time></trkpt><trkpt lat="44.956531016077605" lon="9.296236206532667"><ele>329.0</ele><time>2026-05-03T09:00:58Z</time></trkpt><trkpt lat="44.9564749801634" lon="9.296299426587495"><ele>329.0</ele><time>2026-05-03T09:00:59Z</time></trkpt><trkpt lat="44.956425607325535" lon="9.296373414706434"><ele>329.0</ele><time>2026-05-03T09:01:00Z</time></trkpt><trkpt lat="44.95637943697185" lon="9.296451283321048"><ele>330.0</ele><time>2026-05-03T09:01:01Z</time></trkpt><trkpt lat="44.95633188237184" lon="9.296520864988873"><ele>331.0</ele><time>2026-05-03T09:01:02Z</time></trkpt><trkpt lat="44.95626928368812" lon="9.296581197827795"><ele>332.0</ele><time>2026-05-03T09:01:03Z</time></trkpt><trkpt lat="44.95621504267315" lon="9.29666347712569"><ele>333.0</ele><time>2026-05-03T09:01:04Z</time></trkpt><trkpt lat="44.95617353973037" lon="9.296760003847085"><ele>334.0</ele><time>2026-05-03T09:01:05Z</time></trkpt><trkpt lat="44.956119114253575" lon="9.296840384603858"><ele>335.0</ele><time>2026-05-03T09:01:06Z</time></trkpt><trkpt lat="44.95606486534662" lon="9.296925257743318"><ele>335.0</ele><time>2026-05-03T09:01:07Z</time></trkpt><trkpt lat="44.955998518173345" lon="9.296997458007759"><ele>335.0</ele><time>2026-05-03T09:01:08Z</time></trkpt><trkpt lat="44.955963898009514" lon="9.297088978526604"><ele>335.0</ele><time>2026-05-03T09:01:09Z</time></trkpt><trkpt lat="44.95591676015969" lon="9.29714984367303"><ele>335.0</ele><time>2026-05-03T09:01:10Z</time></trkpt><trkpt lat="44.955877923520966" lon="9.297220967689515"><ele>335.0</ele><time>2026-05-03T09:01:11Z</time></trkpt><trkpt lat="44.955805797808345" lon="9.297356179339426"><ele>335.0</ele><time>2026-05-03T09:01:12.999Z</time></trkpt><trkpt lat="44.95572380636105" lon="9.29747790866196"><ele>335.6</ele><time>2026-05-03T09:01:14.999Z</time></trkpt><trkpt lat="44.95563939727653" lon="9.297579234497137"><ele>336.2</ele><time>2026-05-03T09:01:16.999Z</time></trkpt><trkpt lat="44.955519655171635" lon="9.297572868215678"><ele>336.79999999999995</ele><time>2026-05-03T09:01:18.999Z</time></trkpt><trkpt lat="44.95545172678329" lon="9.297531682734423"><ele>337.4</ele><time>2026-05-03T09:01:19.999Z</time></trkpt><trkpt lat="44.95537818730591" lon="9.297490021520204"><ele>338.0</ele><time>2026-05-03T09:01:20.999Z</time></trkpt><trkpt lat="44.955292081775625" lon="9.297448838418655"><ele>338.0</ele><time>2026-05-03T09:01:21.999Z</time></trkpt><trkpt lat="44.955202637690704" lon="9.297398491537207"><ele>338.0</ele><time>2026-05-03T09:01:22.999Z</time></trkpt><trkpt lat="44.95511228062069" lon="9.297344395862385"><ele>338.0</ele><time>2026-05-03T09:01:23.999Z</time></trkpt><trkpt lat="44.952106420226265" lon="9.293431465515027"><ele>341.2</ele><time>2026-05-03T09:02:24.999Z</time></trkpt><trkpt lat="44.952029299050736" lon="9.293364310687844"><ele>344.4</ele><time>2026-05-03T09:02:26.999Z</time></trkpt><trkpt lat="44.951956096400714" lon="9.293287764431806"><ele>347.59999999999997</ele><time>2026-05-03T09:02:28.999Z</time></trkpt><trkpt lat="44.951875479822604" lon="9.29322335795471"><ele>350.79999999999995</ele><time>2026-05-03T09:02:30.999Z</time></trkpt><trkpt lat="44.95179199940766" lon="9.293106183758645"><ele>354.0</ele><time>2026-05-03T09:02:32.999Z</time></trkpt><trkpt lat="44.951701943637055" lon="9.29302211358012"><ele>354.1666666666667</ele><time>2026-05-03T09:02:34.999Z</time></trkpt><trkpt lat="44.9516137248036" lon="9.292946612627889"><ele>354.3333333333333</ele><time>2026-05-03T09:02:36.999Z</time></trkpt><trkpt lat="44.95154908091145" lon="9.292937170815737"><ele>354.5</ele><time>2026-05-03T09:02:37.999Z</time></trkpt><trkpt lat="44.95144811260589" lon="9.292922119932658"><ele>354.66666666666663</ele><time>2026-05-03T09:02:39.999Z</time></trkpt><trkpt lat="44.95137384189794" lon="9.292919956843692"><ele>354.8333333333333</ele><time>2026-05-03T09:02:41.999Z</time></trkpt><trkpt lat="44.95129147873155" lon="9.292941726542873"><ele>355.0</ele><time>2026-05-03T09:02:43.999Z</time></trkpt><trkpt lat="44.95120403447135" lon="9.29293064582923"><ele>355.0</ele><time>2026-05-03T09:02:45.999Z</time></trkpt><trkpt lat="44.951108817931406" lon="9.292914581430889"><ele>355.0</ele><time>2026-05-03T09:02:47.999Z</time></trkpt><trkpt lat="44.95103539739182" lon="9.292884690681774"><ele>355.0</ele><time>2026-05-03T09:02:49.999Z</time></trkpt><trkpt lat="44.95095028279562" lon="9.292842723247924"><ele>355.0</ele><time>2026-05-03T09:02:52.999Z</time></trkpt><trkpt lat="44.950878375649424" lon="9.292805099687326"><ele>355.0</ele><time>2026-05-03T09:02:54.999Z</time></trkpt><trkpt lat="44.950805628193315" lon="9.292767778906475"><ele>355.0</ele><time>2026-05-03T09:02:57.999Z</time></trkpt><trkpt lat="44.950714256229055" lon="9.292724326728788"><ele>355.8333333333333</ele><time>2026-05-03T09:03:00.999Z</time></trkpt><trkpt lat="44.950616466284" lon="9.292717559318193"><ele>356.66666666666663</ele><time>2026-05-03T09:03:03.999Z</time></trkpt><trkpt lat="44.950536782180244" lon="9.292713114209683"><ele>357.5</ele><time>2026-05-03T09:03:07.998Z</time></trkpt><trkpt lat="44.95046836302629" lon="9.292739113661959"><ele>358.3333333333333</ele><time>2026-05-03T09:03:10.998Z</time></trkpt><trkpt lat="44.9504083201501" lon="9.292785036267984"><ele>359.1666666666667</ele><time>2026-05-03T09:03:12.998Z</time></trkpt><trkpt lat="44.95032756501903" lon="9.292807430781341"><ele>360.0</ele><time>2026-05-03T09:03:14.998Z</time></trkpt><trkpt lat="44.950243732084076" lon="9.29282907292714"><ele>360.0</ele><time>2026-05-03T09:03:16.998Z</time></trkpt><trkpt lat="44.95016586514643" lon="9.292871000735774"><ele>360.0</ele><time>2026-05-03T09:03:18.998Z</time></trkpt><trkpt lat="44.95008204937139" lon="9.292919939278024"><ele>360.0</ele><time>2026-05-03T09:03:20.998Z</time></trkpt><trkpt lat="44.949989771656256" lon="9.292947665364718"><ele>360.0</ele><time>2026-05-03T09:03:22.998Z</time></trkpt><trkpt lat="44.94909753048428" lon="9.296967239456636"><ele>369.4</ele><time>2026-05-03T09:04:24.998Z</time></trkpt><trkpt lat="44.949031020142186" lon="9.297062605073398"><ele>378.8</ele><time>2026-05-03T09:04:26.998Z</time></trkpt><trkpt lat="44.948983771868846" lon="9.297130351311353"><ele>388.20000000000005</ele><time>2026-05-03T09:04:28.998Z</time></trkpt><trkpt lat="44.94893559871603" lon="9.297242322441452"><ele>397.6</ele><time>2026-05-03T09:04:30.998Z</time></trkpt><trkpt lat="44.94885576207874" lon="9.297346080120613"><ele>407.0</ele><time>2026-05-03T09:04:32.998Z</time></trkpt><trkpt lat="44.94877865989017" lon="9.297422213753743"><ele>407.0</ele><time>2026-05-03T09:04:34.998Z</time></trkpt><trkpt lat="44.94869359666824" lon="9.297462126407526"><ele>407.0</ele><time>2026-05-03T09:04:36.998Z</time></trkpt><trkpt lat="44.94859412656848" lon="9.29748918121507"><ele>407.0</ele><time>2026-05-03T09:04:38.998Z</time></trkpt><trkpt lat="44.9484787545266" lon="9.297482907405936"><ele>407.0</ele><time>2026-05-03T09:04:40.998Z</time></trkpt><trkpt lat="44.94840875575313" lon="9.297478015596285"><ele>407.0</ele><time>2026-05-03T09:04:41.998Z</time></trkpt><trkpt lat="44.94833535359455" lon="9.297490117452062"><ele>410.0</ele><time>2026-05-03T09:04:42.998Z</time></trkpt><trkpt lat="44.94822022505426" lon="9.29750560719698"><ele>413.0</ele><time>2026-05-03T09:04:44.998Z</time></trkpt><trkpt lat="44.94811673235458" lon="9.297504570834304"><ele>416.0</ele><time>2026-05-03T09:04:46.998Z</time></trkpt><trkpt lat="44.948017101519284" lon="9.297515484507276"><ele>419.0</ele><time>2026-05-03T09:04:48.998Z</time></trkpt><trkpt lat="44.947906396840104" lon="9.297529463180242"><ele>422.0</ele><time>2026-05-03T09:04:50.998Z</time></trkpt><trkpt lat="44.94778697226385" lon="9.297537690779391"><ele>422.0</ele><time>2026-05-03T09:04:52.998Z</time></trkpt><trkpt lat="44.947723430534396" lon="9.297549128925592"><ele>422.0</ele><time>2026-05-03T09:04:53.998Z</time></trkpt><trkpt lat="44.94765862446587" lon="9.297554326141189"><ele>422.0</ele><time>2026-05-03T09:04:54.998Z</time></trkpt><trkpt lat="44.947592288932654" lon="9.29756543432244"><ele>422.0</ele><time>2026-05-03T09:04:55.998Z</time></trkpt><trkpt lat="44.947522405220596" lon="9.29757504878617"><ele>422.0</ele><time>2026-05-03T09:04:56.997Z</time></trkpt><trkpt lat="44.94745243999527" lon="9.297582385690555"><ele>422.0</ele><time>2026-05-03T09:04:57.997Z</time></trkpt><trkpt lat="44.947380050796994" lon="9.297592837430654"><ele>422.0</ele><time>2026-05-03T09:04:58.997Z</time></trkpt><trkpt lat="44.94730741438099" lon="9.297603086357098"><ele>422.8571428571429</ele><time>2026-05-03T09:04:59.997Z</time></trkpt><trkpt lat="44.947233497434205" lon="9.297609712353202"><ele>423.7142857142857</ele><time>2026-05-03T09:05:00.997Z</time></trkpt><trkpt lat="44.94716376566404" lon="9.297616799506347"><ele>424.57142857142856</ele><time>2026-05-03T09:05:01.997Z</time></trkpt><trkpt lat="44.94709524109396" lon="9.297623312678091"><ele>425.42857142857144</ele><time>2026-05-03T09:05:02.997Z</time></trkpt><trkpt lat="44.94703018049875" lon="9.297610624156919"><ele>426.2857142857143</ele><time>2026-05-03T09:05:03.997Z</time></trkpt><trkpt lat="44.94696679178199" lon="9.297578550125406"><ele>427.14285714285717</ele><time>2026-05-03T09:05:04.997Z</time></trkpt><trkpt lat="44.946905041487014" lon="9.297539839283994"><ele>428.0</ele><time>2026-05-03T09:05:05.997Z</time></trkpt><trkpt lat="44.94684325170971" lon="9.297493511136373"><ele>428.00000000000006</ele><time>2026-05-03T09:05:06.997Z</time></trkpt><trkpt lat="44.946780276358446" lon="9.297447165380799"><ele>428.0</ele><time>2026-05-03T09:05:07.997Z</time></trkpt><trkpt lat="44.94671372475014" lon="9.297407063113578"><ele>428.0</ele><time>2026-05-03T09:05:08.997Z</time></trkpt><trkpt lat="44.94664495808122" lon="9.297370239144001"><ele>428.0</ele><time>2026-05-03T09:05:09.997Z</time></trkpt><trkpt lat="44.94657127969523" lon="9.297360787277047"><ele>428.0</ele><time>2026-05-03T09:05:10.997Z</time></trkpt><trkpt lat="44.94649859063676" lon="9.297359415902363"><ele>428.00000000000006</ele><time>2026-05-03T09:05:11.997Z</time></trkpt><trkpt lat="44.94643063031523" lon="9.297374653159672"><ele>428.0</ele><time>2026-05-03T09:05:12.997Z</time></trkpt><trkpt lat="44.946367923021015" lon="9.297402998904861"><ele>429.28571428571433</ele><time>2026-05-03T09:05:13.997Z</time></trkpt><trkpt lat="44.946299191014326" lon="9.297417882171638"><ele>430.57142857142856</ele><time>2026-05-03T09:05:14.997Z</time></trkpt><trkpt lat="44.946244562140876" lon="9.297475848213137"><ele>431.8571428571429</ele><time>2026-05-03T09:05:15.997Z</time></trkpt><trkpt lat="44.94617555895217" lon="9.297495839590203"><ele>433.14285714285717</ele><time>2026-05-03T09:05:16.997Z</time></trkpt><trkpt lat="44.94611434513684" lon="9.297536517878564"><ele>434.42857142857144</ele><time>2026-05-03T09:05:17.997Z</time></trkpt><trkpt lat="44.946050986307945" lon="9.29758312711276"><ele>435.7142857142857</ele><time>2026-05-03T09:05:18.997Z</time></trkpt><trkpt lat="44.94598786992549" lon="9.297630206275405"><ele>437.0</ele><time>2026-05-03T09:05:19.997Z</time></trkpt><trkpt lat="44.945929418793696" lon="9.297673805599922"><ele>440.5</ele><time>2026-05-03T09:05:20.997Z</time></trkpt><trkpt lat="44.94584235653315" lon="9.297738746265331"><ele>444.0</ele><time>2026-05-03T09:05:22.997Z</time></trkpt><trkpt lat="44.94389054543989" lon="9.298096300820733"><ele>447.8333333333333</ele><time>2026-05-03T09:06:24.997Z</time></trkpt><trkpt lat="44.943826600623595" lon="9.298054890446064"><ele>451.66666666666663</ele><time>2026-05-03T09:06:25.997Z</time></trkpt><trkpt lat="44.94375994172724" lon="9.298020827574984"><ele>455.5</ele><time>2026-05-03T09:06:26.997Z</time></trkpt><trkpt lat="44.94369434521963" lon="9.297983533860695"><ele>459.3333333333333</ele><time>2026-05-03T09:06:27.997Z</time></trkpt><trkpt lat="44.94363903881186" lon="9.297928202621875"><ele>463.16666666666663</ele><time>2026-05-03T09:06:28.997Z</time></trkpt><trkpt lat="44.9435746215412" lon="9.297886853862979"><ele>467.0</ele><time>2026-05-03T09:06:29.997Z</time></trkpt><trkpt lat="44.94345544871984" lon="9.29781792973254"><ele>466.99999999999994</ele><time>2026-05-03T09:06:31.997Z</time></trkpt><trkpt lat="44.94338813032694" lon="9.297783624192965"><ele>467.0</ele><time>2026-05-03T09:06:32.997Z</time></trkpt><trkpt lat="44.94332669629902" lon="9.297755790711875"><ele>467.0</ele><time>2026-05-03T09:06:33.997Z</time></trkpt><trkpt lat="44.94319842987052" lon="9.297733947002923"><ele>467.0</ele><time>2026-05-03T09:06:35.997Z</time></trkpt><trkpt lat="44.943133468943955" lon="9.297701886380237"><ele>466.99999999999994</ele><time>2026-05-03T09:06:36.997Z</time></trkpt><trkpt lat="44.943061440790636" lon="9.297685410766682"><ele>467.0</ele><time>2026-05-03T09:06:37.997Z</time></trkpt><trkpt lat="44.94294935159806" lon="9.297652879656885"><ele>470.20000000000005</ele><time>2026-05-03T09:06:39.997Z</time></trkpt><trkpt lat="44.94286313127689" lon="9.297638956968216"><ele>473.40000000000003</ele><time>2026-05-03T09:06:41.997Z</time></trkpt><trkpt lat="44.94278382161127" lon="9.297594213905448"><ele>476.59999999999997</ele><time>2026-05-03T09:06:43.997Z</time></trkpt><trkpt lat="44.9426833041764" lon="9.297577592971644"><ele>479.79999999999995</ele><time>2026-05-03T09:06:45.997Z</time></trkpt><trkpt lat="44.94256316908081" lon="9.297598713849942"><ele>483.0</ele><time>2026-05-03T09:06:47.996Z</time></trkpt><trkpt lat="44.94249412781285" lon="9.297644607657181"><ele>484.6666666666667</ele><time>2026-05-03T09:06:48.996Z</time></trkpt><trkpt lat="44.942435866653625" lon="9.297704158674188"><ele>486.33333333333337</ele><time>2026-05-03T09:06:49.996Z</time></trkpt><trkpt lat="44.94236213315346" lon="9.297793160212432"><ele>488.0</ele><time>2026-05-03T09:06:51.996Z</time></trkpt><trkpt lat="44.942295951693765" lon="9.297884407556094"><ele>489.6666666666667</ele><time>2026-05-03T09:06:53.996Z</time></trkpt><trkpt lat="44.942238737502976" lon="9.297965182799016"><ele>491.33333333333337</ele><time>2026-05-03T09:06:55.996Z</time></trkpt><trkpt lat="44.9421929700035" lon="9.298061237604196"><ele>493.0</ele><time>2026-05-03T09:06:57.996Z</time></trkpt><trkpt lat="44.9421254018772" lon="9.298139004518129"><ele>495.0</ele><time>2026-05-03T09:06:59.996Z</time></trkpt><trkpt lat="44.94206863585894" lon="9.298227088090016"><ele>496.99999999999994</ele><time>2026-05-03T09:07:01.996Z</time></trkpt><trkpt lat="44.94201528304564" lon="9.298315685701604"><ele>498.99999999999994</ele><time>2026-05-03T09:07:03.996Z</time></trkpt><trkpt lat="44.941968145052115" lon="9.298421119350593"><ele>501.0</ele><time>2026-05-03T09:07:05.996Z</time></trkpt><trkpt lat="44.94191356688618" lon="9.298529191357515"><ele>503.0</ele><time>2026-05-03T09:07:07.996Z</time></trkpt><trkpt lat="44.94192350094165" lon="9.29867744645568"><ele>503.0</ele><time>2026-05-03T09:07:09.996Z</time></trkpt><trkpt lat="44.94201363530746" lon="9.298799254007779"><ele>502.99999999999994</ele><time>2026-05-03T09:07:11.996Z</time></trkpt><trkpt lat="44.9420845348237" lon="9.298826497997789"><ele>502.99999999999994</ele><time>2026-05-03T09:07:12.996Z</time></trkpt><trkpt lat="44.94215269632977" lon="9.298868286113098"><ele>503.0</ele><time>2026-05-03T09:07:13.996Z</time></trkpt><trkpt lat="44.942267066718834" lon="9.298940223663733"><ele>503.0</ele><time>2026-05-03T09:07:15.996Z</time></trkpt><trkpt lat="44.94237446207378" lon="9.299028319967917"><ele>504.5</ele><time>2026-05-03T09:07:17.996Z</time></trkpt><trkpt lat="44.94246137268003" lon="9.29916185808818"><ele>506.0</ele><time>2026-05-03T09:07:19.996Z</time></trkpt><trkpt lat="44.94246097416414" lon="9.299260382182439"><ele>507.5</ele><time>2026-05-03T09:07:20.996Z</time></trkpt><trkpt lat="44.94243725298609" lon="9.299386130276666"><ele>509.0</ele><time>2026-05-03T09:07:22.996Z</time></trkpt><trkpt lat="44.94122927307061" lon="9.302479192100376"><ele>515.0</ele><time>2026-05-03T09:08:24.996Z</time></trkpt><trkpt lat="44.94118241229279" lon="9.302562334190048"><ele>521.0</ele><time>2026-05-03T09:08:27.996Z</time></trkpt><trkpt lat="44.941166562081406" lon="9.30267813577176"><ele>527.0</ele><time>2026-05-03T09:08:49.995Z</time></trkpt><trkpt lat="44.941124405872564" lon="9.302746155939575"><ele>533.0</ele><time>2026-05-03T09:10:14.995Z</time></trkpt><trkpt lat="44.93893358666709" lon="9.309916679590126"><ele>539.6666666666666</ele><time>2026-05-03T09:12:24.993Z</time></trkpt><trkpt lat="44.93890798914379" lon="9.31005605556085"><ele>546.3333333333333</ele><time>2026-05-03T09:12:25.993Z</time></trkpt><trkpt lat="44.93888135534471" lon="9.310180116408835"><ele>553.0</ele><time>2026-05-03T09:12:26.993Z</time></trkpt><trkpt lat="44.93885432129777" lon="9.310290575292774"><ele>559.6666666666666</ele><time>2026-05-03T09:12:27.993Z</time></trkpt><trkpt lat="44.93882791694036" lon="9.310404880300743"><ele>566.3333333333334</ele><time>2026-05-03T09:12:28.993Z</time></trkpt><trkpt lat="44.93880460007908" lon="9.310523106659133"><ele>573.0</ele><time>2026-05-03T09:12:29.993Z</time></trkpt><trkpt lat="44.93878351478058" lon="9.310646872633466"><ele>573.4</ele><time>2026-05-03T09:12:30.993Z</time></trkpt><trkpt lat="44.93877516044669" lon="9.310784768804117"><ele>573.8</ele><time>2026-05-03T09:12:31.993Z</time></trkpt><trkpt lat="44.93877661897849" lon="9.31093049621776"><ele>574.2</ele><time>2026-05-03T09:12:32.993Z</time></trkpt><trkpt lat="44.938784973662194" lon="9.311076236758137"><ele>574.6</ele><time>2026-05-03T09:12:33.993Z</time></trkpt><trkpt lat="44.93880439240674" lon="9.31121148944431"><ele>575.0</ele><time>2026-05-03T09:12:34.993Z</time></trkpt><trkpt lat="44.938852161685546" lon="9.311330258257554"><ele>575.0</ele><time>2026-05-03T09:12:35.993Z</time></trkpt><trkpt lat="44.93892765847882" lon="9.311405671946554"><ele>575.0</ele><time>2026-05-03T09:12:36.993Z</time></trkpt><trkpt lat="44.93901204212119" lon="9.311462871210923"><ele>575.0</ele><time>2026-05-03T09:12:37.993Z</time></trkpt><trkpt lat="44.93910960376275" lon="9.311519687709945"><ele>575.0</ele><time>2026-05-03T09:12:38.993Z</time></trkpt><trkpt lat="44.939202378000864" lon="9.311583487596959"><ele>575.0</ele><time>2026-05-03T09:12:39.993Z</time></trkpt><trkpt lat="44.93930685121494" lon="9.311634311304642"><ele>575.8333333333333</ele><time>2026-05-03T09:12:40.993Z</time></trkpt><trkpt lat="44.93940502594729" lon="9.31167823722508"><ele>576.6666666666666</ele><time>2026-05-03T09:12:41.993Z</time></trkpt><trkpt lat="44.93948848852419" lon="9.311724164580463"><ele>577.5</ele><time>2026-05-03T09:12:42.993Z</time></trkpt><trkpt lat="44.93955832554736" lon="9.311771415954677"><ele>578.3333333333334</ele><time>2026-05-03T09:12:43.993Z</time></trkpt><trkpt lat="44.9396146990018" lon="9.311825410151163"><ele>579.1666666666667</ele><time>2026-05-03T09:12:44.993Z</time></trkpt><trkpt lat="44.93967069104759" lon="9.311891592633302"><ele>580.0</ele><time>2026-05-03T09:12:45.993Z</time></trkpt><trkpt lat="44.93972339256065" lon="9.311975450689829"><ele>580.0</ele><time>2026-05-03T09:12:46.993Z</time></trkpt><trkpt lat="44.93975058588144" lon="9.312074326975566"><ele>580.0</ele><time>2026-05-03T09:12:47.993Z</time></trkpt><trkpt lat="44.939843751659616" lon="9.312139117206783"><ele>580.0</ele><time>2026-05-03T09:12:48.993Z</time></trkpt><trkpt lat="44.9399274903613" lon="9.312198553292571"><ele>580.0</ele><time>2026-05-03T09:12:49.993Z</time></trkpt><trkpt lat="44.94003175828917" lon="9.31225980991172"><ele>580.0</ele><time>2026-05-03T09:12:50.993Z</time></trkpt><trkpt lat="44.94012810796077" lon="9.312338244856864"><ele>578.75</ele><time>2026-05-03T09:12:51.993Z</time></trkpt><trkpt lat="44.940232131966454" lon="9.312409203474807"><ele>577.5</ele><time>2026-05-03T09:12:52.993Z</time></trkpt><trkpt lat="44.94033249889176" lon="9.312482606923764"><ele>576.25</ele><time>2026-05-03T09:12:53.993Z</time></trkpt><trkpt lat="44.94042929151069" lon="9.312575981546058"><ele>575.0</ele><time>2026-05-03T09:12:54.993Z</time></trkpt><trkpt lat="44.9405361445801" lon="9.312659024289031"><ele>575.0</ele><time>2026-05-03T09:12:55.993Z</time></trkpt><trkpt lat="44.94064983316739" lon="9.312733453725746"><ele>575.0</ele><time>2026-05-03T09:12:56.993Z</time></trkpt><trkpt lat="44.940762306155186" lon="9.312808561107525"><ele>575.0</ele><time>2026-05-03T09:12:57.993Z</time></trkpt><trkpt lat="44.94086901388252" lon="9.312880820286088"><ele>575.0</ele><time>2026-05-03T09:12:58.993Z</time></trkpt><trkpt lat="44.940974782707016" lon="9.312948824153908"><ele>575.0</ele><time>2026-05-03T09:12:59.993Z</time></trkpt><trkpt lat="44.941079983442656" lon="9.313010344406575"><ele>575.0</ele><time>2026-05-03T09:13:00.993Z</time></trkpt><trkpt lat="44.941184691473175" lon="9.313062982281883"><ele>575.0</ele><time>2026-05-03T09:13:01.993Z</time></trkpt><trkpt lat="44.941286635392224" lon="9.313105281488316"><ele>575.0</ele><time>2026-05-03T09:13:02.993Z</time></trkpt><trkpt lat="44.941377532371924" lon="9.313126160460984"><ele>575.0</ele><time>2026-05-03T09:13:03.993Z</time></trkpt><trkpt lat="44.9414709949302" lon="9.31313843075044"><ele>575.0</ele><time>2026-05-03T09:13:04.993Z</time></trkpt><trkpt lat="44.94156264456579" lon="9.313094444470556"><ele>575.0</ele><time>2026-05-03T09:13:05.993Z</time></trkpt><trkpt lat="44.941619565771376" lon="9.31295745329814"><ele>575.0</ele><time>2026-05-03T09:13:06.993Z</time></trkpt><trkpt lat="44.941677834434294" lon="9.31282444603718"><ele>575.0</ele><time>2026-05-03T09:13:07.993Z</time></trkpt><trkpt lat="44.94172688497443" lon="9.312661266256647"><ele>575.0</ele><time>2026-05-03T09:13:08.993Z</time></trkpt><trkpt lat="44.94178426588075" lon="9.312507050948817"><ele>574.2</ele><time>2026-05-03T09:13:09.993Z</time></trkpt><trkpt lat="44.941828891843656" lon="9.312355375373206"><ele>573.4</ele><time>2026-05-03T09:13:10.993Z</time></trkpt><trkpt lat="44.941874229323666" lon="9.31221335420166"><ele>572.6</ele><time>2026-05-03T09:13:11.993Z</time></trkpt><trkpt lat="44.9419184333449" lon="9.312074285933319"><ele>571.8</ele><time>2026-05-03T09:13:12.993Z</time></trkpt><trkpt lat="44.94196208310971" lon="9.311941975976492"><ele>571.0</ele><time>2026-05-03T09:13:13.993Z</time></trkpt><trkpt lat="44.94201355634869" lon="9.31182513087277"><ele>571.0</ele><time>2026-05-03T09:13:14.993Z</time></trkpt><trkpt lat="44.942070432014276" lon="9.31173312344082"><ele>571.0</ele><time>2026-05-03T09:13:15.993Z</time></trkpt><trkpt lat="44.94213547679615" lon="9.311678312236678"><ele>571.0</ele><time>2026-05-03T09:13:16.993Z</time></trkpt><trkpt lat="44.94221797733024" lon="9.31165133389271"><ele>571.0</ele><time>2026-05-03T09:13:17.993Z</time></trkpt><trkpt lat="44.94232000240845" lon="9.311631252606182"><ele>571.0</ele><time>2026-05-03T09:13:18.993Z</time></trkpt><trkpt lat="44.942432743089746" lon="9.311588101234058"><ele>571.0</ele><time>2026-05-03T09:13:19.993Z</time></trkpt><trkpt lat="44.942538661287415" lon="9.311515122486073"><ele>571.0</ele><time>2026-05-03T09:13:20.993Z</time></trkpt><trkpt lat="44.942641605582516" lon="9.311416905836642"><ele>571.0</ele><time>2026-05-03T09:13:21.993Z</time></trkpt><trkpt lat="44.94273258241791" lon="9.311327356079687"><ele>571.0</ele><time>2026-05-03T09:13:22.993Z</time></trkpt><trkpt lat="44.94280763244953" lon="9.311244226613242"><ele>571.0</ele><time>2026-05-03T09:13:23.993Z</time></trkpt><trkpt lat="44.945827732622014" lon="9.311754602627946"><ele>567.5</ele><time>2026-05-03T09:14:24.992Z</time></trkpt><trkpt lat="44.94585718840745" lon="9.311861967098135"><ele>564.0</ele><time>2026-05-03T09:14:25.992Z</time></trkpt><trkpt lat="44.945894691954365" lon="9.311962775329658"><ele>560.5</ele><time>2026-05-03T09:14:26.992Z</time></trkpt><trkpt lat="44.94593631461726" lon="9.312057442372748"><ele>557.0</ele><time>2026-05-03T09:14:27.992Z</time></trkpt><trkpt lat="44.94599314639431" lon="9.312146995246525"><ele>553.5</ele><time>2026-05-03T09:14:28.992Z</time></trkpt><trkpt lat="44.946067977756194" lon="9.312225138366875"><ele>550.0</ele><time>2026-05-03T09:14:29.992Z</time></trkpt><trkpt lat="44.946155112549114" lon="9.31225869563594"><ele>549.4</ele><time>2026-05-03T09:14:30.992Z</time></trkpt><trkpt lat="44.94623152045228" lon="9.312321515390485"><ele>548.8</ele><time>2026-05-03T09:14:31.992Z</time></trkpt><trkpt lat="44.94632160827151" lon="9.312357022443408"><ele>548.2</ele><time>2026-05-03T09:14:32.992Z</time></trkpt><trkpt lat="44.946418559309514" lon="9.312381383122592"><ele>547.6</ele><time>2026-05-03T09:14:33.992Z</time></trkpt><trkpt lat="44.94652518849838" lon="9.312383278823365"><ele>547.0</ele><time>2026-05-03T09:14:34.992Z</time></trkpt><trkpt lat="44.94663625282201" lon="9.31234717783048"><ele>546.75</ele><time>2026-05-03T09:14:35.992Z</time></trkpt><trkpt lat="44.94674090403952" lon="9.312279489849525"><ele>546.5</ele><time>2026-05-03T09:14:36.992Z</time></trkpt><trkpt lat="44.946842917565064" lon="9.312207424535234"><ele>546.25</ele><time>2026-05-03T09:14:37.992Z</time></trkpt><trkpt lat="44.946946512752234" lon="9.312141953199843"><ele>546.0</ele><time>2026-05-03T09:14:38.992Z</time></trkpt><trkpt lat="44.94704296223481" lon="9.312068791037612"><ele>543.8</ele><time>2026-05-03T09:14:39.992Z</time></trkpt><trkpt lat="44.94714936041726" lon="9.312062372391841"><ele>541.6</ele><time>2026-05-03T09:14:40.992Z</time></trkpt><trkpt lat="44.94725476895748" lon="9.31205035447024"><ele>539.4</ele><time>2026-05-03T09:14:41.992Z</time></trkpt><trkpt lat="44.94735476134338" lon="9.312021592646236"><ele>537.2</ele><time>2026-05-03T09:14:42.992Z</time></trkpt><trkpt lat="44.94745314971258" lon="9.312028740251094"><ele>535.0</ele><time>2026-05-03T09:14:43.992Z</time></trkpt><trkpt lat="44.947545061995335" lon="9.312035468607771"><ele>534.2</ele><time>2026-05-03T09:14:44.992Z</time></trkpt><trkpt lat="44.94764036263706" lon="9.312049436898292"><ele>533.4</ele><time>2026-05-03T09:14:45.992Z</time></trkpt><trkpt lat="44.94772625829301" lon="9.312085686246075"><ele>532.6</ele><time>2026-05-03T09:14:46.992Z</time></trkpt><trkpt lat="44.947811904768415" lon="9.312109587335826"><ele>531.8</ele><time>2026-05-03T09:14:47.992Z</time></trkpt><trkpt lat="44.94790331577545" lon="9.312122530517305"><ele>531.0</ele><time>2026-05-03T09:14:48.992Z</time></trkpt><trkpt lat="44.947995126680524" lon="9.312162107632313"><ele>531.0</ele><time>2026-05-03T09:14:49.992Z</time></trkpt><trkpt lat="44.948084830581934" lon="9.312221494765055"><ele>531.0</ele><time>2026-05-03T09:14:50.992Z</time></trkpt><trkpt lat="44.94818719282341" lon="9.312266990391388"><ele>531.0</ele><time>2026-05-03T09:14:51.992Z</time></trkpt><trkpt lat="44.948292200310284" lon="9.31233570936619"><ele>531.0</ele><time>2026-05-03T09:14:52.992Z</time></trkpt><trkpt lat="44.94852711656529" lon="9.31247782609995"><ele>530.8</ele><time>2026-05-03T09:14:54.992Z</time></trkpt><trkpt lat="44.9486356042397" lon="9.312531401039363"><ele>530.6</ele><time>2026-05-03T09:14:55.992Z</time></trkpt><trkpt lat="44.94873880418363" lon="9.31256621972488"><ele>530.4</ele><time>2026-05-03T09:14:56.992Z</time></trkpt><trkpt lat="44.94883677010462" lon="9.312591376198196"><ele>530.2</ele><time>2026-05-03T09:14:57.992Z</time></trkpt><trkpt lat="44.94892479419379" lon="9.312636815047696"><ele>530.0</ele><time>2026-05-03T09:14:58.992Z</time></trkpt><trkpt lat="44.9489912763069" lon="9.31273438209319"><ele>530.0</ele><time>2026-05-03T09:14:59.992Z</time></trkpt><trkpt lat="44.949069155677506" lon="9.31280249055282"><ele>530.0</ele><time>2026-05-03T09:15:00.992Z</time></trkpt><trkpt lat="44.94913337347861" lon="9.312896353371427"><ele>530.0</ele><time>2026-05-03T09:15:01.992Z</time></trkpt><trkpt lat="44.94919404717119" lon="9.312999094962096"><ele>530.0</ele><time>2026-05-03T09:15:02.992Z</time></trkpt><trkpt lat="44.94924040139662" lon="9.313124218732632"><ele>530.0</ele><time>2026-05-03T09:15:03.992Z</time></trkpt><trkpt lat="44.94928342980654" lon="9.313255402441765"><ele>527.0</ele><time>2026-05-03T09:15:04.992Z</time></trkpt><trkpt lat="44.94931525147866" lon="9.31339185746037"><ele>524.0</ele><time>2026-05-03T09:15:05.992Z</time></trkpt><trkpt lat="44.94934586276081" lon="9.313528609166307"><ele>521.0</ele><time>2026-05-03T09:15:06.992Z</time></trkpt><trkpt lat="44.94935485872345" lon="9.313676430599413"><ele>518.0</ele><time>2026-05-03T09:15:07.992Z</time></trkpt><trkpt lat="44.949377507713045" lon="9.313815586212796"><ele>515.0</ele><time>2026-05-03T09:15:08.992Z</time></trkpt><trkpt lat="44.94940256171515" lon="9.313952448889792"><ele>514.2</ele><time>2026-05-03T09:15:09.992Z</time></trkpt><trkpt lat="44.94942571892749" lon="9.314099440682613"><ele>513.4</ele><time>2026-05-03T09:15:10.992Z</time></trkpt><trkpt lat="44.94945274263788" lon="9.314234034593134"><ele>512.6</ele><time>2026-05-03T09:15:11.992Z</time></trkpt><trkpt lat="44.94947296037921" lon="9.314379292057888"><ele>511.8</ele><time>2026-05-03T09:15:12.992Z</time></trkpt><trkpt lat="44.949493386188536" lon="9.314501866600596"><ele>511.0</ele><time>2026-05-03T09:15:13.992Z</time></trkpt><trkpt lat="44.949513780646676" lon="9.314628662389442"><ele>511.33333333333337</ele><time>2026-05-03T09:15:14.992Z</time></trkpt><trkpt lat="44.949532139790776" lon="9.314749208627596"><ele>511.6666666666667</ele><time>2026-05-03T09:15:15.992Z</time></trkpt><trkpt lat="44.94955185882014" lon="9.314863572847166"><ele>512.0</ele><time>2026-05-03T09:15:16.992Z</time></trkpt><trkpt lat="44.94956980656025" lon="9.314984409633043"><ele>512.3333333333334</ele><time>2026-05-03T09:15:17.992Z</time></trkpt><trkpt lat="44.9496311045384" lon="9.315084362107163"><ele>512.6666666666666</ele><time>2026-05-03T09:15:18.992Z</time></trkpt><trkpt lat="44.94968710110975" lon="9.315186056261464"><ele>513.0</ele><time>2026-05-03T09:15:19.992Z</time></trkpt><trkpt lat="44.949738057106586" lon="9.315296446494653"><ele>513.0</ele><time>2026-05-03T09:15:20.992Z</time></trkpt><trkpt lat="44.949813779292285" lon="9.315380914137512"><ele>513.0</ele><time>2026-05-03T09:15:21.992Z</time></trkpt><trkpt lat="44.94990200729721" lon="9.315439215757104"><ele>513.0</ele><time>2026-05-03T09:15:22.992Z</time></trkpt><trkpt lat="44.94999858835121" lon="9.31547909965474"><ele>513.0</ele><time>2026-05-03T09:15:23.992Z</time></trkpt><trkpt lat="44.954961610868004" lon="9.313093024373151"><ele>500.75</ele><time>2026-05-03T09:16:24.991Z</time></trkpt><trkpt lat="44.955055419292044" lon="9.312974545851944"><ele>488.5</ele><time>2026-05-03T09:16:25.991Z</time></trkpt><trkpt lat="44.95514669648391" lon="9.312860028214576"><ele>476.25</ele><time>2026-05-03T09:16:26.991Z</time></trkpt><trkpt lat="44.955239954265274" lon="9.312747278438938"><ele>464.0</ele><time>2026-05-03T09:16:27.991Z</time></trkpt><trkpt lat="44.9553335924588" lon="9.312642457232592"><ele>464.0</ele><time>2026-05-03T09:16:28.991Z</time></trkpt><trkpt lat="44.955437384554294" lon="9.31255795785313"><ele>464.0</ele><time>2026-05-03T09:16:29.991Z</time></trkpt><trkpt lat="44.95555268618581" lon="9.312496013556368"><ele>464.0</ele><time>2026-05-03T09:16:30.991Z</time></trkpt><trkpt lat="44.955676593360096" lon="9.312438553447562"><ele>464.0</ele><time>2026-05-03T09:16:31.991Z</time></trkpt><trkpt lat="44.95580003660716" lon="9.312362103794758"><ele>463.75</ele><time>2026-05-03T09:16:32.991Z</time></trkpt><trkpt lat="44.955916106428276" lon="9.3122576099958"><ele>463.5</ele><time>2026-05-03T09:16:33.991Z</time></trkpt><trkpt lat="44.95602502201692" lon="9.312135113801494"><ele>463.25</ele><time>2026-05-03T09:16:34.991Z</time></trkpt><trkpt lat="44.956133485688945" lon="9.312009114503464"><ele>463.0</ele><time>2026-05-03T09:16:35.991Z</time></trkpt><trkpt lat="44.95624311315637" lon="9.311880555875328"><ele>463.0</ele><time>2026-05-03T09:16:36.991Z</time></trkpt><trkpt lat="44.956350179322676" lon="9.311753815990176"><ele>463.0</ele><time>2026-05-03T09:16:37.991Z</time></trkpt><trkpt lat="44.9564497241313" lon="9.311636427906054"><ele>463.0</ele><time>2026-05-03T09:16:38.991Z</time></trkpt><trkpt lat="44.95655237404" lon="9.311523412685418"><ele>463.0</ele><time>2026-05-03T09:16:39.991Z</time></trkpt><trkpt lat="44.95665963045893" lon="9.311410580264978"><ele>462.5</ele><time>2026-05-03T09:16:40.991Z</time></trkpt><trkpt lat="44.956775016512" lon="9.311300179628269"><ele>462.0</ele><time>2026-05-03T09:16:41.991Z</time></trkpt><trkpt lat="44.95691087428745" lon="9.311213281200773"><ele>461.5</ele><time>2026-05-03T09:16:42.991Z</time></trkpt><trkpt lat="44.95703793380362" lon="9.311086357930675"><ele>461.0</ele><time>2026-05-03T09:16:43.991Z</time></trkpt><trkpt lat="44.9571749514841" lon="9.310998214564043"><ele>461.0</ele><time>2026-05-03T09:16:44.991Z</time></trkpt><trkpt lat="44.9573042143131" lon="9.310920734142757"><ele>461.0</ele><time>2026-05-03T09:16:45.991Z</time></trkpt><trkpt lat="44.95743714605771" lon="9.310853005414723"><ele>461.0</ele><time>2026-05-03T09:16:46.991Z</time></trkpt><trkpt lat="44.95757390306282" lon="9.310787967594322"><ele>461.0</ele><time>2026-05-03T09:16:47.991Z</time></trkpt><trkpt lat="44.95770505394346" lon="9.310718117503413"><ele>460.25</ele><time>2026-05-03T09:16:48.991Z</time></trkpt><trkpt lat="44.95782752899775" lon="9.3106441485982"><ele>459.5</ele><time>2026-05-03T09:16:49.991Z</time></trkpt><trkpt lat="44.957940516917674" lon="9.310567148891048"><ele>458.75</ele><time>2026-05-03T09:16:50.991Z</time></trkpt><trkpt lat="44.95805170613251" lon="9.310497220040432"><ele>458.0</ele><time>2026-05-03T09:16:51.991Z</time></trkpt><trkpt lat="44.958163538978255" lon="9.310430012915875"><ele>458.0</ele><time>2026-05-03T09:16:52.991Z</time></trkpt><trkpt lat="44.95826749308912" lon="9.310360567112147"><ele>458.0</ele><time>2026-05-03T09:16:53.991Z</time></trkpt><trkpt lat="44.95837424675163" lon="9.310291300481984"><ele>458.0</ele><time>2026-05-03T09:16:54.991Z</time></trkpt><trkpt lat="44.95848338385455" lon="9.310228454586637"><ele>458.0</ele><time>2026-05-03T09:16:55.991Z</time></trkpt><trkpt lat="44.95858729972649" lon="9.310183035633253"><ele>458.2</ele><time>2026-05-03T09:16:56.991Z</time></trkpt><trkpt lat="44.95869044792636" lon="9.310156368002513"><ele>458.4</ele><time>2026-05-03T09:16:57.991Z</time></trkpt><trkpt lat="44.95879717670924" lon="9.31014933958165"><ele>458.59999999999997</ele><time>2026-05-03T09:16:58.991Z</time></trkpt><trkpt lat="44.95889942668498" lon="9.3101580521058"><ele>458.79999999999995</ele><time>2026-05-03T09:16:59.991Z</time></trkpt><trkpt lat="44.95900083615818" lon="9.310171227876918"><ele>459.0</ele><time>2026-05-03T09:17:00.991Z</time></trkpt><trkpt lat="44.959097665262384" lon="9.310215136480698"><ele>460.6</ele><time>2026-05-03T09:17:01.991Z</time></trkpt><trkpt lat="44.959208968037125" lon="9.310237460849503"><ele>462.2</ele><time>2026-05-03T09:17:02.991Z</time></trkpt><trkpt lat="44.95932262564175" lon="9.310237577634767"><ele>463.80000000000007</ele><time>2026-05-03T09:17:03.991Z</time></trkpt><trkpt lat="44.95942734891911" lon="9.31017677737227"><ele>465.40000000000003</ele><time>2026-05-03T09:17:04.991Z</time></trkpt><trkpt lat="44.959522965916435" lon="9.310118241997095"><ele>467.0</ele><time>2026-05-03T09:17:05.991Z</time></trkpt><trkpt lat="44.95961520989649" lon="9.310046493109274"><ele>467.0</ele><time>2026-05-03T09:17:06.991Z</time></trkpt><trkpt lat="44.959709008774354" lon="9.309975694032598"><ele>467.0</ele><time>2026-05-03T09:17:07.991Z</time></trkpt><trkpt lat="44.95981511144162" lon="9.309906806625909"><ele>467.0</ele><time>2026-05-03T09:17:08.991Z</time></trkpt><trkpt lat="44.95993326003758" lon="9.309866198932214"><ele>467.0</ele><time>2026-05-03T09:17:09.991Z</time></trkpt><trkpt lat="44.96003952714277" lon="9.309826201050434"><ele>468.8</ele><time>2026-05-03T09:17:10.991Z</time></trkpt><trkpt lat="44.96014310971079" lon="9.309792010147374"><ele>470.6</ele><time>2026-05-03T09:17:11.991Z</time></trkpt><trkpt lat="44.96024295118987" lon="9.309759886465693"><ele>472.40000000000003</ele><time>2026-05-03T09:17:12.991Z</time></trkpt><trkpt lat="44.96033922050547" lon="9.309730345680888"><ele>474.20000000000005</ele><time>2026-05-03T09:17:13.991Z</time></trkpt><trkpt lat="44.960440739018985" lon="9.309685169167038"><ele>476.0</ele><time>2026-05-03T09:17:14.991Z</time></trkpt><trkpt lat="44.960543523910566" lon="9.309621339067284"><ele>472.4</ele><time>2026-05-03T09:17:15.991Z</time></trkpt><trkpt lat="44.96064475389382" lon="9.30954386744873"><ele>468.8</ele><time>2026-05-03T09:17:16.991Z</time></trkpt><trkpt lat="44.960729648790455" lon="9.309465146262253"><ele>465.19999999999993</ele><time>2026-05-03T09:17:17.991Z</time></trkpt><trkpt lat="44.960797061966325" lon="9.309379931217522"><ele>461.59999999999997</ele><time>2026-05-03T09:17:18.991Z</time></trkpt><trkpt lat="44.960873533658706" lon="9.309317946454003"><ele>458.0</ele><time>2026-05-03T09:17:19.991Z</time></trkpt><trkpt lat="44.960948882204036" lon="9.309264495732286"><ele>458.0</ele><time>2026-05-03T09:17:20.991Z</time></trkpt><trkpt lat="44.96101460229631" lon="9.309208414869397"><ele>458.0</ele><time>2026-05-03T09:17:21.991Z</time></trkpt><trkpt lat="44.961082159522036" lon="9.309155226561984"><ele>458.0</ele><time>2026-05-03T09:17:22.991Z</time></trkpt><trkpt lat="44.961149419201526" lon="9.309109160293724"><ele>458.0</ele><time>2026-05-03T09:17:23.991Z</time></trkpt><trkpt lat="44.96244679162244" lon="9.312507408152916"><ele>452.66666666666663</ele><time>2026-05-03T09:18:24.99Z</time></trkpt><trkpt lat="44.96250074068308" lon="9.312610420722745"><ele>447.3333333333333</ele><time>2026-05-03T09:18:25.99Z</time></trkpt><trkpt lat="44.96252673286041" lon="9.31272123237114"><ele>442.0</ele><time>2026-05-03T09:18:26.99Z</time></trkpt><trkpt lat="44.96254781323547" lon="9.312835354742994"><ele>436.66666666666663</ele><time>2026-05-03T09:18:27.99Z</time></trkpt><trkpt lat="44.962562645599405" lon="9.312938923029932"><ele>431.3333333333333</ele><time>2026-05-03T09:18:28.99Z</time></trkpt><trkpt lat="44.962583866939624" lon="9.313101698461937"><ele>426.0</ele><time>2026-05-03T09:18:30.99Z</time></trkpt><trkpt lat="44.96259257659808" lon="9.313264236758688"><ele>426.6</ele><time>2026-05-03T09:18:32.99Z</time></trkpt><trkpt lat="44.962597217006426" lon="9.313427187003384"><ele>427.20000000000005</ele><time>2026-05-03T09:18:34.99Z</time></trkpt><trkpt lat="44.962532416992566" lon="9.31357227059135"><ele>427.79999999999995</ele><time>2026-05-03T09:18:36.99Z</time></trkpt><trkpt lat="44.96248448161253" lon="9.313639958094171"><ele>428.4</ele><time>2026-05-03T09:18:37.99Z</time></trkpt><trkpt lat="44.962427635771384" lon="9.313702810754343"><ele>429.0</ele><time>2026-05-03T09:18:38.99Z</time></trkpt><trkpt lat="44.962365193001226" lon="9.313769801959095"><ele>429.0</ele><time>2026-05-03T09:18:39.99Z</time></trkpt><trkpt lat="44.96230482299988" lon="9.313837256507387"><ele>429.0</ele><time>2026-05-03T09:18:40.99Z</time></trkpt><trkpt lat="44.96223276541851" lon="9.313894484190875"><ele>429.0</ele><time>2026-05-03T09:18:41.99Z</time></trkpt><trkpt lat="44.962178888843795" lon="9.313951238944547"><ele>429.0</ele><time>2026-05-03T09:18:42.99Z</time></trkpt><trkpt lat="44.962121982578836" lon="9.314003704504312"><ele>429.0</ele><time>2026-05-03T09:18:43.99Z</time></trkpt><trkpt lat="44.96205892163367" lon="9.314044928633933"><ele>429.0</ele><time>2026-05-03T09:18:44.99Z</time></trkpt><trkpt lat="44.961993829525184" lon="9.314077868995923"><ele>429.0</ele><time>2026-05-03T09:18:45.99Z</time></trkpt><trkpt lat="44.96192169215731" lon="9.314107603628452"><ele>428.6</ele><time>2026-05-03T09:18:46.99Z</time></trkpt><trkpt lat="44.961837131064385" lon="9.314130742739902"><ele>428.2</ele><time>2026-05-03T09:18:47.99Z</time></trkpt><trkpt lat="44.96173380315404" lon="9.314144873363091"><ele>427.80000000000007</ele><time>2026-05-03T09:18:48.99Z</time></trkpt><trkpt lat="44.961622265734334" lon="9.314156341810696"><ele>427.40000000000003</ele><time>2026-05-03T09:18:49.99Z</time></trkpt><trkpt lat="44.96152488148873" lon="9.314156913022149"><ele>427.0</ele><time>2026-05-03T09:18:50.99Z</time></trkpt><trkpt lat="44.96142853610187" lon="9.31414945429966"><ele>428.6666666666667</ele><time>2026-05-03T09:18:51.99Z</time></trkpt><trkpt lat="44.96133280747355" lon="9.314145002144272"><ele>430.33333333333337</ele><time>2026-05-03T09:18:52.99Z</time></trkpt><trkpt lat="44.961238562956325" lon="9.314136496382858"><ele>432.0</ele><time>2026-05-03T09:18:53.99Z</time></trkpt><trkpt lat="44.96115692853736" lon="9.314142403098831"><ele>433.66666666666663</ele><time>2026-05-03T09:18:54.99Z</time></trkpt><trkpt lat="44.96108336919098" lon="9.314166055135951"><ele>435.3333333333333</ele><time>2026-05-03T09:18:55.99Z</time></trkpt><trkpt lat="44.96101821559184" lon="9.314197815263963"><ele>437.0</ele><time>2026-05-03T09:18:56.99Z</time></trkpt><trkpt lat="44.960941206421204" lon="9.314225836269044"><ele>438.8</ele><time>2026-05-03T09:18:57.99Z</time></trkpt><trkpt lat="44.96086495105417" lon="9.314301448294385"><ele>440.6</ele><time>2026-05-03T09:18:58.99Z</time></trkpt><trkpt lat="44.96079831048372" lon="9.314401503917777"><ele>442.40000000000003</ele><time>2026-05-03T09:18:59.99Z</time></trkpt><trkpt lat="44.960734290889626" lon="9.314530633006425"><ele>444.20000000000005</ele><time>2026-05-03T09:19:00.99Z</time></trkpt><trkpt lat="44.960685964268094" lon="9.314696089121357"><ele>446.0</ele><time>2026-05-03T09:19:01.99Z</time></trkpt><trkpt lat="44.960654188478046" lon="9.31486962160966"><ele>446.0</ele><time>2026-05-03T09:19:02.99Z</time></trkpt><trkpt lat="44.96062319378731" lon="9.315022498000136"><ele>446.0</ele><time>2026-05-03T09:19:03.99Z</time></trkpt><trkpt lat="44.96059397483015" lon="9.315160964383427"><ele>446.0</ele><time>2026-05-03T09:19:04.99Z</time></trkpt><trkpt lat="44.9605648744551" lon="9.31529886880255"><ele>446.0</ele><time>2026-05-03T09:19:05.99Z</time></trkpt><trkpt lat="44.96053328754788" lon="9.315441003863263"><ele>446.0</ele><time>2026-05-03T09:19:06.99Z</time></trkpt><trkpt lat="44.96049833176679" lon="9.31560025311228"><ele>445.25</ele><time>2026-05-03T09:19:07.99Z</time></trkpt><trkpt lat="44.96046377122694" lon="9.315764243780594"><ele>444.5</ele><time>2026-05-03T09:19:08.99Z</time></trkpt><trkpt lat="44.96042939272297" lon="9.315938129165742"><ele>443.75</ele><time>2026-05-03T09:19:09.99Z</time></trkpt><trkpt lat="44.96040532804828" lon="9.31611532390133"><ele>443.0</ele><time>2026-05-03T09:19:10.99Z</time></trkpt><trkpt lat="44.9603878496972" lon="9.316281163794647"><ele>442.25</ele><time>2026-05-03T09:19:11.99Z</time></trkpt><trkpt lat="44.960385347828996" lon="9.316455786919546"><ele>441.5</ele><time>2026-05-03T09:19:12.99Z</time></trkpt><trkpt lat="44.96036311288372" lon="9.316636301692444"><ele>440.75</ele><time>2026-05-03T09:19:13.99Z</time></trkpt><trkpt lat="44.960351222646295" lon="9.316813814217065"><ele>440.0</ele><time>2026-05-03T09:19:14.99Z</time></trkpt><trkpt lat="44.960344509307596" lon="9.316992053544286"><ele>440.0</ele><time>2026-05-03T09:19:15.99Z</time></trkpt><trkpt lat="44.960341241066615" lon="9.317160573383642"><ele>440.0</ele><time>2026-05-03T09:19:16.99Z</time></trkpt><trkpt lat="44.9603353876982" lon="9.317324775308373"><ele>440.0</ele><time>2026-05-03T09:19:17.99Z</time></trkpt><trkpt lat="44.960330646822925" lon="9.317497989923448"><ele>440.0</ele><time>2026-05-03T09:19:18.99Z</time></trkpt><trkpt lat="44.960328938321254" lon="9.317676348345332"><ele>440.0</ele><time>2026-05-03T09:19:19.99Z</time></trkpt><trkpt lat="44.960328220352935" lon="9.317862350737421"><ele>440.0</ele><time>2026-05-03T09:19:20.99Z</time></trkpt><trkpt lat="44.96032596462442" lon="9.318053075111777"><ele>440.0</ele><time>2026-05-03T09:19:21.99Z</time></trkpt><trkpt lat="44.960327678010174" lon="9.318248008350595"><ele>440.0</ele><time>2026-05-03T09:19:22.99Z</time></trkpt><trkpt lat="44.96033068080717" lon="9.318438040843734"><ele>460.0</ele><time>2026-05-03T09:19:23.99Z</time></trkpt><trkpt lat="44.96476729745785" lon="9.324253410078178"><ele>460.00000000000006</ele><time>2026-05-03T09:20:24.997Z</time></trkpt><trkpt lat="44.964875373613744" lon="9.324296964347445"><ele>460.0</ele><time>2026-05-03T09:20:26.997Z</time></trkpt><trkpt lat="44.964950533497806" lon="9.324269552191708"><ele>460.0</ele><time>2026-05-03T09:20:27.997Z</time></trkpt><trkpt lat="44.96502407211502" lon="9.324242731346569"><ele>460.0</ele><time>2026-05-03T09:20:28.997Z</time></trkpt><trkpt lat="44.96509878977734" lon="9.324215411831279"><ele>460.00000000000006</ele><time>2026-05-03T09:20:29.997Z</time></trkpt><trkpt lat="44.96516855947093" lon="9.32418793842466"><ele>460.0</ele><time>2026-05-03T09:20:30.997Z</time></trkpt><trkpt lat="44.96524267191391" lon="9.32415805113999"><ele>459.0</ele><time>2026-05-03T09:20:31.997Z</time></trkpt><trkpt lat="44.965328167231526" lon="9.324123982132834"><ele>458.0</ele><time>2026-05-03T09:20:32.997Z</time></trkpt><trkpt lat="44.9654300071633" lon="9.32407452885267"><ele>457.0</ele><time>2026-05-03T09:20:33.997Z</time></trkpt><trkpt lat="44.96553913788672" lon="9.324004836001329"><ele>456.0</ele><time>2026-05-03T09:20:34.997Z</time></trkpt><trkpt lat="44.96564681736358" lon="9.323920995654937"><ele>455.0</ele><time>2026-05-03T09:20:35.997Z</time></trkpt><trkpt lat="44.965759672747474" lon="9.32382625031156"><ele>454.0</ele><time>2026-05-03T09:20:36.997Z</time></trkpt><trkpt lat="44.965875454780814" lon="9.323725945981428"><ele>453.0</ele><time>2026-05-03T09:20:37.997Z</time></trkpt><trkpt lat="44.9659751565255" lon="9.323638232456704"><ele>452.0</ele><time>2026-05-03T09:20:38.997Z</time></trkpt><trkpt lat="44.966070716715734" lon="9.323557066712887"><ele>451.0</ele><time>2026-05-03T09:20:39.997Z</time></trkpt><trkpt lat="44.96616211791623" lon="9.323479433421841"><ele>451.0</ele><time>2026-05-03T09:20:40.997Z</time></trkpt><trkpt lat="44.96625058409061" lon="9.323404293082369"><ele>451.0</ele><time>2026-05-03T09:20:41.997Z</time></trkpt><trkpt lat="44.966342175925604" lon="9.323326497908216"><ele>451.0</ele><time>2026-05-03T09:20:42.997Z</time></trkpt><trkpt lat="44.966437818957026" lon="9.32324526176099"><ele>451.0</ele><time>2026-05-03T09:20:43.997Z</time></trkpt><trkpt lat="44.96653070654354" lon="9.323140010686144"><ele>451.0</ele><time>2026-05-03T09:20:44.997Z</time></trkpt><trkpt lat="44.96663794376947" lon="9.323055772901911"><ele>450.5</ele><time>2026-05-03T09:20:45.997Z</time></trkpt><trkpt lat="44.966735752461446" lon="9.322969512200372"><ele>450.0</ele><time>2026-05-03T09:20:46.997Z</time></trkpt><trkpt lat="44.96685401924096" lon="9.322894033989881"><ele>449.5</ele><time>2026-05-03T09:20:47.997Z</time></trkpt><trkpt lat="44.9669780780821" lon="9.322780846273318"><ele>449.0</ele><time>2026-05-03T09:20:48.997Z</time></trkpt><trkpt lat="44.967126149933925" lon="9.322695017567728"><ele>449.0</ele><time>2026-05-03T09:20:49.997Z</time></trkpt><trkpt lat="44.96726137777084" lon="9.322598625694823"><ele>449.0</ele><time>2026-05-03T09:20:50.997Z</time></trkpt><trkpt lat="44.96739774737679" lon="9.322540107650983"><ele>449.0</ele><time>2026-05-03T09:20:51.997Z</time></trkpt><trkpt lat="44.9675224770042" lon="9.322468979775573"><ele>449.0</ele><time>2026-05-03T09:20:52.997Z</time></trkpt><trkpt lat="44.96764278428838" lon="9.322409852091006"><ele>448.75</ele><time>2026-05-03T09:20:53.997Z</time></trkpt><trkpt lat="44.96775330219586" lon="9.32235836412115"><ele>448.5</ele><time>2026-05-03T09:20:54.997Z</time></trkpt><trkpt lat="44.967859948784806" lon="9.322308679720848"><ele>448.25</ele><time>2026-05-03T09:20:55.997Z</time></trkpt><trkpt lat="44.96798113127886" lon="9.322252223354315"><ele>448.0</ele><time>2026-05-03T09:20:56.997Z</time></trkpt><trkpt lat="44.968101345151794" lon="9.322198733028783"><ele>446.0</ele><time>2026-05-03T09:20:57.997Z</time></trkpt><trkpt lat="44.9682197449892" lon="9.322147384815736"><ele>444.0</ele><time>2026-05-03T09:20:58.997Z</time></trkpt><trkpt lat="44.96833674074232" lon="9.322099429491807"><ele>442.0</ele><time>2026-05-03T09:20:59.997Z</time></trkpt><trkpt lat="44.96845430865335" lon="9.322052969972274"><ele>440.0</ele><time>2026-05-03T09:21:00.997Z</time></trkpt><trkpt lat="44.968569554730806" lon="9.32200757240792"><ele>439.25</ele><time>2026-05-03T09:21:01.997Z</time></trkpt><trkpt lat="44.96868367903951" lon="9.321966539086546"><ele>438.5</ele><time>2026-05-03T09:21:02.997Z</time></trkpt><trkpt lat="44.968794950617216" lon="9.32193319042185"><ele>437.75</ele><time>2026-05-03T09:21:03.997Z</time></trkpt><trkpt lat="44.96890719855983" lon="9.321940602726963"><ele>437.0</ele><time>2026-05-03T09:21:04.997Z</time></trkpt><trkpt lat="44.9690171623998" lon="9.321966088811928"><ele>437.0</ele><time>2026-05-03T09:21:05.998Z</time></trkpt><trkpt lat="44.969130385270326" lon="9.32199427439902"><ele>437.0</ele><time>2026-05-03T09:21:06.998Z</time></trkpt><trkpt lat="44.96924699744875" lon="9.322019123703702"><ele>437.0</ele><time>2026-05-03T09:21:07.998Z</time></trkpt><trkpt lat="44.969360567917825" lon="9.322050307259099"><ele>437.0</ele><time>2026-05-03T09:21:08.998Z</time></trkpt><trkpt lat="44.96946915295678" lon="9.32208645155216"><ele>435.20000000000005</ele><time>2026-05-03T09:21:09.998Z</time></trkpt><trkpt lat="44.96957501844872" lon="9.322115541523175"><ele>433.40000000000003</ele><time>2026-05-03T09:21:10.998Z</time></trkpt><trkpt lat="44.96968014748496" lon="9.32212955280643"><ele>431.59999999999997</ele><time>2026-05-03T09:21:11.998Z</time></trkpt><trkpt lat="44.969794844214384" lon="9.322133278741823"><ele>429.79999999999995</ele><time>2026-05-03T09:21:12.997Z</time></trkpt><trkpt lat="44.96990602400571" lon="9.322122097050602"><ele>428.0</ele><time>2026-05-03T09:21:13.997Z</time></trkpt><trkpt lat="44.970022651270924" lon="9.322073635363367"><ele>426.0</ele><time>2026-05-03T09:21:14.998Z</time></trkpt><trkpt lat="44.970151720929024" lon="9.322022263140447"><ele>424.0</ele><time>2026-05-03T09:21:15.998Z</time></trkpt><trkpt lat="44.970288238928056" lon="9.321902086348732"><ele>422.0</ele><time>2026-05-03T09:21:16.997Z</time></trkpt><trkpt lat="44.97044032398269" lon="9.321795897193946"><ele>422.0</ele><time>2026-05-03T09:21:17.998Z</time></trkpt><trkpt lat="44.97059157096197" lon="9.321670663758656"><ele>422.0</ele><time>2026-05-03T09:21:18.998Z</time></trkpt><trkpt lat="44.97074656241583" lon="9.321541045004214"><ele>422.0</ele><time>2026-05-03T09:21:19.998Z</time></trkpt><trkpt lat="44.97089850141725" lon="9.321423136590123"><ele>421.3333333333333</ele><time>2026-05-03T09:21:20.998Z</time></trkpt><trkpt lat="44.971044758659986" lon="9.321294927733673"><ele>420.66666666666663</ele><time>2026-05-03T09:21:21.998Z</time></trkpt><trkpt lat="44.97119480074812" lon="9.321173880420197"><ele>420.0</ele><time>2026-05-03T09:21:22.998Z</time></trkpt><trkpt lat="44.971345333167626" lon="9.321058242397909"><ele>412.0</ele><time>2026-05-03T09:21:23.998Z</time></trkpt><trkpt lat="44.97851557267244" lon="9.320230142309416"><ele>412.00000000000006</ele><time>2026-05-03T09:22:24.998Z</time></trkpt><trkpt lat="44.978612238142276" lon="9.32027274449883"><ele>412.0</ele><time>2026-05-03T09:22:25.998Z</time></trkpt><trkpt lat="44.97869817160418" lon="9.320317577457915"><ele>412.0</ele><time>2026-05-03T09:22:26.998Z</time></trkpt><trkpt lat="44.978779395653454" lon="9.320361737459953"><ele>412.0</ele><time>2026-05-03T09:22:27.998Z</time></trkpt><trkpt lat="44.97885190923851" lon="9.320418378890054"><ele>412.00000000000006</ele><time>2026-05-03T09:22:28.998Z</time></trkpt><trkpt lat="44.97892625511261" lon="9.320473468562847"><ele>412.0</ele><time>2026-05-03T09:22:29.998Z</time></trkpt><trkpt lat="44.97899266586019" lon="9.320526689540051"><ele>411.6666666666667</ele><time>2026-05-03T09:22:30.998Z</time></trkpt><trkpt lat="44.979053513178634" lon="9.320583668272617"><ele>411.33333333333337</ele><time>2026-05-03T09:22:31.998Z</time></trkpt><trkpt lat="44.97910818274798" lon="9.320642811210199"><ele>411.0</ele><time>2026-05-03T09:22:32.998Z</time></trkpt><trkpt lat="44.97916043034495" lon="9.320707626471963"><ele>410.66666666666663</ele><time>2026-05-03T09:22:33.998Z</time></trkpt><trkpt lat="44.97921521611669" lon="9.320781233802814"><ele>410.3333333333333</ele><time>2026-05-03T09:22:34.997Z</time></trkpt><trkpt lat="44.97925765126869" lon="9.320875130589407"><ele>410.0</ele><time>2026-05-03T09:22:35.997Z</time></trkpt><trkpt lat="44.97932461958388" lon="9.320950237536609"><ele>408.66666666666663</ele><time>2026-05-03T09:22:36.997Z</time></trkpt><trkpt lat="44.97938013182225" lon="9.32105379974093"><ele>407.3333333333333</ele><time>2026-05-03T09:22:37.997Z</time></trkpt><trkpt lat="44.97943638433583" lon="9.321159539809555"><ele>406.0</ele><time>2026-05-03T09:22:38.997Z</time></trkpt><trkpt lat="44.97949890618214" lon="9.321250502934056"><ele>404.66666666666663</ele><time>2026-05-03T09:22:39.997Z</time></trkpt><trkpt lat="44.97956264222373" lon="9.321329126317366"><ele>403.3333333333333</ele><time>2026-05-03T09:22:40.997Z</time></trkpt><trkpt lat="44.97961470997702" lon="9.321404781859217"><ele>402.0</ele><time>2026-05-03T09:22:41.997Z</time></trkpt><trkpt lat="44.97966638773447" lon="9.321482435700268"><ele>402.0</ele><time>2026-05-03T09:22:42.997Z</time></trkpt><trkpt lat="44.97971875607458" lon="9.32154864675288"><ele>402.0</ele><time>2026-05-03T09:22:43.997Z</time></trkpt><trkpt lat="44.97978008841465" lon="9.321594960468403"><ele>402.0</ele><time>2026-05-03T09:22:44.997Z</time></trkpt><trkpt lat="44.97984165141049" lon="9.321619154571312"><ele>402.0</ele><time>2026-05-03T09:22:45.997Z</time></trkpt><trkpt lat="44.97994951011679" lon="9.32159017235893"><ele>402.0</ele><time>2026-05-03T09:22:47.997Z</time></trkpt><trkpt lat="44.98004258939842" lon="9.321534703996095"><ele>402.0</ele><time>2026-05-03T09:22:49.997Z</time></trkpt><trkpt lat="44.98013789039493" lon="9.321513425137594"><ele>399.0</ele><time>2026-05-03T09:22:51.997Z</time></trkpt><trkpt lat="44.980221047712696" lon="9.321559786718245"><ele>396.0</ele><time>2026-05-03T09:22:53.997Z</time></trkpt><trkpt lat="44.98029114179642" lon="9.32162376354846"><ele>393.0</ele><time>2026-05-03T09:22:55.997Z</time></trkpt><trkpt lat="44.98036195606793" lon="9.321702187779529"><ele>390.0</ele><time>2026-05-03T09:22:57.997Z</time></trkpt><trkpt lat="44.98045471868727" lon="9.321782500624305"><ele>387.0</ele><time>2026-05-03T09:22:59.997Z</time></trkpt><trkpt lat="44.980545422614995" lon="9.32191682496465"><ele>387.0</ele><time>2026-05-03T09:23:01.997Z</time></trkpt><trkpt lat="44.980598381723205" lon="9.321980397716143"><ele>387.0</ele><time>2026-05-03T09:23:02.997Z</time></trkpt><trkpt lat="44.980652197288926" lon="9.32204629975784"><ele>387.0</ele><time>2026-05-03T09:23:03.997Z</time></trkpt><trkpt lat="44.98070094076936" lon="9.322119327152226"><ele>387.0</ele><time>2026-05-03T09:23:04.997Z</time></trkpt><trkpt lat="44.98075477242007" lon="9.322189038757404"><ele>387.0</ele><time>2026-05-03T09:23:05.997Z</time></trkpt><trkpt lat="44.9808070787306" lon="9.322260054172846"><ele>387.0</ele><time>2026-05-03T09:23:06.997Z</time></trkpt><trkpt lat="44.98086024103039" lon="9.322327445076096"><ele>387.0</ele><time>2026-05-03T09:23:07.997Z</time></trkpt><trkpt lat="44.98091390013651" lon="9.32239047492079"><ele>385.8333333333333</ele><time>2026-05-03T09:23:08.997Z</time></trkpt><trkpt lat="44.980967446345595" lon="9.322460110029327"><ele>384.6666666666667</ele><time>2026-05-03T09:23:09.997Z</time></trkpt><trkpt lat="44.98101032621339" lon="9.322527326703788"><ele>383.5</ele><time>2026-05-03T09:23:10.997Z</time></trkpt><trkpt lat="44.98108812495992" lon="9.322635030575677"><ele>382.33333333333337</ele><time>2026-05-03T09:23:12.998Z</time></trkpt><trkpt lat="44.981190759328456" lon="9.322712734062437"><ele>381.1666666666667</ele><time>2026-05-03T09:23:14.998Z</time></trkpt><trkpt lat="44.9812555114263" lon="9.322745606370333"><ele>380.0</ele><time>2026-05-03T09:23:15.998Z</time></trkpt><trkpt lat="44.98131917249404" lon="9.322775600129283"><ele>380.0</ele><time>2026-05-03T09:23:16.998Z</time></trkpt><trkpt lat="44.98138336579543" lon="9.322796249228157"><ele>380.0</ele><time>2026-05-03T09:23:17.998Z</time></trkpt><trkpt lat="44.981453121842684" lon="9.322816627381838"><ele>380.0</ele><time>2026-05-03T09:23:18.998Z</time></trkpt><trkpt lat="44.981528502358785" lon="9.322840091363913"><ele>380.0</ele><time>2026-05-03T09:23:19.998Z</time></trkpt><trkpt lat="44.98160896173736" lon="9.322876140058735"><ele>380.0</ele><time>2026-05-03T09:23:20.998Z</time></trkpt><trkpt lat="44.98170913405898" lon="9.322908828982202"><ele>380.0</ele><time>2026-05-03T09:23:21.998Z</time></trkpt><trkpt lat="44.98181158840814" lon="9.322944491416465"><ele>373.5</ele><time>2026-05-03T09:23:22.998Z</time></trkpt><trkpt lat="44.98191503195497" lon="9.322979281096604"><ele>367.0</ele><time>2026-05-03T09:23:23.998Z</time></trkpt><trkpt lat="44.988045591997476" lon="9.32519428095738"><ele>364.5</ele><time>2026-05-03T09:24:24.998Z</time></trkpt><trkpt lat="44.98811323699537" lon="9.325198956260776"><ele>362.0</ele><time>2026-05-03T09:24:25.998Z</time></trkpt><trkpt lat="44.988186072189144" lon="9.325198956263385"><ele>359.5</ele><time>2026-05-03T09:24:26.998Z</time></trkpt><trkpt lat="44.988271616974615" lon="9.325192145637262"><ele>357.0</ele><time>2026-05-03T09:24:27.998Z</time></trkpt><trkpt lat="44.98836454824085" lon="9.32517650061565"><ele>354.5</ele><time>2026-05-03T09:24:28.998Z</time></trkpt><trkpt lat="44.988469985679124" lon="9.325147932812923"><ele>352.0</ele><time>2026-05-03T09:24:29.998Z</time></trkpt><trkpt lat="44.98857350757766" lon="9.325108096585591"><ele>351.20000000000005</ele><time>2026-05-03T09:24:30.998Z</time></trkpt><trkpt lat="44.988668798654494" lon="9.325060139605224"><ele>350.4</ele><time>2026-05-03T09:24:31.998Z</time></trkpt><trkpt lat="44.988761619752836" lon="9.324977306795837"><ele>349.6</ele><time>2026-05-03T09:24:32.998Z</time></trkpt><trkpt lat="44.98886795397885" lon="9.32492727540909"><ele>348.79999999999995</ele><time>2026-05-03T09:24:33.997Z</time></trkpt><trkpt lat="44.98896677623798" lon="9.324854650757581"><ele>348.0</ele><time>2026-05-03T09:24:34.997Z</time></trkpt><trkpt lat="44.98905937895498" lon="9.324784999776773"><ele>348.2</ele><time>2026-05-03T09:24:35.997Z</time></trkpt><trkpt lat="44.98915007852723" lon="9.324716780242525"><ele>348.4</ele><time>2026-05-03T09:24:36.997Z</time></trkpt><trkpt lat="44.98923694054397" lon="9.3246551146573"><ele>348.59999999999997</ele><time>2026-05-03T09:24:37.997Z</time></trkpt><trkpt lat="44.989320576903445" lon="9.324602960086676"><ele>348.79999999999995</ele><time>2026-05-03T09:24:38.997Z</time></trkpt><trkpt lat="44.98940292312947" lon="9.32455935717106"><ele>349.0</ele><time>2026-05-03T09:24:39.997Z</time></trkpt><trkpt lat="44.98949098087158" lon="9.324520324239707"><ele>349.0</ele><time>2026-05-03T09:24:40.997Z</time></trkpt><trkpt lat="44.989586695384624" lon="9.324490294024741"><ele>349.0</ele><time>2026-05-03T09:24:41.997Z</time></trkpt><trkpt lat="44.989680951286495" lon="9.324468814978449"><ele>349.0</ele><time>2026-05-03T09:24:42.997Z</time></trkpt><trkpt lat="44.98977768546383" lon="9.32443403030352"><ele>349.0</ele><time>2026-05-03T09:24:43.997Z</time></trkpt><trkpt lat="44.98987558035873" lon="9.324453156284012"><ele>349.0</ele><time>2026-05-03T09:24:44.997Z</time></trkpt><trkpt lat="44.9899696086608" lon="9.324456278964862"><ele>348.2</ele><time>2026-05-03T09:24:45.997Z</time></trkpt><trkpt lat="44.9900620479755" lon="9.324463714288843"><ele>347.4</ele><time>2026-05-03T09:24:46.997Z</time></trkpt><trkpt lat="44.99015811064747" lon="9.324472208046808"><ele>346.6</ele><time>2026-05-03T09:24:47.997Z</time></trkpt><trkpt lat="44.99025586849201" lon="9.324480851685603"><ele>345.8</ele><time>2026-05-03T09:24:48.997Z</time></trkpt><trkpt lat="44.99035216884086" lon="9.324482969840037"><ele>345.0</ele><time>2026-05-03T09:24:49.997Z</time></trkpt><trkpt lat="44.99044550729198" lon="9.324452982655478"><ele>345.0</ele><time>2026-05-03T09:24:50.997Z</time></trkpt><trkpt lat="44.9905343010972" lon="9.32443967716984"><ele>345.0</ele><time>2026-05-03T09:24:51.997Z</time></trkpt><trkpt lat="44.990618087404485" lon="9.324439857336671"><ele>345.0</ele><time>2026-05-03T09:24:52.997Z</time></trkpt><trkpt lat="44.99069575267886" lon="9.324427241954972"><ele>345.0</ele><time>2026-05-03T09:24:53.997Z</time></trkpt><trkpt lat="44.99076921852096" lon="9.3244442931594"><ele>345.0</ele><time>2026-05-03T09:24:54.997Z</time></trkpt><trkpt lat="44.99084402840929" lon="9.3244491553698"><ele>345.0</ele><time>2026-05-03T09:24:55.997Z</time></trkpt><trkpt lat="44.99092284582271" lon="9.324386439400131"><ele>345.0</ele><time>2026-05-03T09:24:56.997Z</time></trkpt><trkpt lat="44.990991288496794" lon="9.324394732065729"><ele>345.0</ele><time>2026-05-03T09:24:57.997Z</time></trkpt><trkpt lat="44.991089359139366" lon="9.324380389113946"><ele>345.0</ele><time>2026-05-03T09:24:59.997Z</time></trkpt><trkpt lat="44.991180016284616" lon="9.324374030190146"><ele>345.0</ele><time>2026-05-03T09:25:01.997Z</time></trkpt><trkpt lat="44.99125221954003" lon="9.324367699486409"><ele>345.0</ele><time>2026-05-03T09:25:04.997Z</time></trkpt><trkpt lat="44.991327002995156" lon="9.324328012196947"><ele>345.0</ele><time>2026-05-03T09:25:07.997Z</time></trkpt><trkpt lat="44.99145135136299" lon="9.324407975857572"><ele>345.0</ele><time>2026-05-03T09:25:09.997Z</time></trkpt><trkpt lat="44.991536975761726" lon="9.324436449892456"><ele>345.0</ele><time>2026-05-03T09:25:10.997Z</time></trkpt><trkpt lat="44.9916363902305" lon="9.324463084452946"><ele>345.0</ele><time>2026-05-03T09:25:11.997Z</time></trkpt><trkpt lat="44.99173189835834" lon="9.324491995021537"><ele>345.0</ele><time>2026-05-03T09:25:12.997Z</time></trkpt><trkpt lat="44.9918312666348" lon="9.324484622322913"><ele>345.0</ele><time>2026-05-03T09:25:13.997Z</time></trkpt><trkpt lat="44.99192972679908" lon="9.324483126614885"><ele>344.2</ele><time>2026-05-03T09:25:14.997Z</time></trkpt><trkpt lat="44.992029718149446" lon="9.32450319384364"><ele>343.4</ele><time>2026-05-03T09:25:15.997Z</time></trkpt><trkpt lat="44.9921358661413" lon="9.32450394363116"><ele>342.6</ele><time>2026-05-03T09:25:16.997Z</time></trkpt><trkpt lat="44.992240460784984" lon="9.32450764938185"><ele>341.8</ele><time>2026-05-03T09:25:17.998Z</time></trkpt><trkpt lat="44.99235284861266" lon="9.324512920288816"><ele>341.0</ele><time>2026-05-03T09:25:18.999Z</time></trkpt><trkpt lat="44.99247022656222" lon="9.324516928907952"><ele>339.0</ele><time>2026-05-03T09:25:19.998Z</time></trkpt><trkpt lat="44.99259311152677" lon="9.324517286231796"><ele>337.0</ele><time>2026-05-03T09:25:20.998Z</time></trkpt><trkpt lat="44.99271957309308" lon="9.324511820349684"><ele>335.0</ele><time>2026-05-03T09:25:21.998Z</time></trkpt><trkpt lat="44.992842445165664" lon="9.324505498958736"><ele>333.0</ele><time>2026-05-03T09:25:22.998Z</time></trkpt><trkpt lat="44.992963594031366" lon="9.324494972963468"><ele>288.0</ele><time>2026-05-03T09:25:23.998Z</time></trkpt><trkpt lat="44.99878539744009" lon="9.329093261036391"><ele>288.0</ele><time>2026-05-03T09:26:24.998Z</time></trkpt><trkpt lat="44.998836931986716" lon="9.329258037435945"><ele>288.0</ele><time>2026-05-03T09:26:25.998Z</time></trkpt><trkpt lat="44.99888772028748" lon="9.329423854813532"><ele>288.0</ele><time>2026-05-03T09:26:26.998Z</time></trkpt><trkpt lat="44.99893742455552" lon="9.329589874987178"><ele>288.0</ele><time>2026-05-03T09:26:27.998Z</time></trkpt><trkpt lat="44.99898585289174" lon="9.329752351190738"><ele>287.25</ele><time>2026-05-03T09:26:28.998Z</time></trkpt><trkpt lat="44.9990277064433" lon="9.3299118103117"><ele>286.5</ele><time>2026-05-03T09:26:29.998Z</time></trkpt><trkpt lat="44.99905775837483" lon="9.330073463627087"><ele>285.75</ele><time>2026-05-03T09:26:30.998Z</time></trkpt><trkpt lat="44.99908144194841" lon="9.330238749993672"><ele>285.0</ele><time>2026-05-03T09:26:31.998Z</time></trkpt><trkpt lat="44.99908581697911" lon="9.330400254135625"><ele>284.2</ele><time>2026-05-03T09:26:32.998Z</time></trkpt><trkpt lat="44.9990819993452" lon="9.330559490188458"><ele>283.4</ele><time>2026-05-03T09:26:33.998Z</time></trkpt><trkpt lat="44.99907898969741" lon="9.330717513124867"><ele>282.6</ele><time>2026-05-03T09:26:34.998Z</time></trkpt><trkpt lat="44.99908601269302" lon="9.33087441282696"><ele>281.8</ele><time>2026-05-03T09:26:35.998Z</time></trkpt><trkpt lat="44.99910363528738" lon="9.331028997870122"><ele>281.0</ele><time>2026-05-03T09:26:36.998Z</time></trkpt><trkpt lat="44.99913493544219" lon="9.331180793895"><ele>279.0</ele><time>2026-05-03T09:26:37.998Z</time></trkpt><trkpt lat="44.99917364242271" lon="9.331337146478653"><ele>277.0</ele><time>2026-05-03T09:26:38.998Z</time></trkpt><trkpt lat="44.99922114674067" lon="9.33149588276903"><ele>275.0</ele><time>2026-05-03T09:26:39.998Z</time></trkpt><trkpt lat="44.999273214012355" lon="9.33165078534048"><ele>273.0</ele><time>2026-05-03T09:26:40.998Z</time></trkpt><trkpt lat="44.999329529892975" lon="9.331802377241587"><ele>272.0</ele><time>2026-05-03T09:26:41.998Z</time></trkpt><trkpt lat="44.99938396436735" lon="9.331952569832364"><ele>271.0</ele><time>2026-05-03T09:26:42.998Z</time></trkpt><trkpt lat="44.99943726179665" lon="9.332105786821282"><ele>270.0</ele><time>2026-05-03T09:26:43.998Z</time></trkpt><trkpt lat="44.99949184502178" lon="9.332263170820072"><ele>269.0</ele><time>2026-05-03T09:26:44.998Z</time></trkpt><trkpt lat="44.999549202582" lon="9.332421278494268"><ele>269.0</ele><time>2026-05-03T09:26:45.998Z</time></trkpt><trkpt lat="44.99960323768018" lon="9.332584099220862"><ele>269.0</ele><time>2026-05-03T09:26:46.998Z</time></trkpt><trkpt lat="44.99965708704318" lon="9.332744949223713"><ele>269.0</ele><time>2026-05-03T09:26:47.998Z</time></trkpt><trkpt lat="44.99971129526023" lon="9.332898173131268"><ele>269.0</ele><time>2026-05-03T09:26:48.998Z</time></trkpt><trkpt lat="44.999763880650306" lon="9.333047056722616"><ele>269.25</ele><time>2026-05-03T09:26:49.998Z</time></trkpt><trkpt lat="44.99981674701017" lon="9.333190357229448"><ele>269.5</ele><time>2026-05-03T09:26:50.998Z</time></trkpt><trkpt lat="44.99986867658912" lon="9.333335707427572"><ele>269.75</ele><time>2026-05-03T09:26:51.998Z</time></trkpt><trkpt lat="44.999920000908155" lon="9.33348166938512"><ele>270.0</ele><time>2026-05-03T09:26:52.998Z</time></trkpt><trkpt lat="44.99997350374664" lon="9.33362903633148"><ele>270.0</ele><time>2026-05-03T09:26:53.998Z</time></trkpt><trkpt lat="45.00003047266454" lon="9.333775677741142"><ele>270.0</ele><time>2026-05-03T09:26:54.998Z</time></trkpt><trkpt lat="45.00008711395343" lon="9.333924789211263"><ele>270.0</ele><time>2026-05-03T09:26:55.998Z</time></trkpt><trkpt lat="45.000145576872384" lon="9.334073549043282"><ele>270.0</ele><time>2026-05-03T09:26:56.998Z</time></trkpt><trkpt lat="45.000187598859114" lon="9.334233634591868"><ele>269.5</ele><time>2026-05-03T09:26:57.998Z</time></trkpt><trkpt lat="45.00024546167965" lon="9.334389886504647"><ele>269.0</ele><time>2026-05-03T09:26:58.998Z</time></trkpt><trkpt lat="45.00030534129921" lon="9.334548051528119"><ele>268.5</ele><time>2026-05-03T09:26:59.998Z</time></trkpt><trkpt lat="45.00036978558872" lon="9.334706069275768"><ele>268.0</ele><time>2026-05-03T09:27:00.998Z</time></trkpt><trkpt lat="45.000428732691724" lon="9.334864536568883"><ele>266.75</ele><time>2026-05-03T09:27:01.998Z</time></trkpt><trkpt lat="45.00049001783614" lon="9.335010884287257"><ele>265.5</ele><time>2026-05-03T09:27:02.998Z</time></trkpt><trkpt lat="45.00055071473271" lon="9.335156058834457"><ele>264.25</ele><time>2026-05-03T09:27:03.998Z</time></trkpt><trkpt lat="45.000608217805606" lon="9.335300645161889"><ele>263.0</ele><time>2026-05-03T09:27:04.998Z</time></trkpt><trkpt lat="45.00066389985364" lon="9.335439737776955"><ele>262.4</ele><time>2026-05-03T09:27:05.997Z</time></trkpt><trkpt lat="45.000713417910966" lon="9.335577853592701"><ele>261.8</ele><time>2026-05-03T09:27:06.997Z</time></trkpt><trkpt lat="45.000756399185" lon="9.33571968787702"><ele>261.2</ele><time>2026-05-03T09:27:07.997Z</time></trkpt><trkpt lat="45.00079204720232" lon="9.33586354961132"><ele>260.6</ele><time>2026-05-03T09:27:08.997Z</time></trkpt><trkpt lat="45.00081629392339" lon="9.33601269643843"><ele>260.0</ele><time>2026-05-03T09:27:09.997Z</time></trkpt><trkpt lat="45.000805286567065" lon="9.336168981977181"><ele>260.0</ele><time>2026-05-03T09:27:10.997Z</time></trkpt><trkpt lat="45.00080692805859" lon="9.33632299469203"><ele>260.0</ele><time>2026-05-03T09:27:11.997Z</time></trkpt><trkpt lat="45.00074576318815" lon="9.336466333019366"><ele>260.0</ele><time>2026-05-03T09:27:12.997Z</time></trkpt><trkpt lat="45.00071669660088" lon="9.336624667333265"><ele>260.0</ele><time>2026-05-03T09:27:13.997Z</time></trkpt><trkpt lat="45.0006693611414" lon="9.336773579320688"><ele>259.6</ele><time>2026-05-03T09:27:14.997Z</time></trkpt><trkpt lat="45.00063026797395" lon="9.336916562446271"><ele>259.2</ele><time>2026-05-03T09:27:15.997Z</time></trkpt><trkpt lat="45.00057233532715" lon="9.337036313471206"><ele>258.8</ele><time>2026-05-03T09:27:16.997Z</time></trkpt><trkpt lat="45.000513700606895" lon="9.337164362069968"><ele>258.4</ele><time>2026-05-03T09:27:17.997Z</time></trkpt><trkpt lat="45.000461522150644" lon="9.337291987507731"><ele>258.0</ele><time>2026-05-03T09:27:18.997Z</time></trkpt><trkpt lat="45.0004190242859" lon="9.3374254455057"><ele>258.0</ele><time>2026-05-03T09:27:19.997Z</time></trkpt><trkpt lat="45.00039768054929" lon="9.337568500518477"><ele>258.0</ele><time>2026-05-03T09:27:20.997Z</time></trkpt><trkpt lat="45.00040663238359" lon="9.33770616184655"><ele>258.0</ele><time>2026-05-03T09:27:21.997Z</time></trkpt><trkpt lat="45.00043927330778" lon="9.33783601049225"><ele>258.0</ele><time>2026-05-03T09:27:22.997Z</time></trkpt><trkpt lat="45.000494553274315" lon="9.337944576491047"><ele>258.0</ele><time>2026-05-03T09:27:23.998Z</time></trkpt><trkpt lat="45.00517013043543" lon="9.344142631915457"><ele>260.5</ele><time>2026-05-03T09:28:24.997Z</time></trkpt><trkpt lat="45.00526686937849" lon="9.3442697013064"><ele>263.0</ele><time>2026-05-03T09:28:25.997Z</time></trkpt><trkpt lat="45.00536158964838" lon="9.344399370978897"><ele>265.5</ele><time>2026-05-03T09:28:26.997Z</time></trkpt><trkpt lat="45.00546043590823" lon="9.344533777486589"><ele>268.0</ele><time>2026-05-03T09:28:27.997Z</time></trkpt><trkpt lat="45.00555952592391" lon="9.344663960829015"><ele>268.25</ele><time>2026-05-03T09:28:28.997Z</time></trkpt><trkpt lat="45.005655377212065" lon="9.34479304908795"><ele>268.5</ele><time>2026-05-03T09:28:29.997Z</time></trkpt><trkpt lat="45.00575149718988" lon="9.344926067372551"><ele>268.75</ele><time>2026-05-03T09:28:30.997Z</time></trkpt><trkpt lat="45.00584774514094" lon="9.345056438328601"><ele>269.0</ele><time>2026-05-03T09:28:31.997Z</time></trkpt><trkpt lat="45.00595531099113" lon="9.345167637418063"><ele>269.0</ele><time>2026-05-03T09:28:32.997Z</time></trkpt><trkpt lat="45.006051772485826" lon="9.345295897671397"><ele>269.0</ele><time>2026-05-03T09:28:33.997Z</time></trkpt><trkpt lat="45.006140732909415" lon="9.345425478339351"><ele>269.0</ele><time>2026-05-03T09:28:34.997Z</time></trkpt><trkpt lat="45.0062360621272" lon="9.345545000319362"><ele>269.0</ele><time>2026-05-03T09:28:35.997Z</time></trkpt><trkpt lat="45.00633323781723" lon="9.34566228001217"><ele>269.25</ele><time>2026-05-03T09:28:36.997Z</time></trkpt><trkpt lat="45.00643039918379" lon="9.345776329508105"><ele>269.5</ele><time>2026-05-03T09:28:37.997Z</time></trkpt><trkpt lat="45.00652697459616" lon="9.345883266378332"><ele>269.75</ele><time>2026-05-03T09:28:38.997Z</time></trkpt><trkpt lat="45.00662718560869" lon="9.345976496813945"><ele>270.0</ele><time>2026-05-03T09:28:39.997Z</time></trkpt><trkpt lat="45.00673172633378" lon="9.346057172975428"><ele>270.0</ele><time>2026-05-03T09:28:40.997Z</time></trkpt><trkpt lat="45.00683717739723" lon="9.346133523367843"><ele>270.0</ele><time>2026-05-03T09:28:41.997Z</time></trkpt><trkpt lat="45.006951275764166" lon="9.346192273292642"><ele>270.0</ele><time>2026-05-03T09:28:42.997Z</time></trkpt><trkpt lat="45.007070982212426" lon="9.346246496244452"><ele>270.0</ele><time>2026-05-03T09:28:43.997Z</time></trkpt><trkpt lat="45.00718919269409" lon="9.346289598654435"><ele>270.0</ele><time>2026-05-03T09:28:44.997Z</time></trkpt><trkpt lat="45.00730719483449" lon="9.34633520539894"><ele>270.0</ele><time>2026-05-03T09:28:45.997Z</time></trkpt><trkpt lat="45.007424400256625" lon="9.346377244452688"><ele>270.0</ele><time>2026-05-03T09:28:46.997Z</time></trkpt><trkpt lat="45.007534732347715" lon="9.346429669089634"><ele>270.0</ele><time>2026-05-03T09:28:47.997Z</time></trkpt><trkpt lat="45.00764470540847" lon="9.346480394613486"><ele>268.2</ele><time>2026-05-03T09:28:48.997Z</time></trkpt><trkpt lat="45.00774802470833" lon="9.34653177391987"><ele>266.4</ele><time>2026-05-03T09:28:49.997Z</time></trkpt><trkpt lat="45.00784582832281" lon="9.346580647555786"><ele>264.6</ele><time>2026-05-03T09:28:50.997Z</time></trkpt><trkpt lat="45.00793946142655" lon="9.346637879093237"><ele>262.8</ele><time>2026-05-03T09:28:51.997Z</time></trkpt><trkpt lat="45.00802838828721" lon="9.346697910823146"><ele>261.0</ele><time>2026-05-03T09:28:52.997Z</time></trkpt><trkpt lat="45.008116347996484" lon="9.346759466287718"><ele>261.0</ele><time>2026-05-03T09:28:53.997Z</time></trkpt><trkpt lat="45.00821007571167" lon="9.34682246858478"><ele>261.0</ele><time>2026-05-03T09:28:54.997Z</time></trkpt><trkpt lat="45.00830139054915" lon="9.346877317579155"><ele>261.0</ele><time>2026-05-03T09:28:55.997Z</time></trkpt><trkpt lat="45.00838429602903" lon="9.346926806034244"><ele>261.0</ele><time>2026-05-03T09:28:56.997Z</time></trkpt><trkpt lat="45.00845555543524" lon="9.34696974679428"><ele>261.0</ele><time>2026-05-03T09:28:57.997Z</time></trkpt><trkpt lat="45.00852275912877" lon="9.347013824434791"><ele>261.0</ele><time>2026-05-03T09:28:58.997Z</time></trkpt><trkpt lat="45.00858904175183" lon="9.347056309274672"><ele>260.8571428571429</ele><time>2026-05-03T09:28:59.997Z</time></trkpt><trkpt lat="45.00865371282917" lon="9.347091898540432"><ele>260.7142857142857</ele><time>2026-05-03T09:29:00.997Z</time></trkpt><trkpt lat="45.00871847108905" lon="9.347125989808182"><ele>260.57142857142856</ele><time>2026-05-03T09:29:01.997Z</time></trkpt><trkpt lat="45.00877941670466" lon="9.347163688830948"><ele>260.42857142857144</ele><time>2026-05-03T09:29:02.997Z</time></trkpt><trkpt lat="45.00884055762245" lon="9.347201108964184"><ele>260.2857142857143</ele><time>2026-05-03T09:29:03.997Z</time></trkpt><trkpt lat="45.0088940775861" lon="9.347257547986791"><ele>260.14285714285717</ele><time>2026-05-03T09:29:04.997Z</time></trkpt><trkpt lat="45.008960373763365" lon="9.347294543610237"><ele>260.0</ele><time>2026-05-03T09:29:05.997Z</time></trkpt><trkpt lat="45.0090215446887" lon="9.347327580017877"><ele>258.83333333333337</ele><time>2026-05-03T09:29:06.997Z</time></trkpt><trkpt lat="45.009136649522574" lon="9.347397850049449"><ele>257.6666666666667</ele><time>2026-05-03T09:29:08.997Z</time></trkpt><trkpt lat="45.00919955731059" lon="9.347443678572246"><ele>256.5</ele><time>2026-05-03T09:29:09.997Z</time></trkpt><trkpt lat="45.009264096849606" lon="9.347486122327641"><ele>255.33333333333331</ele><time>2026-05-03T09:29:10.997Z</time></trkpt><trkpt lat="45.00932666784793" lon="9.34752726688373"><ele>254.16666666666666</ele><time>2026-05-03T09:29:11.997Z</time></trkpt><trkpt lat="45.009386799436676" lon="9.347565283379655"><ele>253.0</ele><time>2026-05-03T09:29:12.997Z</time></trkpt><trkpt lat="45.009444797543246" lon="9.347602032294525"><ele>253.0</ele><time>2026-05-03T09:29:13.997Z</time></trkpt><trkpt lat="45.009551280505214" lon="9.347671834605622"><ele>253.0</ele><time>2026-05-03T09:29:15.997Z</time></trkpt><trkpt lat="45.0096420990342" lon="9.347748437326677"><ele>253.0</ele><time>2026-05-03T09:29:17.997Z</time></trkpt><trkpt lat="45.0097375713541" lon="9.347803954179119"><ele>253.0</ele><time>2026-05-03T09:29:19.997Z</time></trkpt><trkpt lat="45.00981476508724" lon="9.347845969825542"><ele>253.0</ele><time>2026-05-03T09:29:21.997Z</time></trkpt><trkpt lat="45.00987542141806" lon="9.347885803350568"><ele>247.0</ele><time>2026-05-03T09:29:23.997Z</time></trkpt><trkpt lat="45.01047484685869" lon="9.34827661796236"><ele>247.0</ele><time>2026-05-03T09:30:24.998Z</time></trkpt><trkpt lat="45.010535822495775" lon="9.34831457470627"><ele>247.0</ele><time>2026-05-03T09:31:04.998Z</time></trkpt><trkpt lat="45.01080765908035" lon="9.348457588686939"><ele>247.0</ele><time>2026-05-03T09:36:24.999Z</time></trkpt><trkpt lat="45.01087259651454" lon="9.348505709684751"><ele>247.0</ele><time>2026-05-03T09:36:31.999Z</time></trkpt><trkpt lat="45.01093598166315" lon="9.348543532403841"><ele>247.33333333333331</ele><time>2026-05-03T09:36:37.999Z</time></trkpt><trkpt lat="45.01100007337206" lon="9.348570512476236"><ele>247.66666666666666</ele><time>2026-05-03T09:36:45.999Z</time></trkpt><trkpt lat="45.01106620522733" lon="9.348594403589294"><ele>248.0</ele><time>2026-05-03T09:36:53.998Z</time></trkpt><trkpt lat="45.01112683727693" lon="9.348629746792966"><ele>248.33333333333331</ele><time>2026-05-03T09:37:02.998Z</time></trkpt><trkpt lat="45.01119151174155" lon="9.348641973504709"><ele>248.66666666666666</ele><time>2026-05-03T09:37:12.998Z</time></trkpt><trkpt lat="45.01125374060809" lon="9.348682980207778"><ele>249.0</ele><time>2026-05-03T09:37:23.998Z</time></trkpt><trkpt lat="45.01151548016127" lon="9.34883574648764"><ele>249.0</ele><time>2026-05-03T09:45:35.999Z</time></trkpt><trkpt lat="45.01141184747756" lon="9.348758819882168"><ele>249.0</ele><time>2026-05-03T09:52:12.999Z</time></trkpt><trkpt lat="45.010978932853796" lon="9.348694092881251"><ele>249.0</ele><time>2026-05-03T09:56:24.999Z</time></trkpt><trkpt lat="45.01091999539455" lon="9.34864949604201"><ele>249.0</ele><time>2026-05-03T09:56:42.999Z</time></trkpt><trkpt lat="45.010913881620134" lon="9.348550398000372"><ele>249.0</ele><time>2026-05-03T09:56:52.999Z</time></trkpt><trkpt lat="45.010851044414444" lon="9.34855893016322"><ele>249.0</ele><time>2026-05-03T09:57:11.999Z</time></trkpt><trkpt lat="45.01048806554482" lon="9.348358074996964"><ele>249.0</ele><time>2026-05-03T09:58:24.999Z</time></trkpt><trkpt lat="45.0104348037483" lon="9.348296063840307"><ele>248.99999999999997</ele><time>2026-05-03T09:58:52Z</time></trkpt><trkpt lat="45.010382008222635" lon="9.348237503121046"><ele>248.99999999999997</ele><time>2026-05-03T09:59:05.999Z</time></trkpt><trkpt lat="45.010322723463716" lon="9.348203143178893"><ele>249.0</ele><time>2026-05-03T09:59:13.999Z</time></trkpt><trkpt lat="45.01049421383843" lon="9.348314493470495"><ele>249.0</ele><time>2026-05-03T10:03:24.999Z</time></trkpt><trkpt lat="45.01119949537862" lon="9.348730446464309"><ele>249.0</ele><time>2026-05-03T10:06:24.999Z</time></trkpt><trkpt lat="45.01126874002033" lon="9.348781316212063"><ele>248.99999999999997</ele><time>2026-05-03T10:06:26.999Z</time></trkpt><trkpt lat="45.01134157316416" lon="9.348858752837689"><ele>248.99999999999997</ele><time>2026-05-03T10:06:28.999Z</time></trkpt><trkpt lat="45.01142877762341" lon="9.348911463300805"><ele>249.0</ele><time>2026-05-03T10:06:30.999Z</time></trkpt><trkpt lat="45.01150927184304" lon="9.348983545664217"><ele>249.0</ele><time>2026-05-03T10:06:32.999Z</time></trkpt><trkpt lat="45.011611535720554" lon="9.349052268386167"><ele>249.0</ele><time>2026-05-03T10:06:34.999Z</time></trkpt><trkpt lat="45.01172858935756" lon="9.34911773660826"><ele>249.0</ele><time>2026-05-03T10:06:36.999Z</time></trkpt><trkpt lat="45.011793115660566" lon="9.3491550887188"><ele>249.0</ele><time>2026-05-03T10:06:37.999Z</time></trkpt><trkpt lat="45.011866244984404" lon="9.349191199359984"><ele>249.0</ele><time>2026-05-03T10:06:38.999Z</time></trkpt><trkpt lat="45.011942467463484" lon="9.349227823635424"><ele>249.0</ele><time>2026-05-03T10:06:39.999Z</time></trkpt><trkpt lat="45.01201335031966" lon="9.349287556735696"><ele>249.0</ele><time>2026-05-03T10:06:40.999Z</time></trkpt><trkpt lat="45.01209970078969" lon="9.34932064988787"><ele>249.0</ele><time>2026-05-03T10:06:41.999Z</time></trkpt><trkpt lat="45.012186243760766" lon="9.349352046566404"><ele>248.99999999999997</ele><time>2026-05-03T10:06:42.999Z</time></trkpt><trkpt lat="45.012291626248505" lon="9.349383547440043"><ele>248.99999999999997</ele><time>2026-05-03T10:06:43.999Z</time></trkpt><trkpt lat="45.01240359727326" lon="9.349404092734357"><ele>249.0</ele><time>2026-05-03T10:06:44.999Z</time></trkpt><trkpt lat="45.012504739012414" lon="9.349420815902958"><ele>249.0</ele><time>2026-05-03T10:06:45.999Z</time></trkpt><trkpt lat="45.01259811031105" lon="9.349423886379476"><ele>248.6</ele><time>2026-05-03T10:06:46.999Z</time></trkpt><trkpt lat="45.01269201886067" lon="9.34942728673023"><ele>248.2</ele><time>2026-05-03T10:06:47.999Z</time></trkpt><trkpt lat="45.01279081456231" lon="9.349420359116559"><ele>247.79999999999998</ele><time>2026-05-03T10:06:48.999Z</time></trkpt><trkpt lat="45.01288962394808" lon="9.349423979013674"><ele>247.39999999999998</ele><time>2026-05-03T10:06:49.999Z</time></trkpt><trkpt lat="45.0129794765883" lon="9.349433346384412"><ele>247.0</ele><time>2026-05-03T10:06:50.999Z</time></trkpt><trkpt lat="45.01307119820429" lon="9.349427768676525"><ele>246.99999999999997</ele><time>2026-05-03T10:06:51.999Z</time></trkpt><trkpt lat="45.01315366992428" lon="9.349413640087418"><ele>247.0</ele><time>2026-05-03T10:06:52.999Z</time></trkpt><trkpt lat="45.01322181280702" lon="9.349386787070225"><ele>247.0</ele><time>2026-05-03T10:06:53.999Z</time></trkpt><trkpt lat="45.013332158142966" lon="9.349271793297207"><ele>247.0</ele><time>2026-05-03T10:06:55.999Z</time></trkpt><trkpt lat="45.01338184451522" lon="9.349200912816954"><ele>246.99999999999997</ele><time>2026-05-03T10:06:56.999Z</time></trkpt><trkpt lat="45.01343457355514" lon="9.349108119553508"><ele>247.0</ele><time>2026-05-03T10:06:57.999Z</time></trkpt><trkpt lat="45.01348628816127" lon="9.349030283126242"><ele>248.2</ele><time>2026-05-03T10:06:58.999Z</time></trkpt><trkpt lat="45.01355496641274" lon="9.348990374005712"><ele>249.39999999999998</ele><time>2026-05-03T10:06:59.999Z</time></trkpt><trkpt lat="45.01366496995077" lon="9.348921713965975"><ele>250.60000000000002</ele><time>2026-05-03T10:07:01.998Z</time></trkpt><trkpt lat="45.0137481371887" lon="9.34890303365477"><ele>251.8</ele><time>2026-05-03T10:07:02.998Z</time></trkpt><trkpt lat="45.01384755260365" lon="9.348883986973737"><ele>253.0</ele><time>2026-05-03T10:07:03.998Z</time></trkpt><trkpt lat="45.013949921796616" lon="9.348864566860893"><ele>250.0</ele><time>2026-05-03T10:07:04.998Z</time></trkpt><trkpt lat="45.014043361847285" lon="9.348846838899744"><ele>247.0</ele><time>2026-05-03T10:07:05.998Z</time></trkpt><trkpt lat="45.0141372997926" lon="9.348828555333451"><ele>244.0</ele><time>2026-05-03T10:07:06.998Z</time></trkpt><trkpt lat="45.01422208744023" lon="9.348809595286168"><ele>241.0</ele><time>2026-05-03T10:07:07.998Z</time></trkpt><trkpt lat="45.01430950885201" lon="9.348787825305058"><ele>238.0</ele><time>2026-05-03T10:07:08.998Z</time></trkpt><trkpt lat="45.014395495062075" lon="9.348763701912686"><ele>237.99999999999997</ele><time>2026-05-03T10:07:09.998Z</time></trkpt><trkpt lat="45.014473349635956" lon="9.348717527604263"><ele>238.0</ele><time>2026-05-03T10:07:10.998Z</time></trkpt><trkpt lat="45.014549600250405" lon="9.348684819858775"><ele>238.0</ele><time>2026-05-03T10:07:11.998Z</time></trkpt><trkpt lat="45.01463530421063" lon="9.348640297423037"><ele>238.0</ele><time>2026-05-03T10:07:12.998Z</time></trkpt><trkpt lat="45.01470995766922" lon="9.348590704807782"><ele>237.99999999999997</ele><time>2026-05-03T10:07:13.998Z</time></trkpt><trkpt lat="45.01478293199801" lon="9.348524652945985"><ele>238.0</ele><time>2026-05-03T10:07:14.998Z</time></trkpt><trkpt lat="45.01491569322851" lon="9.348479600137836"><ele>239.0</ele><time>2026-05-03T10:07:15.999Z</time></trkpt><trkpt lat="45.01500365640281" lon="9.348385822376839"><ele>240.0</ele><time>2026-05-03T10:07:16.999Z</time></trkpt><trkpt lat="45.01508397207314" lon="9.348297407005374"><ele>241.0</ele><time>2026-05-03T10:07:17.999Z</time></trkpt><trkpt lat="45.015154717076044" lon="9.348206521912397"><ele>242.0</ele><time>2026-05-03T10:07:18.999Z</time></trkpt><trkpt lat="45.01523137405078" lon="9.348116689217514"><ele>243.0</ele><time>2026-05-03T10:07:19.998Z</time></trkpt><trkpt lat="45.015290905582" lon="9.348054006145416"><ele>237.0</ele><time>2026-05-03T10:07:20.998Z</time></trkpt><trkpt lat="45.01535485554725" lon="9.34800357255724"><ele>231.0</ele><time>2026-05-03T10:07:21.999Z</time></trkpt><trkpt lat="45.01542043732521" lon="9.34795590446922"><ele>225.0</ele><time>2026-05-03T10:07:22.997Z</time></trkpt><trkpt lat="45.0154963335326" lon="9.3479616434952"><ele>219.0</ele><time>2026-05-03T10:07:23.995Z</time></trkpt><trkpt lat="45.02002282453986" lon="9.354840442657792"><ele>219.0</ele><time>2026-05-03T10:08:24.975Z</time></trkpt><trkpt lat="45.020094826882364" lon="9.35491435750783"><ele>218.99999999999997</ele><time>2026-05-03T10:08:25.975Z</time></trkpt><trkpt lat="45.02015129843129" lon="9.355018681327525"><ele>218.99999999999997</ele><time>2026-05-03T10:08:26.974Z</time></trkpt><trkpt lat="45.020183862962384" lon="9.355144718013078"><ele>219.0</ele><time>2026-05-03T10:08:27.974Z</time></trkpt><trkpt lat="45.02019559604509" lon="9.355276622639892"><ele>219.0</ele><time>2026-05-03T10:08:28.974Z</time></trkpt><trkpt lat="45.020194478899285" lon="9.35541410317486"><ele>219.39999999999998</ele><time>2026-05-03T10:08:29.974Z</time></trkpt><trkpt lat="45.02018314466261" lon="9.355551513982295"><ele>219.79999999999998</ele><time>2026-05-03T10:08:30.974Z</time></trkpt><trkpt lat="45.02019807236437" lon="9.355690740841101"><ele>220.20000000000002</ele><time>2026-05-03T10:08:31.974Z</time></trkpt><trkpt lat="45.02023743737223" lon="9.355847149729813"><ele>220.60000000000002</ele><time>2026-05-03T10:08:32.974Z</time></trkpt><trkpt lat="45.02029604162357" lon="9.355973947608764"><ele>221.0</ele><time>2026-05-03T10:08:33.974Z</time></trkpt><trkpt lat="45.020363050856716" lon="9.356099585387506"><ele>221.0</ele><time>2026-05-03T10:08:34.974Z</time></trkpt><trkpt lat="45.02044518143731" lon="9.356196355532957"><ele>221.00000000000003</ele><time>2026-05-03T10:08:35.974Z</time></trkpt><trkpt lat="45.020528263032304" lon="9.356292329308468"><ele>221.00000000000003</ele><time>2026-05-03T10:08:36.974Z</time></trkpt><trkpt lat="45.02060932930981" lon="9.35639824734484"><ele>221.0</ele><time>2026-05-03T10:08:37.974Z</time></trkpt><trkpt lat="45.02068932670753" lon="9.356522329151382"><ele>221.0</ele><time>2026-05-03T10:08:38.974Z</time></trkpt><trkpt lat="45.020737280327566" lon="9.3566791153667"><ele>219.75</ele><time>2026-05-03T10:08:39.974Z</time></trkpt><trkpt lat="45.0207840491146" lon="9.35682897950199"><ele>218.5</ele><time>2026-05-03T10:08:40.974Z</time></trkpt><trkpt lat="45.02081206482133" lon="9.356983954996222"><ele>217.25</ele><time>2026-05-03T10:08:41.974Z</time></trkpt><trkpt lat="45.020821717264425" lon="9.357145006519078"><ele>216.0</ele><time>2026-05-03T10:08:42.974Z</time></trkpt><trkpt lat="45.02081905370511" lon="9.35731327572327"><ele>213.0</ele><time>2026-05-03T10:08:43.974Z</time></trkpt><trkpt lat="45.02082163354282" lon="9.357497065827964"><ele>210.0</ele><time>2026-05-03T10:08:44.974Z</time></trkpt><trkpt lat="45.02084436876967" lon="9.357681864297819"><ele>207.0</ele><time>2026-05-03T10:08:45.974Z</time></trkpt><trkpt lat="45.02089136392848" lon="9.357875187034898"><ele>204.0</ele><time>2026-05-03T10:08:46.974Z</time></trkpt><trkpt lat="45.02093397014923" lon="9.358061422363065"><ele>202.5</ele><time>2026-05-03T10:08:47.974Z</time></trkpt><trkpt lat="45.02095573644681" lon="9.358249222610748"><ele>201.0</ele><time>2026-05-03T10:08:48.974Z</time></trkpt><trkpt lat="45.02098714179017" lon="9.358443000757804"><ele>199.5</ele><time>2026-05-03T10:08:49.974Z</time></trkpt><trkpt lat="45.02102418126057" lon="9.358638372009992"><ele>198.0</ele><time>2026-05-03T10:08:50.974Z</time></trkpt><trkpt lat="45.02106198028041" lon="9.358833804492802"><ele>197.0</ele><time>2026-05-03T10:08:51.974Z</time></trkpt><trkpt lat="45.02110042392219" lon="9.359025926697582"><ele>196.0</ele><time>2026-05-03T10:08:52.974Z</time></trkpt><trkpt lat="45.021137967568684" lon="9.359214003878392"><ele>195.0</ele><time>2026-05-03T10:08:53.974Z</time></trkpt><trkpt lat="45.02118132602499" lon="9.359396774697606"><ele>194.0</ele><time>2026-05-03T10:08:54.974Z</time></trkpt><trkpt lat="45.02123390752088" lon="9.359577494931063"><ele>192.0</ele><time>2026-05-03T10:08:55.974Z</time></trkpt><trkpt lat="45.02129604451068" lon="9.359761465464953"><ele>190.0</ele><time>2026-05-03T10:08:56.974Z</time></trkpt><trkpt lat="45.02139526655307" lon="9.359939347397688"><ele>188.0</ele><time>2026-05-03T10:08:57.974Z</time></trkpt><trkpt lat="45.02147906963347" lon="9.360126717538003"><ele>188.0</ele><time>2026-05-03T10:08:58.974Z</time></trkpt><trkpt lat="45.02155729823743" lon="9.360295145479084"><ele>188.0</ele><time>2026-05-03T10:08:59.974Z</time></trkpt><trkpt lat="45.02165057814085" lon="9.360451877537837"><ele>188.0</ele><time>2026-05-03T10:09:00.974Z</time></trkpt><trkpt lat="45.02173632584627" lon="9.360604793684832"><ele>188.0</ele><time>2026-05-03T10:09:01.974Z</time></trkpt><trkpt lat="45.021829940768896" lon="9.360748094276463"><ele>189.25</ele><time>2026-05-03T10:09:02.974Z</time></trkpt><trkpt lat="45.02192040447704" lon="9.360899956743115"><ele>190.5</ele><time>2026-05-03T10:09:03.973Z</time></trkpt><trkpt lat="45.02200482590955" lon="9.361046709062112"><ele>191.75</ele><time>2026-05-03T10:09:04.973Z</time></trkpt><trkpt lat="45.022085419001385" lon="9.361192432341422"><ele>193.0</ele><time>2026-05-03T10:09:05.973Z</time></trkpt><trkpt lat="45.02217312850183" lon="9.361330389326337"><ele>191.0</ele><time>2026-05-03T10:09:06.973Z</time></trkpt><trkpt lat="45.022238044695314" lon="9.361481135744556"><ele>189.0</ele><time>2026-05-03T10:09:07.973Z</time></trkpt><trkpt lat="45.02231085891768" lon="9.361621283065361"><ele>187.0</ele><time>2026-05-03T10:09:08.973Z</time></trkpt><trkpt lat="45.02237939717928" lon="9.361758253008821"><ele>185.0</ele><time>2026-05-03T10:09:09.973Z</time></trkpt><trkpt lat="45.02244847735984" lon="9.361882776961881"><ele>185.25</ele><time>2026-05-03T10:09:10.973Z</time></trkpt><trkpt lat="45.02252272103909" lon="9.36201518087101"><ele>185.5</ele><time>2026-05-03T10:09:11.973Z</time></trkpt><trkpt lat="45.02259265045247" lon="9.362146397694106"><ele>185.75</ele><time>2026-05-03T10:09:12.973Z</time></trkpt><trkpt lat="45.02265886889468" lon="9.362278700933286"><ele>186.0</ele><time>2026-05-03T10:09:13.973Z</time></trkpt><trkpt lat="45.02273089122741" lon="9.362411431172896"><ele>184.5</ele><time>2026-05-03T10:09:14.973Z</time></trkpt><trkpt lat="45.022805704709874" lon="9.362540192054965"><ele>183.0</ele><time>2026-05-03T10:09:15.973Z</time></trkpt><trkpt lat="45.022875856431476" lon="9.362671470823733"><ele>181.5</ele><time>2026-05-03T10:09:16.973Z</time></trkpt><trkpt lat="45.02294722848423" lon="9.362791665753438"><ele>180.0</ele><time>2026-05-03T10:09:17.973Z</time></trkpt><trkpt lat="45.023014826455615" lon="9.362907810632358"><ele>180.0</ele><time>2026-05-03T10:09:18.973Z</time></trkpt><trkpt lat="45.02309390832617" lon="9.362996360975075"><ele>180.0</ele><time>2026-05-03T10:09:19.973Z</time></trkpt><trkpt lat="45.023189676428075" lon="9.363062174297163"><ele>180.0</ele><time>2026-05-03T10:09:20.973Z</time></trkpt><trkpt lat="45.023278908957" lon="9.363099907899882"><ele>180.0</ele><time>2026-05-03T10:09:21.974Z</time></trkpt><trkpt lat="45.023382068491614" lon="9.363147719441644"><ele>180.0</ele><time>2026-05-03T10:09:22.974Z</time></trkpt><trkpt lat="45.023471540926565" lon="9.363199375805928"><ele>140.0</ele><time>2026-05-03T10:09:23.974Z</time></trkpt><trkpt lat="45.02506329649438" lon="9.360803958855177"><ele>140.0</ele><time>2026-05-03T10:10:24.973Z</time></trkpt><trkpt lat="45.02521251508102" lon="9.360900249582649"><ele>140.0</ele><time>2026-05-03T10:10:25.973Z</time></trkpt><trkpt lat="45.02537430600675" lon="9.361020580940126"><ele>140.0</ele><time>2026-05-03T10:10:26.973Z</time></trkpt><trkpt lat="45.02552267695457" lon="9.361136461100658"><ele>140.0</ele><time>2026-05-03T10:10:27.973Z</time></trkpt><trkpt lat="45.02567051031578" lon="9.361242481902053"><ele>140.0</ele><time>2026-05-03T10:10:28.973Z</time></trkpt><trkpt lat="45.025813774775536" lon="9.361335207353237"><ele>140.0</ele><time>2026-05-03T10:10:29.973Z</time></trkpt><trkpt lat="45.02596254024793" lon="9.361440431093145"><ele>138.0</ele><time>2026-05-03T10:10:30.973Z</time></trkpt><trkpt lat="45.02611288272832" lon="9.36155345265091"><ele>136.0</ele><time>2026-05-03T10:10:31.973Z</time></trkpt><trkpt lat="45.02625486811506" lon="9.361675405423284"><ele>134.0</ele><time>2026-05-03T10:10:32.973Z</time></trkpt><trkpt lat="45.02640180513781" lon="9.361770155964134"><ele>134.0</ele><time>2026-05-03T10:10:33.973Z</time></trkpt><trkpt lat="45.026540886039555" lon="9.36187311945277"><ele>134.0</ele><time>2026-05-03T10:10:34.973Z</time></trkpt><trkpt lat="45.02667049104326" lon="9.361967542979185"><ele>134.0</ele><time>2026-05-03T10:10:35.973Z</time></trkpt><trkpt lat="45.026801029195596" lon="9.36205413234186"><ele>134.0</ele><time>2026-05-03T10:10:36.973Z</time></trkpt><trkpt lat="45.02693429338587" lon="9.36213803492697"><ele>133.25</ele><time>2026-05-03T10:10:37.973Z</time></trkpt><trkpt lat="45.02706580813666" lon="9.362222055482322"><ele>132.5</ele><time>2026-05-03T10:10:38.973Z</time></trkpt><trkpt lat="45.0272053840863" lon="9.362299319871063"><ele>131.75</ele><time>2026-05-03T10:10:39.973Z</time></trkpt><trkpt lat="45.02734744950653" lon="9.362379528250743"><ele>131.0</ele><time>2026-05-03T10:10:40.973Z</time></trkpt><trkpt lat="45.02748286735358" lon="9.362459591146289"><ele>129.25</ele><time>2026-05-03T10:10:41.973Z</time></trkpt><trkpt lat="45.02761429081804" lon="9.362539974852428"><ele>127.5</ele><time>2026-05-03T10:10:42.973Z</time></trkpt><trkpt lat="45.02774771162001" lon="9.362621574089363"><ele>125.75</ele><time>2026-05-03T10:10:43.973Z</time></trkpt><trkpt lat="45.02788543469084" lon="9.36269807638996"><ele>124.0</ele><time>2026-05-03T10:10:44.973Z</time></trkpt><trkpt lat="45.02801770410549" lon="9.362774749141773"><ele>124.0</ele><time>2026-05-03T10:10:45.973Z</time></trkpt><trkpt lat="45.02814720340714" lon="9.362848247836197"><ele>124.0</ele><time>2026-05-03T10:10:46.973Z</time></trkpt><trkpt lat="45.028282432111205" lon="9.36292739088001"><ele>124.0</ele><time>2026-05-03T10:10:47.973Z</time></trkpt><trkpt lat="45.028422737985714" lon="9.363000449616615"><ele>124.0</ele><time>2026-05-03T10:10:48.973Z</time></trkpt><trkpt lat="45.028567326372126" lon="9.363080339282018"><ele>124.66666666666667</ele><time>2026-05-03T10:10:49.973Z</time></trkpt><trkpt lat="45.02871136990931" lon="9.363162313528449"><ele>125.33333333333334</ele><time>2026-05-03T10:10:50.973Z</time></trkpt><trkpt lat="45.02885852241915" lon="9.36324540214265"><ele>126.0</ele><time>2026-05-03T10:10:51.973Z</time></trkpt><trkpt lat="45.029004289418175" lon="9.363326636411188"><ele>126.0</ele><time>2026-05-03T10:10:52.973Z</time></trkpt><trkpt lat="45.02913921431052" lon="9.363402784732493"><ele>126.0</ele><time>2026-05-03T10:10:53.973Z</time></trkpt><trkpt lat="45.02926683463927" lon="9.363480414852814"><ele>126.0</ele><time>2026-05-03T10:10:54.973Z</time></trkpt><trkpt lat="45.02938635047608" lon="9.363550921910864"><ele>126.0</ele><time>2026-05-03T10:10:55.973Z</time></trkpt><trkpt lat="45.029503563074634" lon="9.363611467294385"><ele>125.0</ele><time>2026-05-03T10:10:56.973Z</time></trkpt><trkpt lat="45.02962196918151" lon="9.363651202172806"><ele>124.0</ele><time>2026-05-03T10:10:57.973Z</time></trkpt><trkpt lat="45.02973374105241" lon="9.363656515225767"><ele>123.0</ele><time>2026-05-03T10:10:58.973Z</time></trkpt><trkpt lat="45.029844749655744" lon="9.363635512976622"><ele>122.0</ele><time>2026-05-03T10:10:59.973Z</time></trkpt><trkpt lat="45.02995334340858" lon="9.363579679172192"><ele>121.5</ele><time>2026-05-03T10:11:00.973Z</time></trkpt><trkpt lat="45.030065359272065" lon="9.363494313328928"><ele>121.0</ele><time>2026-05-03T10:11:01.973Z</time></trkpt><trkpt lat="45.030173557063264" lon="9.363378758084727"><ele>120.5</ele><time>2026-05-03T10:11:02.973Z</time></trkpt><trkpt lat="45.030291842690175" lon="9.363251340531106"><ele>120.0</ele><time>2026-05-03T10:11:03.973Z</time></trkpt><trkpt lat="45.03042415951566" lon="9.363116976677114"><ele>120.33333333333334</ele><time>2026-05-03T10:11:04.973Z</time></trkpt><trkpt lat="45.030552561662574" lon="9.362986653350061"><ele>120.66666666666667</ele><time>2026-05-03T10:11:05.973Z</time></trkpt><trkpt lat="45.03067521351586" lon="9.362859930295437"><ele>121.0</ele><time>2026-05-03T10:11:06.973Z</time></trkpt><trkpt lat="45.030801526200285" lon="9.36273226479409"><ele>121.0</ele><time>2026-05-03T10:11:07.973Z</time></trkpt><trkpt lat="45.030931968203454" lon="9.362605776444056"><ele>121.0</ele><time>2026-05-03T10:11:08.973Z</time></trkpt><trkpt lat="45.03105737332893" lon="9.362470352305277"><ele>121.0</ele><time>2026-05-03T10:11:09.973Z</time></trkpt><trkpt lat="45.03118252792076" lon="9.362332666365527"><ele>121.0</ele><time>2026-05-03T10:11:10.973Z</time></trkpt><trkpt lat="45.03131370532231" lon="9.36221159684943"><ele>121.0</ele><time>2026-05-03T10:11:11.973Z</time></trkpt><trkpt lat="45.03155069344917" lon="9.361954446222295"><ele>120.75</ele><time>2026-05-03T10:11:13.973Z</time></trkpt><trkpt lat="45.03167287431004" lon="9.36183304676741"><ele>120.5</ele><time>2026-05-03T10:11:14.973Z</time></trkpt><trkpt lat="45.03179416481626" lon="9.361707210259265"><ele>120.25</ele><time>2026-05-03T10:11:15.973Z</time></trkpt><trkpt lat="45.031913370179964" lon="9.361587815350905"><ele>120.0</ele><time>2026-05-03T10:11:16.972Z</time></trkpt><trkpt lat="45.032027478408445" lon="9.361469812473558"><ele>119.75</ele><time>2026-05-03T10:11:17.972Z</time></trkpt><trkpt lat="45.0321371838535" lon="9.361358895213233"><ele>119.5</ele><time>2026-05-03T10:11:18.972Z</time></trkpt><trkpt lat="45.032238780424734" lon="9.361248800534078"><ele>119.25</ele><time>2026-05-03T10:11:19.972Z</time></trkpt><trkpt lat="45.03233413860636" lon="9.361152181549755"><ele>119.0</ele><time>2026-05-03T10:11:20.972Z</time></trkpt><trkpt lat="45.03242879746241" lon="9.361067718613244"><ele>119.0</ele><time>2026-05-03T10:11:21.972Z</time></trkpt><trkpt lat="45.032531394034514" lon="9.361000431005913"><ele>119.0</ele><time>2026-05-03T10:11:22.972Z</time></trkpt><trkpt lat="45.03263107320086" lon="9.360931168152288"><ele>119.0</ele><time>2026-05-03T10:11:23.972Z</time></trkpt><trkpt lat="45.036138273944346" lon="9.356463494881057"><ele>118.25</ele><time>2026-05-03T10:12:24.972Z</time></trkpt><trkpt lat="45.03610609193403" lon="9.356311760220782"><ele>117.5</ele><time>2026-05-03T10:12:25.972Z</time></trkpt><trkpt lat="45.036074900508595" lon="9.356153704721248"><ele>116.75</ele><time>2026-05-03T10:12:26.972Z</time></trkpt><trkpt lat="45.03604673969199" lon="9.355992122241425"><ele>116.0</ele><time>2026-05-03T10:12:27.972Z</time></trkpt><trkpt lat="45.036023085979025" lon="9.355828683831087"><ele>116.0</ele><time>2026-05-03T10:12:28.972Z</time></trkpt><trkpt lat="45.036010545396465" lon="9.355664994317628"><ele>116.0</ele><time>2026-05-03T10:12:29.972Z</time></trkpt><trkpt lat="45.036005216577934" lon="9.355499986550155"><ele>116.0</ele><time>2026-05-03T10:12:30.972Z</time></trkpt><trkpt lat="45.03600233589695" lon="9.355337193087575"><ele>116.0</ele><time>2026-05-03T10:12:31.972Z</time></trkpt><trkpt lat="45.03600515831556" lon="9.35517308217385"><ele>116.25</ele><time>2026-05-03T10:12:32.972Z</time></trkpt><trkpt lat="45.03600793877502" lon="9.355010308391932"><ele>116.5</ele><time>2026-05-03T10:12:33.972Z</time></trkpt><trkpt lat="45.03601608442303" lon="9.354841345241454"><ele>116.75</ele><time>2026-05-03T10:12:34.972Z</time></trkpt><trkpt lat="45.036030610503765" lon="9.354673367995273"><ele>117.0</ele><time>2026-05-03T10:12:35.972Z</time></trkpt><trkpt lat="45.03606678308022" lon="9.35450570804246"><ele>117.0</ele><time>2026-05-03T10:12:36.972Z</time></trkpt><trkpt lat="45.03609955744787" lon="9.354339105111517"><ele>117.0</ele><time>2026-05-03T10:12:37.971Z</time></trkpt><trkpt lat="45.03612157100338" lon="9.354157775862456"><ele>117.0</ele><time>2026-05-03T10:12:38.971Z</time></trkpt><trkpt lat="45.03618377845395" lon="9.35397990663255"><ele>117.0</ele><time>2026-05-03T10:12:39.971Z</time></trkpt><trkpt lat="45.03623413238482" lon="9.35380023549122"><ele>117.0</ele><time>2026-05-03T10:12:40.971Z</time></trkpt><trkpt lat="45.03629160754455" lon="9.353621550044743"><ele>117.0</ele><time>2026-05-03T10:12:41.971Z</time></trkpt><trkpt lat="45.03634714763356" lon="9.353452990374548"><ele>117.0</ele><time>2026-05-03T10:12:42.971Z</time></trkpt><trkpt lat="45.03641313246431" lon="9.353288861820834"><ele>117.0</ele><time>2026-05-03T10:12:43.971Z</time></trkpt><trkpt lat="45.03648289943276" lon="9.35312300387744"><ele>118.0</ele><time>2026-05-03T10:12:44.971Z</time></trkpt><trkpt lat="45.03655738077814" lon="9.35296541580105"><ele>119.0</ele><time>2026-05-03T10:12:45.971Z</time></trkpt><trkpt lat="45.036632762078014" lon="9.352806875513172"><ele>120.0</ele><time>2026-05-03T10:12:46.971Z</time></trkpt><trkpt lat="45.03670780614055" lon="9.352646956826847"><ele>121.0</ele><time>2026-05-03T10:12:47.971Z</time></trkpt><trkpt lat="45.03678360385558" lon="9.352499941657452"><ele>121.0</ele><time>2026-05-03T10:12:48.971Z</time></trkpt><trkpt lat="45.03685954893516" lon="9.352358233681224"><ele>121.0</ele><time>2026-05-03T10:12:49.971Z</time></trkpt><trkpt lat="45.03693219861798" lon="9.352219961802158"><ele>121.0</ele><time>2026-05-03T10:12:50.971Z</time></trkpt><trkpt lat="45.03700370984753" lon="9.352085101466823"><ele>121.0</ele><time>2026-05-03T10:12:51.971Z</time></trkpt><trkpt lat="45.03707639610504" lon="9.351947623511226"><ele>120.5</ele><time>2026-05-03T10:12:52.971Z</time></trkpt><trkpt lat="45.037152081001246" lon="9.351801451512703"><ele>120.0</ele><time>2026-05-03T10:12:53.971Z</time></trkpt><trkpt lat="45.037230885816555" lon="9.35165156434992"><ele>119.5</ele><time>2026-05-03T10:12:54.971Z</time></trkpt><trkpt lat="45.03731004281147" lon="9.35149140056233"><ele>119.0</ele><time>2026-05-03T10:12:55.971Z</time></trkpt><trkpt lat="45.03739282045559" lon="9.351326052799568"><ele>120.0</ele><time>2026-05-03T10:12:56.971Z</time></trkpt><trkpt lat="45.03747959543317" lon="9.351153996361795"><ele>121.0</ele><time>2026-05-03T10:12:57.971Z</time></trkpt><trkpt lat="45.0375628844613" lon="9.350984917997135"><ele>122.0</ele><time>2026-05-03T10:12:58.971Z</time></trkpt><trkpt lat="45.037643733105654" lon="9.350820844312793"><ele>123.0</ele><time>2026-05-03T10:12:59.971Z</time></trkpt><trkpt lat="45.03772311843121" lon="9.350656270589615"><ele>122.75</ele><time>2026-05-03T10:13:00.971Z</time></trkpt><trkpt lat="45.03780032255753" lon="9.350493902144875"><ele>122.5</ele><time>2026-05-03T10:13:01.971Z</time></trkpt><trkpt lat="45.0378769637752" lon="9.350337228266152"><ele>122.25</ele><time>2026-05-03T10:13:02.971Z</time></trkpt><trkpt lat="45.03795124635903" lon="9.350180571458655"><ele>122.0</ele><time>2026-05-03T10:13:03.971Z</time></trkpt><trkpt lat="45.038014267372134" lon="9.35001901486012"><ele>122.0</ele><time>2026-05-03T10:13:04.971Z</time></trkpt><trkpt lat="45.03806539626414" lon="9.349850297574221"><ele>122.0</ele><time>2026-05-03T10:13:05.971Z</time></trkpt><trkpt lat="45.03810768071165" lon="9.349678287562286"><ele>122.0</ele><time>2026-05-03T10:13:06.971Z</time></trkpt><trkpt lat="45.03814304754002" lon="9.349506971750337"><ele>122.0</ele><time>2026-05-03T10:13:07.971Z</time></trkpt><trkpt lat="45.03818098175816" lon="9.349342848183936"><ele>122.75</ele><time>2026-05-03T10:13:08.971Z</time></trkpt><trkpt lat="45.03822266681961" lon="9.349174256180572"><ele>123.5</ele><time>2026-05-03T10:13:09.971Z</time></trkpt><trkpt lat="45.03826325517543" lon="9.349018363336404"><ele>124.25</ele><time>2026-05-03T10:13:10.971Z</time></trkpt><trkpt lat="45.038301941436664" lon="9.348877187123666"><ele>125.0</ele><time>2026-05-03T10:13:11.971Z</time></trkpt><trkpt lat="45.038340777290664" lon="9.348742874891995"><ele>125.6</ele><time>2026-05-03T10:13:12.971Z</time></trkpt><trkpt lat="45.03837613651379" lon="9.348609330968404"><ele>126.2</ele><time>2026-05-03T10:13:13.971Z</time></trkpt><trkpt lat="45.038410471947024" lon="9.34847151217235"><ele>126.80000000000001</ele><time>2026-05-03T10:13:14.971Z</time></trkpt><trkpt lat="45.038443030214665" lon="9.348334185036324"><ele>127.4</ele><time>2026-05-03T10:13:15.971Z</time></trkpt><trkpt lat="45.03847821690137" lon="9.348200784856216"><ele>128.0</ele><time>2026-05-03T10:13:16.971Z</time></trkpt><trkpt lat="45.03851190746388" lon="9.348066715471317"><ele>127.80000000000001</ele><time>2026-05-03T10:13:17.971Z</time></trkpt><trkpt lat="45.03854679474274" lon="9.34792531738737"><ele>127.60000000000001</ele><time>2026-05-03T10:13:18.971Z</time></trkpt><trkpt lat="45.03859995410577" lon="9.347779973348445"><ele>127.39999999999999</ele><time>2026-05-03T10:13:19.971Z</time></trkpt><trkpt lat="45.03863583321098" lon="9.347629130982726"><ele>127.19999999999999</ele><time>2026-05-03T10:13:20.971Z</time></trkpt><trkpt lat="45.03866782139666" lon="9.347492489535433"><ele>127.0</ele><time>2026-05-03T10:13:21.971Z</time></trkpt><trkpt lat="45.038697816335066" lon="9.347376350302884"><ele>127.0</ele><time>2026-05-03T10:13:22.971Z</time></trkpt><trkpt lat="45.038728402389246" lon="9.347272870340042"><ele>127.0</ele><time>2026-05-03T10:13:23.971Z</time></trkpt><trkpt lat="45.038794356233524" lon="9.340133121213862"><ele>136.0</ele><time>2026-05-03T10:14:24.97Z</time></trkpt><trkpt lat="45.03873351086763" lon="9.339971711508474"><ele>145.0</ele><time>2026-05-03T10:14:25.97Z</time></trkpt><trkpt lat="45.038677706522925" lon="9.339821117569558"><ele>154.0</ele><time>2026-05-03T10:14:26.97Z</time></trkpt><trkpt lat="45.03863352573769" lon="9.339686897550129"><ele>163.0</ele><time>2026-05-03T10:14:27.97Z</time></trkpt><trkpt lat="45.038587129234344" lon="9.33956571049047"><ele>163.83333333333334</ele><time>2026-05-03T10:14:28.97Z</time></trkpt><trkpt lat="45.0385544307745" lon="9.339456063497286"><ele>164.66666666666669</ele><time>2026-05-03T10:14:29.97Z</time></trkpt><trkpt lat="45.038517933326084" lon="9.339348137825578"><ele>165.5</ele><time>2026-05-03T10:14:30.97Z</time></trkpt><trkpt lat="45.03850411418051" lon="9.339223126932218"><ele>166.33333333333334</ele><time>2026-05-03T10:14:31.97Z</time></trkpt><trkpt lat="45.03849792308507" lon="9.339085323138926"><ele>167.16666666666666</ele><time>2026-05-03T10:14:32.97Z</time></trkpt><trkpt lat="45.038504784467534" lon="9.338954529100436"><ele>168.0</ele><time>2026-05-03T10:14:33.97Z</time></trkpt><trkpt lat="45.03852655997787" lon="9.338824269037122"><ele>168.8</ele><time>2026-05-03T10:14:34.97Z</time></trkpt><trkpt lat="45.03854084330868" lon="9.338683814165707"><ele>169.60000000000002</ele><time>2026-05-03T10:14:35.97Z</time></trkpt><trkpt lat="45.03856727726169" lon="9.338538005852135"><ele>170.39999999999998</ele><time>2026-05-03T10:14:36.97Z</time></trkpt><trkpt lat="45.03859777047903" lon="9.338377970635687"><ele>171.2</ele><time>2026-05-03T10:14:37.97Z</time></trkpt><trkpt lat="45.03861855941148" lon="9.338230903687984"><ele>172.0</ele><time>2026-05-03T10:14:38.97Z</time></trkpt><trkpt lat="45.03863363707547" lon="9.338094043461467"><ele>172.8</ele><time>2026-05-03T10:14:39.97Z</time></trkpt><trkpt lat="45.03863593695163" lon="9.337961248855493"><ele>173.6</ele><time>2026-05-03T10:14:40.97Z</time></trkpt><trkpt lat="45.038646595330405" lon="9.337820366622626"><ele>174.4</ele><time>2026-05-03T10:14:41.97Z</time></trkpt><trkpt lat="45.038650864148885" lon="9.337685079110935"><ele>175.20000000000002</ele><time>2026-05-03T10:14:42.97Z</time></trkpt><trkpt lat="45.03865032931927" lon="9.337557052316724"><ele>176.0</ele><time>2026-05-03T10:14:43.97Z</time></trkpt><trkpt lat="45.03864373777049" lon="9.337443730007752"><ele>176.0</ele><time>2026-05-03T10:14:44.97Z</time></trkpt><trkpt lat="45.03864161208609" lon="9.337351049462358"><ele>176.0</ele><time>2026-05-03T10:14:45.97Z</time></trkpt><trkpt lat="45.03863565095831" lon="9.337193686840928"><ele>176.0</ele><time>2026-05-03T10:14:47.97Z</time></trkpt><trkpt lat="45.03863022496884" lon="9.33703636872897"><ele>176.0</ele><time>2026-05-03T10:14:49.97Z</time></trkpt><trkpt lat="45.03865332832889" lon="9.33695111412611"><ele>176.0</ele><time>2026-05-03T10:14:50.97Z</time></trkpt><trkpt lat="45.038580021732834" lon="9.336801786294188"><ele>176.0</ele><time>2026-05-03T10:14:51.97Z</time></trkpt><trkpt lat="45.03851897074609" lon="9.336645439524112"><ele>176.0</ele><time>2026-05-03T10:14:52.97Z</time></trkpt><trkpt lat="45.038449921863354" lon="9.336466879903435"><ele>176.0</ele><time>2026-05-03T10:14:53.97Z</time></trkpt><trkpt lat="45.03836722969464" lon="9.336286754237618"><ele>176.0</ele><time>2026-05-03T10:14:54.97Z</time></trkpt><trkpt lat="45.03828954155729" lon="9.336076279812424"><ele>175.0</ele><time>2026-05-03T10:14:55.97Z</time></trkpt><trkpt lat="45.03821522783005" lon="9.33587443979604"><ele>174.0</ele><time>2026-05-03T10:14:56.97Z</time></trkpt><trkpt lat="45.038147440640714" lon="9.335687590826732"><ele>173.0</ele><time>2026-05-03T10:14:57.97Z</time></trkpt><trkpt lat="45.038097292134864" lon="9.335529730590084"><ele>172.0</ele><time>2026-05-03T10:14:58.97Z</time></trkpt><trkpt lat="45.038039873983955" lon="9.335390368937773"><ele>172.0</ele><time>2026-05-03T10:14:59.97Z</time></trkpt><trkpt lat="45.037983064448646" lon="9.33524771246334"><ele>172.0</ele><time>2026-05-03T10:15:00.97Z</time></trkpt><trkpt lat="45.03792463362753" lon="9.335108600569514"><ele>172.0</ele><time>2026-05-03T10:15:01.97Z</time></trkpt><trkpt lat="45.03785272839664" lon="9.334968193282185"><ele>172.0</ele><time>2026-05-03T10:15:02.97Z</time></trkpt><trkpt lat="45.03779822064123" lon="9.33481501186147"><ele>173.0</ele><time>2026-05-03T10:15:03.97Z</time></trkpt><trkpt lat="45.03775527658965" lon="9.33465072051655"><ele>174.0</ele><time>2026-05-03T10:15:04.97Z</time></trkpt><trkpt lat="45.03772982990219" lon="9.334475149197585"><ele>175.0</ele><time>2026-05-03T10:15:05.97Z</time></trkpt><trkpt lat="45.03771377654329" lon="9.334297221808713"><ele>176.0</ele><time>2026-05-03T10:15:06.97Z</time></trkpt><trkpt lat="45.03770619933719" lon="9.33411819904428"><ele>176.0</ele><time>2026-05-03T10:15:07.97Z</time></trkpt><trkpt lat="45.03772262871533" lon="9.333940106836229"><ele>176.0</ele><time>2026-05-03T10:15:08.97Z</time></trkpt><trkpt lat="45.03771299745601" lon="9.333757139683579"><ele>176.0</ele><time>2026-05-03T10:15:09.97Z</time></trkpt><trkpt lat="45.03773104335244" lon="9.33361317422325"><ele>176.0</ele><time>2026-05-03T10:15:10.97Z</time></trkpt><trkpt lat="45.0377349687914" lon="9.333482395071288"><ele>177.0</ele><time>2026-05-03T10:15:11.97Z</time></trkpt><trkpt lat="45.03773834013471" lon="9.333370075976749"><ele>178.0</ele><time>2026-05-03T10:15:12.97Z</time></trkpt><trkpt lat="45.037743026027336" lon="9.333251864106916"><ele>179.0</ele><time>2026-05-03T10:15:13.97Z</time></trkpt><trkpt lat="45.0377474477746" lon="9.333140275508782"><ele>180.0</ele><time>2026-05-03T10:15:14.97Z</time></trkpt><trkpt lat="45.037751773974115" lon="9.333031919399957"><ele>181.0</ele><time>2026-05-03T10:15:15.97Z</time></trkpt><trkpt lat="45.037770756509815" lon="9.332811330271516"><ele>183.33333333333334</ele><time>2026-05-03T10:15:16.97Z</time></trkpt><trkpt lat="45.03767846203168" lon="9.33256757155786"><ele>185.66666666666666</ele><time>2026-05-03T10:15:17.97Z</time></trkpt><trkpt lat="45.03754282994183" lon="9.332455308038423"><ele>188.0</ele><time>2026-05-03T10:15:18.969Z</time></trkpt><trkpt lat="45.03741732688685" lon="9.33240235659421"><ele>188.0</ele><time>2026-05-03T10:15:19.969Z</time></trkpt><trkpt lat="45.03734062235449" lon="9.332368990342966"><ele>188.0</ele><time>2026-05-03T10:15:20.969Z</time></trkpt><trkpt lat="45.03725593752752" lon="9.33232493719652"><ele>188.0</ele><time>2026-05-03T10:15:21.969Z</time></trkpt><trkpt lat="45.03714918892728" lon="9.332257390849922"><ele>188.0</ele><time>2026-05-03T10:15:22.969Z</time></trkpt><trkpt lat="45.03702061019551" lon="9.332170835283657"><ele>188.0</ele><time>2026-05-03T10:15:23.969Z</time></trkpt><trkpt lat="45.034094802700025" lon="9.323497625259892"><ele>198.0</ele><time>2026-05-03T10:16:24.97Z</time></trkpt><trkpt lat="45.03412999008511" lon="9.323274366168798"><ele>208.0</ele><time>2026-05-03T10:16:25.97Z</time></trkpt><trkpt lat="45.034161744777215" lon="9.323060929931946"><ele>218.0</ele><time>2026-05-03T10:16:26.97Z</time></trkpt><trkpt lat="45.03419162743277" lon="9.322841953655116"><ele>219.75</ele><time>2026-05-03T10:16:27.97Z</time></trkpt><trkpt lat="45.0342247846523" lon="9.322622510054654"><ele>221.5</ele><time>2026-05-03T10:16:28.97Z</time></trkpt><trkpt lat="45.03425780153547" lon="9.322413800608953"><ele>223.25</ele><time>2026-05-03T10:16:29.97Z</time></trkpt><trkpt lat="45.03427540526579" lon="9.322222545558168"><ele>225.0</ele><time>2026-05-03T10:16:30.97Z</time></trkpt><trkpt lat="45.03429734772914" lon="9.322036371380305"><ele>226.0</ele><time>2026-05-03T10:16:31.97Z</time></trkpt><trkpt lat="45.03431623170165" lon="9.32184427857028"><ele>227.0</ele><time>2026-05-03T10:16:32.97Z</time></trkpt><trkpt lat="45.03432547720366" lon="9.321647102950413"><ele>228.0</ele><time>2026-05-03T10:16:33.969Z</time></trkpt><trkpt lat="45.034313692586394" lon="9.321443098185801"><ele>229.0</ele><time>2026-05-03T10:16:34.969Z</time></trkpt><trkpt lat="45.03428676773498" lon="9.321231223996735"><ele>230.0</ele><time>2026-05-03T10:16:35.969Z</time></trkpt><trkpt lat="45.03425034807466" lon="9.321023788585787"><ele>231.0</ele><time>2026-05-03T10:16:36.969Z</time></trkpt><trkpt lat="45.03421913093095" lon="9.320821504700548"><ele>232.0</ele><time>2026-05-03T10:16:37.969Z</time></trkpt><trkpt lat="45.03418844558517" lon="9.320628113106954"><ele>233.0</ele><time>2026-05-03T10:16:38.969Z</time></trkpt><trkpt lat="45.034149137297106" lon="9.320439491571072"><ele>234.5</ele><time>2026-05-03T10:16:39.969Z</time></trkpt><trkpt lat="45.034103653531304" lon="9.320249763672818"><ele>236.0</ele><time>2026-05-03T10:16:40.969Z</time></trkpt><trkpt lat="45.03406152783929" lon="9.320064733741965"><ele>237.5</ele><time>2026-05-03T10:16:41.969Z</time></trkpt><trkpt lat="45.03402878573515" lon="9.319883782445306"><ele>239.0</ele><time>2026-05-03T10:16:42.969Z</time></trkpt><trkpt lat="45.0340034705076" lon="9.319692971106841"><ele>242.0</ele><time>2026-05-03T10:16:43.969Z</time></trkpt><trkpt lat="45.03398287770647" lon="9.319500919724595"><ele>245.0</ele><time>2026-05-03T10:16:44.969Z</time></trkpt><trkpt lat="45.03396851298105" lon="9.319328682934922"><ele>248.0</ele><time>2026-05-03T10:16:45.969Z</time></trkpt><trkpt lat="45.03395551331979" lon="9.319145593279412"><ele>251.0</ele><time>2026-05-03T10:16:46.969Z</time></trkpt><trkpt lat="45.03394390081177" lon="9.318974197581136"><ele>250.75</ele><time>2026-05-03T10:16:47.969Z</time></trkpt><trkpt lat="45.03393999960696" lon="9.318800255083856"><ele>250.5</ele><time>2026-05-03T10:16:48.969Z</time></trkpt><trkpt lat="45.03395303846123" lon="9.318610231506213"><ele>250.25</ele><time>2026-05-03T10:16:49.969Z</time></trkpt><trkpt lat="45.03398972263768" lon="9.318402643892304"><ele>250.0</ele><time>2026-05-03T10:16:50.969Z</time></trkpt><trkpt lat="45.03405084112363" lon="9.318206143851418"><ele>248.5</ele><time>2026-05-03T10:16:51.969Z</time></trkpt><trkpt lat="45.03412071529019" lon="9.318023731173522"><ele>247.0</ele><time>2026-05-03T10:16:52.969Z</time></trkpt><trkpt lat="45.034170080818036" lon="9.317855586214332"><ele>245.5</ele><time>2026-05-03T10:16:53.969Z</time></trkpt><trkpt lat="45.034195884353224" lon="9.317716561304735"><ele>244.0</ele><time>2026-05-03T10:16:54.969Z</time></trkpt><trkpt lat="45.034221486539366" lon="9.317590728757562"><ele>243.39999999999998</ele><time>2026-05-03T10:16:55.969Z</time></trkpt><trkpt lat="45.034229197642475" lon="9.317466656683779"><ele>242.79999999999998</ele><time>2026-05-03T10:16:56.969Z</time></trkpt><trkpt lat="45.03420918542265" lon="9.317356162598188"><ele>242.20000000000002</ele><time>2026-05-03T10:16:57.969Z</time></trkpt><trkpt lat="45.0341803058242" lon="9.317206833415586"><ele>241.60000000000002</ele><time>2026-05-03T10:16:58.969Z</time></trkpt><trkpt lat="45.03414613222295" lon="9.317046673322665"><ele>241.0</ele><time>2026-05-03T10:16:59.969Z</time></trkpt><trkpt lat="45.03412562558052" lon="9.316893963518579"><ele>242.5</ele><time>2026-05-03T10:17:00.969Z</time></trkpt><trkpt lat="45.034109990844286" lon="9.316739662558515"><ele>244.0</ele><time>2026-05-03T10:17:01.969Z</time></trkpt><trkpt lat="45.03412413909311" lon="9.316548544598717"><ele>245.5</ele><time>2026-05-03T10:17:02.969Z</time></trkpt><trkpt lat="45.034183044252934" lon="9.31636668053351"><ele>247.0</ele><time>2026-05-03T10:17:03.969Z</time></trkpt><trkpt lat="45.0342654744228" lon="9.316246623963341"><ele>247.6</ele><time>2026-05-03T10:17:04.969Z</time></trkpt><trkpt lat="45.0343518484481" lon="9.316150413285119"><ele>248.2</ele><time>2026-05-03T10:17:05.969Z</time></trkpt><trkpt lat="45.03443669869166" lon="9.31607188706615"><ele>248.8</ele><time>2026-05-03T10:17:06.969Z</time></trkpt><trkpt lat="45.03451519089333" lon="9.316005426164264"><ele>249.4</ele><time>2026-05-03T10:17:07.969Z</time></trkpt><trkpt lat="45.034584513616686" lon="9.315941561447469"><ele>250.0</ele><time>2026-05-03T10:17:08.969Z</time></trkpt><trkpt lat="45.03465771550997" lon="9.315870459656196"><ele>250.0</ele><time>2026-05-03T10:17:09.969Z</time></trkpt><trkpt lat="45.0347322637554" lon="9.315795201074733"><ele>250.0</ele><time>2026-05-03T10:17:10.969Z</time></trkpt><trkpt lat="45.03481799317522" lon="9.315715189796546"><ele>250.0</ele><time>2026-05-03T10:17:11.969Z</time></trkpt><trkpt lat="45.03490104240694" lon="9.315623218492942"><ele>250.0</ele><time>2026-05-03T10:17:12.969Z</time></trkpt><trkpt lat="45.03497905560648" lon="9.315515311495512"><ele>250.0</ele><time>2026-05-03T10:17:13.969Z</time></trkpt><trkpt lat="45.035047617256524" lon="9.315396408943132"><ele>248.4</ele><time>2026-05-03T10:17:14.969Z</time></trkpt><trkpt lat="45.03510113535641" lon="9.315258864446717"><ele>246.8</ele><time>2026-05-03T10:17:15.969Z</time></trkpt><trkpt lat="45.035150033862415" lon="9.315136798783701"><ele>245.2</ele><time>2026-05-03T10:17:16.969Z</time></trkpt><trkpt lat="45.03520575999629" lon="9.31501856033513"><ele>243.6</ele><time>2026-05-03T10:17:17.969Z</time></trkpt><trkpt lat="45.03523936524034" lon="9.314889579740091"><ele>242.0</ele><time>2026-05-03T10:17:18.969Z</time></trkpt><trkpt lat="45.03526309769246" lon="9.3147791889988"><ele>241.39999999999998</ele><time>2026-05-03T10:17:19.969Z</time></trkpt><trkpt lat="45.035257780333104" lon="9.31464497853339"><ele>240.79999999999998</ele><time>2026-05-03T10:17:20.969Z</time></trkpt><trkpt lat="45.03522804246874" lon="9.314494607887383"><ele>240.2</ele><time>2026-05-03T10:17:21.969Z</time></trkpt><trkpt lat="45.03519077003993" lon="9.314352665760325"><ele>239.6</ele><time>2026-05-03T10:17:22.969Z</time></trkpt><trkpt lat="45.035143950132486" lon="9.314195742547765"><ele>239.0</ele><time>2026-05-03T10:17:23.969Z</time></trkpt><trkpt lat="45.03676868502588" lon="9.310957305456073"><ele>227.75</ele><time>2026-05-03T10:18:24.968Z</time></trkpt><trkpt lat="45.036810213695716" lon="9.310822031808224"><ele>216.5</ele><time>2026-05-03T10:18:25.968Z</time></trkpt><trkpt lat="45.03684481491865" lon="9.310660155826866"><ele>205.25</ele><time>2026-05-03T10:18:26.968Z</time></trkpt><trkpt lat="45.03687148504442" lon="9.310487916750052"><ele>194.0</ele><time>2026-05-03T10:18:27.968Z</time></trkpt><trkpt lat="45.036899733726955" lon="9.310294066859583"><ele>191.75</ele><time>2026-05-03T10:18:28.968Z</time></trkpt><trkpt lat="45.03693807887672" lon="9.310098648780137"><ele>189.5</ele><time>2026-05-03T10:18:29.968Z</time></trkpt><trkpt lat="45.036969627229354" lon="9.309903018059538"><ele>187.25</ele><time>2026-05-03T10:18:30.968Z</time></trkpt><trkpt lat="45.03700813957181" lon="9.309712606480689"><ele>185.0</ele><time>2026-05-03T10:18:31.968Z</time></trkpt><trkpt lat="45.03704160519078" lon="9.309522733710004"><ele>183.25</ele><time>2026-05-03T10:18:32.968Z</time></trkpt><trkpt lat="45.037084552844775" lon="9.309309605336244"><ele>181.5</ele><time>2026-05-03T10:18:33.968Z</time></trkpt><trkpt lat="45.03713027114708" lon="9.309104822582588"><ele>179.75</ele><time>2026-05-03T10:18:34.968Z</time></trkpt><trkpt lat="45.037161193733176" lon="9.308916814905604"><ele>178.0</ele><time>2026-05-03T10:18:35.968Z</time></trkpt><trkpt lat="45.03719195053546" lon="9.308742343754858"><ele>177.4</ele><time>2026-05-03T10:18:36.968Z</time></trkpt><trkpt lat="45.03721875105317" lon="9.30857990818451"><ele>176.8</ele><time>2026-05-03T10:18:37.968Z</time></trkpt><trkpt lat="45.037247702533726" lon="9.30842465263427"><ele>176.2</ele><time>2026-05-03T10:18:38.968Z</time></trkpt><trkpt lat="45.03728214366978" lon="9.308275764748798"><ele>175.6</ele><time>2026-05-03T10:18:39.968Z</time></trkpt><trkpt lat="45.03731415310551" lon="9.308141336407958"><ele>175.0</ele><time>2026-05-03T10:18:40.968Z</time></trkpt><trkpt lat="45.0373532622875" lon="9.308025945702019"><ele>175.66666666666669</ele><time>2026-05-03T10:18:41.968Z</time></trkpt><trkpt lat="45.037395230949066" lon="9.30792636739333"><ele>176.33333333333334</ele><time>2026-05-03T10:18:42.968Z</time></trkpt><trkpt lat="45.03743118062075" lon="9.307833166418384"><ele>177.0</ele><time>2026-05-03T10:18:43.968Z</time></trkpt><trkpt lat="45.03746858416275" lon="9.307742937245306"><ele>177.66666666666666</ele><time>2026-05-03T10:18:44.968Z</time></trkpt><trkpt lat="45.03748861927167" lon="9.307651228324776"><ele>178.33333333333331</ele><time>2026-05-03T10:18:45.968Z</time></trkpt><trkpt lat="45.037543733006395" lon="9.307507458733252"><ele>179.0</ele><time>2026-05-03T10:18:47.968Z</time></trkpt><trkpt lat="45.03754604370512" lon="9.30735482120407"><ele>176.75</ele><time>2026-05-03T10:18:49.968Z</time></trkpt><trkpt lat="45.03744651320283" lon="9.307238884267267"><ele>174.5</ele><time>2026-05-03T10:18:51.968Z</time></trkpt><trkpt lat="45.03733659367548" lon="9.307238940342783"><ele>172.25</ele><time>2026-05-03T10:18:52.968Z</time></trkpt><trkpt lat="45.037228941391845" lon="9.307242858533476"><ele>170.0</ele><time>2026-05-03T10:18:53.968Z</time></trkpt><trkpt lat="45.03711540471245" lon="9.307247230537877"><ele>170.0</ele><time>2026-05-03T10:18:54.968Z</time></trkpt><trkpt lat="45.03701006340215" lon="9.30725390257285"><ele>170.0</ele><time>2026-05-03T10:18:55.968Z</time></trkpt><trkpt lat="45.036888605069095" lon="9.307266577036795"><ele>170.0</ele><time>2026-05-03T10:18:56.968Z</time></trkpt><trkpt lat="45.036744610293184" lon="9.30731012930592"><ele>170.0</ele><time>2026-05-03T10:18:57.968Z</time></trkpt><trkpt lat="45.03660580143895" lon="9.307333266518263"><ele>169.4</ele><time>2026-05-03T10:18:58.968Z</time></trkpt><trkpt lat="45.03648501696955" lon="9.307353246247075"><ele>168.8</ele><time>2026-05-03T10:18:59.968Z</time></trkpt><trkpt lat="45.03637527761033" lon="9.30738849671038"><ele>168.2</ele><time>2026-05-03T10:19:00.968Z</time></trkpt><trkpt lat="45.036278379462146" lon="9.307415084452481"><ele>167.6</ele><time>2026-05-03T10:19:01.968Z</time></trkpt><trkpt lat="45.03618866492986" lon="9.307437781084221"><ele>167.0</ele><time>2026-05-03T10:19:02.968Z</time></trkpt><trkpt lat="45.03610252152055" lon="9.30744866470336"><ele>167.0</ele><time>2026-05-03T10:19:03.968Z</time></trkpt><trkpt lat="45.036026130282444" lon="9.307434028836402"><ele>167.0</ele><time>2026-05-03T10:19:04.968Z</time></trkpt><trkpt lat="45.03596159538029" lon="9.307401207599975"><ele>167.0</ele><time>2026-05-03T10:19:05.968Z</time></trkpt><trkpt lat="45.03589516279169" lon="9.307238725489544"><ele>167.0</ele><time>2026-05-03T10:19:07.968Z</time></trkpt><trkpt lat="45.03591175798067" lon="9.30711008249095"><ele>167.0</ele><time>2026-05-03T10:19:08.968Z</time></trkpt><trkpt lat="45.03591356080352" lon="9.306989764600676"><ele>165.8</ele><time>2026-05-03T10:19:09.968Z</time></trkpt><trkpt lat="45.03592212456443" lon="9.306879916912749"><ele>164.6</ele><time>2026-05-03T10:19:10.968Z</time></trkpt><trkpt lat="45.035934006880446" lon="9.306750381556645"><ele>163.4</ele><time>2026-05-03T10:19:11.968Z</time></trkpt><trkpt lat="45.03593514638005" lon="9.306618820957619"><ele>162.20000000000002</ele><time>2026-05-03T10:19:12.968Z</time></trkpt><trkpt lat="45.0359089851096" lon="9.306482755061595"><ele>161.0</ele><time>2026-05-03T10:19:13.968Z</time></trkpt><trkpt lat="45.03586741761469" lon="9.306351117636526"><ele>159.4</ele><time>2026-05-03T10:19:14.968Z</time></trkpt><trkpt lat="45.03580934700958" lon="9.306203141570522"><ele>157.8</ele><time>2026-05-03T10:19:15.968Z</time></trkpt><trkpt lat="45.03574606206888" lon="9.306065887055967"><ele>156.20000000000002</ele><time>2026-05-03T10:19:16.968Z</time></trkpt><trkpt lat="45.03568964519617" lon="9.305943823253905"><ele>154.60000000000002</ele><time>2026-05-03T10:19:17.968Z</time></trkpt><trkpt lat="45.03564122667828" lon="9.305834491677928"><ele>153.0</ele><time>2026-05-03T10:19:18.968Z</time></trkpt><trkpt lat="45.035612381944254" lon="9.305739293125498"><ele>152.8</ele><time>2026-05-03T10:19:19.968Z</time></trkpt><trkpt lat="45.035593516311735" lon="9.30565230904516"><ele>152.60000000000002</ele><time>2026-05-03T10:19:20.967Z</time></trkpt><trkpt lat="45.03562175060143" lon="9.305563263173633"><ele>152.39999999999998</ele><time>2026-05-03T10:19:21.967Z</time></trkpt><trkpt lat="45.03567927043844" lon="9.305474156657507"><ele>152.2</ele><time>2026-05-03T10:19:22.967Z</time></trkpt><trkpt lat="45.03574829736624" lon="9.305399197560343"><ele>152.0</ele><time>2026-05-03T10:19:23.967Z</time></trkpt><trkpt lat="45.03636726744386" lon="9.302359865608048"><ele>147.83333333333331</ele><time>2026-05-03T10:20:24.968Z</time></trkpt><trkpt lat="45.03634776877712" lon="9.302263984665538"><ele>143.66666666666666</ele><time>2026-05-03T10:20:26.968Z</time></trkpt><trkpt lat="45.036293819814624" lon="9.30214946554752"><ele>139.5</ele><time>2026-05-03T10:20:29.968Z</time></trkpt><trkpt lat="45.03624098917066" lon="9.302081049227308"><ele>135.33333333333334</ele><time>2026-05-03T10:20:31.968Z</time></trkpt><trkpt lat="45.03617600459386" lon="9.302032072257559"><ele>131.16666666666669</ele><time>2026-05-03T10:20:33.968Z</time></trkpt><trkpt lat="45.03610963240216" lon="9.302002951034535"><ele>127.0</ele><time>2026-05-03T10:20:35.968Z</time></trkpt><trkpt lat="45.03602374035885" lon="9.301977974507373"><ele>125.50000000000001</ele><time>2026-05-03T10:20:38.968Z</time></trkpt><trkpt lat="45.03592689998645" lon="9.30195766030508"><ele>124.0</ele><time>2026-05-03T10:20:41.968Z</time></trkpt><trkpt lat="45.03586031233184" lon="9.301950118012725"><ele>122.5</ele><time>2026-05-03T10:20:43.968Z</time></trkpt><trkpt lat="45.035781072358965" lon="9.301941046992718"><ele>121.0</ele><time>2026-05-03T10:20:45.968Z</time></trkpt><trkpt lat="45.0356870869111" lon="9.3019267853095"><ele>119.50000000000001</ele><time>2026-05-03T10:20:47.968Z</time></trkpt><trkpt lat="45.03559123413711" lon="9.301884612801071"><ele>118.0</ele><time>2026-05-03T10:20:49.968Z</time></trkpt><trkpt lat="45.03550789178611" lon="9.301790491336748"><ele>117.66666666666667</ele><time>2026-05-03T10:20:51.968Z</time></trkpt><trkpt lat="45.03549047784297" lon="9.30166679973018"><ele>117.33333333333334</ele><time>2026-05-03T10:20:53.968Z</time></trkpt><trkpt lat="45.03548636465408" lon="9.301563970716474"><ele>117.0</ele><time>2026-05-03T10:20:55.968Z</time></trkpt><trkpt lat="45.035476832592074" lon="9.301470241706518"><ele>116.66666666666666</ele><time>2026-05-03T10:20:57.968Z</time></trkpt><trkpt lat="45.035466823923194" lon="9.301369269663835"><ele>116.33333333333333</ele><time>2026-05-03T10:21:00.968Z</time></trkpt><trkpt lat="45.03544492677076" lon="9.301270544169842"><ele>116.0</ele><time>2026-05-03T10:21:16.967Z</time></trkpt><trkpt lat="45.035441902751316" lon="9.301134959641207"><ele>117.5</ele><time>2026-05-03T10:21:21.967Z</time></trkpt><trkpt lat="45.03542671613885" lon="9.30098991275469"><ele>119.0</ele><time>2026-05-03T10:21:23.967Z</time></trkpt><trkpt lat="45.034582069372746" lon="9.299493927753653"><ele>119.0</ele><time>2026-05-03T10:22:27.967Z</time></trkpt><trkpt lat="45.034476043041636" lon="9.299382288267728"><ele>119.0</ele><time>2026-05-03T10:22:29.967Z</time></trkpt><trkpt lat="45.03446230198991" lon="9.299292531385152"><ele>119.0</ele><time>2026-05-03T10:22:30.967Z</time></trkpt><trkpt lat="45.034440131028596" lon="9.29917641191005"><ele>119.0</ele><time>2026-05-03T10:22:31.967Z</time></trkpt><trkpt lat="45.03441716907978" lon="9.299056152369484"><ele>119.0</ele><time>2026-05-03T10:22:32.967Z</time></trkpt><trkpt lat="45.034392641796416" lon="9.298933193599717"><ele>119.66666666666666</ele><time>2026-05-03T10:22:33.967Z</time></trkpt><trkpt lat="45.03436631206142" lon="9.298803737994117"><ele>120.33333333333333</ele><time>2026-05-03T10:22:34.967Z</time></trkpt><trkpt lat="45.03434146173696" lon="9.298684242366278"><ele>121.0</ele><time>2026-05-03T10:22:35.967Z</time></trkpt><trkpt lat="45.03431498511994" lon="9.29857228644865"><ele>121.66666666666666</ele><time>2026-05-03T10:22:36.967Z</time></trkpt><trkpt lat="45.03427376923455" lon="9.298461881836175"><ele>122.33333333333333</ele><time>2026-05-03T10:22:37.967Z</time></trkpt><trkpt lat="45.034217465357" lon="9.298375013174068"><ele>123.0</ele><time>2026-05-03T10:22:38.967Z</time></trkpt><trkpt lat="45.03410541519023" lon="9.298288750511427"><ele>123.0</ele><time>2026-05-03T10:22:39.967Z</time></trkpt><trkpt lat="45.03402073288109" lon="9.298248768132067"><ele>123.00000000000001</ele><time>2026-05-03T10:22:40.967Z</time></trkpt><trkpt lat="45.03393671322276" lon="9.298215821589707"><ele>123.00000000000001</ele><time>2026-05-03T10:22:41.967Z</time></trkpt><trkpt lat="45.03386568719183" lon="9.298187969910128"><ele>123.0</ele><time>2026-05-03T10:22:42.967Z</time></trkpt><trkpt lat="45.03373908401531" lon="9.298135454890348"><ele>123.0</ele><time>2026-05-03T10:22:44.967Z</time></trkpt><trkpt lat="45.03366078184692" lon="9.298098660509718"><ele>123.4</ele><time>2026-05-03T10:22:45.967Z</time></trkpt><trkpt lat="45.033585359571305" lon="9.298060402814734"><ele>123.80000000000001</ele><time>2026-05-03T10:22:46.967Z</time></trkpt><trkpt lat="45.03350172371341" lon="9.29802812622765"><ele>124.2</ele><time>2026-05-03T10:22:47.967Z</time></trkpt><trkpt lat="45.03341958284857" lon="9.297976629847577"><ele>124.6</ele><time>2026-05-03T10:22:48.966Z</time></trkpt><trkpt lat="45.03332440614093" lon="9.297929319844481"><ele>125.0</ele><time>2026-05-03T10:22:49.966Z</time></trkpt><trkpt lat="45.03322962301064" lon="9.297880256604971"><ele>125.0</ele><time>2026-05-03T10:22:50.966Z</time></trkpt><trkpt lat="45.03313892867648" lon="9.297826946745579"><ele>125.0</ele><time>2026-05-03T10:22:51.966Z</time></trkpt><trkpt lat="45.03305769611626" lon="9.297769697005842"><ele>125.0</ele><time>2026-05-03T10:22:52.966Z</time></trkpt><trkpt lat="45.03297880547331" lon="9.29769165117398"><ele>125.0</ele><time>2026-05-03T10:22:53.966Z</time></trkpt><trkpt lat="45.03287748919404" lon="9.29764902335106"><ele>125.0</ele><time>2026-05-03T10:22:54.966Z</time></trkpt><trkpt lat="45.032783002449776" lon="9.297572082584889"><ele>125.0</ele><time>2026-05-03T10:22:55.966Z</time></trkpt><trkpt lat="45.03268604633518" lon="9.297459588737256"><ele>125.0</ele><time>2026-05-03T10:22:56.966Z</time></trkpt><trkpt lat="45.032606197929155" lon="9.297331443053432"><ele>125.0</ele><time>2026-05-03T10:22:57.966Z</time></trkpt><trkpt lat="45.032538740523314" lon="9.297220431965755"><ele>125.0</ele><time>2026-05-03T10:22:58.966Z</time></trkpt><trkpt lat="45.032468072122015" lon="9.297100605069847"><ele>125.8</ele><time>2026-05-03T10:22:59.966Z</time></trkpt><trkpt lat="45.032421473435576" lon="9.29702159073308"><ele>126.6</ele><time>2026-05-03T10:23:00.966Z</time></trkpt><trkpt lat="45.032368766905314" lon="9.296932219859023"><ele>127.4</ele><time>2026-05-03T10:23:04.966Z</time></trkpt><trkpt lat="45.03230409254052" lon="9.296822803861136"><ele>128.2</ele><time>2026-05-03T10:23:06.966Z</time></trkpt><trkpt lat="45.03224514785906" lon="9.29669366679755"><ele>129.0</ele><time>2026-05-03T10:23:08.966Z</time></trkpt><trkpt lat="45.03215766504398" lon="9.29657667415429"><ele>128.99999999999997</ele><time>2026-05-03T10:23:10.966Z</time></trkpt><trkpt lat="45.03211023394112" lon="9.296514891732155"><ele>129.0</ele><time>2026-05-03T10:23:11.966Z</time></trkpt><trkpt lat="45.03205046336738" lon="9.296447671769403"><ele>129.0</ele><time>2026-05-03T10:23:12.966Z</time></trkpt><trkpt lat="45.03199512272446" lon="9.296376276637986"><ele>129.0</ele><time>2026-05-03T10:23:13.966Z</time></trkpt><trkpt lat="45.0319435371153" lon="9.296296945111427"><ele>129.0</ele><time>2026-05-03T10:23:14.966Z</time></trkpt><trkpt lat="45.031913028542355" lon="9.296203516250344"><ele>128.99999999999997</ele><time>2026-05-03T10:23:15.966Z</time></trkpt><trkpt lat="45.03189063160043" lon="9.296112713728265"><ele>129.0</ele><time>2026-05-03T10:23:16.966Z</time></trkpt><trkpt lat="45.03184884892291" lon="9.295953649711826"><ele>130.66666666666666</ele><time>2026-05-03T10:23:18.966Z</time></trkpt><trkpt lat="45.03182490204134" lon="9.295796939214688"><ele>132.33333333333331</ele><time>2026-05-03T10:23:20.966Z</time></trkpt><trkpt lat="45.03182533832962" lon="9.295666566404883"><ele>134.0</ele><time>2026-05-03T10:23:22.966Z</time></trkpt><trkpt lat="45.02939680055235" lon="9.29440546103976"><ele>139.33333333333331</ele><time>2026-05-03T10:24:24.966Z</time></trkpt><trkpt lat="45.02933263168524" lon="9.294328146402789"><ele>144.66666666666666</ele><time>2026-05-03T10:24:25.966Z</time></trkpt><trkpt lat="45.02927790450617" lon="9.294260148013699"><ele>150.0</ele><time>2026-05-03T10:24:26.966Z</time></trkpt><trkpt lat="45.02920153773131" lon="9.294223607761634"><ele>155.33333333333334</ele><time>2026-05-03T10:24:27.966Z</time></trkpt><trkpt lat="45.029110553065294" lon="9.2942264940065"><ele>160.66666666666669</ele><time>2026-05-03T10:24:28.966Z</time></trkpt><trkpt lat="45.02901092472104" lon="9.294276600935554"><ele>166.0</ele><time>2026-05-03T10:24:29.966Z</time></trkpt><trkpt lat="45.02891351755963" lon="9.294331887524447"><ele>168.0</ele><time>2026-05-03T10:24:30.966Z</time></trkpt><trkpt lat="45.028798693263155" lon="9.294395233956022"><ele>170.0</ele><time>2026-05-03T10:24:31.966Z</time></trkpt><trkpt lat="45.02867836647108" lon="9.294456963707102"><ele>172.0</ele><time>2026-05-03T10:24:32.965Z</time></trkpt><trkpt lat="45.02857032251585" lon="9.29453431581574"><ele>174.0</ele><time>2026-05-03T10:24:33.965Z</time></trkpt><trkpt lat="45.02845064435986" lon="9.294583181562436"><ele>174.0</ele><time>2026-05-03T10:24:34.965Z</time></trkpt><trkpt lat="45.02834250791781" lon="9.294622818324378"><ele>174.0</ele><time>2026-05-03T10:24:35.965Z</time></trkpt><trkpt lat="45.02823972987974" lon="9.29465206496384"><ele>174.0</ele><time>2026-05-03T10:24:36.965Z</time></trkpt><trkpt lat="45.028154510767685" lon="9.294658334245163"><ele>174.0</ele><time>2026-05-03T10:24:37.965Z</time></trkpt><trkpt lat="45.02806369593949" lon="9.294652819867965"><ele>174.0</ele><time>2026-05-03T10:24:38.965Z</time></trkpt><trkpt lat="45.02797012201287" lon="9.294630099757043"><ele>175.0</ele><time>2026-05-03T10:24:39.965Z</time></trkpt><trkpt lat="45.02788354909929" lon="9.29457407943477"><ele>176.0</ele><time>2026-05-03T10:24:40.965Z</time></trkpt><trkpt lat="45.02780585334465" lon="9.294491344670908"><ele>177.0</ele><time>2026-05-03T10:24:41.965Z</time></trkpt><trkpt lat="45.02773849065568" lon="9.294387161559731"><ele>178.0</ele><time>2026-05-03T10:24:42.965Z</time></trkpt><trkpt lat="45.02767016623998" lon="9.294284214752551"><ele>179.0</ele><time>2026-05-03T10:24:43.965Z</time></trkpt><trkpt lat="45.02759350754044" lon="9.294210595373537"><ele>179.0</ele><time>2026-05-03T10:24:44.965Z</time></trkpt><trkpt lat="45.027513499673994" lon="9.294161720535485"><ele>179.0</ele><time>2026-05-03T10:24:45.965Z</time></trkpt><trkpt lat="45.027426005758365" lon="9.294121222156344"><ele>179.0</ele><time>2026-05-03T10:24:46.965Z</time></trkpt><trkpt lat="45.0273309119514" lon="9.294093816010578"><ele>179.0</ele><time>2026-05-03T10:24:47.965Z</time></trkpt><trkpt lat="45.02722403658688" lon="9.294073783556307"><ele>179.0</ele><time>2026-05-03T10:24:48.965Z</time></trkpt><trkpt lat="45.027125525378516" lon="9.294048613223596"><ele>179.0</ele><time>2026-05-03T10:24:49.965Z</time></trkpt><trkpt lat="45.027047579716786" lon="9.294022278941023"><ele>179.0</ele><time>2026-05-03T10:24:50.965Z</time></trkpt><trkpt lat="45.02696559121209" lon="9.293999665058202"><ele>179.0</ele><time>2026-05-03T10:24:51.965Z</time></trkpt><trkpt lat="45.0268809856622" lon="9.293994059803513"><ele>179.0</ele><time>2026-05-03T10:24:52.965Z</time></trkpt><trkpt lat="45.026803953954975" lon="9.293982529891162"><ele>179.0</ele><time>2026-05-03T10:24:53.965Z</time></trkpt><trkpt lat="45.02672415603334" lon="9.294028076049669"><ele>179.0</ele><time>2026-05-03T10:24:54.965Z</time></trkpt><trkpt lat="45.026658550249145" lon="9.294094111273155"><ele>179.2857142857143</ele><time>2026-05-03T10:24:55.965Z</time></trkpt><trkpt lat="45.026596091514236" lon="9.294175350612942"><ele>179.57142857142858</ele><time>2026-05-03T10:24:56.965Z</time></trkpt><trkpt lat="45.02653833332819" lon="9.294250995489218"><ele>179.85714285714286</ele><time>2026-05-03T10:24:57.965Z</time></trkpt><trkpt lat="45.02647816009483" lon="9.294306587738761"><ele>180.14285714285717</ele><time>2026-05-03T10:24:58.965Z</time></trkpt><trkpt lat="45.026420744255276" lon="9.294346566636468"><ele>180.42857142857142</ele><time>2026-05-03T10:24:59.965Z</time></trkpt><trkpt lat="45.02635403615453" lon="9.294362133549585"><ele>180.71428571428572</ele><time>2026-05-03T10:25:00.965Z</time></trkpt><trkpt lat="45.02627909140285" lon="9.294379696903231"><ele>181.0</ele><time>2026-05-03T10:25:01.965Z</time></trkpt><trkpt lat="45.02620746736483" lon="9.294324546869452"><ele>181.0</ele><time>2026-05-03T10:25:02.965Z</time></trkpt><trkpt lat="45.02612714741215" lon="9.294282825734099"><ele>181.0</ele><time>2026-05-03T10:25:03.965Z</time></trkpt><trkpt lat="45.02604273739348" lon="9.294221786038257"><ele>181.0</ele><time>2026-05-03T10:25:04.965Z</time></trkpt><trkpt lat="45.02593983367563" lon="9.294134201816611"><ele>181.0</ele><time>2026-05-03T10:25:05.965Z</time></trkpt><trkpt lat="45.025835297091824" lon="9.294042324346394"><ele>181.0</ele><time>2026-05-03T10:25:06.965Z</time></trkpt><trkpt lat="45.025751993140474" lon="9.293969108417532"><ele>182.8</ele><time>2026-05-03T10:25:07.965Z</time></trkpt><trkpt lat="45.02564811555921" lon="9.293880216206903"><ele>184.60000000000002</ele><time>2026-05-03T10:25:08.965Z</time></trkpt><trkpt lat="45.02554552309878" lon="9.293796415235422"><ele>186.4</ele><time>2026-05-03T10:25:09.965Z</time></trkpt><trkpt lat="45.02545615239234" lon="9.293721180734632"><ele>188.2</ele><time>2026-05-03T10:25:10.965Z</time></trkpt><trkpt lat="45.02537150509111" lon="9.293643827646502"><ele>190.0</ele><time>2026-05-03T10:25:11.965Z</time></trkpt><trkpt lat="45.0252919621517" lon="9.293566308731355"><ele>190.0</ele><time>2026-05-03T10:25:12.965Z</time></trkpt><trkpt lat="45.02522600176642" lon="9.293498689712347"><ele>190.0</ele><time>2026-05-03T10:25:13.965Z</time></trkpt><trkpt lat="45.02516850755331" lon="9.293454585802092"><ele>190.0</ele><time>2026-05-03T10:25:14.965Z</time></trkpt><trkpt lat="45.025129767017035" lon="9.2933809277724"><ele>190.0</ele><time>2026-05-03T10:25:15.965Z</time></trkpt><trkpt lat="45.02510776221478" lon="9.293292239310338"><ele>190.0</ele><time>2026-05-03T10:25:16.965Z</time></trkpt><trkpt lat="45.02513987743194" lon="9.293129392072917"><ele>190.0</ele><time>2026-05-03T10:25:18.965Z</time></trkpt><trkpt lat="45.025200474930266" lon="9.293073158489268"><ele>191.8</ele><time>2026-05-03T10:25:19.965Z</time></trkpt><trkpt lat="45.02528015893551" lon="9.293041916632337"><ele>193.6</ele><time>2026-05-03T10:25:20.965Z</time></trkpt><trkpt lat="45.02537700343266" lon="9.29300957575163"><ele>195.39999999999998</ele><time>2026-05-03T10:25:21.965Z</time></trkpt><trkpt lat="45.025488512277185" lon="9.292993344627913"><ele>197.2</ele><time>2026-05-03T10:25:22.965Z</time></trkpt><trkpt lat="45.02562025197895" lon="9.29300124235858"><ele>199.0</ele><time>2026-05-03T10:25:23.965Z</time></trkpt><trkpt lat="45.02555334346233" lon="9.289781272253931"><ele>205.16666666666666</ele><time>2026-05-03T10:26:24.964Z</time></trkpt><trkpt lat="45.02550244511043" lon="9.289728825869275"><ele>211.33333333333331</ele><time>2026-05-03T10:26:25.964Z</time></trkpt><trkpt lat="45.02545151910983" lon="9.289670372964872"><ele>217.5</ele><time>2026-05-03T10:26:26.964Z</time></trkpt><trkpt lat="45.02540057304865" lon="9.289614186926448"><ele>223.66666666666669</ele><time>2026-05-03T10:26:27.964Z</time></trkpt><trkpt lat="45.02534414547003" lon="9.289558284808528"><ele>229.83333333333334</ele><time>2026-05-03T10:26:28.964Z</time></trkpt><trkpt lat="45.02529062178603" lon="9.289503298509926"><ele>236.0</ele><time>2026-05-03T10:26:29.964Z</time></trkpt><trkpt lat="45.02519080678984" lon="9.289403879262652"><ele>236.00000000000003</ele><time>2026-05-03T10:26:31.964Z</time></trkpt><trkpt lat="45.02509098617603" lon="9.289311892775912"><ele>236.0</ele><time>2026-05-03T10:26:33.964Z</time></trkpt><trkpt lat="45.02499250690081" lon="9.289206415067662"><ele>236.0</ele><time>2026-05-03T10:26:35.964Z</time></trkpt><trkpt lat="45.024946114087584" lon="9.289143934869905"><ele>236.0</ele><time>2026-05-03T10:26:36.964Z</time></trkpt><trkpt lat="45.02490252992263" lon="9.289078818991182"><ele>236.00000000000003</ele><time>2026-05-03T10:26:37.964Z</time></trkpt><trkpt lat="45.02486742864603" lon="9.288999165388747"><ele>236.0</ele><time>2026-05-03T10:26:38.964Z</time></trkpt><trkpt lat="45.02484443909923" lon="9.288909954415592"><ele>236.42857142857142</ele><time>2026-05-03T10:26:39.964Z</time></trkpt><trkpt lat="45.02482015911637" lon="9.288823021817109"><ele>236.8571428571429</ele><time>2026-05-03T10:26:40.964Z</time></trkpt><trkpt lat="45.02479664248693" lon="9.288731521589549"><ele>237.2857142857143</ele><time>2026-05-03T10:26:41.964Z</time></trkpt><trkpt lat="45.02477332251996" lon="9.288634297475628"><ele>237.71428571428572</ele><time>2026-05-03T10:26:42.964Z</time></trkpt><trkpt lat="45.02476878996476" lon="9.288523305297828"><ele>238.14285714285717</ele><time>2026-05-03T10:26:43.964Z</time></trkpt><trkpt lat="45.02473383591" lon="9.288425057970608"><ele>238.5714285714286</ele><time>2026-05-03T10:26:44.964Z</time></trkpt><trkpt lat="45.024719162074035" lon="9.288319894353819"><ele>239.00000000000003</ele><time>2026-05-03T10:26:45.964Z</time></trkpt><trkpt lat="45.02470232417544" lon="9.28820759278762"><ele>239.00000000000003</ele><time>2026-05-03T10:26:46.964Z</time></trkpt><trkpt lat="45.0246839911348" lon="9.288115395790769"><ele>239.0</ele><time>2026-05-03T10:26:47.964Z</time></trkpt><trkpt lat="45.02466315763138" lon="9.288024309968517"><ele>239.0</ele><time>2026-05-03T10:26:48.964Z</time></trkpt><trkpt lat="45.024663599802" lon="9.287929135663415"><ele>239.0</ele><time>2026-05-03T10:26:49.964Z</time></trkpt><trkpt lat="45.02465161436734" lon="9.28776759729717"><ele>239.00000000000003</ele><time>2026-05-03T10:26:51.964Z</time></trkpt><trkpt lat="45.02464250003159" lon="9.287651141072812"><ele>239.0</ele><time>2026-05-03T10:26:53.964Z</time></trkpt><trkpt lat="45.024611879180405" lon="9.28754031697132"><ele>240.16666666666669</ele><time>2026-05-03T10:26:55.964Z</time></trkpt><trkpt lat="45.024570360405875" lon="9.28739630777125"><ele>241.33333333333334</ele><time>2026-05-03T10:26:57.964Z</time></trkpt><trkpt lat="45.0245377364542" lon="9.287316591621416"><ele>242.5</ele><time>2026-05-03T10:26:58.964Z</time></trkpt><trkpt lat="45.02449931377084" lon="9.2872360598731"><ele>243.66666666666669</ele><time>2026-05-03T10:26:59.964Z</time></trkpt><trkpt lat="45.02445604198763" lon="9.287140994494163"><ele>244.83333333333334</ele><time>2026-05-03T10:27:00.964Z</time></trkpt><trkpt lat="45.024408626946666" lon="9.287041989276716"><ele>246.0</ele><time>2026-05-03T10:27:01.964Z</time></trkpt><trkpt lat="45.024360378161575" lon="9.286940035299194"><ele>246.66666666666666</ele><time>2026-05-03T10:27:02.964Z</time></trkpt><trkpt lat="45.02432216998281" lon="9.28684434303267"><ele>247.33333333333331</ele><time>2026-05-03T10:27:03.964Z</time></trkpt><trkpt lat="45.024290032024425" lon="9.286761399315951"><ele>248.0</ele><time>2026-05-03T10:27:04.964Z</time></trkpt><trkpt lat="45.02424606736392" lon="9.286695171961558"><ele>248.66666666666666</ele><time>2026-05-03T10:27:05.964Z</time></trkpt><trkpt lat="45.02420438527889" lon="9.28662620106685"><ele>249.33333333333331</ele><time>2026-05-03T10:27:06.964Z</time></trkpt><trkpt lat="45.02416848641635" lon="9.286551325387855"><ele>250.0</ele><time>2026-05-03T10:27:07.964Z</time></trkpt><trkpt lat="45.024099330086784" lon="9.286425118273177"><ele>249.99999999999997</ele><time>2026-05-03T10:27:09.964Z</time></trkpt><trkpt lat="45.024041996059495" lon="9.286282173409312"><ele>250.0</ele><time>2026-05-03T10:27:11.964Z</time></trkpt><trkpt lat="45.02401582661908" lon="9.286198284093592"><ele>250.0</ele><time>2026-05-03T10:27:12.964Z</time></trkpt><trkpt lat="45.02396350600509" lon="9.286053291591722"><ele>250.0</ele><time>2026-05-03T10:27:14.964Z</time></trkpt><trkpt lat="45.023935051477956" lon="9.28596587285985"><ele>249.99999999999997</ele><time>2026-05-03T10:27:15.964Z</time></trkpt><trkpt lat="45.023923473480615" lon="9.285874498400148"><ele>250.0</ele><time>2026-05-03T10:27:16.964Z</time></trkpt><trkpt lat="45.02391472587494" lon="9.285773146436666"><ele>249.99999999999997</ele><time>2026-05-03T10:27:17.964Z</time></trkpt><trkpt lat="45.02390423969263" lon="9.28566903828756"><ele>250.0</ele><time>2026-05-03T10:27:18.964Z</time></trkpt><trkpt lat="45.023904870058715" lon="9.28556477585514"><ele>250.0</ele><time>2026-05-03T10:27:19.964Z</time></trkpt><trkpt lat="45.02390475001315" lon="9.285467306015352"><ele>250.0</ele><time>2026-05-03T10:27:20.964Z</time></trkpt><trkpt lat="45.023910109886636" lon="9.285305892458192"><ele>249.99999999999997</ele><time>2026-05-03T10:27:22.963Z</time></trkpt><trkpt lat="45.02390686695567" lon="9.285210102141882"><ele>250.0</ele><time>2026-05-03T10:27:23.963Z</time></trkpt><trkpt lat="45.02598686984679" lon="9.27712387415963"><ele>256.4</ele><time>2026-05-03T10:28:24.963Z</time></trkpt><trkpt lat="45.02603218419414" lon="9.277005748867456"><ele>262.8</ele><time>2026-05-03T10:28:25.963Z</time></trkpt><trkpt lat="45.02607898104346" lon="9.27688708198016"><ele>269.2</ele><time>2026-05-03T10:28:26.963Z</time></trkpt><trkpt lat="45.02611656238456" lon="9.276768099214879"><ele>275.6</ele><time>2026-05-03T10:28:27.963Z</time></trkpt><trkpt lat="45.026144505883764" lon="9.276640280662404"><ele>282.0</ele><time>2026-05-03T10:28:28.964Z</time></trkpt><trkpt lat="45.026167467506454" lon="9.276505472111705"><ele>282.2</ele><time>2026-05-03T10:28:29.964Z</time></trkpt><trkpt lat="45.02618860184643" lon="9.276364410727606"><ele>282.4</ele><time>2026-05-03T10:28:30.964Z</time></trkpt><trkpt lat="45.02620155672851" lon="9.27622150890911"><ele>282.6</ele><time>2026-05-03T10:28:31.964Z</time></trkpt><trkpt lat="45.02620405966382" lon="9.27607933660949"><ele>282.8</ele><time>2026-05-03T10:28:32.964Z</time></trkpt><trkpt lat="45.0261902127309" lon="9.275933912039928"><ele>283.0</ele><time>2026-05-03T10:28:33.964Z</time></trkpt><trkpt lat="45.026162812523026" lon="9.275792879180347"><ele>283.0</ele><time>2026-05-03T10:28:34.964Z</time></trkpt><trkpt lat="45.026124925389915" lon="9.27565643766799"><ele>283.0</ele><time>2026-05-03T10:28:35.964Z</time></trkpt><trkpt lat="45.02609557471661" lon="9.2755288984282"><ele>283.0</ele><time>2026-05-03T10:28:36.964Z</time></trkpt><trkpt lat="45.02606831166803" lon="9.275421140407824"><ele>283.0</ele><time>2026-05-03T10:28:37.964Z</time></trkpt><trkpt lat="45.02603918771645" lon="9.27533369019687"><ele>283.0</ele><time>2026-05-03T10:28:38.963Z</time></trkpt><trkpt lat="45.02600860510347" lon="9.27525105544772"><ele>283.0</ele><time>2026-05-03T10:28:39.963Z</time></trkpt><trkpt lat="45.02598224273613" lon="9.275169611026955"><ele>282.4</ele><time>2026-05-03T10:28:40.963Z</time></trkpt><trkpt lat="45.02595323226216" lon="9.275087744725068"><ele>281.8</ele><time>2026-05-03T10:28:41.963Z</time></trkpt><trkpt lat="45.02596626667152" lon="9.274962853893632"><ele>281.2</ele><time>2026-05-03T10:28:42.963Z</time></trkpt><trkpt lat="45.02597795810705" lon="9.274825850405879"><ele>280.6</ele><time>2026-05-03T10:28:43.963Z</time></trkpt><trkpt lat="45.02599684649577" lon="9.274664590857567"><ele>280.0</ele><time>2026-05-03T10:28:44.963Z</time></trkpt><trkpt lat="45.026020116277614" lon="9.27449370912432"><ele>279.75</ele><time>2026-05-03T10:28:45.963Z</time></trkpt><trkpt lat="45.026050843987726" lon="9.27431540475679"><ele>279.5</ele><time>2026-05-03T10:28:46.963Z</time></trkpt><trkpt lat="45.026078166433" lon="9.274138031973287"><ele>279.25</ele><time>2026-05-03T10:28:47.963Z</time></trkpt><trkpt lat="45.02610965577133" lon="9.273953617786264"><ele>279.0</ele><time>2026-05-03T10:28:48.963Z</time></trkpt><trkpt lat="45.026139440160335" lon="9.273776523482375"><ele>279.0</ele><time>2026-05-03T10:28:49.963Z</time></trkpt><trkpt lat="45.02617668084152" lon="9.273620879012974"><ele>279.0</ele><time>2026-05-03T10:28:50.963Z</time></trkpt><trkpt lat="45.02619958045108" lon="9.273484222377279"><ele>279.0</ele><time>2026-05-03T10:28:51.963Z</time></trkpt><trkpt lat="45.02622092174607" lon="9.273362638025086"><ele>279.0</ele><time>2026-05-03T10:28:52.963Z</time></trkpt><trkpt lat="45.026246005488396" lon="9.273237248231192"><ele>279.0</ele><time>2026-05-03T10:28:53.963Z</time></trkpt><trkpt lat="45.026269669177296" lon="9.273112312775995"><ele>280.4</ele><time>2026-05-03T10:28:54.963Z</time></trkpt><trkpt lat="45.02631077277492" lon="9.27300035109736"><ele>281.79999999999995</ele><time>2026-05-03T10:28:55.963Z</time></trkpt><trkpt lat="45.02637243624969" lon="9.272902130673048"><ele>283.20000000000005</ele><time>2026-05-03T10:28:56.963Z</time></trkpt><trkpt lat="45.026447452738196" lon="9.272829962397939"><ele>284.6</ele><time>2026-05-03T10:28:57.963Z</time></trkpt><trkpt lat="45.02651309807347" lon="9.272743258744484"><ele>286.0</ele><time>2026-05-03T10:28:58.963Z</time></trkpt><trkpt lat="45.02658940898816" lon="9.27265191695301"><ele>286.0</ele><time>2026-05-03T10:28:59.963Z</time></trkpt><trkpt lat="45.02663781716828" lon="9.27255368914588"><ele>286.0</ele><time>2026-05-03T10:29:00.963Z</time></trkpt><trkpt lat="45.0266970280657" lon="9.272459436451745"><ele>286.0</ele><time>2026-05-03T10:29:01.963Z</time></trkpt><trkpt lat="45.02675498836983" lon="9.272366413822065"><ele>286.0</ele><time>2026-05-03T10:29:02.963Z</time></trkpt><trkpt lat="45.02680513093065" lon="9.272282831453737"><ele>286.0</ele><time>2026-05-03T10:29:03.963Z</time></trkpt><trkpt lat="45.02685171945012" lon="9.272191512068677"><ele>286.0</ele><time>2026-05-03T10:29:04.963Z</time></trkpt><trkpt lat="45.02690015979746" lon="9.272100462677232"><ele>286.66666666666663</ele><time>2026-05-03T10:29:05.963Z</time></trkpt><trkpt lat="45.02693275061368" lon="9.27199421405889"><ele>287.3333333333333</ele><time>2026-05-03T10:29:06.963Z</time></trkpt><trkpt lat="45.026960504074985" lon="9.271878629449473"><ele>288.0</ele><time>2026-05-03T10:29:07.963Z</time></trkpt><trkpt lat="45.02697789437059" lon="9.271762095018905"><ele>288.6666666666667</ele><time>2026-05-03T10:29:08.963Z</time></trkpt><trkpt lat="45.026993065958216" lon="9.27165481594956"><ele>289.33333333333337</ele><time>2026-05-03T10:29:09.963Z</time></trkpt><trkpt lat="45.027005379936455" lon="9.271556373431048"><ele>290.0</ele><time>2026-05-03T10:29:10.963Z</time></trkpt><trkpt lat="45.027025742889094" lon="9.271465347709853"><ele>286.8</ele><time>2026-05-03T10:29:11.963Z</time></trkpt><trkpt lat="45.02706603182525" lon="9.271391780088043"><ele>283.6</ele><time>2026-05-03T10:29:12.963Z</time></trkpt><trkpt lat="45.027188034523036" lon="9.271336635694224"><ele>280.4</ele><time>2026-05-03T10:29:14.963Z</time></trkpt><trkpt lat="45.02728169241234" lon="9.27134333485103"><ele>277.2</ele><time>2026-05-03T10:29:15.963Z</time></trkpt><trkpt lat="45.027376099794" lon="9.271331162070396"><ele>274.0</ele><time>2026-05-03T10:29:16.963Z</time></trkpt><trkpt lat="45.02745425744315" lon="9.27130173870343"><ele>275.5</ele><time>2026-05-03T10:29:17.963Z</time></trkpt><trkpt lat="45.02753337141121" lon="9.271264914162037"><ele>277.0</ele><time>2026-05-03T10:29:18.963Z</time></trkpt><trkpt lat="45.027620892091285" lon="9.271255047325083"><ele>278.5</ele><time>2026-05-03T10:29:19.963Z</time></trkpt><trkpt lat="45.02770778122978" lon="9.271255049203212"><ele>280.0</ele><time>2026-05-03T10:29:20.963Z</time></trkpt><trkpt lat="45.027795084254514" lon="9.271261231843342"><ele>281.5</ele><time>2026-05-03T10:29:21.963Z</time></trkpt><trkpt lat="45.02789217897281" lon="9.271237245689102"><ele>283.0</ele><time>2026-05-03T10:29:22.963Z</time></trkpt><trkpt lat="45.027983613717694" lon="9.271189131536934"><ele>256.0</ele><time>2026-05-03T10:29:23.963Z</time></trkpt><trkpt lat="45.03115670080546" lon="9.268922963377598"><ele>256.0</ele><time>2026-05-03T10:30:24.947Z</time></trkpt><trkpt lat="45.03125382363961" lon="9.26889262976617"><ele>256.0</ele><time>2026-05-03T10:30:25.947Z</time></trkpt><trkpt lat="45.031358178620124" lon="9.268852675378183"><ele>256.0</ele><time>2026-05-03T10:30:26.947Z</time></trkpt><trkpt lat="45.03145996693299" lon="9.268800148386092"><ele>256.0</ele><time>2026-05-03T10:30:27.948Z</time></trkpt><trkpt lat="45.03155115212257" lon="9.268731131337315"><ele>256.0</ele><time>2026-05-03T10:30:28.947Z</time></trkpt><trkpt lat="45.03163334062478" lon="9.268651883271648"><ele>258.0</ele><time>2026-05-03T10:30:29.947Z</time></trkpt><trkpt lat="45.03170427443079" lon="9.268579786529397"><ele>260.0</ele><time>2026-05-03T10:30:30.947Z</time></trkpt><trkpt lat="45.031770634123696" lon="9.26850831470487"><ele>262.0</ele><time>2026-05-03T10:30:31.947Z</time></trkpt><trkpt lat="45.031836937677014" lon="9.268435450742647"><ele>264.0</ele><time>2026-05-03T10:30:32.947Z</time></trkpt><trkpt lat="45.031901567191085" lon="9.268349924195881"><ele>266.0</ele><time>2026-05-03T10:30:33.948Z</time></trkpt><trkpt lat="45.03197495105676" lon="9.26826616208719"><ele>268.0</ele><time>2026-05-03T10:30:34.947Z</time></trkpt><trkpt lat="45.03205247283147" lon="9.268172585625003"><ele>264.2</ele><time>2026-05-03T10:30:35.947Z</time></trkpt><trkpt lat="45.032129244546255" lon="9.268079044102699"><ele>260.4</ele><time>2026-05-03T10:30:36.947Z</time></trkpt><trkpt lat="45.03220664422623" lon="9.267986434448883"><ele>256.59999999999997</ele><time>2026-05-03T10:30:37.947Z</time></trkpt><trkpt lat="45.03228562716777" lon="9.26789497290019"><ele>252.79999999999998</ele><time>2026-05-03T10:30:38.947Z</time></trkpt><trkpt lat="45.03237579761265" lon="9.26781449940915"><ele>249.0</ele><time>2026-05-03T10:30:39.947Z</time></trkpt><trkpt lat="45.032465249019474" lon="9.267737490085693"><ele>251.6</ele><time>2026-05-03T10:30:40.947Z</time></trkpt><trkpt lat="45.03255176040649" lon="9.267662023142325"><ele>254.2</ele><time>2026-05-03T10:30:41.947Z</time></trkpt><trkpt lat="45.03263161716054" lon="9.267575787367688"><ele>256.79999999999995</ele><time>2026-05-03T10:30:42.947Z</time></trkpt><trkpt lat="45.03269729004295" lon="9.267475544841863"><ele>259.4</ele><time>2026-05-03T10:30:43.946Z</time></trkpt><trkpt lat="45.032744332374534" lon="9.2673540159568"><ele>262.0</ele><time>2026-05-03T10:30:44.946Z</time></trkpt><trkpt lat="45.032782987210304" lon="9.267209729691947"><ele>262.0</ele><time>2026-05-03T10:30:45.946Z</time></trkpt><trkpt lat="45.032813100556574" lon="9.267067423313469"><ele>262.0</ele><time>2026-05-03T10:30:46.946Z</time></trkpt><trkpt lat="45.03284384062831" lon="9.266937399464492"><ele>262.0</ele><time>2026-05-03T10:30:47.946Z</time></trkpt><trkpt lat="45.03287118547443" lon="9.266813178436326"><ele>262.0</ele><time>2026-05-03T10:30:48.946Z</time></trkpt><trkpt lat="45.032907856471894" lon="9.266692516341848"><ele>262.0</ele><time>2026-05-03T10:30:49.946Z</time></trkpt><trkpt lat="45.03295644667702" lon="9.266590108373501"><ele>262.0</ele><time>2026-05-03T10:30:50.946Z</time></trkpt><trkpt lat="45.0330120372921" lon="9.266505732257821"><ele>262.0</ele><time>2026-05-03T10:30:51.946Z</time></trkpt><trkpt lat="45.03307034948079" lon="9.26643821266344"><ele>262.0</ele><time>2026-05-03T10:30:52.946Z</time></trkpt><trkpt lat="45.03313847440987" lon="9.266392787849696"><ele>262.0</ele><time>2026-05-03T10:30:53.946Z</time></trkpt><trkpt lat="45.03320580010543" lon="9.266360129828902"><ele>262.0</ele><time>2026-05-03T10:30:54.946Z</time></trkpt><trkpt lat="45.033279499282706" lon="9.266345457266494"><ele>262.0</ele><time>2026-05-03T10:30:55.946Z</time></trkpt><trkpt lat="45.03336067173543" lon="9.266342474619558"><ele>263.8</ele><time>2026-05-03T10:30:56.946Z</time></trkpt><trkpt lat="45.03344433202093" lon="9.266359868066736"><ele>265.6</ele><time>2026-05-03T10:30:57.946Z</time></trkpt><trkpt lat="45.03353565385358" lon="9.266388670600712"><ele>267.40000000000003</ele><time>2026-05-03T10:30:58.946Z</time></trkpt><trkpt lat="45.033632332219995" lon="9.266419896901137"><ele>269.2</ele><time>2026-05-03T10:30:59.946Z</time></trkpt><trkpt lat="45.033722753685026" lon="9.266443113991238"><ele>271.0</ele><time>2026-05-03T10:31:00.946Z</time></trkpt><trkpt lat="45.03379657179225" lon="9.266496850228803"><ele>271.0</ele><time>2026-05-03T10:31:01.946Z</time></trkpt><trkpt lat="45.03387488185532" lon="9.266532248790458"><ele>271.0</ele><time>2026-05-03T10:31:02.946Z</time></trkpt><trkpt lat="45.03394686931817" lon="9.26656732373958"><ele>271.0</ele><time>2026-05-03T10:31:03.946Z</time></trkpt><trkpt lat="45.034017756384095" lon="9.266607884410776"><ele>271.0</ele><time>2026-05-03T10:31:04.946Z</time></trkpt><trkpt lat="45.034081290373294" lon="9.266659261341218"><ele>271.0</ele><time>2026-05-03T10:31:05.946Z</time></trkpt><trkpt lat="45.034157336980726" lon="9.266723334324732"><ele>271.0</ele><time>2026-05-03T10:31:06.946Z</time></trkpt><trkpt lat="45.034212146666526" lon="9.266830422298746"><ele>270.8</ele><time>2026-05-03T10:31:07.946Z</time></trkpt><trkpt lat="45.0342630935771" lon="9.266947844276407"><ele>270.6</ele><time>2026-05-03T10:31:08.946Z</time></trkpt><trkpt lat="45.03431740411528" lon="9.26707423678905"><ele>270.4</ele><time>2026-05-03T10:31:09.946Z</time></trkpt><trkpt lat="45.03438100028643" lon="9.26720037726731"><ele>270.2</ele><time>2026-05-03T10:31:10.946Z</time></trkpt><trkpt lat="45.034442119673194" lon="9.267315691471701"><ele>270.0</ele><time>2026-05-03T10:31:11.946Z</time></trkpt><trkpt lat="45.03451029977627" lon="9.267428978062158"><ele>270.0</ele><time>2026-05-03T10:31:12.946Z</time></trkpt><trkpt lat="45.03456886450104" lon="9.267539795791533"><ele>270.0</ele><time>2026-05-03T10:31:13.946Z</time></trkpt><trkpt lat="45.03462817265745" lon="9.267633665270012"><ele>270.0</ele><time>2026-05-03T10:31:14.946Z</time></trkpt><trkpt lat="45.03468410154106" lon="9.26771798104632"><ele>270.0</ele><time>2026-05-03T10:31:15.946Z</time></trkpt><trkpt lat="45.034745071355424" lon="9.267791477210423"><ele>270.0</ele><time>2026-05-03T10:31:16.946Z</time></trkpt><trkpt lat="45.03480023626612" lon="9.26785368507749"><ele>270.0</ele><time>2026-05-03T10:31:17.946Z</time></trkpt><trkpt lat="45.034857463409686" lon="9.267908250749294"><ele>270.0</ele><time>2026-05-03T10:31:18.946Z</time></trkpt><trkpt lat="45.03491315585569" lon="9.267961894402621"><ele>270.0</ele><time>2026-05-03T10:31:19.946Z</time></trkpt><trkpt lat="45.034962142059335" lon="9.268021784156037"><ele>270.0</ele><time>2026-05-03T10:31:20.946Z</time></trkpt><trkpt lat="45.035010246689744" lon="9.268094022821904"><ele>270.0</ele><time>2026-05-03T10:31:21.946Z</time></trkpt><trkpt lat="45.03506155043512" lon="9.268172028141588"><ele>270.0</ele><time>2026-05-03T10:31:22.946Z</time></trkpt><trkpt lat="45.03510912326029" lon="9.26826332513897"><ele>270.0</ele><time>2026-05-03T10:31:23.946Z</time></trkpt><trkpt lat="45.04003595902445" lon="9.269945784644571"><ele>259.6</ele><time>2026-05-03T10:32:24.944Z</time></trkpt><trkpt lat="45.0401345047863" lon="9.269919133953719"><ele>249.2</ele><time>2026-05-03T10:32:25.944Z</time></trkpt><trkpt lat="45.04023314689765" lon="9.269914007497224"><ele>238.8</ele><time>2026-05-03T10:32:26.944Z</time></trkpt><trkpt lat="45.04033517409858" lon="9.269924690610395"><ele>228.4</ele><time>2026-05-03T10:32:27.945Z</time></trkpt><trkpt lat="45.040436835376376" lon="9.269957097728584"><ele>218.0</ele><time>2026-05-03T10:32:28.946Z</time></trkpt><trkpt lat="45.04053631599659" lon="9.269993373086693"><ele>218.0</ele><time>2026-05-03T10:32:29.945Z</time></trkpt><trkpt lat="45.04063988494649" lon="9.270036070674767"><ele>218.0</ele><time>2026-05-03T10:32:30.945Z</time></trkpt><trkpt lat="45.04074496870884" lon="9.270077239603644"><ele>218.0</ele><time>2026-05-03T10:32:31.945Z</time></trkpt><trkpt lat="45.04084729358616" lon="9.270116157290854"><ele>218.0</ele><time>2026-05-03T10:32:32.945Z</time></trkpt><trkpt lat="45.040947030725334" lon="9.270151562163187"><ele>218.0</ele><time>2026-05-03T10:32:33.946Z</time></trkpt><trkpt lat="45.04104655875645" lon="9.270187404540698"><ele>218.0</ele><time>2026-05-03T10:32:34.945Z</time></trkpt><trkpt lat="45.041147239663175" lon="9.270221992042737"><ele>218.0</ele><time>2026-05-03T10:32:35.945Z</time></trkpt><trkpt lat="45.041246681457366" lon="9.270254169818392"><ele>218.0</ele><time>2026-05-03T10:32:36.946Z</time></trkpt><trkpt lat="45.04134511771392" lon="9.27027659188107"><ele>218.0</ele><time>2026-05-03T10:32:37.945Z</time></trkpt><trkpt lat="45.04144262189059" lon="9.270296670617416"><ele>218.0</ele><time>2026-05-03T10:32:38.945Z</time></trkpt><trkpt lat="45.041540214227055" lon="9.27031481896175"><ele>218.0</ele><time>2026-05-03T10:32:39.945Z</time></trkpt><trkpt lat="45.0416365114167" lon="9.270331644283221"><ele>218.0</ele><time>2026-05-03T10:32:40.946Z</time></trkpt><trkpt lat="45.04173636677585" lon="9.270339103277035"><ele>218.0</ele><time>2026-05-03T10:32:41.946Z</time></trkpt><trkpt lat="45.041832460019315" lon="9.27032978701548"><ele>218.0</ele><time>2026-05-03T10:32:42.946Z</time></trkpt><trkpt lat="45.041926154060796" lon="9.270322725543908"><ele>218.0</ele><time>2026-05-03T10:32:43.946Z</time></trkpt><trkpt lat="45.04202138362805" lon="9.270312660814488"><ele>218.00000000000003</ele><time>2026-05-03T10:32:44.946Z</time></trkpt><trkpt lat="45.042111329116345" lon="9.270290802953406"><ele>218.0</ele><time>2026-05-03T10:32:45.946Z</time></trkpt><trkpt lat="45.042194436289115" lon="9.270253627752323"><ele>218.0</ele><time>2026-05-03T10:32:46.946Z</time></trkpt><trkpt lat="45.042278940964856" lon="9.270218134595494"><ele>218.0</ele><time>2026-05-03T10:32:47.946Z</time></trkpt><trkpt lat="45.04236343633072" lon="9.270186942467411"><ele>218.00000000000003</ele><time>2026-05-03T10:32:48.946Z</time></trkpt><trkpt lat="45.042449123976894" lon="9.270153217141235"><ele>218.0</ele><time>2026-05-03T10:32:49.945Z</time></trkpt><trkpt lat="45.042532182644855" lon="9.270118269522213"><ele>219.16666666666669</ele><time>2026-05-03T10:32:50.945Z</time></trkpt><trkpt lat="45.04261285470381" lon="9.2700853567922"><ele>220.33333333333334</ele><time>2026-05-03T10:32:51.945Z</time></trkpt><trkpt lat="45.042692301569666" lon="9.270055967793988"><ele>221.5</ele><time>2026-05-03T10:32:52.945Z</time></trkpt><trkpt lat="45.04277052229766" lon="9.270022618252149"><ele>222.66666666666669</ele><time>2026-05-03T10:32:53.945Z</time></trkpt><trkpt lat="45.042854936481795" lon="9.269984956664304"><ele>223.83333333333334</ele><time>2026-05-03T10:32:54.945Z</time></trkpt><trkpt lat="45.04294260054183" lon="9.269980901676792"><ele>225.0</ele><time>2026-05-03T10:32:55.945Z</time></trkpt><trkpt lat="45.04303065588977" lon="9.269957808544556"><ele>225.0</ele><time>2026-05-03T10:32:56.945Z</time></trkpt><trkpt lat="45.04312618943174" lon="9.269937168785605"><ele>225.0</ele><time>2026-05-03T10:32:57.945Z</time></trkpt><trkpt lat="45.043222309992366" lon="9.269946090221655"><ele>225.0</ele><time>2026-05-03T10:32:58.945Z</time></trkpt><trkpt lat="45.04331759221741" lon="9.269949531972857"><ele>225.0</ele><time>2026-05-03T10:32:59.945Z</time></trkpt><trkpt lat="45.04341246814195" lon="9.269958787473799"><ele>225.0</ele><time>2026-05-03T10:33:00.945Z</time></trkpt><trkpt lat="45.04350866580224" lon="9.269965625077345"><ele>225.2</ele><time>2026-05-03T10:33:01.945Z</time></trkpt><trkpt lat="45.04361072508055" lon="9.269967494752969"><ele>225.4</ele><time>2026-05-03T10:33:02.945Z</time></trkpt><trkpt lat="45.04370910089482" lon="9.269970768952778"><ele>225.60000000000002</ele><time>2026-05-03T10:33:03.945Z</time></trkpt><trkpt lat="45.04380972427361" lon="9.269972020422786"><ele>225.8</ele><time>2026-05-03T10:33:04.945Z</time></trkpt><trkpt lat="45.04392001366427" lon="9.26997349937897"><ele>226.0</ele><time>2026-05-03T10:33:05.945Z</time></trkpt><trkpt lat="45.044029772335925" lon="9.269974082386048"><ele>227.0</ele><time>2026-05-03T10:33:06.945Z</time></trkpt><trkpt lat="45.04414003299245" lon="9.269976486404385"><ele>228.00000000000003</ele><time>2026-05-03T10:33:07.945Z</time></trkpt><trkpt lat="45.04424742408247" lon="9.269969507451975"><ele>229.00000000000003</ele><time>2026-05-03T10:33:08.945Z</time></trkpt><trkpt lat="45.04435974589796" lon="9.269954003970964"><ele>230.0</ele><time>2026-05-03T10:33:09.945Z</time></trkpt><trkpt lat="45.04447394254309" lon="9.2699270168478"><ele>231.0</ele><time>2026-05-03T10:33:10.945Z</time></trkpt><trkpt lat="45.044581235402404" lon="9.269884856117761"><ele>231.0</ele><time>2026-05-03T10:33:11.945Z</time></trkpt><trkpt lat="45.04468267614123" lon="9.269838359092184"><ele>231.00000000000003</ele><time>2026-05-03T10:33:12.945Z</time></trkpt><trkpt lat="45.04477828852285" lon="9.269799753487757"><ele>231.00000000000003</ele><time>2026-05-03T10:33:13.945Z</time></trkpt><trkpt lat="45.04486954594855" lon="9.26977261828366"><ele>231.0</ele><time>2026-05-03T10:33:14.945Z</time></trkpt><trkpt lat="45.04495983874444" lon="9.269751354400928"><ele>231.0</ele><time>2026-05-03T10:33:15.945Z</time></trkpt><trkpt lat="45.04505183768242" lon="9.269744714020774"><ele>231.8</ele><time>2026-05-03T10:33:16.945Z</time></trkpt><trkpt lat="45.045143301770516" lon="9.26976112035448"><ele>232.60000000000002</ele><time>2026-05-03T10:33:17.945Z</time></trkpt><trkpt lat="45.04523700333708" lon="9.26979291808482"><ele>233.4</ele><time>2026-05-03T10:33:18.945Z</time></trkpt><trkpt lat="45.045336490011046" lon="9.269836505213599"><ele>234.2</ele><time>2026-05-03T10:33:19.945Z</time></trkpt><trkpt lat="45.04543991996258" lon="9.26989209321321"><ele>235.0</ele><time>2026-05-03T10:33:20.945Z</time></trkpt><trkpt lat="45.04554106684342" lon="9.269969035582003"><ele>235.0</ele><time>2026-05-03T10:33:21.945Z</time></trkpt><trkpt lat="45.04564920283544" lon="9.27002671707674"><ele>235.0</ele><time>2026-05-03T10:33:22.945Z</time></trkpt><trkpt lat="45.04575914442974" lon="9.270082461210642"><ele>235.0</ele><time>2026-05-03T10:33:23.945Z</time></trkpt><trkpt lat="45.048903901374544" lon="9.273559890168626"><ele>234.2</ele><time>2026-05-03T10:34:24.943Z</time></trkpt><trkpt lat="45.04896289283935" lon="9.273642646479502"><ele>233.4</ele><time>2026-05-03T10:34:25.943Z</time></trkpt><trkpt lat="45.04903032883713" lon="9.273725050481502"><ele>232.60000000000002</ele><time>2026-05-03T10:34:26.943Z</time></trkpt><trkpt lat="45.0490979128073" lon="9.273811328374446"><ele>231.8</ele><time>2026-05-03T10:34:27.943Z</time></trkpt><trkpt lat="45.049165125911905" lon="9.273904288538727"><ele>231.0</ele><time>2026-05-03T10:34:28.943Z</time></trkpt><trkpt lat="45.04923048804163" lon="9.27400131033511"><ele>230.8</ele><time>2026-05-03T10:34:29.943Z</time></trkpt><trkpt lat="45.04929234060562" lon="9.27409908625646"><ele>230.60000000000002</ele><time>2026-05-03T10:34:30.943Z</time></trkpt><trkpt lat="45.049334908409364" lon="9.27422450217495"><ele>230.4</ele><time>2026-05-03T10:34:31.943Z</time></trkpt><trkpt lat="45.04938289500816" lon="9.274347374498637"><ele>230.2</ele><time>2026-05-03T10:34:32.944Z</time></trkpt><trkpt lat="45.04943007764581" lon="9.274477968645371"><ele>230.0</ele><time>2026-05-03T10:34:33.943Z</time></trkpt><trkpt lat="45.0494890778696" lon="9.27460605097831"><ele>230.0</ele><time>2026-05-03T10:34:34.943Z</time></trkpt><trkpt lat="45.04952730175365" lon="9.274747125182675"><ele>230.0</ele><time>2026-05-03T10:34:35.944Z</time></trkpt><trkpt lat="45.049567746507066" lon="9.274881333711711"><ele>230.0</ele><time>2026-05-03T10:34:36.944Z</time></trkpt><trkpt lat="45.049610425635464" lon="9.275018424206234"><ele>230.0</ele><time>2026-05-03T10:34:37.944Z</time></trkpt><trkpt lat="45.04964975818158" lon="9.275157037791576"><ele>230.0</ele><time>2026-05-03T10:34:38.944Z</time></trkpt><trkpt lat="45.04968865144487" lon="9.275296486779611"><ele>228.8</ele><time>2026-05-03T10:34:39.944Z</time></trkpt><trkpt lat="45.04972612910035" lon="9.27543069649828"><ele>227.6</ele><time>2026-05-03T10:34:40.944Z</time></trkpt><trkpt lat="45.049765115319545" lon="9.27556058946177"><ele>226.39999999999998</ele><time>2026-05-03T10:34:41.944Z</time></trkpt><trkpt lat="45.049801861716546" lon="9.27569003303723"><ele>225.2</ele><time>2026-05-03T10:34:42.944Z</time></trkpt><trkpt lat="45.049841457337365" lon="9.275816096524759"><ele>224.0</ele><time>2026-05-03T10:34:43.944Z</time></trkpt><trkpt lat="45.04988900723539" lon="9.275939606250027"><ele>222.6</ele><time>2026-05-03T10:34:44.943Z</time></trkpt><trkpt lat="45.04994456436577" lon="9.276065198808842"><ele>221.2</ele><time>2026-05-03T10:34:45.944Z</time></trkpt><trkpt lat="45.050008055090935" lon="9.276190144426426"><ele>219.79999999999998</ele><time>2026-05-03T10:34:46.944Z</time></trkpt><trkpt lat="45.05006891914147" lon="9.27631018319879"><ele>218.39999999999998</ele><time>2026-05-03T10:34:47.944Z</time></trkpt><trkpt lat="45.05012754087933" lon="9.276427246223763"><ele>217.0</ele><time>2026-05-03T10:34:48.944Z</time></trkpt><trkpt lat="45.050171841842825" lon="9.276557604305019"><ele>220.0</ele><time>2026-05-03T10:34:49.944Z</time></trkpt><trkpt lat="45.05020235549724" lon="9.276695085119528"><ele>223.0</ele><time>2026-05-03T10:34:50.944Z</time></trkpt><trkpt lat="45.05021435500208" lon="9.27683867035299"><ele>226.0</ele><time>2026-05-03T10:34:51.944Z</time></trkpt><trkpt lat="45.050222439642106" lon="9.276974925447451"><ele>229.0</ele><time>2026-05-03T10:34:52.944Z</time></trkpt><trkpt lat="45.05022751160725" lon="9.277120976840974"><ele>232.0</ele><time>2026-05-03T10:34:53.944Z</time></trkpt><trkpt lat="45.050233450840274" lon="9.277268073210216"><ele>231.6</ele><time>2026-05-03T10:34:54.944Z</time></trkpt><trkpt lat="45.050239276839605" lon="9.27741607968866"><ele>231.2</ele><time>2026-05-03T10:34:55.944Z</time></trkpt><trkpt lat="45.05024619079229" lon="9.277558373339517"><ele>230.8</ele><time>2026-05-03T10:34:56.944Z</time></trkpt><trkpt lat="45.05025345069176" lon="9.277692530863026"><ele>230.4</ele><time>2026-05-03T10:34:57.944Z</time></trkpt><trkpt lat="45.05026568628048" lon="9.277819695646293"><ele>230.0</ele><time>2026-05-03T10:34:58.943Z</time></trkpt><trkpt lat="45.05026745403989" lon="9.277949566090355"><ele>230.0</ele><time>2026-05-03T10:34:59.943Z</time></trkpt><trkpt lat="45.05031948345995" lon="9.27805894196644"><ele>230.0</ele><time>2026-05-03T10:35:00.943Z</time></trkpt><trkpt lat="45.05036891784683" lon="9.278175126663697"><ele>230.0</ele><time>2026-05-03T10:35:01.943Z</time></trkpt><trkpt lat="45.05045852829531" lon="9.278240463599504"><ele>230.0</ele><time>2026-05-03T10:35:02.943Z</time></trkpt><trkpt lat="45.05054340884797" lon="9.278293160163686"><ele>230.0</ele><time>2026-05-03T10:35:03.943Z</time></trkpt><trkpt lat="45.050638660528115" lon="9.278329683176697"><ele>231.16666666666669</ele><time>2026-05-03T10:35:04.943Z</time></trkpt><trkpt lat="45.050722181025854" lon="9.278365034630657"><ele>232.33333333333334</ele><time>2026-05-03T10:35:05.943Z</time></trkpt><trkpt lat="45.05080373682299" lon="9.278404684877172"><ele>233.5</ele><time>2026-05-03T10:35:06.943Z</time></trkpt><trkpt lat="45.05088504305116" lon="9.278439794992188"><ele>234.66666666666669</ele><time>2026-05-03T10:35:07.943Z</time></trkpt><trkpt lat="45.05096163847413" lon="9.278483840227954"><ele>235.83333333333334</ele><time>2026-05-03T10:35:08.943Z</time></trkpt><trkpt lat="45.05101217494767" lon="9.278567130547634"><ele>237.0</ele><time>2026-05-03T10:35:09.943Z</time></trkpt><trkpt lat="45.05106701320197" lon="9.27866241858121"><ele>238.0</ele><time>2026-05-03T10:35:10.943Z</time></trkpt><trkpt lat="45.05111436483606" lon="9.278758829183024"><ele>239.0</ele><time>2026-05-03T10:35:11.943Z</time></trkpt><trkpt lat="45.05115732058525" lon="9.278847867403094"><ele>240.0</ele><time>2026-05-03T10:35:12.943Z</time></trkpt><trkpt lat="45.05120817222297" lon="9.2789359564439"><ele>241.0</ele><time>2026-05-03T10:35:13.943Z</time></trkpt><trkpt lat="45.051248809691565" lon="9.27904318038874"><ele>242.0</ele><time>2026-05-03T10:35:14.943Z</time></trkpt><trkpt lat="45.05129263522374" lon="9.279135320031154"><ele>243.0</ele><time>2026-05-03T10:35:15.943Z</time></trkpt><trkpt lat="45.05133317593495" lon="9.279217362067024"><ele>243.0</ele><time>2026-05-03T10:35:16.943Z</time></trkpt><trkpt lat="45.05139649714575" lon="9.279348414310638"><ele>243.0</ele><time>2026-05-03T10:35:18.943Z</time></trkpt><trkpt lat="45.051430055519816" lon="9.279454430723067"><ele>243.0</ele><time>2026-05-03T10:35:20.943Z</time></trkpt><trkpt lat="45.05154749819513" lon="9.27943827689532"><ele>243.0</ele><time>2026-05-03T10:35:21.943Z</time></trkpt><trkpt lat="45.05168442604775" lon="9.279455875097245"><ele>244.0</ele><time>2026-05-03T10:35:23.943Z</time></trkpt><trkpt lat="45.05559626173034" lon="9.279361603446334"><ele>243.99999999999997</ele><time>2026-05-03T10:36:24.942Z</time></trkpt><trkpt lat="45.05568253929593" lon="9.279376865242105"><ele>244.0</ele><time>2026-05-03T10:36:25.942Z</time></trkpt><trkpt lat="45.055767813041435" lon="9.279389663283983"><ele>244.0</ele><time>2026-05-03T10:36:26.942Z</time></trkpt><trkpt lat="45.05585192020872" lon="9.279404357164747"><ele>244.0</ele><time>2026-05-03T10:36:27.942Z</time></trkpt><trkpt lat="45.0559369067421" lon="9.279425222728662"><ele>243.99999999999997</ele><time>2026-05-03T10:36:28.942Z</time></trkpt><trkpt lat="45.0560229287849" lon="9.279450281937718"><ele>244.0</ele><time>2026-05-03T10:36:29.942Z</time></trkpt><trkpt lat="45.056091260407264" lon="9.279474053769059"><ele>244.28571428571425</ele><time>2026-05-03T10:36:30.942Z</time></trkpt><trkpt lat="45.0561629152394" lon="9.279502358302004"><ele>244.57142857142856</ele><time>2026-05-03T10:36:31.941Z</time></trkpt><trkpt lat="45.056229165699406" lon="9.27952677721222"><ele>244.85714285714286</ele><time>2026-05-03T10:36:32.941Z</time></trkpt><trkpt lat="45.056291305153586" lon="9.279555451060608"><ele>245.14285714285714</ele><time>2026-05-03T10:36:33.941Z</time></trkpt><trkpt lat="45.0563593451881" lon="9.279580972367526"><ele>245.42857142857144</ele><time>2026-05-03T10:36:34.941Z</time></trkpt><trkpt lat="45.05644032874341" lon="9.27960550711052"><ele>245.71428571428575</ele><time>2026-05-03T10:36:35.941Z</time></trkpt><trkpt lat="45.05652692798625" lon="9.279615552334635"><ele>246.00000000000003</ele><time>2026-05-03T10:36:36.941Z</time></trkpt><trkpt lat="45.05662262881175" lon="9.279615250970203"><ele>245.20000000000002</ele><time>2026-05-03T10:36:37.941Z</time></trkpt><trkpt lat="45.056728915667726" lon="9.27961943987189"><ele>244.40000000000003</ele><time>2026-05-03T10:36:38.942Z</time></trkpt><trkpt lat="45.0568346925504" lon="9.27961519245346"><ele>243.6</ele><time>2026-05-03T10:36:39.942Z</time></trkpt><trkpt lat="45.056931908920596" lon="9.279603489901621"><ele>242.8</ele><time>2026-05-03T10:36:40.942Z</time></trkpt><trkpt lat="45.057029123976506" lon="9.279589132721913"><ele>242.0</ele><time>2026-05-03T10:36:41.942Z</time></trkpt><trkpt lat="45.05712726146237" lon="9.279585477455356"><ele>242.0</ele><time>2026-05-03T10:36:42.942Z</time></trkpt><trkpt lat="45.05722170758642" lon="9.279590512487086"><ele>242.0</ele><time>2026-05-03T10:36:43.942Z</time></trkpt><trkpt lat="45.05732936398935" lon="9.279609751120734"><ele>242.0</ele><time>2026-05-03T10:36:44.942Z</time></trkpt><trkpt lat="45.057435429400904" lon="9.27962408319754"><ele>242.0</ele><time>2026-05-03T10:36:45.942Z</time></trkpt><trkpt lat="45.05752997624031" lon="9.279684245806893"><ele>242.0</ele><time>2026-05-03T10:36:46.942Z</time></trkpt><trkpt lat="45.05761836918549" lon="9.279727878052432"><ele>243.0</ele><time>2026-05-03T10:36:47.942Z</time></trkpt><trkpt lat="45.057705414715805" lon="9.279784137860194"><ele>244.0</ele><time>2026-05-03T10:36:48.942Z</time></trkpt><trkpt lat="45.057784219692756" lon="9.279849790549338"><ele>245.0</ele><time>2026-05-03T10:36:49.942Z</time></trkpt><trkpt lat="45.057855550050114" lon="9.279948048617623"><ele>246.0</ele><time>2026-05-03T10:36:50.942Z</time></trkpt><trkpt lat="45.05791982530342" lon="9.280058033885574"><ele>247.0</ele><time>2026-05-03T10:36:51.942Z</time></trkpt><trkpt lat="45.05798403578008" lon="9.28017608014617"><ele>246.99999999999997</ele><time>2026-05-03T10:36:52.942Z</time></trkpt><trkpt lat="45.05804872012527" lon="9.280286943358629"><ele>247.0</ele><time>2026-05-03T10:36:53.942Z</time></trkpt><trkpt lat="45.058092801507826" lon="9.280400514872133"><ele>247.0</ele><time>2026-05-03T10:36:54.942Z</time></trkpt><trkpt lat="45.05815385018198" lon="9.280489907183535"><ele>247.0</ele><time>2026-05-03T10:36:55.942Z</time></trkpt><trkpt lat="45.05821668484273" lon="9.280571141397877"><ele>246.99999999999997</ele><time>2026-05-03T10:36:56.942Z</time></trkpt><trkpt lat="45.05827489902539" lon="9.280650318998545"><ele>247.0</ele><time>2026-05-03T10:36:57.942Z</time></trkpt><trkpt lat="45.05832827858428" lon="9.280735743820879"><ele>247.83333333333331</ele><time>2026-05-03T10:36:58.942Z</time></trkpt><trkpt lat="45.05837693746609" lon="9.2808213610567"><ele>248.66666666666666</ele><time>2026-05-03T10:36:59.942Z</time></trkpt><trkpt lat="45.0584272816951" lon="9.280928743364152"><ele>249.5</ele><time>2026-05-03T10:37:00.942Z</time></trkpt><trkpt lat="45.05847529742665" lon="9.281013815742197"><ele>250.33333333333331</ele><time>2026-05-03T10:37:01.942Z</time></trkpt><trkpt lat="45.05852114050115" lon="9.28111092732421"><ele>251.16666666666666</ele><time>2026-05-03T10:37:02.942Z</time></trkpt><trkpt lat="45.05857009656615" lon="9.281208060006698"><ele>252.0</ele><time>2026-05-03T10:37:03.942Z</time></trkpt><trkpt lat="45.05862144310752" lon="9.281302619483156"><ele>252.0</ele><time>2026-05-03T10:37:04.942Z</time></trkpt><trkpt lat="45.05867110332139" lon="9.281409848924591"><ele>252.0</ele><time>2026-05-03T10:37:05.942Z</time></trkpt><trkpt lat="45.058756001323914" lon="9.281486881223746"><ele>252.0</ele><time>2026-05-03T10:37:06.942Z</time></trkpt><trkpt lat="45.058847594168135" lon="9.281568820708529"><ele>252.0</ele><time>2026-05-03T10:37:07.942Z</time></trkpt><trkpt lat="45.05891634689571" lon="9.281665505732146"><ele>252.0</ele><time>2026-05-03T10:37:08.942Z</time></trkpt><trkpt lat="45.05899779803112" lon="9.281736122210992"><ele>251.33333333333334</ele><time>2026-05-03T10:37:09.942Z</time></trkpt><trkpt lat="45.059070105291596" lon="9.281820434204322"><ele>250.66666666666669</ele><time>2026-05-03T10:37:10.942Z</time></trkpt><trkpt lat="45.059138924537834" lon="9.281887772333139"><ele>250.0</ele><time>2026-05-03T10:37:11.942Z</time></trkpt><trkpt lat="45.0592007908759" lon="9.281951524363599"><ele>249.33333333333334</ele><time>2026-05-03T10:37:12.942Z</time></trkpt><trkpt lat="45.05925935371625" lon="9.282027712118014"><ele>248.66666666666669</ele><time>2026-05-03T10:37:13.942Z</time></trkpt><trkpt lat="45.05933421885395" lon="9.282086069640838"><ele>248.0</ele><time>2026-05-03T10:37:14.942Z</time></trkpt><trkpt lat="45.05941566510186" lon="9.282142568470338"><ele>249.33333333333334</ele><time>2026-05-03T10:37:15.942Z</time></trkpt><trkpt lat="45.059494007758474" lon="9.282182078724391"><ele>250.66666666666669</ele><time>2026-05-03T10:37:16.941Z</time></trkpt><trkpt lat="45.059569565473566" lon="9.28221909060304"><ele>252.0</ele><time>2026-05-03T10:37:17.941Z</time></trkpt><trkpt lat="45.0596454541802" lon="9.282258895087097"><ele>253.33333333333331</ele><time>2026-05-03T10:37:18.941Z</time></trkpt><trkpt lat="45.059716864884074" lon="9.28230294178407"><ele>254.66666666666666</ele><time>2026-05-03T10:37:19.941Z</time></trkpt><trkpt lat="45.05979773367649" lon="9.282338764485784"><ele>256.0</ele><time>2026-05-03T10:37:20.941Z</time></trkpt><trkpt lat="45.05988520324051" lon="9.282351698366913"><ele>253.0</ele><time>2026-05-03T10:37:21.941Z</time></trkpt><trkpt lat="45.059975818201416" lon="9.28236939707105"><ele>250.0</ele><time>2026-05-03T10:37:22.941Z</time></trkpt><trkpt lat="45.06006554281282" lon="9.282339213613879"><ele>247.0</ele><time>2026-05-03T10:37:23.941Z</time></trkpt><trkpt lat="45.06549890954502" lon="9.282444057599855"><ele>247.0</ele><time>2026-05-03T10:38:24.94Z</time></trkpt><trkpt lat="45.065600548200976" lon="9.282445914273811"><ele>247.0</ele><time>2026-05-03T10:38:25.94Z</time></trkpt><trkpt lat="45.065703588247914" lon="9.282457852457444"><ele>247.0</ele><time>2026-05-03T10:38:26.94Z</time></trkpt><trkpt lat="45.06580005651378" lon="9.282483142502988"><ele>247.0</ele><time>2026-05-03T10:38:27.94Z</time></trkpt><trkpt lat="45.06589295183693" lon="9.282539479846951"><ele>247.0</ele><time>2026-05-03T10:38:28.94Z</time></trkpt><trkpt lat="45.06596940445876" lon="9.28261672005651"><ele>248.6</ele><time>2026-05-03T10:38:29.94Z</time></trkpt><trkpt lat="45.066035159594826" lon="9.282722291633315"><ele>250.2</ele><time>2026-05-03T10:38:30.94Z</time></trkpt><trkpt lat="45.06608853733772" lon="9.282841925073914"><ele>251.8</ele><time>2026-05-03T10:38:31.94Z</time></trkpt><trkpt lat="45.06613297056167" lon="9.282966353024275"><ele>253.4</ele><time>2026-05-03T10:38:32.94Z</time></trkpt><trkpt lat="45.06617559879779" lon="9.283091426276066"><ele>255.0</ele><time>2026-05-03T10:38:33.94Z</time></trkpt><trkpt lat="45.066213038968904" lon="9.28320810336927"><ele>252.16666666666666</ele><time>2026-05-03T10:38:34.94Z</time></trkpt><trkpt lat="45.06625475576606" lon="9.28331358132726"><ele>249.33333333333331</ele><time>2026-05-03T10:38:35.94Z</time></trkpt><trkpt lat="45.066303413538286" lon="9.283414837393542"><ele>246.5</ele><time>2026-05-03T10:38:36.94Z</time></trkpt><trkpt lat="45.06636655873323" lon="9.283493960740119"><ele>243.66666666666666</ele><time>2026-05-03T10:38:37.94Z</time></trkpt><trkpt lat="45.066437875014046" lon="9.283551061463195"><ele>240.83333333333331</ele><time>2026-05-03T10:38:38.94Z</time></trkpt><trkpt lat="45.06652437536509" lon="9.28358521982546"><ele>238.0</ele><time>2026-05-03T10:38:39.94Z</time></trkpt><trkpt lat="45.066608660887745" lon="9.283580882871936"><ele>240.0</ele><time>2026-05-03T10:38:40.94Z</time></trkpt><trkpt lat="45.066701835999005" lon="9.283571258223501"><ele>242.0</ele><time>2026-05-03T10:38:41.94Z</time></trkpt><trkpt lat="45.06679155403328" lon="9.283579613851359"><ele>244.0</ele><time>2026-05-03T10:38:42.94Z</time></trkpt><trkpt lat="45.06689422923719" lon="9.283607018052702"><ele>246.0</ele><time>2026-05-03T10:38:43.941Z</time></trkpt><trkpt lat="45.066999873016584" lon="9.28364960897902"><ele>248.0</ele><time>2026-05-03T10:38:44.94Z</time></trkpt><trkpt lat="45.06709621297531" lon="9.28370018221698"><ele>248.0</ele><time>2026-05-03T10:38:45.94Z</time></trkpt><trkpt lat="45.06719655423996" lon="9.28375065688349"><ele>248.0</ele><time>2026-05-03T10:38:46.941Z</time></trkpt><trkpt lat="45.067292490947274" lon="9.283806770885402"><ele>248.0</ele><time>2026-05-03T10:38:47.941Z</time></trkpt><trkpt lat="45.06738077395381" lon="9.28385750379254"><ele>248.0</ele><time>2026-05-03T10:38:48.941Z</time></trkpt><trkpt lat="45.06747023834623" lon="9.283888878156"><ele>248.0</ele><time>2026-05-03T10:38:49.94Z</time></trkpt><trkpt lat="45.067553905255934" lon="9.283913907504054"><ele>247.0</ele><time>2026-05-03T10:38:50.94Z</time></trkpt><trkpt lat="45.06763802097174" lon="9.28385020405477"><ele>246.0</ele><time>2026-05-03T10:38:51.94Z</time></trkpt><trkpt lat="45.06772779586715" lon="9.283806376869862"><ele>245.0</ele><time>2026-05-03T10:38:52.94Z</time></trkpt><trkpt lat="45.06780655030242" lon="9.283722049930851"><ele>244.0</ele><time>2026-05-03T10:38:53.941Z</time></trkpt><trkpt lat="45.06788303454902" lon="9.283628753879636"><ele>243.0</ele><time>2026-05-03T10:38:54.941Z</time></trkpt><trkpt lat="45.06795312911303" lon="9.283522738392543"><ele>243.0</ele><time>2026-05-03T10:38:55.941Z</time></trkpt><trkpt lat="45.06801284907502" lon="9.283411077396536"><ele>243.0</ele><time>2026-05-03T10:38:56.941Z</time></trkpt><trkpt lat="45.0680630632986" lon="9.283306856049702"><ele>243.0</ele><time>2026-05-03T10:38:57.941Z</time></trkpt><trkpt lat="45.068116290371606" lon="9.283230366628887"><ele>243.0</ele><time>2026-05-03T10:38:58.941Z</time></trkpt><trkpt lat="45.06817812572701" lon="9.283177521414137"><ele>243.0</ele><time>2026-05-03T10:38:59.941Z</time></trkpt><trkpt lat="45.068246961206654" lon="9.283163028695741"><ele>243.0</ele><time>2026-05-03T10:39:00.941Z</time></trkpt><trkpt lat="45.06831946228037" lon="9.283190763020098"><ele>240.5</ele><time>2026-05-03T10:39:01.941Z</time></trkpt><trkpt lat="45.06836794561141" lon="9.283275850646492"><ele>238.0</ele><time>2026-05-03T10:39:02.941Z</time></trkpt><trkpt lat="45.06841257542344" lon="9.283360387127317"><ele>235.5</ele><time>2026-05-03T10:39:03.941Z</time></trkpt><trkpt lat="45.06844445681073" lon="9.283453484720841"><ele>233.0</ele><time>2026-05-03T10:39:04.941Z</time></trkpt><trkpt lat="45.06845362551918" lon="9.283554216201244"><ele>230.5</ele><time>2026-05-03T10:39:05.941Z</time></trkpt><trkpt lat="45.06845605388581" lon="9.283673263510881"><ele>228.0</ele><time>2026-05-03T10:39:06.941Z</time></trkpt><trkpt lat="45.06845892966753" lon="9.283798263936067"><ele>228.0</ele><time>2026-05-03T10:39:07.94Z</time></trkpt><trkpt lat="45.06843030881894" lon="9.283927365552936"><ele>228.0</ele><time>2026-05-03T10:39:08.94Z</time></trkpt><trkpt lat="45.06839850201991" lon="9.284058928966227"><ele>228.0</ele><time>2026-05-03T10:39:09.94Z</time></trkpt><trkpt lat="45.068364353303636" lon="9.284185895823947"><ele>228.0</ele><time>2026-05-03T10:39:10.94Z</time></trkpt><trkpt lat="45.06832228862944" lon="9.284315371425198"><ele>228.0</ele><time>2026-05-03T10:39:11.94Z</time></trkpt><trkpt lat="45.06829101422456" lon="9.284441410402106"><ele>228.2</ele><time>2026-05-03T10:39:12.94Z</time></trkpt><trkpt lat="45.06826006980518" lon="9.284569063074683"><ele>228.4</ele><time>2026-05-03T10:39:13.94Z</time></trkpt><trkpt lat="45.06822543902106" lon="9.284696071711679"><ele>228.59999999999997</ele><time>2026-05-03T10:39:14.94Z</time></trkpt><trkpt lat="45.068190592971" lon="9.284817356127219"><ele>228.79999999999998</ele><time>2026-05-03T10:39:15.94Z</time></trkpt><trkpt lat="45.068159799682" lon="9.284941607327168"><ele>229.0</ele><time>2026-05-03T10:39:16.94Z</time></trkpt><trkpt lat="45.068122382966756" lon="9.2850591272042"><ele>229.0</ele><time>2026-05-03T10:39:17.94Z</time></trkpt><trkpt lat="45.068058474143626" lon="9.285294992613267"><ele>228.99999999999997</ele><time>2026-05-03T10:39:19.94Z</time></trkpt><trkpt lat="45.068024497131745" lon="9.28541452697899"><ele>228.99999999999997</ele><time>2026-05-03T10:39:20.94Z</time></trkpt><trkpt lat="45.06799411915933" lon="9.285528959553353"><ele>229.0</ele><time>2026-05-03T10:39:21.94Z</time></trkpt><trkpt lat="45.067960690389945" lon="9.2856428296696"><ele>229.0</ele><time>2026-05-03T10:39:22.94Z</time></trkpt><trkpt lat="45.072319904252495" lon="9.286544953898362"><ele>220.39999999999998</ele><time>2026-05-03T10:40:24.939Z</time></trkpt><trkpt lat="45.07234092394199" lon="9.286664681794807"><ele>211.79999999999998</ele><time>2026-05-03T10:40:25.939Z</time></trkpt><trkpt lat="45.07237176092821" lon="9.286785173454005"><ele>203.2</ele><time>2026-05-03T10:40:26.939Z</time></trkpt><trkpt lat="45.07239618592919" lon="9.286912920796105"><ele>194.60000000000002</ele><time>2026-05-03T10:40:27.939Z</time></trkpt><trkpt lat="45.07244143634356" lon="9.28703621767278"><ele>186.0</ele><time>2026-05-03T10:40:28.939Z</time></trkpt><trkpt lat="45.072502266585815" lon="9.287157613944634"><ele>184.20000000000002</ele><time>2026-05-03T10:40:29.939Z</time></trkpt><trkpt lat="45.07257391672584" lon="9.287277852234162"><ele>182.4</ele><time>2026-05-03T10:40:30.939Z</time></trkpt><trkpt lat="45.072636545236776" lon="9.287388822658402"><ele>180.6</ele><time>2026-05-03T10:40:31.939Z</time></trkpt><trkpt lat="45.072705455684456" lon="9.287503290984587"><ele>178.8</ele><time>2026-05-03T10:40:32.939Z</time></trkpt><trkpt lat="45.072774007361325" lon="9.287616613347941"><ele>177.0</ele><time>2026-05-03T10:40:33.939Z</time></trkpt><trkpt lat="45.07284355795596" lon="9.287731857683887"><ele>177.0</ele><time>2026-05-03T10:40:34.939Z</time></trkpt><trkpt lat="45.072904711306634" lon="9.287853974088087"><ele>177.0</ele><time>2026-05-03T10:40:35.939Z</time></trkpt><trkpt lat="45.0729574743262" lon="9.287970497001655"><ele>177.0</ele><time>2026-05-03T10:40:36.939Z</time></trkpt><trkpt lat="45.072985675817954" lon="9.288083003973307"><ele>177.0</ele><time>2026-05-03T10:40:37.939Z</time></trkpt><trkpt lat="45.07298637987934" lon="9.288189921413322"><ele>177.0</ele><time>2026-05-03T10:40:38.939Z</time></trkpt><trkpt lat="45.07296517385872" lon="9.288283022871848"><ele>177.0</ele><time>2026-05-03T10:40:39.939Z</time></trkpt><trkpt lat="45.07286779439042" lon="9.288376030352811"><ele>175.33333333333334</ele><time>2026-05-03T10:40:41.938Z</time></trkpt><trkpt lat="45.07279549300505" lon="9.288378367788518"><ele>173.66666666666666</ele><time>2026-05-03T10:40:42.938Z</time></trkpt><trkpt lat="45.07271920642303" lon="9.288393508523464"><ele>172.0</ele><time>2026-05-03T10:40:43.938Z</time></trkpt><trkpt lat="45.072643002057475" lon="9.288410411908824"><ele>170.33333333333331</ele><time>2026-05-03T10:40:44.938Z</time></trkpt><trkpt lat="45.0725698804017" lon="9.288431653938739"><ele>168.66666666666666</ele><time>2026-05-03T10:40:45.938Z</time></trkpt><trkpt lat="45.07249409094623" lon="9.288427251089772"><ele>167.0</ele><time>2026-05-03T10:40:46.938Z</time></trkpt><trkpt lat="45.0724215213949" lon="9.288437645925606"><ele>166.8</ele><time>2026-05-03T10:40:47.938Z</time></trkpt><trkpt lat="45.07235694621017" lon="9.288451791810548"><ele>166.6</ele><time>2026-05-03T10:40:48.938Z</time></trkpt><trkpt lat="45.0722489393317" lon="9.288484386952677"><ele>166.4</ele><time>2026-05-03T10:40:50.939Z</time></trkpt><trkpt lat="45.07214229700481" lon="9.288505837110293"><ele>166.20000000000002</ele><time>2026-05-03T10:40:52.939Z</time></trkpt><trkpt lat="45.07202351585973" lon="9.288528175328087"><ele>166.0</ele><time>2026-05-03T10:40:54.939Z</time></trkpt><trkpt lat="45.071956734274785" lon="9.28854171145608"><ele>166.0</ele><time>2026-05-03T10:40:55.939Z</time></trkpt><trkpt lat="45.07188554652471" lon="9.288556243283695"><ele>166.0</ele><time>2026-05-03T10:40:56.939Z</time></trkpt><trkpt lat="45.07181909689966" lon="9.288577395733514"><ele>166.0</ele><time>2026-05-03T10:40:57.939Z</time></trkpt><trkpt lat="45.07175121172432" lon="9.288591962216366"><ele>166.0</ele><time>2026-05-03T10:40:58.939Z</time></trkpt><trkpt lat="45.07163129812838" lon="9.288623128759658"><ele>166.0</ele><time>2026-05-03T10:41:00.938Z</time></trkpt><trkpt lat="45.0715119931406" lon="9.288669172630065"><ele>165.5</ele><time>2026-05-03T10:41:02.938Z</time></trkpt><trkpt lat="45.071458981378335" lon="9.288731691128042"><ele>165.0</ele><time>2026-05-03T10:41:03.938Z</time></trkpt><trkpt lat="45.07144046597626" lon="9.288838680133885"><ele>164.5</ele><time>2026-05-03T10:41:04.938Z</time></trkpt><trkpt lat="45.07143056394128" lon="9.288933646882493"><ele>164.0</ele><time>2026-05-03T10:41:05.938Z</time></trkpt><trkpt lat="45.07141654967734" lon="9.289046845956804"><ele>163.5</ele><time>2026-05-03T10:41:06.938Z</time></trkpt><trkpt lat="45.07141996607508" lon="9.28917554013411"><ele>163.0</ele><time>2026-05-03T10:41:07.938Z</time></trkpt><trkpt lat="45.071425032482765" lon="9.289304526881326"><ele>163.0</ele><time>2026-05-03T10:41:08.938Z</time></trkpt><trkpt lat="45.07142708770152" lon="9.289433858347278"><ele>163.0</ele><time>2026-05-03T10:41:09.938Z</time></trkpt><trkpt lat="45.07142255781404" lon="9.289570001974791"><ele>163.0</ele><time>2026-05-03T10:41:10.938Z</time></trkpt><trkpt lat="45.07140462254199" lon="9.289702396232643"><ele>163.0</ele><time>2026-05-03T10:41:11.938Z</time></trkpt><trkpt lat="45.07138103046317" lon="9.289832480606258"><ele>163.0</ele><time>2026-05-03T10:41:12.938Z</time></trkpt><trkpt lat="45.07136143782807" lon="9.289963165559966"><ele>161.20000000000002</ele><time>2026-05-03T10:41:13.938Z</time></trkpt><trkpt lat="45.07135606591245" lon="9.290095539647163"><ele>159.4</ele><time>2026-05-03T10:41:14.938Z</time></trkpt><trkpt lat="45.07137212798752" lon="9.290219378053504"><ele>157.60000000000002</ele><time>2026-05-03T10:41:15.938Z</time></trkpt><trkpt lat="45.0713565844415" lon="9.290325959955013"><ele>155.8</ele><time>2026-05-03T10:41:16.938Z</time></trkpt><trkpt lat="45.07131650943496" lon="9.29049992329317"><ele>154.0</ele><time>2026-05-03T10:41:18.938Z</time></trkpt><trkpt lat="45.07126079301795" lon="9.290566231665434"><ele>152.25</ele><time>2026-05-03T10:41:19.938Z</time></trkpt><trkpt lat="45.07119598950715" lon="9.290596482723268"><ele>150.5</ele><time>2026-05-03T10:41:20.938Z</time></trkpt><trkpt lat="45.07112937714974" lon="9.290605936547772"><ele>148.75</ele><time>2026-05-03T10:41:21.938Z</time></trkpt><trkpt lat="45.07101217478853" lon="9.29059843435685"><ele>147.0</ele><time>2026-05-03T10:41:23.938Z</time></trkpt><trkpt lat="45.07325110106868" lon="9.291191709347055"><ele>142.5</ele><time>2026-05-03T10:42:24.937Z</time></trkpt><trkpt lat="45.07335877477063" lon="9.29107893470753"><ele>138.0</ele><time>2026-05-03T10:42:25.937Z</time></trkpt><trkpt lat="45.07347149234701" lon="9.290970368129255"><ele>133.5</ele><time>2026-05-03T10:42:26.937Z</time></trkpt><trkpt lat="45.07359703675465" lon="9.290890318358523"><ele>129.0</ele><time>2026-05-03T10:42:27.937Z</time></trkpt><trkpt lat="45.07369598905454" lon="9.290770397355102"><ele>129.0</ele><time>2026-05-03T10:42:28.937Z</time></trkpt><trkpt lat="45.073799937475044" lon="9.290676890149879"><ele>129.0</ele><time>2026-05-03T10:42:29.937Z</time></trkpt><trkpt lat="45.07389938476183" lon="9.290584206697659"><ele>129.0</ele><time>2026-05-03T10:42:30.937Z</time></trkpt><trkpt lat="45.073991284872676" lon="9.290476436716691"><ele>129.0</ele><time>2026-05-03T10:42:31.937Z</time></trkpt><trkpt lat="45.07410734826312" lon="9.290390928900727"><ele>128.5</ele><time>2026-05-03T10:42:32.937Z</time></trkpt><trkpt lat="45.07418624841359" lon="9.290250534489624"><ele>128.0</ele><time>2026-05-03T10:42:33.936Z</time></trkpt><trkpt lat="45.07425421469928" lon="9.290104782950943"><ele>127.5</ele><time>2026-05-03T10:42:34.936Z</time></trkpt><trkpt lat="45.074306758697965" lon="9.289944456752792"><ele>127.0</ele><time>2026-05-03T10:42:35.936Z</time></trkpt><trkpt lat="45.0743362930071" lon="9.289777521978605"><ele>127.0</ele><time>2026-05-03T10:42:36.936Z</time></trkpt><trkpt lat="45.07433519716402" lon="9.289615680480594"><ele>127.0</ele><time>2026-05-03T10:42:37.936Z</time></trkpt><trkpt lat="45.074367099243055" lon="9.289449911020444"><ele>127.0</ele><time>2026-05-03T10:42:38.936Z</time></trkpt><trkpt lat="45.07437770246977" lon="9.289276764593144"><ele>127.0</ele><time>2026-05-03T10:42:39.936Z</time></trkpt><trkpt lat="45.074391165823656" lon="9.289094886329467"><ele>126.0</ele><time>2026-05-03T10:42:40.936Z</time></trkpt><trkpt lat="45.074403659526716" lon="9.288905659221268"><ele>125.0</ele><time>2026-05-03T10:42:41.936Z</time></trkpt><trkpt lat="45.074414817563955" lon="9.28870839366997"><ele>124.0</ele><time>2026-05-03T10:42:42.936Z</time></trkpt><trkpt lat="45.074432508042655" lon="9.288501257671902"><ele>123.0</ele><time>2026-05-03T10:42:43.936Z</time></trkpt><trkpt lat="45.074446260567655" lon="9.288293624034283"><ele>122.25</ele><time>2026-05-03T10:42:44.936Z</time></trkpt><trkpt lat="45.07446442019748" lon="9.288091880055708"><ele>121.5</ele><time>2026-05-03T10:42:45.936Z</time></trkpt><trkpt lat="45.07447437152948" lon="9.287900476494395"><ele>120.75</ele><time>2026-05-03T10:42:46.936Z</time></trkpt><trkpt lat="45.07449363271392" lon="9.287705025356216"><ele>120.0</ele><time>2026-05-03T10:42:47.936Z</time></trkpt><trkpt lat="45.074522000257765" lon="9.287514071368847"><ele>120.0</ele><time>2026-05-03T10:42:48.936Z</time></trkpt><trkpt lat="45.074554741423185" lon="9.287322403573187"><ele>120.0</ele><time>2026-05-03T10:42:49.936Z</time></trkpt><trkpt lat="45.074602314386084" lon="9.287149206796554"><ele>120.0</ele><time>2026-05-03T10:42:50.936Z</time></trkpt><trkpt lat="45.07464410129801" lon="9.28698543337765"><ele>120.0</ele><time>2026-05-03T10:42:51.936Z</time></trkpt><trkpt lat="45.07468724725945" lon="9.286824853862322"><ele>119.2</ele><time>2026-05-03T10:42:52.936Z</time></trkpt><trkpt lat="45.07472764720126" lon="9.28666994411319"><ele>118.4</ele><time>2026-05-03T10:42:53.936Z</time></trkpt><trkpt lat="45.07477189261235" lon="9.286524971301798"><ele>117.6</ele><time>2026-05-03T10:42:54.936Z</time></trkpt><trkpt lat="45.074810515352006" lon="9.286382634885541"><ele>116.8</ele><time>2026-05-03T10:42:55.937Z</time></trkpt><trkpt lat="45.0748478343078" lon="9.286243849222789"><ele>116.0</ele><time>2026-05-03T10:42:56.938Z</time></trkpt><trkpt lat="45.074884506913115" lon="9.286106275385006"><ele>116.0</ele><time>2026-05-03T10:42:57.938Z</time></trkpt><trkpt lat="45.074921975192595" lon="9.285967636468554"><ele>116.0</ele><time>2026-05-03T10:42:58.938Z</time></trkpt><trkpt lat="45.07496100248859" lon="9.28582874764056"><ele>116.0</ele><time>2026-05-03T10:42:59.938Z</time></trkpt><trkpt lat="45.074999601410504" lon="9.28568862286003"><ele>116.0</ele><time>2026-05-03T10:43:00.938Z</time></trkpt><trkpt lat="45.07503602576056" lon="9.28555013792747"><ele>116.0</ele><time>2026-05-03T10:43:01.938Z</time></trkpt><trkpt lat="45.0750753251338" lon="9.285413180475595"><ele>113.0</ele><time>2026-05-03T10:43:02.938Z</time></trkpt><trkpt lat="45.07511554266438" lon="9.28527357164751"><ele>110.0</ele><time>2026-05-03T10:43:03.938Z</time></trkpt><trkpt lat="45.07515247650032" lon="9.285136337958168"><ele>107.0</ele><time>2026-05-03T10:43:04.938Z</time></trkpt><trkpt lat="45.07518793870543" lon="9.284999247344283"><ele>104.0</ele><time>2026-05-03T10:43:05.937Z</time></trkpt><trkpt lat="45.07522235321109" lon="9.28486193027048"><ele>101.0</ele><time>2026-05-03T10:43:06.937Z</time></trkpt><trkpt lat="45.07525898767807" lon="9.284725711745802"><ele>100.6</ele><time>2026-05-03T10:43:07.938Z</time></trkpt><trkpt lat="45.075299905641764" lon="9.284590048845445"><ele>100.19999999999999</ele><time>2026-05-03T10:43:08.937Z</time></trkpt><trkpt lat="45.075337687006396" lon="9.284458404538523"><ele>99.80000000000001</ele><time>2026-05-03T10:43:09.937Z</time></trkpt><trkpt lat="45.07537379091313" lon="9.284331190440303"><ele>99.4</ele><time>2026-05-03T10:43:10.937Z</time></trkpt><trkpt lat="45.07540256372625" lon="9.284214938043565"><ele>99.0</ele><time>2026-05-03T10:43:11.937Z</time></trkpt><trkpt lat="45.07542504646462" lon="9.284111567286624"><ele>99.0</ele><time>2026-05-03T10:43:12.937Z</time></trkpt><trkpt lat="45.07545542713074" lon="9.284010704157351"><ele>99.0</ele><time>2026-05-03T10:43:13.937Z</time></trkpt><trkpt lat="45.075481279167434" lon="9.28391189275622"><ele>99.0</ele><time>2026-05-03T10:43:14.937Z</time></trkpt><trkpt lat="45.07550670089564" lon="9.28381244326901"><ele>99.0</ele><time>2026-05-03T10:43:15.937Z</time></trkpt><trkpt lat="45.07553491089823" lon="9.283715249163887"><ele>99.0</ele><time>2026-05-03T10:43:16.937Z</time></trkpt><trkpt lat="45.07556494165705" lon="9.283615239877616"><ele>99.0</ele><time>2026-05-03T10:43:17.937Z</time></trkpt><trkpt lat="45.07559279259618" lon="9.283516458381596"><ele>98.75</ele><time>2026-05-03T10:43:18.937Z</time></trkpt><trkpt lat="45.07561551804676" lon="9.28342689719964"><ele>98.5</ele><time>2026-05-03T10:43:19.937Z</time></trkpt><trkpt lat="45.075660053874785" lon="9.28327861095212"><ele>98.25</ele><time>2026-05-03T10:43:21.937Z</time></trkpt><trkpt lat="45.07572547009035" lon="9.28317552317908"><ele>98.0</ele><time>2026-05-03T10:43:23.937Z</time></trkpt><trkpt lat="45.078250486636925" lon="9.286692822735118"><ele>93.60000000000001</ele><time>2026-05-03T10:44:24.936Z</time></trkpt><trkpt lat="45.07834424185752" lon="9.28663772932226"><ele>89.2</ele><time>2026-05-03T10:44:25.936Z</time></trkpt><trkpt lat="45.07845016817561" lon="9.286612540466722"><ele>84.8</ele><time>2026-05-03T10:44:26.936Z</time></trkpt><trkpt lat="45.07856019676966" lon="9.286591584880979"><ele>80.4</ele><time>2026-05-03T10:44:27.936Z</time></trkpt><trkpt lat="45.07867515465836" lon="9.286585414262108"><ele>76.0</ele><time>2026-05-03T10:44:28.936Z</time></trkpt><trkpt lat="45.07878912516976" lon="9.286582908604199"><ele>76.0</ele><time>2026-05-03T10:44:29.936Z</time></trkpt><trkpt lat="45.07889293065943" lon="9.286577734981666"><ele>76.0</ele><time>2026-05-03T10:44:30.936Z</time></trkpt><trkpt lat="45.078990673623395" lon="9.286571331378148"><ele>76.0</ele><time>2026-05-03T10:44:31.936Z</time></trkpt><trkpt lat="45.07908863779365" lon="9.28656615785565"><ele>76.0</ele><time>2026-05-03T10:44:32.936Z</time></trkpt><trkpt lat="45.07918558985821" lon="9.286563938354817"><ele>76.0</ele><time>2026-05-03T10:44:33.935Z</time></trkpt><trkpt lat="45.07928339308939" lon="9.286563995350331"><ele>75.39999999999999</ele><time>2026-05-03T10:44:34.935Z</time></trkpt><trkpt lat="45.079383577504345" lon="9.286574647200936"><ele>74.8</ele><time>2026-05-03T10:44:35.935Z</time></trkpt><trkpt lat="45.07948799930491" lon="9.286611366591298"><ele>74.19999999999999</ele><time>2026-05-03T10:44:36.935Z</time></trkpt><trkpt lat="45.079593419029955" lon="9.28667308928784"><ele>73.6</ele><time>2026-05-03T10:44:37.935Z</time></trkpt><trkpt lat="45.07969173924713" lon="9.286757460305388"><ele>73.0</ele><time>2026-05-03T10:44:38.935Z</time></trkpt><trkpt lat="45.079795073640994" lon="9.286871977940361"><ele>73.0</ele><time>2026-05-03T10:44:39.935Z</time></trkpt><trkpt lat="45.0798775519452" lon="9.28700884237053"><ele>73.0</ele><time>2026-05-03T10:44:40.935Z</time></trkpt><trkpt lat="45.079935571807525" lon="9.287157345299827"><ele>73.0</ele><time>2026-05-03T10:44:41.935Z</time></trkpt><trkpt lat="45.07997547839941" lon="9.287326008070172"><ele>73.0</ele><time>2026-05-03T10:44:42.935Z</time></trkpt><trkpt lat="45.07999921153665" lon="9.28750270895531"><ele>72.75</ele><time>2026-05-03T10:44:43.935Z</time></trkpt><trkpt lat="45.080000616860474" lon="9.287696643551122"><ele>72.5</ele><time>2026-05-03T10:44:44.935Z</time></trkpt><trkpt lat="45.07997981576024" lon="9.287884485421296"><ele>72.25</ele><time>2026-05-03T10:44:45.935Z</time></trkpt><trkpt lat="45.07995206849247" lon="9.288076894730695"><ele>72.0</ele><time>2026-05-03T10:44:46.935Z</time></trkpt><trkpt lat="45.07992074961873" lon="9.288269449621115"><ele>72.0</ele><time>2026-05-03T10:44:47.935Z</time></trkpt><trkpt lat="45.07989658392598" lon="9.288457588331996"><ele>72.0</ele><time>2026-05-03T10:44:48.935Z</time></trkpt><trkpt lat="45.07987391428343" lon="9.288615738257398"><ele>72.0</ele><time>2026-05-03T10:44:49.935Z</time></trkpt><trkpt lat="45.079849378469" lon="9.28875596008814"><ele>72.0</ele><time>2026-05-03T10:44:50.935Z</time></trkpt><trkpt lat="45.07982767697176" lon="9.288886037180541"><ele>72.0</ele><time>2026-05-03T10:44:51.935Z</time></trkpt><trkpt lat="45.079808241730305" lon="9.28901264848293"><ele>72.4</ele><time>2026-05-03T10:44:52.935Z</time></trkpt><trkpt lat="45.079786993982516" lon="9.289123597597696"><ele>72.80000000000001</ele><time>2026-05-03T10:44:53.935Z</time></trkpt><trkpt lat="45.0797721431244" lon="9.289216429735088"><ele>73.2</ele><time>2026-05-03T10:44:54.935Z</time></trkpt><trkpt lat="45.079750754263294" lon="9.289376230694614"><ele>73.60000000000001</ele><time>2026-05-03T10:44:56.935Z</time></trkpt><trkpt lat="45.07972224246608" lon="9.289545978301442"><ele>74.0</ele><time>2026-05-03T10:44:58.935Z</time></trkpt><trkpt lat="45.07970345541878" lon="9.28965308959631"><ele>74.2</ele><time>2026-05-03T10:44:59.935Z</time></trkpt><trkpt lat="45.079688756598244" lon="9.289781374384162"><ele>74.4</ele><time>2026-05-03T10:45:00.935Z</time></trkpt><trkpt lat="45.079667973043364" lon="9.289943637960958"><ele>74.6</ele><time>2026-05-03T10:45:01.936Z</time></trkpt><trkpt lat="45.079644329774354" lon="9.290102564280637"><ele>74.8</ele><time>2026-05-03T10:45:02.935Z</time></trkpt><trkpt lat="45.079618298002075" lon="9.290247221655488"><ele>75.0</ele><time>2026-05-03T10:45:03.935Z</time></trkpt><trkpt lat="45.07960181781767" lon="9.290387984793199"><ele>75.0</ele><time>2026-05-03T10:45:04.935Z</time></trkpt><trkpt lat="45.07957982905477" lon="9.290521192850003"><ele>75.0</ele><time>2026-05-03T10:45:05.935Z</time></trkpt><trkpt lat="45.079568921319336" lon="9.290644838154792"><ele>75.0</ele><time>2026-05-03T10:45:06.935Z</time></trkpt><trkpt lat="45.07955364071905" lon="9.290769669271068"><ele>75.0</ele><time>2026-05-03T10:45:07.936Z</time></trkpt><trkpt lat="45.079540768984984" lon="9.290886067195503"><ele>75.0</ele><time>2026-05-03T10:45:08.936Z</time></trkpt><trkpt lat="45.07953587436955" lon="9.290999751199209"><ele>75.0</ele><time>2026-05-03T10:45:09.936Z</time></trkpt><trkpt lat="45.07953008751132" lon="9.291113750056722"><ele>74.99999999999999</ele><time>2026-05-03T10:45:10.936Z</time></trkpt><trkpt lat="45.07952823448768" lon="9.291228711959901"><ele>75.0</ele><time>2026-05-03T10:45:11.936Z</time></trkpt><trkpt lat="45.07952427443098" lon="9.291335314972153"><ele>75.0</ele><time>2026-05-03T10:45:12.936Z</time></trkpt><trkpt lat="45.07952143180985" lon="9.291426126677012"><ele>75.0</ele><time>2026-05-03T10:45:13.935Z</time></trkpt><trkpt lat="45.07952514803252" lon="9.291515376652393"><ele>75.0</ele><time>2026-05-03T10:45:14.935Z</time></trkpt><trkpt lat="45.07952485393143" lon="9.291605033285759"><ele>74.99999999999999</ele><time>2026-05-03T10:45:15.935Z</time></trkpt><trkpt lat="45.07950547983005" lon="9.291700766531717"><ele>75.0</ele><time>2026-05-03T10:45:16.935Z</time></trkpt><trkpt lat="45.07949351616096" lon="9.291812750236419"><ele>75.0</ele><time>2026-05-03T10:45:17.935Z</time></trkpt><trkpt lat="45.07948524801336" lon="9.291915588229756"><ele>75.0</ele><time>2026-05-03T10:45:18.935Z</time></trkpt><trkpt lat="45.079467234453205" lon="9.292011161255475"><ele>75.0</ele><time>2026-05-03T10:45:19.935Z</time></trkpt><trkpt lat="45.0794496351782" lon="9.292105230248735"><ele>75.0</ele><time>2026-05-03T10:45:20.935Z</time></trkpt><trkpt lat="45.07943506606783" lon="9.29219302000817"><ele>75.0</ele><time>2026-05-03T10:45:21.935Z</time></trkpt><trkpt lat="45.07941052661282" lon="9.29235937664681"><ele>75.0</ele><time>2026-05-03T10:45:23.935Z</time></trkpt><trkpt lat="45.08100845058975" lon="9.294184257891898"><ele>74.5</ele><time>2026-05-03T10:46:24.934Z</time></trkpt><trkpt lat="45.08109823083004" lon="9.294212702335575"><ele>74.0</ele><time>2026-05-03T10:46:35.934Z</time></trkpt><trkpt lat="45.08117128913677" lon="9.29422068142235"><ele>73.5</ele><time>2026-05-03T10:46:37.934Z</time></trkpt><trkpt lat="45.08125389399647" lon="9.294235367044246"><ele>73.0</ele><time>2026-05-03T10:46:40.934Z</time></trkpt><trkpt lat="45.08131299868323" lon="9.294288897165313"><ele>72.5</ele><time>2026-05-03T10:46:44.934Z</time></trkpt><trkpt lat="45.08137685708408" lon="9.294312826660144"><ele>72.0</ele><time>2026-05-03T10:46:51.933Z</time></trkpt><trkpt lat="45.08147355523147" lon="9.294385200470229"><ele>72.0</ele><time>2026-05-03T10:49:12.952Z</time></trkpt><trkpt lat="45.08131935387685" lon="9.294661104993107"><ele>72.0</ele><time>2026-05-03T10:53:34.941Z</time></trkpt><trkpt lat="45.0813036415343" lon="9.294747446937729"><ele>72.0</ele><time>2026-05-03T10:53:54.941Z</time></trkpt><trkpt lat="45.08128498441952" lon="9.294835928928773"><ele>72.0</ele><time>2026-05-03T10:54:08.941Z</time></trkpt><trkpt lat="45.081261881835" lon="9.294921480043932"><ele>72.0</ele><time>2026-05-03T10:54:19.941Z</time></trkpt><trkpt lat="45.081214114197074" lon="9.295563870288325"><ele>72.0</ele><time>2026-05-03T10:55:24.939Z</time></trkpt><trkpt lat="45.081258621357314" lon="9.295640690490819"><ele>72.0</ele><time>2026-05-03T10:55:38.938Z</time></trkpt><trkpt lat="45.08120579072919" lon="9.295741198050584"><ele>72.0</ele><time>2026-05-03T10:56:01.937Z</time></trkpt><trkpt lat="45.0812024734525" lon="9.295835174070435"><ele>72.0</ele><time>2026-05-03T10:56:09.937Z</time></trkpt><trkpt lat="45.081235250640866" lon="9.295919411613607"><ele>72.0</ele><time>2026-05-03T10:56:20.937Z</time></trkpt><trkpt lat="45.08142076634253" lon="9.296200884827241"><ele>72.0</ele><time>2026-05-03T10:57:24.936Z</time></trkpt><trkpt lat="45.081172945222285" lon="9.295987310344264"><ele>72.0</ele><time>2026-05-03T12:35:25.001Z</time></trkpt><trkpt lat="45.08115216211832" lon="9.295898136060583"><ele>72.0</ele><time>2026-05-03T12:35:52.001Z</time></trkpt><trkpt lat="45.08114922525012" lon="9.295801340615895"><ele>72.0</ele><time>2026-05-03T12:36:00.001Z</time></trkpt><trkpt lat="45.081175611154805" lon="9.295706596089834"><ele>72.0</ele><time>2026-05-03T12:36:09Z</time></trkpt><trkpt lat="45.08116100202175" lon="9.29561606307127"><ele>72.0</ele><time>2026-05-03T12:36:22.001Z</time></trkpt><trkpt lat="45.08126867408982" lon="9.294855503559525"><ele>72.0</ele><time>2026-05-03T12:37:25.001Z</time></trkpt><trkpt lat="45.0812772833088" lon="9.29475744508035"><ele>72.0</ele><time>2026-05-03T12:37:30.001Z</time></trkpt><trkpt lat="45.08130888312066" lon="9.294670213379634"><ele>72.0</ele><time>2026-05-03T12:37:38.001Z</time></trkpt><trkpt lat="45.08130066629124" lon="9.294575899762169"><ele>72.0</ele><time>2026-05-03T12:37:49.001Z</time></trkpt><trkpt lat="45.08096312193851" lon="9.294119198319837"><ele>72.0</ele><time>2026-05-03T12:43:25.002Z</time></trkpt><trkpt lat="45.080937697325865" lon="9.293985092536303"><ele>72.0</ele><time>2026-05-03T12:43:27.002Z</time></trkpt><trkpt lat="45.08093453631137" lon="9.293840895571817"><ele>72.0</ele><time>2026-05-03T12:43:29.002Z</time></trkpt><trkpt lat="45.08094059236305" lon="9.293683405981378"><ele>72.0</ele><time>2026-05-03T12:43:31.002Z</time></trkpt><trkpt lat="45.08093737637602" lon="9.293517991719126"><ele>72.0</ele><time>2026-05-03T12:43:33.002Z</time></trkpt><trkpt lat="45.08093774684146" lon="9.29342882653073"><ele>72.00000000000001</ele><time>2026-05-03T12:43:34.002Z</time></trkpt><trkpt lat="45.08094045293896" lon="9.293337253681806"><ele>72.0</ele><time>2026-05-03T12:43:35.002Z</time></trkpt><trkpt lat="45.08094393825169" lon="9.293243082396664"><ele>72.0</ele><time>2026-05-03T12:43:36.002Z</time></trkpt><trkpt lat="45.08095308286097" lon="9.293150694629368"><ele>72.0</ele><time>2026-05-03T12:43:37.002Z</time></trkpt><trkpt lat="45.08096870874064" lon="9.293060216487772"><ele>72.0</ele><time>2026-05-03T12:43:38.002Z</time></trkpt><trkpt lat="45.08098352586294" lon="9.292968053114464"><ele>72.00000000000001</ele><time>2026-05-03T12:43:39.002Z</time></trkpt><trkpt lat="45.08099354575391" lon="9.292823522831897"><ele>72.0</ele><time>2026-05-03T12:43:41.002Z</time></trkpt><trkpt lat="45.08100635770652" lon="9.292718503429978"><ele>72.0</ele><time>2026-05-03T12:43:43.002Z</time></trkpt><trkpt lat="45.08100109170296" lon="9.292589852862395"><ele>72.0</ele><time>2026-05-03T12:43:46Z</time></trkpt><trkpt lat="45.08102725270354" lon="9.292406052936755"><ele>72.0</ele><time>2026-05-03T12:43:47.999Z</time></trkpt><trkpt lat="45.081044703468606" lon="9.292300500515173"><ele>72.0</ele><time>2026-05-03T12:43:48.999Z</time></trkpt><trkpt lat="45.08106615377142" lon="9.292190157911968"><ele>72.0</ele><time>2026-05-03T12:43:49.998Z</time></trkpt><trkpt lat="45.08107617362598" lon="9.292073691830572"><ele>72.0</ele><time>2026-05-03T12:43:50.998Z</time></trkpt><trkpt lat="45.08109948428549" lon="9.29196512408071"><ele>72.0</ele><time>2026-05-03T12:43:51.998Z</time></trkpt><trkpt lat="45.081109921622975" lon="9.291866377773013"><ele>72.0</ele><time>2026-05-03T12:43:52.997Z</time></trkpt><trkpt lat="45.081139045257714" lon="9.291712157706897"><ele>72.0</ele><time>2026-05-03T12:43:54.997Z</time></trkpt><trkpt lat="45.08117501894752" lon="9.291521351654442"><ele>72.0</ele><time>2026-05-03T12:43:56.996Z</time></trkpt><trkpt lat="45.08119079223649" lon="9.291413287586634"><ele>71.66666666666667</ele><time>2026-05-03T12:43:57.996Z</time></trkpt><trkpt lat="45.081205927450604" lon="9.291298402089499"><ele>71.33333333333333</ele><time>2026-05-03T12:43:58.996Z</time></trkpt><trkpt lat="45.08122434655691" lon="9.29119071892322"><ele>71.0</ele><time>2026-05-03T12:43:59.995Z</time></trkpt><trkpt lat="45.08124416211257" lon="9.291070423067055"><ele>70.66666666666666</ele><time>2026-05-03T12:44:00.995Z</time></trkpt><trkpt lat="45.08126604523415" lon="9.290966821823094"><ele>70.33333333333333</ele><time>2026-05-03T12:44:01.995Z</time></trkpt><trkpt lat="45.08127457834966" lon="9.290799094402788"><ele>70.0</ele><time>2026-05-03T12:44:03.995Z</time></trkpt><trkpt lat="45.08119931640256" lon="9.290693148363738"><ele>70.0</ele><time>2026-05-03T12:44:05.994Z</time></trkpt><trkpt lat="45.08106976559714" lon="9.290687316214395"><ele>70.0</ele><time>2026-05-03T12:44:07.994Z</time></trkpt><trkpt lat="45.080999098238905" lon="9.290679841368348"><ele>70.0</ele><time>2026-05-03T12:44:08.994Z</time></trkpt><trkpt lat="45.08092311657309" lon="9.290656628528735"><ele>70.0</ele><time>2026-05-03T12:44:09.994Z</time></trkpt><trkpt lat="45.080839857636335" lon="9.290639005275347"><ele>70.0</ele><time>2026-05-03T12:44:10.994Z</time></trkpt><trkpt lat="45.08075448565145" lon="9.290619886023611"><ele>70.0</ele><time>2026-05-03T12:44:11.994Z</time></trkpt><trkpt lat="45.08066301247129" lon="9.29060092373979"><ele>70.6</ele><time>2026-05-03T12:44:12.993Z</time></trkpt><trkpt lat="45.08057235061822" lon="9.290584472670568"><ele>71.2</ele><time>2026-05-03T12:44:13.993Z</time></trkpt><trkpt lat="45.08048585372801" lon="9.290565256186982"><ele>71.8</ele><time>2026-05-03T12:44:14.993Z</time></trkpt><trkpt lat="45.08039655476978" lon="9.290539258992771"><ele>72.4</ele><time>2026-05-03T12:44:15.993Z</time></trkpt><trkpt lat="45.08030743616342" lon="9.290508394738282"><ele>73.0</ele><time>2026-05-03T12:44:16.993Z</time></trkpt><trkpt lat="45.08021340235773" lon="9.290491653450728"><ele>73.0</ele><time>2026-05-03T12:44:17.993Z</time></trkpt><trkpt lat="45.08012471591669" lon="9.290472117478236"><ele>73.0</ele><time>2026-05-03T12:44:18.993Z</time></trkpt><trkpt lat="45.080038980128364" lon="9.290460626546219"><ele>73.0</ele><time>2026-05-03T12:44:19.993Z</time></trkpt><trkpt lat="45.079959886039425" lon="9.290438918785865"><ele>73.0</ele><time>2026-05-03T12:44:20.993Z</time></trkpt><trkpt lat="45.07989491258032" lon="9.290422360390108"><ele>73.0</ele><time>2026-05-03T12:44:21.993Z</time></trkpt><trkpt lat="45.07978062802638" lon="9.290397228468121"><ele>73.0</ele><time>2026-05-03T12:44:23.993Z</time></trkpt><trkpt lat="45.077814354189606" lon="9.286516839222287"><ele>74.16666666666666</ele><time>2026-05-03T12:45:24.992Z</time></trkpt><trkpt lat="45.07779980723782" lon="9.286385894138611"><ele>75.33333333333333</ele><time>2026-05-03T12:45:25.992Z</time></trkpt><trkpt lat="45.07777107130671" lon="9.286256102582831"><ele>76.5</ele><time>2026-05-03T12:45:26.992Z</time></trkpt><trkpt lat="45.077743100605765" lon="9.286136623256935"><ele>77.66666666666667</ele><time>2026-05-03T12:45:27.992Z</time></trkpt><trkpt lat="45.07771510366389" lon="9.286036411307467"><ele>78.83333333333334</ele><time>2026-05-03T12:45:28.992Z</time></trkpt><trkpt lat="45.07769088166186" lon="9.28595100439516"><ele>80.0</ele><time>2026-05-03T12:45:29.992Z</time></trkpt><trkpt lat="45.07767510823074" lon="9.285811280655071"><ele>80.0</ele><time>2026-05-03T12:45:31.992Z</time></trkpt><trkpt lat="45.07773915030908" lon="9.285672297936944"><ele>80.0</ele><time>2026-05-03T12:45:33.992Z</time></trkpt><trkpt lat="45.07779072191528" lon="9.285607581347099"><ele>80.0</ele><time>2026-05-03T12:45:34.992Z</time></trkpt><trkpt lat="45.07785662929015" lon="9.285569399627777"><ele>80.0</ele><time>2026-05-03T12:45:35.992Z</time></trkpt><trkpt lat="45.0779340270594" lon="9.285535925398065"><ele>80.0</ele><time>2026-05-03T12:45:36.992Z</time></trkpt><trkpt lat="45.07800566529817" lon="9.28548942276599"><ele>80.0</ele><time>2026-05-03T12:45:37.992Z</time></trkpt><trkpt lat="45.07807416360867" lon="9.285450207606837"><ele>80.0</ele><time>2026-05-03T12:45:38.992Z</time></trkpt><trkpt lat="45.07814130255996" lon="9.28540040758603"><ele>80.0</ele><time>2026-05-03T12:45:39.992Z</time></trkpt><trkpt lat="45.078206817492394" lon="9.285352200383468"><ele>80.0</ele><time>2026-05-03T12:45:40.992Z</time></trkpt><trkpt lat="45.07826670347893" lon="9.285314809917784"><ele>80.0</ele><time>2026-05-03T12:45:41.992Z</time></trkpt><trkpt lat="45.078325981060665" lon="9.28527806565905"><ele>80.0</ele><time>2026-05-03T12:45:42.992Z</time></trkpt><trkpt lat="45.07841781460527" lon="9.285234918838803"><ele>80.0</ele><time>2026-05-03T12:45:44.992Z</time></trkpt><trkpt lat="45.07850165860183" lon="9.285166624942727"><ele>79.0</ele><time>2026-05-03T12:45:46.992Z</time></trkpt><trkpt lat="45.078515259929226" lon="9.285012517117853"><ele>78.0</ele><time>2026-05-03T12:45:48.992Z</time></trkpt><trkpt lat="45.07850561800383" lon="9.284883201760756"><ele>77.0</ele><time>2026-05-03T12:45:50.992Z</time></trkpt><trkpt lat="45.078497939952975" lon="9.284768190456772"><ele>76.0</ele><time>2026-05-03T12:45:52.992Z</time></trkpt><trkpt lat="45.07855215539634" lon="9.284679253244057"><ele>75.0</ele><time>2026-05-03T12:45:55.992Z</time></trkpt><trkpt lat="45.07830267500498" lon="9.284317836106956"><ele>74.66666666666667</ele><time>2026-05-03T12:48:24.991Z</time></trkpt><trkpt lat="45.078378175476324" lon="9.284220063477322"><ele>74.33333333333334</ele><time>2026-05-03T12:49:22.991Z</time></trkpt><trkpt lat="45.07859860599884" lon="9.284526696775783"><ele>74.0</ele><time>2026-05-03T12:51:34.991Z</time></trkpt><trkpt lat="45.0785025517371" lon="9.284307683108292"><ele>74.0</ele><time>2026-05-03T12:53:52.133Z</time></trkpt><trkpt lat="45.07839233359721" lon="9.284316828305357"><ele>74.0</ele><time>2026-05-03T12:53:59.99Z</time></trkpt><trkpt lat="45.07827053974523" lon="9.284333630978685"><ele>74.0</ele><time>2026-05-03T12:54:01.99Z</time></trkpt><trkpt lat="45.078455606810735" lon="9.284194059489748"><ele>74.0</ele><time>2026-05-03T13:08:34.988Z</time></trkpt><trkpt lat="45.07839237907834" lon="9.284202646922362"><ele>74.0</ele><time>2026-05-03T13:08:44.988Z</time></trkpt><trkpt lat="45.07850455409929" lon="9.284581298357912"><ele>74.0</ele><time>2026-05-03T13:14:24.988Z</time></trkpt><trkpt lat="45.07854407494086" lon="9.284674688767357"><ele>74.0</ele><time>2026-05-03T13:14:32.987Z</time></trkpt><trkpt lat="45.07859895095037" lon="9.28473262060685"><ele>74.0</ele><time>2026-05-03T13:14:40.987Z</time></trkpt><trkpt lat="45.078583186130096" lon="9.284614599327602"><ele>75.0</ele><time>2026-05-03T13:15:22.987Z</time></trkpt><trkpt lat="45.07885375328934" lon="9.289062423151975"><ele>75.0</ele><time>2026-05-03T13:20:24.95Z</time></trkpt><trkpt lat="45.07882943440873" lon="9.289231299703461"><ele>75.0</ele><time>2026-05-03T13:20:25.95Z</time></trkpt><trkpt lat="45.078829709465666" lon="9.28941944917714"><ele>75.0</ele><time>2026-05-03T13:20:26.95Z</time></trkpt><trkpt lat="45.07876084788116" lon="9.289621360506244"><ele>75.0</ele><time>2026-05-03T13:20:27.95Z</time></trkpt><trkpt lat="45.07871371431413" lon="9.289812039837503"><ele>75.33333333333333</ele><time>2026-05-03T13:20:28.95Z</time></trkpt><trkpt lat="45.078659671859825" lon="9.28999742206653"><ele>75.66666666666666</ele><time>2026-05-03T13:20:29.95Z</time></trkpt><trkpt lat="45.078600061222595" lon="9.290192013828744"><ele>76.0</ele><time>2026-05-03T13:20:30.95Z</time></trkpt><trkpt lat="45.07883354436101" lon="9.290410990662174"><ele>76.0</ele><time>2026-05-03T13:20:31.95Z</time></trkpt><trkpt lat="45.07882464539197" lon="9.290639715161314"><ele>76.0</ele><time>2026-05-03T13:20:32.95Z</time></trkpt><trkpt lat="45.07816605750572" lon="9.290761340159674"><ele>76.0</ele><time>2026-05-03T13:20:33.95Z</time></trkpt><trkpt lat="45.07891339361599" lon="9.290752585143832"><ele>76.0</ele><time>2026-05-03T13:20:34.95Z</time></trkpt><trkpt lat="45.07892063724183" lon="9.290904863322247"><ele>76.0</ele><time>2026-05-03T13:20:35.95Z</time></trkpt><trkpt lat="45.07892091373331" lon="9.291037028588635"><ele>76.0</ele><time>2026-05-03T13:20:36.95Z</time></trkpt><trkpt lat="45.07892949815172" lon="9.291153994784436"><ele>76.0</ele><time>2026-05-03T13:20:37.95Z</time></trkpt><trkpt lat="45.0789145342079" lon="9.291258741207198"><ele>76.0</ele><time>2026-05-03T13:20:38.951Z</time></trkpt><trkpt lat="45.078915591950796" lon="9.291349483458124"><ele>76.0</ele><time>2026-05-03T13:20:39.95Z</time></trkpt><trkpt lat="45.07891601488358" lon="9.291498640914355"><ele>76.33333333333333</ele><time>2026-05-03T13:20:41.95Z</time></trkpt><trkpt lat="45.07891657891558" lon="9.291613317731084"><ele>76.66666666666666</ele><time>2026-05-03T13:20:43.951Z</time></trkpt><trkpt lat="45.078929950165374" lon="9.291701636597953"><ele>77.0</ele><time>2026-05-03T13:20:46.95Z</time></trkpt><trkpt lat="45.07891623317165" lon="9.291792449004014"><ele>77.33333333333333</ele><time>2026-05-03T13:21:05.949Z</time></trkpt><trkpt lat="45.0789154521081" lon="9.291904308450706"><ele>77.66666666666667</ele><time>2026-05-03T13:21:06.949Z</time></trkpt><trkpt lat="45.078914556243426" lon="9.292032608951525"><ele>78.0</ele><time>2026-05-03T13:21:07.949Z</time></trkpt><trkpt lat="45.07891346601896" lon="9.292188741728067"><ele>78.25</ele><time>2026-05-03T13:21:08.949Z</time></trkpt><trkpt lat="45.07891477160273" lon="9.292371387651803"><ele>78.5</ele><time>2026-05-03T13:21:09.949Z</time></trkpt><trkpt lat="45.07891553203067" lon="9.292574580263095"><ele>78.75</ele><time>2026-05-03T13:21:10.949Z</time></trkpt><trkpt lat="45.07891372194648" lon="9.292777481895575"><ele>79.0</ele><time>2026-05-03T13:21:11.949Z</time></trkpt><trkpt lat="45.0789176939075" lon="9.2930021535785"><ele>79.33333333333333</ele><time>2026-05-03T13:21:12.949Z</time></trkpt><trkpt lat="45.07892493141185" lon="9.293235150352581"><ele>79.66666666666667</ele><time>2026-05-03T13:21:13.949Z</time></trkpt><trkpt lat="45.07892611344069" lon="9.293465423975901"><ele>80.0</ele><time>2026-05-03T13:21:14.949Z</time></trkpt><trkpt lat="45.07892547110557" lon="9.29369218227575"><ele>79.0</ele><time>2026-05-03T13:21:15.949Z</time></trkpt><trkpt lat="45.07892595984876" lon="9.293924718640051"><ele>78.0</ele><time>2026-05-03T13:21:16.949Z</time></trkpt><trkpt lat="45.07892260937035" lon="9.294164004544296"><ele>77.0</ele><time>2026-05-03T13:21:17.949Z</time></trkpt><trkpt lat="45.07892856436289" lon="9.294397812198246"><ele>77.0</ele><time>2026-05-03T13:21:18.949Z</time></trkpt><trkpt lat="45.07893119033156" lon="9.294643727922312"><ele>77.0</ele><time>2026-05-03T13:21:19.949Z</time></trkpt><trkpt lat="45.078932852779324" lon="9.294895850717305"><ele>77.0</ele><time>2026-05-03T13:21:20.949Z</time></trkpt><trkpt lat="45.07893416147521" lon="9.29514961647788"><ele>76.66666666666667</ele><time>2026-05-03T13:21:21.949Z</time></trkpt><trkpt lat="45.07893657529638" lon="9.295405861517336"><ele>76.33333333333333</ele><time>2026-05-03T13:21:22.949Z</time></trkpt><trkpt lat="45.07893157926732" lon="9.295664189404517"><ele>76.0</ele><time>2026-05-03T13:21:23.949Z</time></trkpt><trkpt lat="45.078936156770176" lon="9.30179201092746"><ele>76.39999999999999</ele><time>2026-05-03T13:22:24.947Z</time></trkpt><trkpt lat="45.07891257707654" lon="9.301941901988846"><ele>76.8</ele><time>2026-05-03T13:22:38.947Z</time></trkpt><trkpt lat="45.07890929422368" lon="9.302042648960741"><ele>77.19999999999999</ele><time>2026-05-03T13:22:39.947Z</time></trkpt><trkpt lat="45.078904996647275" lon="9.302161710651632"><ele>77.6</ele><time>2026-05-03T13:22:40.947Z</time></trkpt><trkpt lat="45.0788936530373" lon="9.302288986286047"><ele>78.0</ele><time>2026-05-03T13:22:41.948Z</time></trkpt><trkpt lat="45.078885343514216" lon="9.302451673075158"><ele>78.0</ele><time>2026-05-03T13:22:42.949Z</time></trkpt><trkpt lat="45.07887645361959" lon="9.302627659593654"><ele>78.0</ele><time>2026-05-03T13:22:43.949Z</time></trkpt><trkpt lat="45.078865709053055" lon="9.30280426565149"><ele>78.0</ele><time>2026-05-03T13:22:44.948Z</time></trkpt><trkpt lat="45.07885387681956" lon="9.303001514117886"><ele>78.0</ele><time>2026-05-03T13:22:45.949Z</time></trkpt><trkpt lat="45.078839593952445" lon="9.303200786796065"><ele>78.0</ele><time>2026-05-03T13:22:46.949Z</time></trkpt><trkpt lat="45.07882326729115" lon="9.303408535698265"><ele>78.0</ele><time>2026-05-03T13:22:47.949Z</time></trkpt><trkpt lat="45.07879759452803" lon="9.303624285517586"><ele>78.0</ele><time>2026-05-03T13:22:48.948Z</time></trkpt><trkpt lat="45.07876140142785" lon="9.303836951952045"><ele>78.33333333333333</ele><time>2026-05-03T13:22:49.948Z</time></trkpt><trkpt lat="45.07873324278749" lon="9.304068850600713"><ele>78.66666666666666</ele><time>2026-05-03T13:22:50.949Z</time></trkpt><trkpt lat="45.07866930274881" lon="9.304271604161555"><ele>79.0</ele><time>2026-05-03T13:22:51.949Z</time></trkpt><trkpt lat="45.078524639247206" lon="9.304409723776626"><ele>79.0</ele><time>2026-05-03T13:22:52.949Z</time></trkpt><trkpt lat="45.07843292711781" lon="9.304583088499081"><ele>79.0</ele><time>2026-05-03T13:22:53.949Z</time></trkpt><trkpt lat="45.07832539275204" lon="9.304750019426901"><ele>79.0</ele><time>2026-05-03T13:22:54.949Z</time></trkpt><trkpt lat="45.07821717367976" lon="9.304886357152425"><ele>79.0</ele><time>2026-05-03T13:22:55.948Z</time></trkpt><trkpt lat="45.07810286189833" lon="9.305010191980577"><ele>79.0</ele><time>2026-05-03T13:22:56.948Z</time></trkpt><trkpt lat="45.07799264094" lon="9.305118504415253"><ele>79.0</ele><time>2026-05-03T13:22:57.948Z</time></trkpt><trkpt lat="45.07788766532919" lon="9.305214883034301"><ele>79.0</ele><time>2026-05-03T13:22:58.948Z</time></trkpt><trkpt lat="45.07779280946897" lon="9.305298131747142"><ele>79.0</ele><time>2026-05-03T13:22:59.948Z</time></trkpt><trkpt lat="45.07771330085549" lon="9.305367820687087"><ele>79.0</ele><time>2026-05-03T13:23:00.948Z</time></trkpt><trkpt lat="45.07764877878421" lon="9.305433107724259"><ele>79.0</ele><time>2026-05-03T13:23:01.948Z</time></trkpt><trkpt lat="45.07756275916651" lon="9.30550558719941"><ele>79.0</ele><time>2026-05-03T13:23:03.948Z</time></trkpt><trkpt lat="45.07749686992242" lon="9.305555647755547"><ele>79.0</ele><time>2026-05-03T13:23:06.948Z</time></trkpt><trkpt lat="45.077435525815645" lon="9.305612985983773"><ele>79.0</ele><time>2026-05-03T13:23:15.948Z</time></trkpt><trkpt lat="45.07732648635999" lon="9.305698648477046"><ele>79.2</ele><time>2026-05-03T13:23:17.948Z</time></trkpt><trkpt lat="45.07725642206834" lon="9.305759157982552"><ele>79.4</ele><time>2026-05-03T13:23:18.948Z</time></trkpt><trkpt lat="45.07716490748567" lon="9.305835345936469"><ele>79.6</ele><time>2026-05-03T13:23:19.948Z</time></trkpt><trkpt lat="45.077056333368965" lon="9.305900324225696"><ele>79.8</ele><time>2026-05-03T13:23:20.948Z</time></trkpt><trkpt lat="45.07695381929304" lon="9.305982736682225"><ele>80.0</ele><time>2026-05-03T13:23:21.948Z</time></trkpt><trkpt lat="45.076848390504274" lon="9.30608344317651"><ele>80.0</ele><time>2026-05-03T13:23:22.948Z</time></trkpt><trkpt lat="45.07673509990442" lon="9.306175693719782"><ele>80.0</ele><time>2026-05-03T13:23:23.948Z</time></trkpt><trkpt lat="45.07163546741491" lon="9.315716461061164"><ele>81.5</ele><time>2026-05-03T13:24:24.946Z</time></trkpt><trkpt lat="45.07158115514729" lon="9.315793299129252"><ele>83.0</ele><time>2026-05-03T13:24:25.946Z</time></trkpt><trkpt lat="45.071549550227545" lon="9.315879676641206"><ele>84.5</ele><time>2026-05-03T13:24:26.946Z</time></trkpt><trkpt lat="45.07154150934858" lon="9.315979327975164"><ele>86.0</ele><time>2026-05-03T13:24:27.946Z</time></trkpt><trkpt lat="45.07157677881601" lon="9.316072468781291"><ele>87.5</ele><time>2026-05-03T13:24:28.946Z</time></trkpt><trkpt lat="45.07164410792654" lon="9.31614430592754"><ele>89.0</ele><time>2026-05-03T13:24:29.946Z</time></trkpt><trkpt lat="45.07172235729867" lon="9.316177238955637"><ele>89.0</ele><time>2026-05-03T13:24:30.946Z</time></trkpt><trkpt lat="45.071816301239394" lon="9.316204373782023"><ele>89.0</ele><time>2026-05-03T13:24:31.946Z</time></trkpt><trkpt lat="45.0719140022241" lon="9.316267969959569"><ele>89.0</ele><time>2026-05-03T13:24:32.946Z</time></trkpt><trkpt lat="45.07201068976627" lon="9.316375616896142"><ele>89.0</ele><time>2026-05-03T13:24:33.946Z</time></trkpt><trkpt lat="45.07207289722064" lon="9.316552451233989"><ele>90.0</ele><time>2026-05-03T13:24:34.946Z</time></trkpt><trkpt lat="45.072142964665304" lon="9.316732987417309"><ele>91.0</ele><time>2026-05-03T13:24:35.946Z</time></trkpt><trkpt lat="45.07220393128374" lon="9.31693321558093"><ele>92.0</ele><time>2026-05-03T13:24:36.946Z</time></trkpt><trkpt lat="45.07225424239036" lon="9.31715363559876"><ele>92.66666666666667</ele><time>2026-05-03T13:24:37.946Z</time></trkpt><trkpt lat="45.072302004088115" lon="9.317388123313668"><ele>93.33333333333333</ele><time>2026-05-03T13:24:38.946Z</time></trkpt><trkpt lat="45.07234542079779" lon="9.317635684152352"><ele>94.0</ele><time>2026-05-03T13:24:39.946Z</time></trkpt><trkpt lat="45.07239268033702" lon="9.317905946558827"><ele>93.33333333333333</ele><time>2026-05-03T13:24:40.946Z</time></trkpt><trkpt lat="45.072442536783086" lon="9.318173343014932"><ele>92.66666666666667</ele><time>2026-05-03T13:24:41.946Z</time></trkpt><trkpt lat="45.07250083536888" lon="9.318444756057158"><ele>92.0</ele><time>2026-05-03T13:24:42.946Z</time></trkpt><trkpt lat="45.0725697574687" lon="9.318703368792614"><ele>93.0</ele><time>2026-05-03T13:24:43.946Z</time></trkpt><trkpt lat="45.07266725964552" lon="9.318961147321547"><ele>94.0</ele><time>2026-05-03T13:24:44.946Z</time></trkpt><trkpt lat="45.07276396188141" lon="9.319225344900298"><ele>95.0</ele><time>2026-05-03T13:24:45.946Z</time></trkpt><trkpt lat="45.07287781060791" lon="9.319476303149445"><ele>95.0</ele><time>2026-05-03T13:24:46.946Z</time></trkpt><trkpt lat="45.07301152034938" lon="9.319721648613251"><ele>95.0</ele><time>2026-05-03T13:24:47.947Z</time></trkpt><trkpt lat="45.07313449026174" lon="9.319954764156707"><ele>95.0</ele><time>2026-05-03T13:24:48.947Z</time></trkpt><trkpt lat="45.07327964531127" lon="9.320145468842089"><ele>95.66666666666667</ele><time>2026-05-03T13:24:49.947Z</time></trkpt><trkpt lat="45.07340731012992" lon="9.320326097881999"><ele>96.33333333333334</ele><time>2026-05-03T13:24:50.947Z</time></trkpt><trkpt lat="45.07354760049314" lon="9.32048788368324"><ele>97.0</ele><time>2026-05-03T13:24:51.947Z</time></trkpt><trkpt lat="45.073698798939766" lon="9.320638542988599"><ele>97.33333333333334</ele><time>2026-05-03T13:24:52.947Z</time></trkpt><trkpt lat="45.07385339063416" lon="9.32077954414516"><ele>97.66666666666666</ele><time>2026-05-03T13:24:53.947Z</time></trkpt><trkpt lat="45.074008312231314" lon="9.320908155460852"><ele>98.0</ele><time>2026-05-03T13:24:54.946Z</time></trkpt><trkpt lat="45.07416752626017" lon="9.321024986742156"><ele>97.33333333333333</ele><time>2026-05-03T13:24:55.946Z</time></trkpt><trkpt lat="45.074331652149944" lon="9.321135318291452"><ele>96.66666666666666</ele><time>2026-05-03T13:24:56.947Z</time></trkpt><trkpt lat="45.074500153465564" lon="9.321239867799079"><ele>96.0</ele><time>2026-05-03T13:24:57.946Z</time></trkpt><trkpt lat="45.07467012256789" lon="9.321345261930706"><ele>96.33333333333334</ele><time>2026-05-03T13:24:58.946Z</time></trkpt><trkpt lat="45.07484420789759" lon="9.321446408337248"><ele>96.66666666666667</ele><time>2026-05-03T13:24:59.947Z</time></trkpt><trkpt lat="45.075015688654176" lon="9.321545759050606"><ele>97.0</ele><time>2026-05-03T13:25:00.947Z</time></trkpt><trkpt lat="45.075181752147046" lon="9.32164122764941"><ele>96.33333333333334</ele><time>2026-05-03T13:25:01.947Z</time></trkpt><trkpt lat="45.075345296819634" lon="9.321736362248071"><ele>95.66666666666667</ele><time>2026-05-03T13:25:02.947Z</time></trkpt><trkpt lat="45.07550412058253" lon="9.321817361745987"><ele>95.0</ele><time>2026-05-03T13:25:03.946Z</time></trkpt><trkpt lat="45.075661024596535" lon="9.321882593250862"><ele>94.66666666666667</ele><time>2026-05-03T13:25:04.946Z</time></trkpt><trkpt lat="45.075822979113994" lon="9.321936545942416"><ele>94.33333333333333</ele><time>2026-05-03T13:25:05.946Z</time></trkpt><trkpt lat="45.07598151084231" lon="9.32198407253541"><ele>94.0</ele><time>2026-05-03T13:25:06.946Z</time></trkpt><trkpt lat="45.07613534619909" lon="9.322023456416574"><ele>94.0</ele><time>2026-05-03T13:25:07.946Z</time></trkpt><trkpt lat="45.07629538965122" lon="9.322054035675292"><ele>94.0</ele><time>2026-05-03T13:25:08.946Z</time></trkpt><trkpt lat="45.07645616541345" lon="9.322074799634928"><ele>94.0</ele><time>2026-05-03T13:25:09.946Z</time></trkpt><trkpt lat="45.07662101142825" lon="9.322095872791564"><ele>91.66666666666666</ele><time>2026-05-03T13:25:10.946Z</time></trkpt><trkpt lat="45.076788270829354" lon="9.322090614303452"><ele>89.33333333333333</ele><time>2026-05-03T13:25:11.946Z</time></trkpt><trkpt lat="45.07694741896015" lon="9.3220923148176"><ele>87.0</ele><time>2026-05-03T13:25:12.946Z</time></trkpt><trkpt lat="45.07710348136676" lon="9.322078334968177"><ele>87.0</ele><time>2026-05-03T13:25:13.946Z</time></trkpt><trkpt lat="45.07725821800205" lon="9.322063252734393"><ele>87.0</ele><time>2026-05-03T13:25:14.946Z</time></trkpt><trkpt lat="45.077400843687386" lon="9.322044964321304"><ele>87.0</ele><time>2026-05-03T13:25:15.946Z</time></trkpt><trkpt lat="45.07754928195836" lon="9.32201609303646"><ele>87.0</ele><time>2026-05-03T13:25:16.946Z</time></trkpt><trkpt lat="45.077678961555534" lon="9.3219936560096"><ele>84.0</ele><time>2026-05-03T13:25:17.946Z</time></trkpt><trkpt lat="45.07780114688913" lon="9.321975258134627"><ele>81.0</ele><time>2026-05-03T13:25:18.946Z</time></trkpt><trkpt lat="45.077921216092165" lon="9.321949556189997"><ele>78.0</ele><time>2026-05-03T13:25:19.946Z</time></trkpt><trkpt lat="45.07803844736287" lon="9.32192191665802"><ele>75.0</ele><time>2026-05-03T13:25:20.946Z</time></trkpt><trkpt lat="45.07815359854182" lon="9.321902760251922"><ele>75.0</ele><time>2026-05-03T13:25:21.946Z</time></trkpt><trkpt lat="45.07825773077211" lon="9.321881174956701"><ele>75.0</ele><time>2026-05-03T13:25:22.946Z</time></trkpt><trkpt lat="45.07835453829286" lon="9.321856300303331"><ele>75.0</ele><time>2026-05-03T13:25:23.946Z</time></trkpt><trkpt lat="45.086181418313025" lon="9.323593512821445"><ele>73.0</ele><time>2026-05-03T13:26:24.945Z</time></trkpt><trkpt lat="45.08635917010539" lon="9.323741481607616"><ele>71.0</ele><time>2026-05-03T13:26:25.945Z</time></trkpt><trkpt lat="45.086544029802106" lon="9.323873310827324"><ele>69.0</ele><time>2026-05-03T13:26:26.945Z</time></trkpt><trkpt lat="45.08672313451063" lon="9.324027892979196"><ele>69.0</ele><time>2026-05-03T13:26:27.945Z</time></trkpt><trkpt lat="45.08690772694863" lon="9.32419277536706"><ele>69.0</ele><time>2026-05-03T13:26:28.945Z</time></trkpt><trkpt lat="45.08710207032296" lon="9.324348995525064"><ele>69.0</ele><time>2026-05-03T13:26:29.945Z</time></trkpt><trkpt lat="45.087300911402394" lon="9.324503416992874"><ele>67.5</ele><time>2026-05-03T13:26:30.945Z</time></trkpt><trkpt lat="45.08751216400414" lon="9.32466054148927"><ele>66.0</ele><time>2026-05-03T13:26:31.945Z</time></trkpt><trkpt lat="45.087708396827786" lon="9.324808354173623"><ele>66.0</ele><time>2026-05-03T13:26:32.944Z</time></trkpt><trkpt lat="45.087902876039855" lon="9.324956684114959"><ele>66.0</ele><time>2026-05-03T13:26:33.944Z</time></trkpt><trkpt lat="45.08811480576088" lon="9.325109666414225"><ele>66.0</ele><time>2026-05-03T13:26:34.944Z</time></trkpt><trkpt lat="45.08831884274708" lon="9.325271372850354"><ele>66.0</ele><time>2026-05-03T13:26:35.944Z</time></trkpt><trkpt lat="45.08852147258174" lon="9.325418399741423"><ele>65.0</ele><time>2026-05-03T13:26:36.944Z</time></trkpt><trkpt lat="45.08872296158582" lon="9.325569321661792"><ele>64.0</ele><time>2026-05-03T13:26:37.944Z</time></trkpt><trkpt lat="45.088925444660845" lon="9.325722475567856"><ele>65.0</ele><time>2026-05-03T13:26:38.944Z</time></trkpt><trkpt lat="45.089128242703055" lon="9.325882753273916"><ele>66.0</ele><time>2026-05-03T13:26:39.944Z</time></trkpt><trkpt lat="45.089333975900566" lon="9.326042764435853"><ele>66.0</ele><time>2026-05-03T13:26:40.944Z</time></trkpt><trkpt lat="45.08954130844698" lon="9.326192972126835"><ele>66.0</ele><time>2026-05-03T13:26:41.944Z</time></trkpt><trkpt lat="45.08975263226655" lon="9.32634306563642"><ele>65.5</ele><time>2026-05-03T13:26:42.944Z</time></trkpt><trkpt lat="45.08996100439799" lon="9.32650064475541"><ele>65.0</ele><time>2026-05-03T13:26:43.944Z</time></trkpt><trkpt lat="45.09016858815501" lon="9.32666274044688"><ele>65.0</ele><time>2026-05-03T13:26:44.944Z</time></trkpt><trkpt lat="45.090378097959785" lon="9.326838419359287"><ele>65.0</ele><time>2026-05-03T13:26:45.944Z</time></trkpt><trkpt lat="45.0905677566887" lon="9.327059757153128"><ele>64.5</ele><time>2026-05-03T13:26:46.944Z</time></trkpt><trkpt lat="45.090750514689" lon="9.327289842065206"><ele>64.0</ele><time>2026-05-03T13:26:47.944Z</time></trkpt><trkpt lat="45.09092913334089" lon="9.327529399621747"><ele>64.0</ele><time>2026-05-03T13:26:48.944Z</time></trkpt><trkpt lat="45.09109274538759" lon="9.32779186603505"><ele>64.0</ele><time>2026-05-03T13:26:49.944Z</time></trkpt><trkpt lat="45.091242963423305" lon="9.328071477402453"><ele>63.0</ele><time>2026-05-03T13:26:50.944Z</time></trkpt><trkpt lat="45.09138203161201" lon="9.328369788227258"><ele>62.0</ele><time>2026-05-03T13:26:51.944Z</time></trkpt><trkpt lat="45.091517633787305" lon="9.32867915822932"><ele>62.0</ele><time>2026-05-03T13:26:52.944Z</time></trkpt><trkpt lat="45.091650812703364" lon="9.328992577716697"><ele>62.0</ele><time>2026-05-03T13:26:53.998Z</time></trkpt><trkpt lat="45.09178664434285" lon="9.329307704744682"><ele>62.0</ele><time>2026-05-03T13:26:54.998Z</time></trkpt><trkpt lat="45.09195578997722" lon="9.329583620035706"><ele>62.0</ele><time>2026-05-03T13:26:55.998Z</time></trkpt><trkpt lat="45.09210453944059" lon="9.329879970538252"><ele>62.0</ele><time>2026-05-03T13:26:56.999Z</time></trkpt><trkpt lat="45.092266626601464" lon="9.330150085756296"><ele>62.0</ele><time>2026-05-03T13:26:57.999Z</time></trkpt><trkpt lat="45.09244636712373" lon="9.330405714357608"><ele>62.5</ele><time>2026-05-03T13:26:58.999Z</time></trkpt><trkpt lat="45.09263671833123" lon="9.33064589029129"><ele>63.0</ele><time>2026-05-03T13:26:59.999Z</time></trkpt><trkpt lat="45.09284570560471" lon="9.330839022017202"><ele>63.0</ele><time>2026-05-03T13:27:00.999Z</time></trkpt><trkpt lat="45.09304195284867" lon="9.331029893653795"><ele>63.0</ele><time>2026-05-03T13:27:01.999Z</time></trkpt><trkpt lat="45.09326375525219" lon="9.331193620922871"><ele>62.5</ele><time>2026-05-03T13:27:02.999Z</time></trkpt><trkpt lat="45.09349565804102" lon="9.33133248975966"><ele>62.0</ele><time>2026-05-03T13:27:03.999Z</time></trkpt><trkpt lat="45.09373153185215" lon="9.331457488142947"><ele>62.0</ele><time>2026-05-03T13:27:04.999Z</time></trkpt><trkpt lat="45.09397380279011" lon="9.33155968252692"><ele>62.0</ele><time>2026-05-03T13:27:05.999Z</time></trkpt><trkpt lat="45.094217229740735" lon="9.331657696578656"><ele>61.5</ele><time>2026-05-03T13:27:06.999Z</time></trkpt><trkpt lat="45.094462549377035" lon="9.331760950109695"><ele>61.0</ele><time>2026-05-03T13:27:07.999Z</time></trkpt><trkpt lat="45.09470522361192" lon="9.331873247121088"><ele>60.5</ele><time>2026-05-03T13:27:08.999Z</time></trkpt><trkpt lat="45.09494884271532" lon="9.33198909266401"><ele>60.0</ele><time>2026-05-03T13:27:09.999Z</time></trkpt><trkpt lat="45.09519191286196" lon="9.33211400010895"><ele>61.0</ele><time>2026-05-03T13:27:10.999Z</time></trkpt><trkpt lat="45.09543506523866" lon="9.332294143968344"><ele>62.0</ele><time>2026-05-03T13:27:11.999Z</time></trkpt><trkpt lat="45.09568190206978" lon="9.332396886811917"><ele>61.5</ele><time>2026-05-03T13:27:12.999Z</time></trkpt><trkpt lat="45.09593856633763" lon="9.33245186561741"><ele>61.0</ele><time>2026-05-03T13:27:13.999Z</time></trkpt><trkpt lat="45.096186561084444" lon="9.332549625042121"><ele>61.0</ele><time>2026-05-03T13:27:14.999Z</time></trkpt><trkpt lat="45.09643769947944" lon="9.332657825474632"><ele>61.0</ele><time>2026-05-03T13:27:15.999Z</time></trkpt><trkpt lat="45.09668630800162" lon="9.33277805334684"><ele>60.5</ele><time>2026-05-03T13:27:16.999Z</time></trkpt><trkpt lat="45.09692442091454" lon="9.332892841392164"><ele>60.0</ele><time>2026-05-03T13:27:17.999Z</time></trkpt><trkpt lat="45.09715210750634" lon="9.332996229395077"><ele>60.0</ele><time>2026-05-03T13:27:18.999Z</time></trkpt><trkpt lat="45.09736366515693" lon="9.33309718133986"><ele>60.0</ele><time>2026-05-03T13:27:19.999Z</time></trkpt><trkpt lat="45.09756741578832" lon="9.333189895718178"><ele>60.0</ele><time>2026-05-03T13:27:20.999Z</time></trkpt><trkpt lat="45.097759862981825" lon="9.333273193032008"><ele>59.66666666666667</ele><time>2026-05-03T13:27:21.999Z</time></trkpt><trkpt lat="45.097944559766304" lon="9.333361509300055"><ele>59.333333333333336</ele><time>2026-05-03T13:27:22.999Z</time></trkpt><trkpt lat="45.09811724438408" lon="9.333446069468279"><ele>59.0</ele><time>2026-05-03T13:27:23.999Z</time></trkpt><trkpt lat="45.098074531006574" lon="9.344179491408426"><ele>58.333333333333336</ele><time>2026-05-03T13:28:24.999Z</time></trkpt><trkpt lat="45.09826979082289" lon="9.34426888165169"><ele>57.66666666666667</ele><time>2026-05-03T13:28:25.999Z</time></trkpt><trkpt lat="45.09845460079764" lon="9.344359593449878"><ele>57.0</ele><time>2026-05-03T13:28:26.999Z</time></trkpt><trkpt lat="45.09861982743054" lon="9.344438284659557"><ele>57.0</ele><time>2026-05-03T13:28:27.999Z</time></trkpt><trkpt lat="45.09876990948561" lon="9.344510105312409"><ele>57.0</ele><time>2026-05-03T13:28:28.999Z</time></trkpt><trkpt lat="45.09891375801025" lon="9.344566734068831"><ele>57.0</ele><time>2026-05-03T13:28:29.999Z</time></trkpt><trkpt lat="45.0990471630576" lon="9.344636677202752"><ele>57.0</ele><time>2026-05-03T13:28:30.999Z</time></trkpt><trkpt lat="45.099183033923616" lon="9.344702166337216"><ele>57.0</ele><time>2026-05-03T13:28:31.999Z</time></trkpt><trkpt lat="45.09931945591633" lon="9.344766364019517"><ele>57.0</ele><time>2026-05-03T13:28:32.999Z</time></trkpt><trkpt lat="45.099451441775045" lon="9.344827871983693"><ele>57.0</ele><time>2026-05-03T13:28:33.999Z</time></trkpt><trkpt lat="45.099574921179574" lon="9.344888027456653"><ele>56.75</ele><time>2026-05-03T13:28:34.999Z</time></trkpt><trkpt lat="45.09969118659468" lon="9.344945123384287"><ele>56.5</ele><time>2026-05-03T13:28:35.999Z</time></trkpt><trkpt lat="45.099806009786235" lon="9.345001193091553"><ele>56.25</ele><time>2026-05-03T13:28:36.999Z</time></trkpt><trkpt lat="45.099929362702454" lon="9.345056491481976"><ele>56.0</ele><time>2026-05-03T13:28:37.999Z</time></trkpt><trkpt lat="45.10005705833887" lon="9.345115122944389"><ele>56.0</ele><time>2026-05-03T13:28:38.999Z</time></trkpt><trkpt lat="45.100182245389924" lon="9.345175788241267"><ele>56.0</ele><time>2026-05-03T13:28:39.999Z</time></trkpt><trkpt lat="45.100308540707765" lon="9.345233175289543"><ele>56.0</ele><time>2026-05-03T13:28:40.999Z</time></trkpt><trkpt lat="45.100431057294756" lon="9.345288258963262"><ele>56.0</ele><time>2026-05-03T13:28:41.999Z</time></trkpt><trkpt lat="45.10055472303696" lon="9.345362878659936"><ele>56.0</ele><time>2026-05-03T13:28:42.999Z</time></trkpt><trkpt lat="45.10067778082607" lon="9.345421311205046"><ele>56.0</ele><time>2026-05-03T13:28:43.999Z</time></trkpt><trkpt lat="45.10080735457197" lon="9.345479670273368"><ele>56.0</ele><time>2026-05-03T13:28:44.999Z</time></trkpt><trkpt lat="45.10094119717113" lon="9.345539867422099"><ele>56.0</ele><time>2026-05-03T13:28:45.999Z</time></trkpt><trkpt lat="45.101079585838754" lon="9.345599514928885"><ele>55.0</ele><time>2026-05-03T13:28:46.999Z</time></trkpt><trkpt lat="45.10121604698871" lon="9.345660876865185"><ele>54.0</ele><time>2026-05-03T13:28:47.999Z</time></trkpt><trkpt lat="45.1013485701729" lon="9.345726185321025"><ele>53.0</ele><time>2026-05-03T13:28:48.999Z</time></trkpt><trkpt lat="45.10147781182828" lon="9.345786062171422"><ele>52.0</ele><time>2026-05-03T13:28:49.999Z</time></trkpt><trkpt lat="45.10160645698532" lon="9.345861125539086"><ele>50.75</ele><time>2026-05-03T13:28:50.999Z</time></trkpt><trkpt lat="45.10172858256659" lon="9.345914199212293"><ele>49.5</ele><time>2026-05-03T13:28:51.999Z</time></trkpt><trkpt lat="45.101848101777236" lon="9.345964966542757"><ele>48.25</ele><time>2026-05-03T13:28:52.999Z</time></trkpt><trkpt lat="45.101976752928714" lon="9.346025180961066"><ele>47.0</ele><time>2026-05-03T13:28:53.999Z</time></trkpt><trkpt lat="45.10210587310547" lon="9.346084893133234"><ele>47.0</ele><time>2026-05-03T13:28:54.999Z</time></trkpt><trkpt lat="45.10223930752541" lon="9.346145869884522"><ele>47.0</ele><time>2026-05-03T13:28:55.999Z</time></trkpt><trkpt lat="45.10237755687369" lon="9.346208813958304"><ele>47.0</ele><time>2026-05-03T13:28:56.999Z</time></trkpt><trkpt lat="45.10251180598538" lon="9.346296130514641"><ele>47.0</ele><time>2026-05-03T13:28:57.999Z</time></trkpt><trkpt lat="45.102659762625734" lon="9.346342714616673"><ele>47.0</ele><time>2026-05-03T13:28:58.999Z</time></trkpt><trkpt lat="45.10279756015132" lon="9.346431078291998"><ele>47.0</ele><time>2026-05-03T13:29:00Z</time></trkpt><trkpt lat="45.10293262761524" lon="9.346494864077766"><ele>47.0</ele><time>2026-05-03T13:29:01Z</time></trkpt><trkpt lat="45.103061127332296" lon="9.346555548240719"><ele>47.0</ele><time>2026-05-03T13:29:02Z</time></trkpt><trkpt lat="45.103194092517946" lon="9.34661846050074"><ele>47.0</ele><time>2026-05-03T13:29:03Z</time></trkpt><trkpt lat="45.10332431556112" lon="9.346680683272515"><ele>47.0</ele><time>2026-05-03T13:29:04Z</time></trkpt><trkpt lat="45.103451493109766" lon="9.346741450893878"><ele>47.0</ele><time>2026-05-03T13:29:05Z</time></trkpt><trkpt lat="45.10357918097119" lon="9.346802462315901"><ele>47.0</ele><time>2026-05-03T13:29:06Z</time></trkpt><trkpt lat="45.10370741975974" lon="9.346863736961524"><ele>47.0</ele><time>2026-05-03T13:29:07Z</time></trkpt><trkpt lat="45.10384248776581" lon="9.346928274765274"><ele>47.0</ele><time>2026-05-03T13:29:08Z</time></trkpt><trkpt lat="45.10397974693941" lon="9.346993859520856"><ele>47.0</ele><time>2026-05-03T13:29:09Z</time></trkpt><trkpt lat="45.104120779018004" lon="9.347061247027925"><ele>47.0</ele><time>2026-05-03T13:29:10Z</time></trkpt><trkpt lat="45.104266756346874" lon="9.347130997454428"><ele>48.0</ele><time>2026-05-03T13:29:11Z</time></trkpt><trkpt lat="45.10441512966001" lon="9.347201892764641"><ele>49.0</ele><time>2026-05-03T13:29:12Z</time></trkpt><trkpt lat="45.1045658042413" lon="9.347273124035954"><ele>50.0</ele><time>2026-05-03T13:29:13Z</time></trkpt><trkpt lat="45.104720820498734" lon="9.34734525391368"><ele>50.0</ele><time>2026-05-03T13:29:14Z</time></trkpt><trkpt lat="45.104874473467625" lon="9.347416749466209"><ele>50.0</ele><time>2026-05-03T13:29:15Z</time></trkpt><trkpt lat="45.1050355268825" lon="9.347492051581298"><ele>50.0</ele><time>2026-05-03T13:29:16Z</time></trkpt><trkpt lat="45.105200529832366" lon="9.34757036137576"><ele>52.333333333333336</ele><time>2026-05-03T13:29:17Z</time></trkpt><trkpt lat="45.105355670023016" lon="9.34764399035235"><ele>54.66666666666667</ele><time>2026-05-03T13:29:18Z</time></trkpt><trkpt lat="45.10549990805141" lon="9.347712475485206"><ele>57.0</ele><time>2026-05-03T13:29:19Z</time></trkpt><trkpt lat="45.105641031960964" lon="9.347779504288457"><ele>57.5</ele><time>2026-05-03T13:29:20Z</time></trkpt><trkpt lat="45.10577853548633" lon="9.347844813562002"><ele>58.0</ele><time>2026-05-03T13:29:21Z</time></trkpt><trkpt lat="45.105916223740905" lon="9.347910210560045"><ele>58.5</ele><time>2026-05-03T13:29:22Z</time></trkpt><trkpt lat="45.106058861746895" lon="9.347977958495006"><ele>59.0</ele><time>2026-05-03T13:29:23Z</time></trkpt><trkpt lat="45.1061997490574" lon="9.348044874927389"><ele>58.0</ele><time>2026-05-03T13:29:24Z</time></trkpt><trkpt lat="45.113457902406495" lon="9.351197655509543"><ele>58.0</ele><time>2026-05-03T13:30:24.999Z</time></trkpt><trkpt lat="45.11358325017165" lon="9.351233012167528"><ele>58.0</ele><time>2026-05-03T13:30:25.999Z</time></trkpt><trkpt lat="45.11369604211864" lon="9.351263312789587"><ele>58.0</ele><time>2026-05-03T13:30:26.999Z</time></trkpt><trkpt lat="45.11381175194942" lon="9.351294935815583"><ele>58.0</ele><time>2026-05-03T13:30:27.999Z</time></trkpt><trkpt lat="45.11392997444231" lon="9.351329383319568"><ele>58.0</ele><time>2026-05-03T13:30:28.999Z</time></trkpt><trkpt lat="45.114052402991014" lon="9.351369031923664"><ele>58.0</ele><time>2026-05-03T13:30:29.999Z</time></trkpt><trkpt lat="45.11417691674095" lon="9.351417895702841"><ele>58.0</ele><time>2026-05-03T13:30:30.999Z</time></trkpt><trkpt lat="45.11431112187946" lon="9.351468765205695"><ele>58.0</ele><time>2026-05-03T13:30:31.999Z</time></trkpt><trkpt lat="45.11445367142537" lon="9.35151638906187"><ele>58.33333333333333</ele><time>2026-05-03T13:30:32.999Z</time></trkpt><trkpt lat="45.11460109777962" lon="9.351570345941832"><ele>58.66666666666667</ele><time>2026-05-03T13:30:33.999Z</time></trkpt><trkpt lat="45.11474519217211" lon="9.351621314587565"><ele>59.0</ele><time>2026-05-03T13:30:34.999Z</time></trkpt><trkpt lat="45.114892740962276" lon="9.351674583319175"><ele>59.333333333333336</ele><time>2026-05-03T13:30:35.999Z</time></trkpt><trkpt lat="45.115043223595876" lon="9.351729388163713"><ele>59.66666666666667</ele><time>2026-05-03T13:30:36.999Z</time></trkpt><trkpt lat="45.11519816928188" lon="9.351784758516539"><ele>60.0</ele><time>2026-05-03T13:30:37.999Z</time></trkpt><trkpt lat="45.115356330823694" lon="9.351840990088276"><ele>60.0</ele><time>2026-05-03T13:30:38.999Z</time></trkpt><trkpt lat="45.11551007574884" lon="9.351896766762602"><ele>60.0</ele><time>2026-05-03T13:30:39.999Z</time></trkpt><trkpt lat="45.11566065971123" lon="9.351957627716894"><ele>60.0</ele><time>2026-05-03T13:30:40.999Z</time></trkpt><trkpt lat="45.11581276631925" lon="9.352019102118037"><ele>59.33333333333333</ele><time>2026-05-03T13:30:41.999Z</time></trkpt><trkpt lat="45.11596722690478" lon="9.352076868288579"><ele>58.666666666666664</ele><time>2026-05-03T13:30:42.999Z</time></trkpt><trkpt lat="45.116124862283925" lon="9.352125010073856"><ele>58.0</ele><time>2026-05-03T13:30:43.999Z</time></trkpt><trkpt lat="45.116275824602354" lon="9.35217863722857"><ele>57.666666666666664</ele><time>2026-05-03T13:30:44.999Z</time></trkpt><trkpt lat="45.11643449398296" lon="9.352226489004657"><ele>57.33333333333333</ele><time>2026-05-03T13:30:45.999Z</time></trkpt><trkpt lat="45.11659156449381" lon="9.352269943202657"><ele>57.0</ele><time>2026-05-03T13:30:46.999Z</time></trkpt><trkpt lat="45.11692113012989" lon="9.352381917274062"><ele>56.33333333333333</ele><time>2026-05-03T13:30:48.999Z</time></trkpt><trkpt lat="45.11709372505593" lon="9.352438083254498"><ele>55.666666666666664</ele><time>2026-05-03T13:30:49.999Z</time></trkpt><trkpt lat="45.11726295534131" lon="9.35251897975865"><ele>55.0</ele><time>2026-05-03T13:30:50.999Z</time></trkpt><trkpt lat="45.11743144151589" lon="9.352578829719159"><ele>55.0</ele><time>2026-05-03T13:30:51.999Z</time></trkpt><trkpt lat="45.11759893139551" lon="9.352638325768007"><ele>55.0</ele><time>2026-05-03T13:30:52.999Z</time></trkpt><trkpt lat="45.11776979721697" lon="9.352699076938523"><ele>55.0</ele><time>2026-05-03T13:30:53.999Z</time></trkpt><trkpt lat="45.11794462910671" lon="9.352761331733776"><ele>55.0</ele><time>2026-05-03T13:30:54.999Z</time></trkpt><trkpt lat="45.11812515735235" lon="9.352806785297867"><ele>55.0</ele><time>2026-05-03T13:30:55.999Z</time></trkpt><trkpt lat="45.11829728597866" lon="9.35287079482001"><ele>55.0</ele><time>2026-05-03T13:30:56.999Z</time></trkpt><trkpt lat="45.11847581669495" lon="9.352928899081547"><ele>55.0</ele><time>2026-05-03T13:30:57.999Z</time></trkpt><trkpt lat="45.11866039667245" lon="9.353015238335031"><ele>55.0</ele><time>2026-05-03T13:30:58.999Z</time></trkpt><trkpt lat="45.118856990702206" lon="9.353084732619525"><ele>55.0</ele><time>2026-05-03T13:30:59.999Z</time></trkpt><trkpt lat="45.119062838036896" lon="9.353157497967278"><ele>55.0</ele><time>2026-05-03T13:31:00.999Z</time></trkpt><trkpt lat="45.119276631021705" lon="9.353233071958378"><ele>55.0</ele><time>2026-05-03T13:31:01.999Z</time></trkpt><trkpt lat="45.11950098122029" lon="9.3533123778168"><ele>55.0</ele><time>2026-05-03T13:31:02.999Z</time></trkpt><trkpt lat="45.119734060295656" lon="9.353394769347723"><ele>55.0</ele><time>2026-05-03T13:31:03.999Z</time></trkpt><trkpt lat="45.119974478494804" lon="9.353456907939728"><ele>55.5</ele><time>2026-05-03T13:31:04.999Z</time></trkpt><trkpt lat="45.120213418877334" lon="9.353548067890872"><ele>56.0</ele><time>2026-05-03T13:31:05.999Z</time></trkpt><trkpt lat="45.12044830242749" lon="9.353639515252905"><ele>56.0</ele><time>2026-05-03T13:31:06.999Z</time></trkpt><trkpt lat="45.12068233461203" lon="9.353719301311788"><ele>56.0</ele><time>2026-05-03T13:31:07.999Z</time></trkpt><trkpt lat="45.12091812221817" lon="9.353803488900702"><ele>56.5</ele><time>2026-05-03T13:31:08.999Z</time></trkpt><trkpt lat="45.12115181527799" lon="9.353891742348274"><ele>57.0</ele><time>2026-05-03T13:31:09.999Z</time></trkpt><trkpt lat="45.12138433516506" lon="9.353968463083042"><ele>56.5</ele><time>2026-05-03T13:31:10.999Z</time></trkpt><trkpt lat="45.121617378671026" lon="9.3540318559787"><ele>56.0</ele><time>2026-05-03T13:31:11.999Z</time></trkpt><trkpt lat="45.12185230726399" lon="9.35408602028659"><ele>56.0</ele><time>2026-05-03T13:31:12.999Z</time></trkpt><trkpt lat="45.122081790044234" lon="9.354162653799746"><ele>56.0</ele><time>2026-05-03T13:31:13.999Z</time></trkpt><trkpt lat="45.122313423136205" lon="9.354214071857687"><ele>56.0</ele><time>2026-05-03T13:31:14.999Z</time></trkpt><trkpt lat="45.12254639401466" lon="9.354261607414706"><ele>56.0</ele><time>2026-05-03T13:31:15.999Z</time></trkpt><trkpt lat="45.12278129026691" lon="9.35430193472772"><ele>56.0</ele><time>2026-05-03T13:31:16.999Z</time></trkpt><trkpt lat="45.12301581053919" lon="9.354334173000638"><ele>56.0</ele><time>2026-05-03T13:31:17.999Z</time></trkpt><trkpt lat="45.12325314569507" lon="9.354361127416736"><ele>56.0</ele><time>2026-05-03T13:31:18.999Z</time></trkpt><trkpt lat="45.12349149724894" lon="9.354366488338451"><ele>56.0</ele><time>2026-05-03T13:31:19.999Z</time></trkpt><trkpt lat="45.12373062416841" lon="9.35438492595481"><ele>56.0</ele><time>2026-05-03T13:31:20.999Z</time></trkpt><trkpt lat="45.123972006203836" lon="9.35439181457724"><ele>56.0</ele><time>2026-05-03T13:31:21.999Z</time></trkpt><trkpt lat="45.12421663009585" lon="9.35439034554891"><ele>56.5</ele><time>2026-05-03T13:31:22.999Z</time></trkpt><trkpt lat="45.124462557455644" lon="9.354377350972102"><ele>57.0</ele><time>2026-05-03T13:31:23.999Z</time></trkpt><trkpt lat="45.137563659949265" lon="9.349193767685376"><ele>62.5</ele><time>2026-05-03T13:32:24.998Z</time></trkpt><trkpt lat="45.1377672649307" lon="9.349325364438116"><ele>68.0</ele><time>2026-05-03T13:32:25.998Z</time></trkpt><trkpt lat="45.13798104447453" lon="9.349450354877547"><ele>68.0</ele><time>2026-05-03T13:32:26.998Z</time></trkpt><trkpt lat="45.13820909980589" lon="9.349606105810015"><ele>68.0</ele><time>2026-05-03T13:32:27.998Z</time></trkpt><trkpt lat="45.13843487024653" lon="9.349731205354356"><ele>68.0</ele><time>2026-05-03T13:32:28.998Z</time></trkpt><trkpt lat="45.138662528986536" lon="9.349859241801397"><ele>68.0</ele><time>2026-05-03T13:32:29.998Z</time></trkpt><trkpt lat="45.138891535461" lon="9.349993486303402"><ele>68.5</ele><time>2026-05-03T13:32:30.998Z</time></trkpt><trkpt lat="45.139119797174125" lon="9.350131979333279"><ele>69.0</ele><time>2026-05-03T13:32:31.998Z</time></trkpt><trkpt lat="45.13934983553828" lon="9.35027100776392"><ele>69.0</ele><time>2026-05-03T13:32:32.998Z</time></trkpt><trkpt lat="45.13958302759596" lon="9.350410265342614"><ele>69.0</ele><time>2026-05-03T13:32:33.998Z</time></trkpt><trkpt lat="45.139821223476964" lon="9.350545369462168"><ele>68.0</ele><time>2026-05-03T13:32:34.998Z</time></trkpt><trkpt lat="45.140058534647835" lon="9.350684066126508"><ele>67.0</ele><time>2026-05-03T13:32:35.998Z</time></trkpt><trkpt lat="45.14029631327806" lon="9.350830116499255"><ele>67.0</ele><time>2026-05-03T13:32:36.998Z</time></trkpt><trkpt lat="45.14053563055909" lon="9.350960260493155"><ele>67.0</ele><time>2026-05-03T13:32:37.998Z</time></trkpt><trkpt lat="45.14077519571597" lon="9.351098937440124"><ele>67.0</ele><time>2026-05-03T13:32:38.998Z</time></trkpt><trkpt lat="45.141020776033784" lon="9.351221211739272"><ele>67.0</ele><time>2026-05-03T13:32:39.998Z</time></trkpt><trkpt lat="45.14126198119376" lon="9.351348393280608"><ele>66.5</ele><time>2026-05-03T13:32:40.998Z</time></trkpt><trkpt lat="45.14150867798076" lon="9.351471720234775"><ele>66.0</ele><time>2026-05-03T13:32:41.998Z</time></trkpt><trkpt lat="45.141757503976415" lon="9.351590305510161"><ele>66.0</ele><time>2026-05-03T13:32:42.998Z</time></trkpt><trkpt lat="45.14200203864216" lon="9.351710798865367"><ele>66.0</ele><time>2026-05-03T13:32:43.998Z</time></trkpt><trkpt lat="45.14225080197279" lon="9.351825544219645"><ele>67.0</ele><time>2026-05-03T13:32:44.998Z</time></trkpt><trkpt lat="45.142489217907396" lon="9.35195776741169"><ele>68.0</ele><time>2026-05-03T13:32:45.998Z</time></trkpt><trkpt lat="45.14270680900616" lon="9.35211966794441"><ele>68.0</ele><time>2026-05-03T13:32:46.998Z</time></trkpt><trkpt lat="45.142966586040764" lon="9.352199176312439"><ele>68.0</ele><time>2026-05-03T13:32:47.998Z</time></trkpt><trkpt lat="45.1432057650309" lon="9.352310555801987"><ele>69.5</ele><time>2026-05-03T13:32:48.998Z</time></trkpt><trkpt lat="45.14344706870206" lon="9.352432595793982"><ele>71.0</ele><time>2026-05-03T13:32:49.998Z</time></trkpt><trkpt lat="45.14368583150278" lon="9.352562279532478"><ele>71.0</ele><time>2026-05-03T13:32:50.998Z</time></trkpt><trkpt lat="45.143921599511636" lon="9.352698697085156"><ele>71.0</ele><time>2026-05-03T13:32:51.998Z</time></trkpt><trkpt lat="45.144162648513394" lon="9.352855080482989"><ele>70.5</ele><time>2026-05-03T13:32:52.998Z</time></trkpt><trkpt lat="45.144404242862734" lon="9.352981221259734"><ele>70.0</ele><time>2026-05-03T13:32:53.998Z</time></trkpt><trkpt lat="45.14464645061223" lon="9.353118318674094"><ele>69.5</ele><time>2026-05-03T13:32:54.998Z</time></trkpt><trkpt lat="45.144893210138456" lon="9.353245170442921"><ele>69.0</ele><time>2026-05-03T13:32:55.998Z</time></trkpt><trkpt lat="45.14513800094854" lon="9.353364762817348"><ele>69.0</ele><time>2026-05-03T13:32:56.998Z</time></trkpt><trkpt lat="45.145387322527554" lon="9.353478114017493"><ele>69.0</ele><time>2026-05-03T13:32:57.998Z</time></trkpt><trkpt lat="45.145638349953686" lon="9.35356256963015"><ele>69.0</ele><time>2026-05-03T13:32:58.998Z</time></trkpt><trkpt lat="45.14589592566562" lon="9.35362672914169"><ele>69.0</ele><time>2026-05-03T13:32:59.998Z</time></trkpt><trkpt lat="45.146153296761575" lon="9.353665842493365"><ele>69.0</ele><time>2026-05-03T13:33:00.998Z</time></trkpt><trkpt lat="45.14641680167526" lon="9.353676001292353"><ele>69.0</ele><time>2026-05-03T13:33:01.998Z</time></trkpt><trkpt lat="45.14668098489766" lon="9.35367486833909"><ele>70.0</ele><time>2026-05-03T13:33:02.998Z</time></trkpt><trkpt lat="45.14694572306971" lon="9.353666797717588"><ele>71.0</ele><time>2026-05-03T13:33:03.998Z</time></trkpt><trkpt lat="45.14720666813349" lon="9.35364585804931"><ele>70.0</ele><time>2026-05-03T13:33:04.998Z</time></trkpt><trkpt lat="45.147465514881" lon="9.35362674636154"><ele>69.0</ele><time>2026-05-03T13:33:05.998Z</time></trkpt><trkpt lat="45.14772525155625" lon="9.353611086143497"><ele>69.0</ele><time>2026-05-03T13:33:06.998Z</time></trkpt><trkpt lat="45.147981784994904" lon="9.35360976101082"><ele>69.0</ele><time>2026-05-03T13:33:07.998Z</time></trkpt><trkpt lat="45.14823694610623" lon="9.353597548251889"><ele>69.0</ele><time>2026-05-03T13:33:08.998Z</time></trkpt><trkpt lat="45.14849014556464" lon="9.353580212277718"><ele>69.0</ele><time>2026-05-03T13:33:09.998Z</time></trkpt><trkpt lat="45.148740289469806" lon="9.35356317916109"><ele>69.0</ele><time>2026-05-03T13:33:10.998Z</time></trkpt><trkpt lat="45.14898875920805" lon="9.353555063104507"><ele>69.0</ele><time>2026-05-03T13:33:11.998Z</time></trkpt><trkpt lat="45.14923597968774" lon="9.353543395953906"><ele>69.5</ele><time>2026-05-03T13:33:12.998Z</time></trkpt><trkpt lat="45.149479539105926" lon="9.353530287399183"><ele>70.0</ele><time>2026-05-03T13:33:13.998Z</time></trkpt><trkpt lat="45.1497314890919" lon="9.353510288707149"><ele>70.0</ele><time>2026-05-03T13:33:14.998Z</time></trkpt><trkpt lat="45.14998174402053" lon="9.35347367591925"><ele>70.0</ele><time>2026-05-03T13:33:15.998Z</time></trkpt><trkpt lat="45.15023308798994" lon="9.35341893684196"><ele>70.0</ele><time>2026-05-03T13:33:16.998Z</time></trkpt><trkpt lat="45.150493110512826" lon="9.353336376752576"><ele>70.0</ele><time>2026-05-03T13:33:17.998Z</time></trkpt><trkpt lat="45.15075495587754" lon="9.353223584780096"><ele>70.0</ele><time>2026-05-03T13:33:18.998Z</time></trkpt><trkpt lat="45.15101402050788" lon="9.353084137197602"><ele>70.0</ele><time>2026-05-03T13:33:19.998Z</time></trkpt><trkpt lat="45.15126885646286" lon="9.352913410373638"><ele>70.0</ele><time>2026-05-03T13:33:20.998Z</time></trkpt><trkpt lat="45.15152264580669" lon="9.352727894259719"><ele>70.0</ele><time>2026-05-03T13:33:21.998Z</time></trkpt><trkpt lat="45.15176683127425" lon="9.352519897827303"><ele>70.0</ele><time>2026-05-03T13:33:22.998Z</time></trkpt><trkpt lat="45.15200242667183" lon="9.352295141196652"><ele>70.0</ele><time>2026-05-03T13:33:23.998Z</time></trkpt><trkpt lat="45.15768049221732" lon="9.34078780047208"><ele>70.0</ele><time>2026-05-03T13:34:24.998Z</time></trkpt><trkpt lat="45.15770512067028" lon="9.340513562678638"><ele>70.0</ele><time>2026-05-03T13:34:25.998Z</time></trkpt><trkpt lat="45.15773032932239" lon="9.340236434827817"><ele>70.0</ele><time>2026-05-03T13:34:26.998Z</time></trkpt><trkpt lat="45.15775469585026" lon="9.339957540530136"><ele>69.66666666666666</ele><time>2026-05-03T13:34:27.998Z</time></trkpt><trkpt lat="45.15777829114595" lon="9.339673476751631"><ele>69.33333333333333</ele><time>2026-05-03T13:34:28.998Z</time></trkpt><trkpt lat="45.15780316850058" lon="9.339386946160916"><ele>69.0</ele><time>2026-05-03T13:34:29.998Z</time></trkpt><trkpt lat="45.15782958714243" lon="9.339097455713086"><ele>68.66666666666667</ele><time>2026-05-03T13:34:30.998Z</time></trkpt><trkpt lat="45.15785877721793" lon="9.338809413955579"><ele>68.33333333333334</ele><time>2026-05-03T13:34:31.998Z</time></trkpt><trkpt lat="45.15788595740257" lon="9.338513884832865"><ele>68.0</ele><time>2026-05-03T13:34:32.998Z</time></trkpt><trkpt lat="45.15791172071236" lon="9.338215453351774"><ele>69.33333333333334</ele><time>2026-05-03T13:34:33.998Z</time></trkpt><trkpt lat="45.15793764418945" lon="9.337918882573545"><ele>70.66666666666667</ele><time>2026-05-03T13:34:34.998Z</time></trkpt><trkpt lat="45.15796322988553" lon="9.337629747872096"><ele>72.0</ele><time>2026-05-03T13:34:35.998Z</time></trkpt><trkpt lat="45.1579878755381" lon="9.337349810939083"><ele>71.33333333333333</ele><time>2026-05-03T13:34:36.998Z</time></trkpt><trkpt lat="45.15801257713539" lon="9.337073208128695"><ele>70.66666666666666</ele><time>2026-05-03T13:34:37.998Z</time></trkpt><trkpt lat="45.15803618999376" lon="9.336793986221636"><ele>70.0</ele><time>2026-05-03T13:34:38.998Z</time></trkpt><trkpt lat="45.158060192482026" lon="9.336506350033487"><ele>70.33333333333333</ele><time>2026-05-03T13:34:39.998Z</time></trkpt><trkpt lat="45.15808261592897" lon="9.336215249957458"><ele>70.66666666666667</ele><time>2026-05-03T13:34:40.998Z</time></trkpt><trkpt lat="45.15810714933123" lon="9.335919598850525"><ele>71.0</ele><time>2026-05-03T13:34:41.998Z</time></trkpt><trkpt lat="45.158133812155725" lon="9.335619188629314"><ele>71.33333333333334</ele><time>2026-05-03T13:34:42.998Z</time></trkpt><trkpt lat="45.15816193780504" lon="9.33531409064204"><ele>71.66666666666667</ele><time>2026-05-03T13:34:43.998Z</time></trkpt><trkpt lat="45.15817839351559" lon="9.334996421399872"><ele>72.0</ele><time>2026-05-03T13:34:44.998Z</time></trkpt><trkpt lat="45.158208360386304" lon="9.334687096504647"><ele>71.33333333333333</ele><time>2026-05-03T13:34:45.998Z</time></trkpt><trkpt lat="45.1582373450227" lon="9.334369192113757"><ele>70.66666666666666</ele><time>2026-05-03T13:34:46.998Z</time></trkpt><trkpt lat="45.15828008979121" lon="9.334073761641278"><ele>70.0</ele><time>2026-05-03T13:34:47.998Z</time></trkpt><trkpt lat="45.15831050531809" lon="9.333747900199496"><ele>69.5</ele><time>2026-05-03T13:34:48.997Z</time></trkpt><trkpt lat="45.158336605091684" lon="9.333421557454741"><ele>69.0</ele><time>2026-05-03T13:34:49.997Z</time></trkpt><trkpt lat="45.158367059366945" lon="9.333090580165386"><ele>69.5</ele><time>2026-05-03T13:34:50.997Z</time></trkpt><trkpt lat="45.15839687023561" lon="9.332759410153693"><ele>70.0</ele><time>2026-05-03T13:34:51.997Z</time></trkpt><trkpt lat="45.15842483881368" lon="9.332426846291035"><ele>70.0</ele><time>2026-05-03T13:34:52.997Z</time></trkpt><trkpt lat="45.158453775181016" lon="9.332091815101853"><ele>70.0</ele><time>2026-05-03T13:34:53.997Z</time></trkpt><trkpt lat="45.15848320870069" lon="9.331755402665527"><ele>70.0</ele><time>2026-05-03T13:34:54.997Z</time></trkpt><trkpt lat="45.15851259558665" lon="9.331418095011811"><ele>70.0</ele><time>2026-05-03T13:34:55.997Z</time></trkpt><trkpt lat="45.15854192239404" lon="9.33107550581833"><ele>70.0</ele><time>2026-05-03T13:34:56.997Z</time></trkpt><trkpt lat="45.15857063686812" lon="9.330737271569248"><ele>70.0</ele><time>2026-05-03T13:34:57.997Z</time></trkpt><trkpt lat="45.15860047106077" lon="9.330395757272763"><ele>70.0</ele><time>2026-05-03T13:34:58.997Z</time></trkpt><trkpt lat="45.158627694306325" lon="9.330052379529715"><ele>70.0</ele><time>2026-05-03T13:34:59.997Z</time></trkpt><trkpt lat="45.15865805411183" lon="9.329713477623084"><ele>70.0</ele><time>2026-05-03T13:35:00.997Z</time></trkpt><trkpt lat="45.15868605940309" lon="9.329372792397168"><ele>70.0</ele><time>2026-05-03T13:35:01.997Z</time></trkpt><trkpt lat="45.15870863443973" lon="9.329033188296577"><ele>70.0</ele><time>2026-05-03T13:35:02.997Z</time></trkpt><trkpt lat="45.158722795577184" lon="9.328689671933171"><ele>70.0</ele><time>2026-05-03T13:35:03.997Z</time></trkpt><trkpt lat="45.15871976074526" lon="9.328351308257375"><ele>70.5</ele><time>2026-05-03T13:35:04.997Z</time></trkpt><trkpt lat="45.158696273857664" lon="9.328018216671994"><ele>71.0</ele><time>2026-05-03T13:35:05.997Z</time></trkpt><trkpt lat="45.158653622735585" lon="9.327677256719971"><ele>71.0</ele><time>2026-05-03T13:35:06.997Z</time></trkpt><trkpt lat="45.158601093212795" lon="9.327346599455161"><ele>71.0</ele><time>2026-05-03T13:35:07.997Z</time></trkpt><trkpt lat="45.15853950812748" lon="9.327017706114658"><ele>71.0</ele><time>2026-05-03T13:35:08.997Z</time></trkpt><trkpt lat="45.15848173377657" lon="9.326691574783476"><ele>71.0</ele><time>2026-05-03T13:35:09.997Z</time></trkpt><trkpt lat="45.15840810257971" lon="9.326380263574372"><ele>71.0</ele><time>2026-05-03T13:35:10.997Z</time></trkpt><trkpt lat="45.158358623456806" lon="9.326075847611918"><ele>71.0</ele><time>2026-05-03T13:35:11.997Z</time></trkpt><trkpt lat="45.15831520130245" lon="9.3257969931556"><ele>71.0</ele><time>2026-05-03T13:35:12.997Z</time></trkpt><trkpt lat="45.1582785159207" lon="9.32553087984141"><ele>71.0</ele><time>2026-05-03T13:35:13.997Z</time></trkpt><trkpt lat="45.15824199347138" lon="9.325279933552913"><ele>71.0</ele><time>2026-05-03T13:35:14.997Z</time></trkpt><trkpt lat="45.15821250251644" lon="9.32505187056428"><ele>71.0</ele><time>2026-05-03T13:35:15.997Z</time></trkpt><trkpt lat="45.15818224380699" lon="9.32481915277464"><ele>71.33333333333334</ele><time>2026-05-03T13:35:16.997Z</time></trkpt><trkpt lat="45.158170978122925" lon="9.324591432858846"><ele>71.66666666666667</ele><time>2026-05-03T13:35:17.997Z</time></trkpt><trkpt lat="45.15818535427965" lon="9.32437771057943"><ele>72.0</ele><time>2026-05-03T13:35:18.997Z</time></trkpt><trkpt lat="45.15822615531457" lon="9.324183219464098"><ele>72.0</ele><time>2026-05-03T13:35:19.997Z</time></trkpt><trkpt lat="45.15825739589203" lon="9.323977187469946"><ele>72.0</ele><time>2026-05-03T13:35:20.997Z</time></trkpt><trkpt lat="45.15829294592274" lon="9.323780861564076"><ele>72.0</ele><time>2026-05-03T13:35:21.997Z</time></trkpt><trkpt lat="45.158321779977754" lon="9.323583300669458"><ele>72.0</ele><time>2026-05-03T13:35:22.997Z</time></trkpt><trkpt lat="45.158349650436165" lon="9.32339134620515"><ele>75.0</ele><time>2026-05-03T13:35:23.997Z</time></trkpt><trkpt lat="45.16012971802038" lon="9.316400294167316"><ele>75.0</ele><time>2026-05-03T13:36:24.997Z</time></trkpt><trkpt lat="45.16014624019234" lon="9.31624726633359"><ele>75.0</ele><time>2026-05-03T13:36:25.997Z</time></trkpt><trkpt lat="45.16016530835308" lon="9.316095192910698"><ele>75.0</ele><time>2026-05-03T13:36:26.997Z</time></trkpt><trkpt lat="45.16018238825106" lon="9.315948029845417"><ele>75.0</ele><time>2026-05-03T13:36:27.997Z</time></trkpt><trkpt lat="45.16020031725952" lon="9.315795479723672"><ele>75.0</ele><time>2026-05-03T13:36:28.997Z</time></trkpt><trkpt lat="45.16023972673669" lon="9.315651863032265"><ele>75.0</ele><time>2026-05-03T13:36:29.997Z</time></trkpt><trkpt lat="45.160257240504606" lon="9.315500653473427"><ele>75.0</ele><time>2026-05-03T13:36:30.997Z</time></trkpt><trkpt lat="45.160273358138106" lon="9.315359080110234"><ele>75.0</ele><time>2026-05-03T13:36:31.997Z</time></trkpt><trkpt lat="45.160290594941905" lon="9.315229031062401"><ele>75.0</ele><time>2026-05-03T13:36:32.997Z</time></trkpt><trkpt lat="45.16030847916124" lon="9.315099036357672"><ele>75.0</ele><time>2026-05-03T13:36:33.997Z</time></trkpt><trkpt lat="45.16031816453676" lon="9.314967413684677"><ele>75.0</ele><time>2026-05-03T13:36:34.997Z</time></trkpt><trkpt lat="45.160325100047416" lon="9.314837534110918"><ele>75.0</ele><time>2026-05-03T13:36:35.997Z</time></trkpt><trkpt lat="45.16034021896192" lon="9.314720927465158"><ele>75.0</ele><time>2026-05-03T13:36:36.997Z</time></trkpt><trkpt lat="45.16035934328956" lon="9.314613422539255"><ele>75.0</ele><time>2026-05-03T13:36:37.997Z</time></trkpt><trkpt lat="45.160381136190104" lon="9.314519643444784"><ele>75.0</ele><time>2026-05-03T13:36:38.997Z</time></trkpt><trkpt lat="45.160395519520755" lon="9.314377813964658"><ele>75.0</ele><time>2026-05-03T13:36:40.997Z</time></trkpt><trkpt lat="45.1604028754955" lon="9.314283959844161"><ele>75.0</ele><time>2026-05-03T13:36:43.997Z</time></trkpt><trkpt lat="45.16031456090789" lon="9.314142637056383"><ele>75.0</ele><time>2026-05-03T13:36:55.997Z</time></trkpt><trkpt lat="45.16020420104536" lon="9.314151102492586"><ele>75.0</ele><time>2026-05-03T13:36:57.997Z</time></trkpt><trkpt lat="45.160137764111774" lon="9.314175459899174"><ele>75.0</ele><time>2026-05-03T13:37:00.997Z</time></trkpt><trkpt lat="45.16007054132306" lon="9.314093595612643"><ele>75.0</ele><time>2026-05-03T13:37:04.997Z</time></trkpt><trkpt lat="45.15997260052185" lon="9.314260727142441"><ele>75.0</ele><time>2026-05-03T13:37:06.997Z</time></trkpt><trkpt lat="45.15989671867113" lon="9.314254199841168"><ele>75.0</ele><time>2026-05-03T13:37:08.997Z</time></trkpt><trkpt lat="45.15981549982108" lon="9.314272284376882"><ele>75.0</ele><time>2026-05-03T13:37:12.997Z</time></trkpt><trkpt lat="45.16023447442994" lon="9.314790599002304"><ele>75.0</ele><time>2026-05-03T13:50:35.002Z</time></trkpt><trkpt lat="45.160256732079816" lon="9.314665514776783"><ele>75.0</ele><time>2026-05-03T13:50:38.002Z</time></trkpt><trkpt lat="45.16028742676767" lon="9.314532626319354"><ele>75.0</ele><time>2026-05-03T13:50:40.002Z</time></trkpt><trkpt lat="45.16032921631246" lon="9.314423395420924"><ele>75.0</ele><time>2026-05-03T13:50:42.002Z</time></trkpt><trkpt lat="45.16035217996772" lon="9.31429853402623"><ele>75.0</ele><time>2026-05-03T13:50:45.002Z</time></trkpt><trkpt lat="45.16045125495083" lon="9.314236648051756"><ele>75.0</ele><time>2026-05-03T13:50:48.002Z</time></trkpt><trkpt lat="45.16053367857828" lon="9.314248018846175"><ele>75.0</ele><time>2026-05-03T13:50:49.002Z</time></trkpt><trkpt lat="45.16062746663704" lon="9.314266757373865"><ele>75.0</ele><time>2026-05-03T13:50:50.002Z</time></trkpt><trkpt lat="45.16071677722846" lon="9.314279291955792"><ele>75.0</ele><time>2026-05-03T13:50:51.002Z</time></trkpt><trkpt lat="45.16080424271794" lon="9.314297771716516"><ele>75.0</ele><time>2026-05-03T13:50:52.002Z</time></trkpt><trkpt lat="45.160879677348895" lon="9.31430594627345"><ele>75.0</ele><time>2026-05-03T13:50:53.002Z</time></trkpt><trkpt lat="45.16096014734372" lon="9.314309455368619"><ele>75.2</ele><time>2026-05-03T13:50:54.002Z</time></trkpt><trkpt lat="45.161049460680424" lon="9.31432996418199"><ele>75.4</ele><time>2026-05-03T13:50:55.002Z</time></trkpt><trkpt lat="45.16113999359651" lon="9.314339864090094"><ele>75.6</ele><time>2026-05-03T13:50:56.002Z</time></trkpt><trkpt lat="45.16123814193699" lon="9.314355593338735"><ele>75.8</ele><time>2026-05-03T13:50:57.002Z</time></trkpt><trkpt lat="45.16133059545424" lon="9.314357137168955"><ele>76.0</ele><time>2026-05-03T13:50:58.002Z</time></trkpt><trkpt lat="45.161412653016704" lon="9.31438006515885"><ele>76.0</ele><time>2026-05-03T13:50:59.002Z</time></trkpt><trkpt lat="45.16148466110918" lon="9.31438804465382"><ele>76.0</ele><time>2026-05-03T13:51:00.002Z</time></trkpt><trkpt lat="45.1615554265961" lon="9.314428525939087"><ele>76.0</ele><time>2026-05-03T13:51:01.002Z</time></trkpt><trkpt lat="45.16164098399202" lon="9.31446626799845"><ele>76.0</ele><time>2026-05-03T13:51:02.002Z</time></trkpt><trkpt lat="45.16172370803214" lon="9.31448934867747"><ele>76.0</ele><time>2026-05-03T13:51:03.002Z</time></trkpt><trkpt lat="45.161813354914905" lon="9.314502970940216"><ele>76.0</ele><time>2026-05-03T13:51:04.002Z</time></trkpt><trkpt lat="45.16189934350562" lon="9.314516095149054"><ele>76.0</ele><time>2026-05-03T13:51:05.002Z</time></trkpt><trkpt lat="45.16198432118665" lon="9.31453858124361"><ele>76.0</ele><time>2026-05-03T13:51:06.002Z</time></trkpt><trkpt lat="45.162084234701446" lon="9.314546956957681"><ele>76.0</ele><time>2026-05-03T13:51:07.002Z</time></trkpt><trkpt lat="45.16219574202238" lon="9.314540144734233"><ele>76.0</ele><time>2026-05-03T13:51:08.002Z</time></trkpt><trkpt lat="45.162294801753085" lon="9.314550490901771"><ele>76.0</ele><time>2026-05-03T13:51:09.002Z</time></trkpt><trkpt lat="45.1623988306424" lon="9.314547543447775"><ele>75.8</ele><time>2026-05-03T13:51:10.002Z</time></trkpt><trkpt lat="45.162498930229724" lon="9.314586151418256"><ele>75.6</ele><time>2026-05-03T13:51:11.002Z</time></trkpt><trkpt lat="45.16260017029193" lon="9.314582518623961"><ele>75.4</ele><time>2026-05-03T13:51:12.002Z</time></trkpt><trkpt lat="45.16268336966494" lon="9.314595969688238"><ele>75.2</ele><time>2026-05-03T13:51:13.002Z</time></trkpt><trkpt lat="45.162758351206364" lon="9.314603535385562"><ele>75.0</ele><time>2026-05-03T13:51:14.002Z</time></trkpt><trkpt lat="45.16287201738839" lon="9.314608863883356"><ele>75.0</ele><time>2026-05-03T13:51:16.002Z</time></trkpt><trkpt lat="45.16294796596237" lon="9.31445347419604"><ele>75.0</ele><time>2026-05-03T13:51:20.002Z</time></trkpt><trkpt lat="45.162958169332946" lon="9.314358845035766"><ele>75.0</ele><time>2026-05-03T13:51:21.002Z</time></trkpt><trkpt lat="45.16297363671359" lon="9.314233621874566"><ele>75.0</ele><time>2026-05-03T13:51:22.002Z</time></trkpt><trkpt lat="45.16299677661128" lon="9.314089141990658"><ele>75.0</ele><time>2026-05-03T13:51:23.002Z</time></trkpt><trkpt lat="45.16301689416437" lon="9.31395589511925"><ele>72.0</ele><time>2026-05-03T13:51:24.002Z</time></trkpt><trkpt lat="45.16604908649682" lon="9.31036282148205"><ele>72.0</ele><time>2026-05-03T13:52:25Z</time></trkpt><trkpt lat="45.16614527918084" lon="9.31036667378798"><ele>72.0</ele><time>2026-05-03T13:52:27Z</time></trkpt><trkpt lat="45.166217232957074" lon="9.310349888635438"><ele>72.0</ele><time>2026-05-03T13:52:29Z</time></trkpt><trkpt lat="45.16627711931414" lon="9.310441100132232"><ele>72.0</ele><time>2026-05-03T13:52:31Z</time></trkpt><trkpt lat="45.16627617479268" lon="9.310571809638905"><ele>72.0</ele><time>2026-05-03T13:52:33Z</time></trkpt><trkpt lat="45.166271482615755" lon="9.31072089783665"><ele>72.2</ele><time>2026-05-03T13:52:35Z</time></trkpt><trkpt lat="45.166275963255146" lon="9.310888749396241"><ele>72.4</ele><time>2026-05-03T13:52:37Z</time></trkpt><trkpt lat="45.16627547067069" lon="9.311032764820473"><ele>72.6</ele><time>2026-05-03T13:52:39Z</time></trkpt><trkpt lat="45.16627131798385" lon="9.311153788792907"><ele>72.8</ele><time>2026-05-03T13:52:41Z</time></trkpt><trkpt lat="45.16626689788783" lon="9.311254926171282"><ele>73.0</ele><time>2026-05-03T13:52:43Z</time></trkpt><trkpt lat="45.16628285014047" lon="9.31136154450593"><ele>72.0</ele><time>2026-05-03T13:52:45Z</time></trkpt><trkpt lat="45.165662201095074" lon="9.31031720929404"><ele>72.0</ele><time>2026-05-03T14:25:24.997Z</time></trkpt><trkpt lat="45.16555399954174" lon="9.31031054109657"><ele>72.0</ele><time>2026-05-03T14:25:26.997Z</time></trkpt><trkpt lat="45.1654959840689" lon="9.310359917297655"><ele>72.0</ele><time>2026-05-03T14:25:28.997Z</time></trkpt><trkpt lat="45.16546194908165" lon="9.310464833183307"><ele>72.0</ele><time>2026-05-03T14:25:31.997Z</time></trkpt><trkpt lat="45.16539699935681" lon="9.31045910736486"><ele>72.0</ele><time>2026-05-03T14:25:36.997Z</time></trkpt><trkpt lat="45.16532152483013" lon="9.310530503234935"><ele>72.0</ele><time>2026-05-03T14:25:39.997Z</time></trkpt><trkpt lat="45.165249030899545" lon="9.310502527472611"><ele>72.0</ele><time>2026-05-03T14:25:40.997Z</time></trkpt><trkpt lat="45.16518525434545" lon="9.310543587987745"><ele>72.0</ele><time>2026-05-03T14:25:41.998Z</time></trkpt><trkpt lat="45.16512530661131" lon="9.310602028574365"><ele>72.0</ele><time>2026-05-03T14:25:42.999Z</time></trkpt><trkpt lat="45.16506020891907" lon="9.310672983943062"><ele>72.0</ele><time>2026-05-03T14:25:43.999Z</time></trkpt><trkpt lat="45.16499603678486" lon="9.310748507940678"><ele>72.0</ele><time>2026-05-03T14:25:44.999Z</time></trkpt><trkpt lat="45.164931242393884" lon="9.310827347315943"><ele>72.0</ele><time>2026-05-03T14:25:45.999Z</time></trkpt><trkpt lat="45.16485749382388" lon="9.310917081867014"><ele>72.2</ele><time>2026-05-03T14:25:46.999Z</time></trkpt><trkpt lat="45.16480136041417" lon="9.311009632009617"><ele>72.4</ele><time>2026-05-03T14:25:47.999Z</time></trkpt><trkpt lat="45.16471648854675" lon="9.311089073735308"><ele>72.6</ele><time>2026-05-03T14:25:48.998Z</time></trkpt><trkpt lat="45.164653134019915" lon="9.31117893467276"><ele>72.8</ele><time>2026-05-03T14:25:49.998Z</time></trkpt><trkpt lat="45.164593518945594" lon="9.31128881941743"><ele>73.0</ele><time>2026-05-03T14:25:50.999Z</time></trkpt><trkpt lat="45.16453073108062" lon="9.311387330626069"><ele>73.0</ele><time>2026-05-03T14:25:51.998Z</time></trkpt><trkpt lat="45.16447413298197" lon="9.311494719550307"><ele>73.0</ele><time>2026-05-03T14:25:52.998Z</time></trkpt><trkpt lat="45.164396224372645" lon="9.311594647356042"><ele>73.0</ele><time>2026-05-03T14:25:53.999Z</time></trkpt><trkpt lat="45.1643295077733" lon="9.311689251480505"><ele>73.0</ele><time>2026-05-03T14:25:54.998Z</time></trkpt><trkpt lat="45.164268788491704" lon="9.311781999966868"><ele>73.0</ele><time>2026-05-03T14:25:55.998Z</time></trkpt><trkpt lat="45.164207799345284" lon="9.311882181964876"><ele>73.0</ele><time>2026-05-03T14:25:56.998Z</time></trkpt><trkpt lat="45.16414300760183" lon="9.311986999812007"><ele>73.0</ele><time>2026-05-03T14:25:57.998Z</time></trkpt><trkpt lat="45.16408160440502" lon="9.312090289914776"><ele>73.0</ele><time>2026-05-03T14:25:58.998Z</time></trkpt><trkpt lat="45.16402341619883" lon="9.312184147984135"><ele>73.0</ele><time>2026-05-03T14:25:59.998Z</time></trkpt><trkpt lat="45.163964181819054" lon="9.312278158565679"><ele>73.0</ele><time>2026-05-03T14:26:00.998Z</time></trkpt><trkpt lat="45.163911271200064" lon="9.312372628254634"><ele>72.83333333333333</ele><time>2026-05-03T14:26:01.998Z</time></trkpt><trkpt lat="45.16385373300336" lon="9.31246113002673"><ele>72.66666666666666</ele><time>2026-05-03T14:26:02.998Z</time></trkpt><trkpt lat="45.16379844587916" lon="9.312547480904517"><ele>72.5</ele><time>2026-05-03T14:26:03.998Z</time></trkpt><trkpt lat="45.16374551223764" lon="9.3126242405648"><ele>72.33333333333333</ele><time>2026-05-03T14:26:04.998Z</time></trkpt><trkpt lat="45.163686474785486" lon="9.312697758833663"><ele>72.16666666666667</ele><time>2026-05-03T14:26:05.998Z</time></trkpt><trkpt lat="45.16361486978645" lon="9.312734174635658"><ele>72.0</ele><time>2026-05-03T14:26:06.998Z</time></trkpt><trkpt lat="45.163560296782535" lon="9.312787592718193"><ele>72.0</ele><time>2026-05-03T14:26:07.998Z</time></trkpt><trkpt lat="45.16344331193525" lon="9.312841269192251"><ele>72.0</ele><time>2026-05-03T14:26:09.998Z</time></trkpt><trkpt lat="45.163374121249255" lon="9.312862259294972"><ele>72.0</ele><time>2026-05-03T14:26:10.998Z</time></trkpt><trkpt lat="45.16331023217893" lon="9.312879047304515"><ele>72.0</ele><time>2026-05-03T14:26:11.998Z</time></trkpt><trkpt lat="45.163201307363494" lon="9.312898310065307"><ele>72.0</ele><time>2026-05-03T14:26:13.998Z</time></trkpt><trkpt lat="45.16314301330519" lon="9.313002028415854"><ele>72.16666666666667</ele><time>2026-05-03T14:26:15.998Z</time></trkpt><trkpt lat="45.16316098808857" lon="9.313103102441831"><ele>72.33333333333333</ele><time>2026-05-03T14:26:16.998Z</time></trkpt><trkpt lat="45.16317868413646" lon="9.313212233327716"><ele>72.5</ele><time>2026-05-03T14:26:17.998Z</time></trkpt><trkpt lat="45.16316119456494" lon="9.313313334492756"><ele>72.66666666666666</ele><time>2026-05-03T14:26:18.998Z</time></trkpt><trkpt lat="45.16313914552434" lon="9.313433172364354"><ele>72.83333333333333</ele><time>2026-05-03T14:26:19.998Z</time></trkpt><trkpt lat="45.16312174182083" lon="9.31355240276182"><ele>73.0</ele><time>2026-05-03T14:26:20.998Z</time></trkpt><trkpt lat="45.16310798198562" lon="9.313686392843847"><ele>73.0</ele><time>2026-05-03T14:26:21.998Z</time></trkpt><trkpt lat="45.163009109684054" lon="9.31376207628748"><ele>73.0</ele><time>2026-05-03T14:26:22.998Z</time></trkpt><trkpt lat="45.166832668842076" lon="9.315468353158563"><ele>72.5</ele><time>2026-05-03T14:27:24.998Z</time></trkpt><trkpt lat="45.16696786791561" lon="9.315494312276508"><ele>72.0</ele><time>2026-05-03T14:27:25.998Z</time></trkpt><trkpt lat="45.16710538954137" lon="9.315518798641438"><ele>71.5</ele><time>2026-05-03T14:27:26.998Z</time></trkpt><trkpt lat="45.16723819899622" lon="9.315541929975469"><ele>71.0</ele><time>2026-05-03T14:27:27.998Z</time></trkpt><trkpt lat="45.16737237166531" lon="9.315565298778695"><ele>71.0</ele><time>2026-05-03T14:27:28.998Z</time></trkpt><trkpt lat="45.16751017102044" lon="9.31558929920491"><ele>71.0</ele><time>2026-05-03T14:27:29.998Z</time></trkpt><trkpt lat="45.167645619485036" lon="9.315611119814266"><ele>71.0</ele><time>2026-05-03T14:27:30.998Z</time></trkpt><trkpt lat="45.16778123443834" lon="9.315632794775336"><ele>71.0</ele><time>2026-05-03T14:27:31.998Z</time></trkpt><trkpt lat="45.16791563418539" lon="9.315654275516428"><ele>71.0</ele><time>2026-05-03T14:27:32.998Z</time></trkpt><trkpt lat="45.168044471064995" lon="9.315674867145148"><ele>71.0</ele><time>2026-05-03T14:27:33.998Z</time></trkpt><trkpt lat="45.16817241419302" lon="9.315695315943197"><ele>71.0</ele><time>2026-05-03T14:27:34.998Z</time></trkpt><trkpt lat="45.16829840403629" lon="9.315715452545879"><ele>71.0</ele><time>2026-05-03T14:27:35.998Z</time></trkpt><trkpt lat="45.1684236096427" lon="9.315735463816928"><ele>71.0</ele><time>2026-05-03T14:27:36.998Z</time></trkpt><trkpt lat="45.16854849814647" lon="9.315731885921961"><ele>71.0</ele><time>2026-05-03T14:27:37.998Z</time></trkpt><trkpt lat="45.16867270587472" lon="9.315754162989508"><ele>71.0</ele><time>2026-05-03T14:27:38.998Z</time></trkpt><trkpt lat="45.16879871779237" lon="9.31578183808804"><ele>71.0</ele><time>2026-05-03T14:27:39.998Z</time></trkpt><trkpt lat="45.168920259760355" lon="9.315803711745984"><ele>71.0</ele><time>2026-05-03T14:27:40.998Z</time></trkpt><trkpt lat="45.16904302460347" lon="9.315817996342663"><ele>71.0</ele><time>2026-05-03T14:27:41.998Z</time></trkpt><trkpt lat="45.16916216906262" lon="9.315835029172657"><ele>71.0</ele><time>2026-05-03T14:27:42.998Z</time></trkpt><trkpt lat="45.16927887014181" lon="9.315861167659179"><ele>71.0</ele><time>2026-05-03T14:27:43.998Z</time></trkpt><trkpt lat="45.169390438454734" lon="9.315875126789356"><ele>71.0</ele><time>2026-05-03T14:27:44.997Z</time></trkpt><trkpt lat="45.169502175837266" lon="9.315898910027594"><ele>71.0</ele><time>2026-05-03T14:27:45.997Z</time></trkpt><trkpt lat="45.169614997694865" lon="9.315917194020745"><ele>71.0</ele><time>2026-05-03T14:27:46.997Z</time></trkpt><trkpt lat="45.16972850007105" lon="9.315932003467239"><ele>71.0</ele><time>2026-05-03T14:27:47.998Z</time></trkpt><trkpt lat="45.169842042206184" lon="9.315948311560406"><ele>71.25</ele><time>2026-05-03T14:27:48.999Z</time></trkpt><trkpt lat="45.16996043614063" lon="9.315966285102018"><ele>71.5</ele><time>2026-05-03T14:27:49.999Z</time></trkpt><trkpt lat="45.17007607654317" lon="9.315985274055818"><ele>71.75</ele><time>2026-05-03T14:27:50.999Z</time></trkpt><trkpt lat="45.170195816844554" lon="9.315993266119927"><ele>72.0</ele><time>2026-05-03T14:27:51.998Z</time></trkpt><trkpt lat="45.170313215097494" lon="9.316011392297495"><ele>72.0</ele><time>2026-05-03T14:27:52.998Z</time></trkpt><trkpt lat="45.170427997747495" lon="9.316029335211626"><ele>72.0</ele><time>2026-05-03T14:27:53.999Z</time></trkpt><trkpt lat="45.17054455415061" lon="9.316052513193478"><ele>72.0</ele><time>2026-05-03T14:27:54.998Z</time></trkpt><trkpt lat="45.17066293060513" lon="9.316072576042385"><ele>72.0</ele><time>2026-05-03T14:27:55.998Z</time></trkpt><trkpt lat="45.17077993027607" lon="9.316088368455917"><ele>72.0</ele><time>2026-05-03T14:27:56.999Z</time></trkpt><trkpt lat="45.17089562196663" lon="9.316103377413665"><ele>72.0</ele><time>2026-05-03T14:27:57.998Z</time></trkpt><trkpt lat="45.171011696076796" lon="9.316123932907358"><ele>72.0</ele><time>2026-05-03T14:27:58.998Z</time></trkpt><trkpt lat="45.17113231967493" lon="9.316143474841722"><ele>72.0</ele><time>2026-05-03T14:27:59.999Z</time></trkpt><trkpt lat="45.17125092919159" lon="9.316184818323926"><ele>72.0</ele><time>2026-05-03T14:28:00.998Z</time></trkpt><trkpt lat="45.17137324006428" lon="9.316204601893556"><ele>72.0</ele><time>2026-05-03T14:28:01.998Z</time></trkpt><trkpt lat="45.17149611307385" lon="9.316224509154495"><ele>72.0</ele><time>2026-05-03T14:28:02.998Z</time></trkpt><trkpt lat="45.17161893270437" lon="9.316222876778486"><ele>72.0</ele><time>2026-05-03T14:28:03.998Z</time></trkpt><trkpt lat="45.171743356655746" lon="9.31624758126449"><ele>72.0</ele><time>2026-05-03T14:28:04.998Z</time></trkpt><trkpt lat="45.17187104370141" lon="9.316273336093774"><ele>72.0</ele><time>2026-05-03T14:28:05.998Z</time></trkpt><trkpt lat="45.17199869616651" lon="9.31629312404819"><ele>72.0</ele><time>2026-05-03T14:28:06.998Z</time></trkpt><trkpt lat="45.17212590591964" lon="9.316312445361845"><ele>72.0</ele><time>2026-05-03T14:28:07.998Z</time></trkpt><trkpt lat="45.17225652849595" lon="9.316330883230611"><ele>72.0</ele><time>2026-05-03T14:28:08.998Z</time></trkpt><trkpt lat="45.17238642266621" lon="9.316367694291394"><ele>72.0</ele><time>2026-05-03T14:28:09.998Z</time></trkpt><trkpt lat="45.172516361981714" lon="9.316381858374166"><ele>72.0</ele><time>2026-05-03T14:28:10.998Z</time></trkpt><trkpt lat="45.17263850019621" lon="9.316393784278807"><ele>72.0</ele><time>2026-05-03T14:28:11.998Z</time></trkpt><trkpt lat="45.17275506637925" lon="9.316412710268255"><ele>72.0</ele><time>2026-05-03T14:28:12.998Z</time></trkpt><trkpt lat="45.172877361633226" lon="9.31643090781598"><ele>72.0</ele><time>2026-05-03T14:28:13.998Z</time></trkpt><trkpt lat="45.172997546392175" lon="9.316464191847516"><ele>72.0</ele><time>2026-05-03T14:28:14.998Z</time></trkpt><trkpt lat="45.173116734203106" lon="9.31648415378731"><ele>72.0</ele><time>2026-05-03T14:28:15.998Z</time></trkpt><trkpt lat="45.17323762862587" lon="9.316502033191771"><ele>72.0</ele><time>2026-05-03T14:28:16.998Z</time></trkpt><trkpt lat="45.17336265330813" lon="9.316526042817626"><ele>72.0</ele><time>2026-05-03T14:28:17.998Z</time></trkpt><trkpt lat="45.17348976416217" lon="9.316548252036178"><ele>72.0</ele><time>2026-05-03T14:28:18.998Z</time></trkpt><trkpt lat="45.173618265262675" lon="9.31655880275871"><ele>72.0</ele><time>2026-05-03T14:28:19.998Z</time></trkpt><trkpt lat="45.17374348216837" lon="9.316572569568486"><ele>72.0</ele><time>2026-05-03T14:28:20.998Z</time></trkpt><trkpt lat="45.17385442955547" lon="9.316589848809688"><ele>72.0</ele><time>2026-05-03T14:28:21.998Z</time></trkpt><trkpt lat="45.17396800609984" lon="9.316604279775044"><ele>72.0</ele><time>2026-05-03T14:28:22.998Z</time></trkpt><trkpt lat="45.17407969549652" lon="9.31662087847242"><ele>72.0</ele><time>2026-05-03T14:28:23.998Z</time></trkpt><trkpt lat="45.17788573119081" lon="9.31401496499999"><ele>72.2</ele><time>2026-05-03T14:29:24.998Z</time></trkpt><trkpt lat="45.17791200830751" lon="9.313881069308504"><ele>72.4</ele><time>2026-05-03T14:29:25.998Z</time></trkpt><trkpt lat="45.1779325061987" lon="9.313728486467381"><ele>72.6</ele><time>2026-05-03T14:29:26.998Z</time></trkpt><trkpt lat="45.177956398963616" lon="9.313575995861113"><ele>72.8</ele><time>2026-05-03T14:29:27.998Z</time></trkpt><trkpt lat="45.177986690481305" lon="9.313427349759223"><ele>73.0</ele><time>2026-05-03T14:29:28.998Z</time></trkpt><trkpt lat="45.17802461327297" lon="9.313295213696016"><ele>73.0</ele><time>2026-05-03T14:29:29.998Z</time></trkpt><trkpt lat="45.178081655274404" lon="9.313196570634577"><ele>73.0</ele><time>2026-05-03T14:29:30.998Z</time></trkpt><trkpt lat="45.17815914300976" lon="9.313143260512737"><ele>73.0</ele><time>2026-05-03T14:29:31.998Z</time></trkpt><trkpt lat="45.17825992456688" lon="9.313138345171694"><ele>73.0</ele><time>2026-05-03T14:29:32.998Z</time></trkpt><trkpt lat="45.17836938293358" lon="9.31318187077839"><ele>73.0</ele><time>2026-05-03T14:29:33.998Z</time></trkpt><trkpt lat="45.17849227155994" lon="9.313233041976998"><ele>73.0</ele><time>2026-05-03T14:29:34.998Z</time></trkpt><trkpt lat="45.178628170623604" lon="9.313282019760996"><ele>73.0</ele><time>2026-05-03T14:29:35.998Z</time></trkpt><trkpt lat="45.17878059009694" lon="9.313317068462826"><ele>73.0</ele><time>2026-05-03T14:29:36.998Z</time></trkpt><trkpt lat="45.17895190286246" lon="9.313366216199187"><ele>73.0</ele><time>2026-05-03T14:29:37.998Z</time></trkpt><trkpt lat="45.179132774557395" lon="9.313435231394582"><ele>73.0</ele><time>2026-05-03T14:29:38.998Z</time></trkpt><trkpt lat="45.17932012108995" lon="9.31351329436899"><ele>73.0</ele><time>2026-05-03T14:29:39.998Z</time></trkpt><trkpt lat="45.179510869483806" lon="9.31356603900625"><ele>73.0</ele><time>2026-05-03T14:29:40.998Z</time></trkpt><trkpt lat="45.17969095613294" lon="9.313628451116001"><ele>73.0</ele><time>2026-05-03T14:29:41.998Z</time></trkpt><trkpt lat="45.179865480055064" lon="9.313693370723282"><ele>73.0</ele><time>2026-05-03T14:29:42.998Z</time></trkpt><trkpt lat="45.18004851286571" lon="9.313760857236446"><ele>72.33333333333333</ele><time>2026-05-03T14:29:43.998Z</time></trkpt><trkpt lat="45.18024672424874" lon="9.313826786413776"><ele>71.66666666666667</ele><time>2026-05-03T14:29:44.998Z</time></trkpt><trkpt lat="45.180463152424515" lon="9.313892614140112"><ele>71.0</ele><time>2026-05-03T14:29:45.998Z</time></trkpt><trkpt lat="45.18068066185057" lon="9.313957671127053"><ele>70.5</ele><time>2026-05-03T14:29:46.998Z</time></trkpt><trkpt lat="45.180907143037686" lon="9.314027313767522"><ele>70.0</ele><time>2026-05-03T14:29:47.998Z</time></trkpt><trkpt lat="45.18112472180337" lon="9.3141000591993"><ele>70.0</ele><time>2026-05-03T14:29:48.998Z</time></trkpt><trkpt lat="45.18134563669075" lon="9.314196507394408"><ele>70.0</ele><time>2026-05-03T14:29:49.998Z</time></trkpt><trkpt lat="45.18156935209908" lon="9.314259855955466"><ele>70.0</ele><time>2026-05-03T14:29:50.998Z</time></trkpt><trkpt lat="45.18175571626577" lon="9.314400697622196"><ele>70.0</ele><time>2026-05-03T14:29:51.998Z</time></trkpt><trkpt lat="45.18195040447356" lon="9.314536201194615"><ele>70.0</ele><time>2026-05-03T14:29:52.998Z</time></trkpt><trkpt lat="45.18216024047365" lon="9.314680895596101"><ele>70.0</ele><time>2026-05-03T14:29:53.999Z</time></trkpt><trkpt lat="45.182368564752316" lon="9.314827056986294"><ele>70.0</ele><time>2026-05-03T14:29:54.998Z</time></trkpt><trkpt lat="45.182580342065144" lon="9.314976476578465"><ele>70.0</ele><time>2026-05-03T14:29:55.998Z</time></trkpt><trkpt lat="45.18279099212806" lon="9.315124271505033"><ele>70.0</ele><time>2026-05-03T14:29:56.999Z</time></trkpt><trkpt lat="45.183020947742385" lon="9.315275635764895"><ele>70.5</ele><time>2026-05-03T14:29:57.999Z</time></trkpt><trkpt lat="45.18324525374822" lon="9.315418674303448"><ele>71.0</ele><time>2026-05-03T14:29:58.999Z</time></trkpt><trkpt lat="45.18347708469252" lon="9.315555697373403"><ele>70.66666666666667</ele><time>2026-05-03T14:29:59.999Z</time></trkpt><trkpt lat="45.18369714788161" lon="9.315676214119414"><ele>70.33333333333333</ele><time>2026-05-03T14:30:00.999Z</time></trkpt><trkpt lat="45.183892299249976" lon="9.315780044868347"><ele>70.0</ele><time>2026-05-03T14:30:01.999Z</time></trkpt><trkpt lat="45.18402768565162" lon="9.315827221717772"><ele>70.0</ele><time>2026-05-03T14:30:02.998Z</time></trkpt><trkpt lat="45.18423820880902" lon="9.315964086813224"><ele>70.0</ele><time>2026-05-03T14:30:03.999Z</time></trkpt><trkpt lat="45.18444732654778" lon="9.316079204791917"><ele>70.0</ele><time>2026-05-03T14:30:04.999Z</time></trkpt><trkpt lat="45.18465489539807" lon="9.316194121731638"><ele>70.0</ele><time>2026-05-03T14:30:05.999Z</time></trkpt><trkpt lat="45.184862908008924" lon="9.316302529118081"><ele>70.0</ele><time>2026-05-03T14:30:06.998Z</time></trkpt><trkpt lat="45.18506336166259" lon="9.316407960579316"><ele>69.66666666666666</ele><time>2026-05-03T14:30:07.998Z</time></trkpt><trkpt lat="45.185263959277535" lon="9.316513442691928"><ele>69.33333333333333</ele><time>2026-05-03T14:30:08.998Z</time></trkpt><trkpt lat="45.18545995080841" lon="9.31661626821347"><ele>69.0</ele><time>2026-05-03T14:30:09.998Z</time></trkpt><trkpt lat="45.1856520303314" lon="9.31670954215516"><ele>69.33333333333333</ele><time>2026-05-03T14:30:10.998Z</time></trkpt><trkpt lat="45.18583862368783" lon="9.316802361818553"><ele>69.66666666666666</ele><time>2026-05-03T14:30:11.998Z</time></trkpt><trkpt lat="45.1860231063227" lon="9.316896597839158"><ele>70.0</ele><time>2026-05-03T14:30:12.998Z</time></trkpt><trkpt lat="45.186204349812456" lon="9.31699413995968"><ele>70.0</ele><time>2026-05-03T14:30:13.998Z</time></trkpt><trkpt lat="45.18638357661179" lon="9.317092470196693"><ele>70.0</ele><time>2026-05-03T14:30:14.998Z</time></trkpt><trkpt lat="45.186559403645454" lon="9.317191027911228"><ele>70.0</ele><time>2026-05-03T14:30:15.998Z</time></trkpt><trkpt lat="45.186731428824636" lon="9.317293177340385"><ele>69.33333333333333</ele><time>2026-05-03T14:30:16.998Z</time></trkpt><trkpt lat="45.18690628265228" lon="9.317391686129"><ele>68.66666666666667</ele><time>2026-05-03T14:30:17.998Z</time></trkpt><trkpt lat="45.18707963234032" lon="9.317484562593009"><ele>68.0</ele><time>2026-05-03T14:30:18.998Z</time></trkpt><trkpt lat="45.187250514239594" lon="9.31757375058647"><ele>68.0</ele><time>2026-05-03T14:30:19.998Z</time></trkpt><trkpt lat="45.18741946301114" lon="9.317661929603402"><ele>68.0</ele><time>2026-05-03T14:30:20.998Z</time></trkpt><trkpt lat="45.18758328950618" lon="9.317747435208975"><ele>68.0</ele><time>2026-05-03T14:30:21.998Z</time></trkpt><trkpt lat="45.18774840194122" lon="9.317833611959031"><ele>67.0</ele><time>2026-05-03T14:30:22.998Z</time></trkpt><trkpt lat="45.19545970409652" lon="9.31533291158371"><ele>67.0</ele><time>2026-05-03T14:31:24.998Z</time></trkpt><trkpt lat="45.19555431945349" lon="9.315271762042752"><ele>67.0</ele><time>2026-05-03T14:31:25.998Z</time></trkpt><trkpt lat="45.19564826185168" lon="9.31520259451275"><ele>67.0</ele><time>2026-05-03T14:31:26.998Z</time></trkpt><trkpt lat="45.19573985827655" lon="9.315130868444712"><ele>67.0</ele><time>2026-05-03T14:31:27.998Z</time></trkpt><trkpt lat="45.19582509232004" lon="9.31506241210937"><ele>67.0</ele><time>2026-05-03T14:31:28.998Z</time></trkpt><trkpt lat="45.195907496833556" lon="9.315001797239464"><ele>66.83333333333333</ele><time>2026-05-03T14:31:29.998Z</time></trkpt><trkpt lat="45.195988448438804" lon="9.314953826367919"><ele>66.66666666666666</ele><time>2026-05-03T14:31:30.998Z</time></trkpt><trkpt lat="45.19607742800657" lon="9.314917136450171"><ele>66.5</ele><time>2026-05-03T14:31:31.998Z</time></trkpt><trkpt lat="45.19616133000287" lon="9.314925401921865"><ele>66.33333333333333</ele><time>2026-05-03T14:31:32.998Z</time></trkpt><trkpt lat="45.19623342145511" lon="9.314971733652323"><ele>66.16666666666667</ele><time>2026-05-03T14:31:33.998Z</time></trkpt><trkpt lat="45.196323880295154" lon="9.315001727981478"><ele>66.0</ele><time>2026-05-03T14:31:35.998Z</time></trkpt><trkpt lat="45.19629635570286" lon="9.31525720553475"><ele>66.0</ele><time>2026-05-03T14:31:36.998Z</time></trkpt><trkpt lat="45.19633660628884" lon="9.315363598204726"><ele>66.0</ele><time>2026-05-03T14:31:37.998Z</time></trkpt><trkpt lat="45.19632597379089" lon="9.315507776094279"><ele>66.0</ele><time>2026-05-03T14:31:38.998Z</time></trkpt><trkpt lat="45.19635979516282" lon="9.315662164510833"><ele>66.0</ele><time>2026-05-03T14:31:39.998Z</time></trkpt><trkpt lat="45.19642646179646" lon="9.315835770873507"><ele>66.0</ele><time>2026-05-03T14:31:40.997Z</time></trkpt><trkpt lat="45.196497388716615" lon="9.315997413977978"><ele>65.75</ele><time>2026-05-03T14:31:41.997Z</time></trkpt><trkpt lat="45.19657101811497" lon="9.316157462381199"><ele>65.5</ele><time>2026-05-03T14:31:42.997Z</time></trkpt><trkpt lat="45.19665627585174" lon="9.316317418795705"><ele>65.25</ele><time>2026-05-03T14:31:43.997Z</time></trkpt><trkpt lat="45.19674517107069" lon="9.316484464092587"><ele>65.0</ele><time>2026-05-03T14:31:44.997Z</time></trkpt><trkpt lat="45.19683571737882" lon="9.316651396875105"><ele>65.0</ele><time>2026-05-03T14:31:45.997Z</time></trkpt><trkpt lat="45.196930290199475" lon="9.316825752999923"><ele>65.0</ele><time>2026-05-03T14:31:46.997Z</time></trkpt><trkpt lat="45.19701525542372" lon="9.316982396397211"><ele>65.0</ele><time>2026-05-03T14:31:47.997Z</time></trkpt><trkpt lat="45.19709938209314" lon="9.31713749381391"><ele>65.0</ele><time>2026-05-03T14:31:48.997Z</time></trkpt><trkpt lat="45.19718134160243" lon="9.317288789669234"><ele>65.0</ele><time>2026-05-03T14:31:49.997Z</time></trkpt><trkpt lat="45.19726306752141" lon="9.317440182434268"><ele>65.0</ele><time>2026-05-03T14:31:50.997Z</time></trkpt><trkpt lat="45.19734486881211" lon="9.317591714822894"><ele>65.0</ele><time>2026-05-03T14:31:51.997Z</time></trkpt><trkpt lat="45.197428177316056" lon="9.317746039240552"><ele>65.0</ele><time>2026-05-03T14:31:52.997Z</time></trkpt><trkpt lat="45.19751247088948" lon="9.317902215590209"><ele>65.0</ele><time>2026-05-03T14:31:53.997Z</time></trkpt><trkpt lat="45.19759439507725" lon="9.318054627470447"><ele>65.0</ele><time>2026-05-03T14:31:54.997Z</time></trkpt><trkpt lat="45.1976983254896" lon="9.3181940057365"><ele>65.0</ele><time>2026-05-03T14:31:55.997Z</time></trkpt><trkpt lat="45.197781784785086" lon="9.318339297867986"><ele>65.0</ele><time>2026-05-03T14:31:56.997Z</time></trkpt><trkpt lat="45.197860605702736" lon="9.318490145603407"><ele>65.0</ele><time>2026-05-03T14:31:57.997Z</time></trkpt><trkpt lat="45.19792968943674" lon="9.318634748981783"><ele>65.0</ele><time>2026-05-03T14:31:58.997Z</time></trkpt><trkpt lat="45.197988351719665" lon="9.318784232082974"><ele>65.0</ele><time>2026-05-03T14:31:59.999Z</time></trkpt><trkpt lat="45.1980538228154" lon="9.318905167121258"><ele>65.0</ele><time>2026-05-03T14:32:00.999Z</time></trkpt><trkpt lat="45.19811955043308" lon="9.319026575996062"><ele>65.0</ele><time>2026-05-03T14:32:01.999Z</time></trkpt><trkpt lat="45.19818068936026" lon="9.319139508863438"><ele>65.0</ele><time>2026-05-03T14:32:02.999Z</time></trkpt><trkpt lat="45.19823862721694" lon="9.319246528867714"><ele>65.0</ele><time>2026-05-03T14:32:03.998Z</time></trkpt><trkpt lat="45.19828495029926" lon="9.31933209462099"><ele>65.0</ele><time>2026-05-03T14:32:04.998Z</time></trkpt><trkpt lat="45.19833232128963" lon="9.319419596020534"><ele>65.0</ele><time>2026-05-03T14:32:06Z</time></trkpt><trkpt lat="45.19839546385229" lon="9.319536229903033"><ele>65.0</ele><time>2026-05-03T14:32:07.999Z</time></trkpt><trkpt lat="45.19844875871832" lon="9.319634673594152"><ele>65.0</ele><time>2026-05-03T14:32:09.999Z</time></trkpt><trkpt lat="45.1984890308332" lon="9.319709062293859"><ele>65.0</ele><time>2026-05-03T14:32:11.999Z</time></trkpt><trkpt lat="45.198531266733724" lon="9.319787078404987"><ele>65.0</ele><time>2026-05-03T14:32:15.999Z</time></trkpt><trkpt lat="45.20221244698295" lon="9.328701543132677"><ele>66.25</ele><time>2026-05-03T14:33:24.999Z</time></trkpt><trkpt lat="45.20226285000514" lon="9.328904894773146"><ele>67.5</ele><time>2026-05-03T14:33:25.999Z</time></trkpt><trkpt lat="45.20231125563047" lon="9.329104472954219"><ele>68.75</ele><time>2026-05-03T14:33:26.999Z</time></trkpt><trkpt lat="45.20235670002055" lon="9.329291841830935"><ele>70.0</ele><time>2026-05-03T14:33:27.999Z</time></trkpt><trkpt lat="45.20239998729901" lon="9.329470316861327"><ele>70.0</ele><time>2026-05-03T14:33:28.999Z</time></trkpt><trkpt lat="45.202443577999325" lon="9.329650042924927"><ele>70.0</ele><time>2026-05-03T14:33:29.999Z</time></trkpt><trkpt lat="45.20248684553826" lon="9.329828436571754"><ele>70.0</ele><time>2026-05-03T14:33:30.999Z</time></trkpt><trkpt lat="45.202530082891265" lon="9.330006705573764"><ele>70.0</ele><time>2026-05-03T14:33:31.999Z</time></trkpt><trkpt lat="45.20258337873666" lon="9.330145248176944"><ele>70.2</ele><time>2026-05-03T14:33:32.999Z</time></trkpt><trkpt lat="45.20261961982373" lon="9.330284708741173"><ele>70.4</ele><time>2026-05-03T14:33:33.999Z</time></trkpt><trkpt lat="45.20263600806859" lon="9.330399693462994"><ele>70.6</ele><time>2026-05-03T14:33:34.999Z</time></trkpt><trkpt lat="45.20263193127968" lon="9.330526323570519"><ele>70.8</ele><time>2026-05-03T14:33:35.999Z</time></trkpt><trkpt lat="45.202614152452455" lon="9.330647665680548"><ele>71.0</ele><time>2026-05-03T14:33:36.999Z</time></trkpt><trkpt lat="45.20257929037088" lon="9.33076006778039"><ele>71.0</ele><time>2026-05-03T14:33:37.999Z</time></trkpt><trkpt lat="45.20257387196663" lon="9.330876154003116"><ele>71.0</ele><time>2026-05-03T14:33:38.999Z</time></trkpt><trkpt lat="45.20262554439595" lon="9.331010632785853"><ele>71.0</ele><time>2026-05-03T14:33:39.999Z</time></trkpt><trkpt lat="45.20272216431059" lon="9.331094724682151"><ele>71.0</ele><time>2026-05-03T14:33:40.999Z</time></trkpt><trkpt lat="45.202813377672044" lon="9.331192289233833"><ele>71.0</ele><time>2026-05-03T14:33:41.999Z</time></trkpt><trkpt lat="45.2028716456575" lon="9.331339677787092"><ele>71.0</ele><time>2026-05-03T14:33:42.999Z</time></trkpt><trkpt lat="45.20290993109738" lon="9.3315130668393"><ele>71.0</ele><time>2026-05-03T14:33:43.999Z</time></trkpt><trkpt lat="45.20297892278363" lon="9.33169350260324"><ele>71.0</ele><time>2026-05-03T14:33:44.999Z</time></trkpt><trkpt lat="45.203041928490684" lon="9.331924050313848"><ele>71.0</ele><time>2026-05-03T14:33:45.999Z</time></trkpt><trkpt lat="45.20311312020834" lon="9.332166434178477"><ele>70.33333333333334</ele><time>2026-05-03T14:33:46.999Z</time></trkpt><trkpt lat="45.203187128404295" lon="9.332443472399223"><ele>69.66666666666667</ele><time>2026-05-03T14:33:47.999Z</time></trkpt><trkpt lat="45.20326166160514" lon="9.332741363484216"><ele>69.0</ele><time>2026-05-03T14:33:48.999Z</time></trkpt><trkpt lat="45.203279997204014" lon="9.333073066622783"><ele>69.0</ele><time>2026-05-03T14:33:49.999Z</time></trkpt><trkpt lat="45.20335562011089" lon="9.333382142517635"><ele>69.0</ele><time>2026-05-03T14:33:50.999Z</time></trkpt><trkpt lat="45.20343285959879" lon="9.333697825481881"><ele>69.5</ele><time>2026-05-03T14:33:51.999Z</time></trkpt><trkpt lat="45.20351421324333" lon="9.334030323284791"><ele>70.0</ele><time>2026-05-03T14:33:52.999Z</time></trkpt><trkpt lat="45.2035938636164" lon="9.33435642978038"><ele>70.0</ele><time>2026-05-03T14:33:53.999Z</time></trkpt><trkpt lat="45.203672311331665" lon="9.334678237206674"><ele>70.0</ele><time>2026-05-03T14:33:54.999Z</time></trkpt><trkpt lat="45.20374921465593" lon="9.334993709223822"><ele>69.66666666666666</ele><time>2026-05-03T14:33:55.999Z</time></trkpt><trkpt lat="45.2038213918559" lon="9.335289793795583"><ele>69.33333333333333</ele><time>2026-05-03T14:33:56.999Z</time></trkpt><trkpt lat="45.20388735655943" lon="9.335558696048533"><ele>69.0</ele><time>2026-05-03T14:33:57.999Z</time></trkpt><trkpt lat="45.20395561417094" lon="9.335837763535453"><ele>69.5</ele><time>2026-05-03T14:33:58.999Z</time></trkpt><trkpt lat="45.20402770424064" lon="9.336132674537122"><ele>70.0</ele><time>2026-05-03T14:33:59.999Z</time></trkpt><trkpt lat="45.20410659433423" lon="9.336455403622576"><ele>71.0</ele><time>2026-05-03T14:34:00.999Z</time></trkpt><trkpt lat="45.20418885024748" lon="9.336791901773172"><ele>72.0</ele><time>2026-05-03T14:34:01.999Z</time></trkpt><trkpt lat="45.204271792281205" lon="9.33713120679211"><ele>70.5</ele><time>2026-05-03T14:34:02.999Z</time></trkpt><trkpt lat="45.20435230131746" lon="9.337460558716272"><ele>69.0</ele><time>2026-05-03T14:34:03.999Z</time></trkpt><trkpt lat="45.20442614292352" lon="9.3377626350425"><ele>69.0</ele><time>2026-05-03T14:34:04.999Z</time></trkpt><trkpt lat="45.204495390132834" lon="9.338045916332248"><ele>69.0</ele><time>2026-05-03T14:34:05.999Z</time></trkpt><trkpt lat="45.20456279779617" lon="9.338321672294969"><ele>69.0</ele><time>2026-05-03T14:34:06.999Z</time></trkpt><trkpt lat="45.20462906917459" lon="9.338591948584307"><ele>69.0</ele><time>2026-05-03T14:34:07.999Z</time></trkpt><trkpt lat="45.20469762849957" lon="9.338871285005023"><ele>69.0</ele><time>2026-05-03T14:34:09Z</time></trkpt><trkpt lat="45.20477080070606" lon="9.339170470314945"><ele>69.0</ele><time>2026-05-03T14:34:09.999Z</time></trkpt><trkpt lat="45.20484621242075" lon="9.339482313786602"><ele>69.5</ele><time>2026-05-03T14:34:10.999Z</time></trkpt><trkpt lat="45.20492445324861" lon="9.339805855181845"><ele>70.0</ele><time>2026-05-03T14:34:11.999Z</time></trkpt><trkpt lat="45.20500633802663" lon="9.340144465728947"><ele>70.0</ele><time>2026-05-03T14:34:13Z</time></trkpt><trkpt lat="45.20509167599259" lon="9.340497355742556"><ele>70.0</ele><time>2026-05-03T14:34:14Z</time></trkpt><trkpt lat="45.20517965996093" lon="9.340861187450038"><ele>70.0</ele><time>2026-05-03T14:34:14.999Z</time></trkpt><trkpt lat="45.20527001077997" lon="9.341237024544094"><ele>70.0</ele><time>2026-05-03T14:34:15.999Z</time></trkpt><trkpt lat="45.205361319814756" lon="9.341617681318423"><ele>69.5</ele><time>2026-05-03T14:34:16.999Z</time></trkpt><trkpt lat="45.20545059715735" lon="9.34198986834672"><ele>69.0</ele><time>2026-05-03T14:34:18Z</time></trkpt><trkpt lat="45.20553826372899" lon="9.342355340194304"><ele>68.5</ele><time>2026-05-03T14:34:19Z</time></trkpt><trkpt lat="45.205624729810005" lon="9.342708142022468"><ele>68.0</ele><time>2026-05-03T14:34:20Z</time></trkpt><trkpt lat="45.20570808479128" lon="9.343045227579847"><ele>68.5</ele><time>2026-05-03T14:34:21Z</time></trkpt><trkpt lat="45.205791797574996" lon="9.34336822030507"><ele>69.0</ele><time>2026-05-03T14:34:22Z</time></trkpt><trkpt lat="45.20588353566095" lon="9.343668052399728"><ele>68.5</ele><time>2026-05-03T14:34:23Z</time></trkpt><trkpt lat="45.205994375703504" lon="9.34394996729765"><ele>68.0</ele><time>2026-05-03T14:34:24Z</time></trkpt><trkpt lat="45.210666522016936" lon="9.355822811129473"><ele>68.33333333333334</ele><time>2026-05-03T14:35:24.999Z</time></trkpt><trkpt lat="45.21073777646762" lon="9.35581220128237"><ele>68.66666666666667</ele><time>2026-05-03T14:35:25.999Z</time></trkpt><trkpt lat="45.21080882556705" lon="9.355767823974984"><ele>69.0</ele><time>2026-05-03T14:35:26.999Z</time></trkpt><trkpt lat="45.21086675346764" lon="9.355695089976136"><ele>69.33333333333333</ele><time>2026-05-03T14:35:27.999Z</time></trkpt><trkpt lat="45.210938735049716" lon="9.355663724201348"><ele>69.66666666666666</ele><time>2026-05-03T14:35:28.999Z</time></trkpt><trkpt lat="45.211011073116204" lon="9.355678299815747"><ele>70.0</ele><time>2026-05-03T14:35:29.999Z</time></trkpt><trkpt lat="45.211091452272775" lon="9.355727976286177"><ele>70.0</ele><time>2026-05-03T14:35:30.999Z</time></trkpt><trkpt lat="45.21116996627225" lon="9.35578583194764"><ele>70.0</ele><time>2026-05-03T14:35:31.999Z</time></trkpt><trkpt lat="45.21126585126103" lon="9.355829138177098"><ele>70.0</ele><time>2026-05-03T14:35:32.999Z</time></trkpt><trkpt lat="45.211350432355495" lon="9.355878652248935"><ele>70.0</ele><time>2026-05-03T14:35:33.999Z</time></trkpt><trkpt lat="45.21142719983027" lon="9.355923917879112"><ele>70.0</ele><time>2026-05-03T14:35:34.999Z</time></trkpt><trkpt lat="45.21151432849452" lon="9.355967678365246"><ele>69.83333333333333</ele><time>2026-05-03T14:35:35.999Z</time></trkpt><trkpt lat="45.21160339327907" lon="9.356008863223417"><ele>69.66666666666666</ele><time>2026-05-03T14:35:36.999Z</time></trkpt><trkpt lat="45.21168688774241" lon="9.356053224362677"><ele>69.5</ele><time>2026-05-03T14:35:37.999Z</time></trkpt><trkpt lat="45.211763839613624" lon="9.356094298553066"><ele>69.33333333333333</ele><time>2026-05-03T14:35:38.999Z</time></trkpt><trkpt lat="45.21184337098714" lon="9.356140055201704"><ele>69.16666666666667</ele><time>2026-05-03T14:35:39.999Z</time></trkpt><trkpt lat="45.211931425676866" lon="9.356178592031"><ele>69.0</ele><time>2026-05-03T14:35:40.999Z</time></trkpt><trkpt lat="45.21202013757462" lon="9.356229344881944"><ele>69.0</ele><time>2026-05-03T14:35:41.999Z</time></trkpt><trkpt lat="45.21211133534795" lon="9.356278759467642"><ele>69.0</ele><time>2026-05-03T14:35:42.999Z</time></trkpt><trkpt lat="45.21220600080514" lon="9.356321974433607"><ele>69.0</ele><time>2026-05-03T14:35:43.999Z</time></trkpt><trkpt lat="45.212303378827585" lon="9.356370866409746"><ele>69.0</ele><time>2026-05-03T14:35:44.999Z</time></trkpt><trkpt lat="45.212401259987296" lon="9.356433879341681"><ele>69.0</ele><time>2026-05-03T14:35:45.999Z</time></trkpt><trkpt lat="45.21249850275393" lon="9.35651098639464"><ele>69.2</ele><time>2026-05-03T14:35:46.999Z</time></trkpt><trkpt lat="45.21259164576332" lon="9.356589662437147"><ele>69.4</ele><time>2026-05-03T14:35:47.999Z</time></trkpt><trkpt lat="45.2126818866612" lon="9.35666884578895"><ele>69.6</ele><time>2026-05-03T14:35:48.999Z</time></trkpt><trkpt lat="45.212771644645116" lon="9.356746444127396"><ele>69.8</ele><time>2026-05-03T14:35:49.999Z</time></trkpt><trkpt lat="45.212847884266324" lon="9.356853235473386"><ele>70.0</ele><time>2026-05-03T14:35:50.999Z</time></trkpt><trkpt lat="45.21292705996893" lon="9.356952344568036"><ele>70.0</ele><time>2026-05-03T14:35:51.999Z</time></trkpt><trkpt lat="45.21300321913006" lon="9.357054264345228"><ele>70.0</ele><time>2026-05-03T14:35:52.999Z</time></trkpt><trkpt lat="45.21307925437139" lon="9.357166100846609"><ele>70.0</ele><time>2026-05-03T14:35:53.999Z</time></trkpt><trkpt lat="45.21315217831788" lon="9.357283252610022"><ele>70.0</ele><time>2026-05-03T14:35:54.999Z</time></trkpt><trkpt lat="45.213221634576" lon="9.357405279262052"><ele>70.0</ele><time>2026-05-03T14:35:55.999Z</time></trkpt><trkpt lat="45.21328811049389" lon="9.357524897128595"><ele>69.8</ele><time>2026-05-03T14:35:56.999Z</time></trkpt><trkpt lat="45.21335441033868" lon="9.357644899753565"><ele>69.6</ele><time>2026-05-03T14:35:57.999Z</time></trkpt><trkpt lat="45.21341508473241" lon="9.357758874832996"><ele>69.4</ele><time>2026-05-03T14:35:58.999Z</time></trkpt><trkpt lat="45.21347875238129" lon="9.357878472654372"><ele>69.2</ele><time>2026-05-03T14:35:59.999Z</time></trkpt><trkpt lat="45.21353307170603" lon="9.357980509920676"><ele>69.0</ele><time>2026-05-03T14:36:00.999Z</time></trkpt><trkpt lat="45.213573722274894" lon="9.358056870826529"><ele>69.33333333333333</ele><time>2026-05-03T14:36:01.999Z</time></trkpt><trkpt lat="45.213646519134656" lon="9.35819361760224"><ele>69.66666666666667</ele><time>2026-05-03T14:36:03.999Z</time></trkpt><trkpt lat="45.21368737977398" lon="9.358270373120995"><ele>70.0</ele><time>2026-05-03T14:36:04.999Z</time></trkpt><trkpt lat="45.21372902484212" lon="9.358348602165433"><ele>70.33333333333334</ele><time>2026-05-03T14:36:05.999Z</time></trkpt><trkpt lat="45.21376724006009" lon="9.358420388338896"><ele>70.66666666666667</ele><time>2026-05-03T14:36:06.999Z</time></trkpt><trkpt lat="45.21382404374035" lon="9.358547581601114"><ele>71.0</ele><time>2026-05-03T14:36:08.999Z</time></trkpt><trkpt lat="45.21378908842764" lon="9.35864055566287"><ele>71.0</ele><time>2026-05-03T14:36:10.999Z</time></trkpt><trkpt lat="45.213759480942876" lon="9.358721694581599"><ele>71.0</ele><time>2026-05-03T14:36:15.999Z</time></trkpt><trkpt lat="45.21371381107058" lon="9.358538279742413"><ele>71.0</ele><time>2026-05-03T14:38:21.001Z</time></trkpt></trkseg></trk></gpx>